<?xml version='1.0' encoding='UTF-8'?><gpx version="1.1" creator="JPX - https://github.com/jenetics/jpx" xmlns="http://www.topografix.com/GPX/1/1"><trk><trkseg><trkpt lat="42.5217363" lon="14.1520788"><ele>0.0</ele><time>2026-05-01T07:09:21.585Z</time></trkpt><trkpt lat="42.5217757" lon="14.1521729"><ele>0.0</ele><time>2026-05-01T07:09:31.575Z</time></trkpt><trkpt lat="42.5218302" lon="14.1522337"><ele>0.0</ele><time>2026-05-01T07:10:01.584Z</time></trkpt><trkpt lat="42.5218528" lon="14.1523301"><ele>0.0</ele><time>2026-05-01T07:10:25.574Z</time></trkpt><trkpt lat="42.521894" lon="14.1524085"><ele>0.0</ele><time>2026-05-01T07:10:31.568Z</time></trkpt><trkpt lat="42.5219226" lon="14.1524975"><ele>0.0</ele><time>2026-05-01T07:13:39.579Z</time></trkpt><trkpt lat="42.5219588" lon="14.1525847"><ele>0.0</ele><time>2026-05-01T07:15:55.557Z</time></trkpt><trkpt lat="42.5219953" lon="14.1526601"><ele>0.5</ele><time>2026-05-01T07:16:33.559Z</time></trkpt><trkpt lat="42.5220671" lon="14.152811"><ele>1.0</ele><time>2026-05-01T07:17:07.545Z</time></trkpt><trkpt lat="42.522149" lon="14.1529745"><ele>1.5</ele><time>2026-05-01T07:17:09.552Z</time></trkpt><trkpt lat="42.5222105" lon="14.1531104"><ele>2.0</ele><time>2026-05-01T07:17:11.542Z</time></trkpt><trkpt lat="42.5222655" lon="14.153185"><ele>2.0</ele><time>2026-05-01T07:17:13.545Z</time></trkpt><trkpt lat="42.5223818" lon="14.1531215"><ele>2.0</ele><time>2026-05-01T07:17:15.549Z</time></trkpt><trkpt lat="42.5224775" lon="14.1530193"><ele>2.0</ele><time>2026-05-01T07:17:17.55Z</time></trkpt><trkpt lat="42.5225918" lon="14.1529366"><ele>2.0</ele><time>2026-05-01T07:17:19.548Z</time></trkpt><trkpt lat="42.5226737" lon="14.1528736"><ele>2.0</ele><time>2026-05-01T07:17:21.546Z</time></trkpt><trkpt lat="42.5227259" lon="14.1529343"><ele>2.0</ele><time>2026-05-01T07:17:23.549Z</time></trkpt><trkpt lat="42.5226779" lon="14.1530378"><ele>2.0</ele><time>2026-05-01T07:17:27.571Z</time></trkpt><trkpt lat="42.5225636" lon="14.1530778"><ele>2.0</ele><time>2026-05-01T07:17:55.564Z</time></trkpt><trkpt lat="42.5224473" lon="14.153193"><ele>2.0</ele><time>2026-05-01T07:17:57.576Z</time></trkpt><trkpt lat="42.5223153" lon="14.153306"><ele>2.0</ele><time>2026-05-01T07:17:59.565Z</time></trkpt><trkpt lat="42.522192" lon="14.1534263"><ele>2.0</ele><time>2026-05-01T07:18:01.564Z</time></trkpt><trkpt lat="42.5220926" lon="14.153503"><ele>2.0</ele><time>2026-05-01T07:18:03.561Z</time></trkpt><trkpt lat="42.5220174" lon="14.1535669"><ele>2.0</ele><time>2026-05-01T07:18:05.566Z</time></trkpt><trkpt lat="42.5219564" lon="14.15363"><ele>2.0</ele><time>2026-05-01T07:18:07.564Z</time></trkpt><trkpt lat="42.5219092" lon="14.1538614"><ele>1.6666666666666665</ele><time>2026-05-01T07:18:13.573Z</time></trkpt><trkpt lat="42.5219695" lon="14.1540902"><ele>1.3333333333333333</ele><time>2026-05-01T07:18:15.553Z</time></trkpt><trkpt lat="42.5220877" lon="14.1543801"><ele>1.0</ele><time>2026-05-01T07:18:17.555Z</time></trkpt><trkpt lat="42.5221635" lon="14.1547336"><ele>6.0</ele><time>2026-05-01T07:18:19.547Z</time></trkpt><trkpt lat="42.522186" lon="14.1551093"><ele>11.0</ele><time>2026-05-01T07:18:21.545Z</time></trkpt><trkpt lat="42.5221417" lon="14.1555114"><ele>7.0</ele><time>2026-05-01T07:18:23.549Z</time></trkpt><trkpt lat="42.5220565" lon="14.1558971"><ele>3.0</ele><time>2026-05-01T07:18:25.553Z</time></trkpt><trkpt lat="42.5219311" lon="14.1562559"><ele>3.0</ele><time>2026-05-01T07:18:27.564Z</time></trkpt><trkpt lat="42.5217578" lon="14.1565281"><ele>3.0</ele><time>2026-05-01T07:18:29.569Z</time></trkpt><trkpt lat="42.5215766" lon="14.1567615"><ele>3.0</ele><time>2026-05-01T07:18:31.565Z</time></trkpt><trkpt lat="42.5214019" lon="14.1569379"><ele>3.0</ele><time>2026-05-01T07:18:33.577Z</time></trkpt><trkpt lat="42.5212145" lon="14.1571214"><ele>3.0</ele><time>2026-05-01T07:18:35.579Z</time></trkpt><trkpt lat="42.5210583" lon="14.1572814"><ele>2.6666666666666665</ele><time>2026-05-01T07:18:37.577Z</time></trkpt><trkpt lat="42.520919" lon="14.1574324"><ele>2.333333333333333</ele><time>2026-05-01T07:18:39.579Z</time></trkpt><trkpt lat="42.520777" lon="14.1575796"><ele>2.0</ele><time>2026-05-01T07:18:41.581Z</time></trkpt><trkpt lat="42.5206232" lon="14.1577386"><ele>2.0</ele><time>2026-05-01T07:18:43.572Z</time></trkpt><trkpt lat="42.5204626" lon="14.1579076"><ele>2.0</ele><time>2026-05-01T07:18:45.575Z</time></trkpt><trkpt lat="42.520313" lon="14.1580664"><ele>2.0</ele><time>2026-05-01T07:18:47.576Z</time></trkpt><trkpt lat="42.5201893" lon="14.1582078"><ele>2.333333333333333</ele><time>2026-05-01T07:18:49.574Z</time></trkpt><trkpt lat="42.5200735" lon="14.1583333"><ele>2.6666666666666665</ele><time>2026-05-01T07:18:51.586Z</time></trkpt><trkpt lat="42.519946" lon="14.1584648"><ele>3.0</ele><time>2026-05-01T07:18:53.575Z</time></trkpt><trkpt lat="42.5198122" lon="14.1586116"><ele>3.0</ele><time>2026-05-01T07:18:55.576Z</time></trkpt><trkpt lat="42.5196695" lon="14.1587557"><ele>3.0</ele><time>2026-05-01T07:18:57.576Z</time></trkpt><trkpt lat="42.5195564" lon="14.1588794"><ele>3.0</ele><time>2026-05-01T07:18:59.574Z</time></trkpt><trkpt lat="42.5194658" lon="14.1589814"><ele>3.0</ele><time>2026-05-01T07:19:01.582Z</time></trkpt><trkpt lat="42.5193776" lon="14.1590342"><ele>2.8333333333333335</ele><time>2026-05-01T07:19:03.57Z</time></trkpt><trkpt lat="42.5192995" lon="14.1589587"><ele>2.6666666666666665</ele><time>2026-05-01T07:19:05.569Z</time></trkpt><trkpt lat="42.5192436" lon="14.1589182"><ele>2.5</ele><time>2026-05-01T07:19:09.573Z</time></trkpt><trkpt lat="42.519159" lon="14.1589909"><ele>2.333333333333333</ele><time>2026-05-01T07:24:35.577Z</time></trkpt><trkpt lat="42.5191526" lon="14.1590842"><ele>2.1666666666666665</ele><time>2026-05-01T07:25:05.58Z</time></trkpt><trkpt lat="42.5191931" lon="14.1591808"><ele>2.0</ele><time>2026-05-01T07:25:09.593Z</time></trkpt><trkpt lat="42.5191848" lon="14.1593285"><ele>2.0</ele><time>2026-05-01T07:25:13.575Z</time></trkpt><trkpt lat="42.5190549" lon="14.1594325"><ele>2.0</ele><time>2026-05-01T07:25:15.574Z</time></trkpt><trkpt lat="42.5189116" lon="14.1595887"><ele>2.0</ele><time>2026-05-01T07:25:17.564Z</time></trkpt><trkpt lat="42.5187508" lon="14.1597645"><ele>1.0</ele><time>2026-05-01T07:25:19.637Z</time></trkpt><trkpt lat="42.5185816" lon="14.1599501"><ele>0.0</ele><time>2026-05-01T07:25:21.64Z</time></trkpt><trkpt lat="42.5184072" lon="14.1601449"><ele>-1.0</ele><time>2026-05-01T07:25:23.645Z</time></trkpt><trkpt lat="42.5182314" lon="14.1603331"><ele>-1.0</ele><time>2026-05-01T07:25:25.646Z</time></trkpt><trkpt lat="42.5180788" lon="14.160496"><ele>-1.0</ele><time>2026-05-01T07:25:27.644Z</time></trkpt><trkpt lat="42.5179438" lon="14.1606236"><ele>-1.0</ele><time>2026-05-01T07:25:29.645Z</time></trkpt><trkpt lat="42.5178092" lon="14.1607732"><ele>0.33333333333333337</ele><time>2026-05-01T07:25:31.645Z</time></trkpt><trkpt lat="42.5176668" lon="14.1609281"><ele>1.6666666666666667</ele><time>2026-05-01T07:25:33.64Z</time></trkpt><trkpt lat="42.5175093" lon="14.1610942"><ele>3.0</ele><time>2026-05-01T07:25:35.639Z</time></trkpt><trkpt lat="42.5173327" lon="14.1612713"><ele>3.0</ele><time>2026-05-01T07:25:37.627Z</time></trkpt><trkpt lat="42.5171832" lon="14.161424"><ele>3.0</ele><time>2026-05-01T07:25:39.618Z</time></trkpt><trkpt lat="42.5170472" lon="14.1615681"><ele>3.0</ele><time>2026-05-01T07:25:41.628Z</time></trkpt><trkpt lat="42.5169018" lon="14.1617218"><ele>3.333333333333333</ele><time>2026-05-01T07:25:43.63Z</time></trkpt><trkpt lat="42.516746" lon="14.1618824"><ele>3.6666666666666665</ele><time>2026-05-01T07:25:45.626Z</time></trkpt><trkpt lat="42.5165898" lon="14.1620455"><ele>4.0</ele><time>2026-05-01T07:25:47.631Z</time></trkpt><trkpt lat="42.5164395" lon="14.1622063"><ele>4.0</ele><time>2026-05-01T07:25:49.636Z</time></trkpt><trkpt lat="42.5162856" lon="14.1623744"><ele>4.0</ele><time>2026-05-01T07:25:51.643Z</time></trkpt><trkpt lat="42.516127" lon="14.1625429"><ele>4.0</ele><time>2026-05-01T07:25:53.643Z</time></trkpt><trkpt lat="42.5159716" lon="14.1627075"><ele>4.0</ele><time>2026-05-01T07:25:55.639Z</time></trkpt><trkpt lat="42.5158074" lon="14.1628828"><ele>4.0</ele><time>2026-05-01T07:25:57.638Z</time></trkpt><trkpt lat="42.5156276" lon="14.163077"><ele>4.0</ele><time>2026-05-01T07:25:59.631Z</time></trkpt><trkpt lat="42.5154396" lon="14.1632782"><ele>3.0</ele><time>2026-05-01T07:26:01.636Z</time></trkpt><trkpt lat="42.5152451" lon="14.1634829"><ele>2.0</ele><time>2026-05-01T07:26:03.638Z</time></trkpt><trkpt lat="42.5150544" lon="14.1636912"><ele>2.0</ele><time>2026-05-01T07:26:05.635Z</time></trkpt><trkpt lat="42.514872" lon="14.1638818"><ele>2.0</ele><time>2026-05-01T07:26:07.634Z</time></trkpt><trkpt lat="42.5147104" lon="14.1640584"><ele>2.0</ele><time>2026-05-01T07:26:09.635Z</time></trkpt><trkpt lat="42.5145581" lon="14.1642238"><ele>1.5</ele><time>2026-05-01T07:26:11.646Z</time></trkpt><trkpt lat="42.5143825" lon="14.1643987"><ele>1.0</ele><time>2026-05-01T07:26:13.651Z</time></trkpt><trkpt lat="42.5141959" lon="14.164603"><ele>1.0</ele><time>2026-05-01T07:26:15.641Z</time></trkpt><trkpt lat="42.5140019" lon="14.1648078"><ele>1.0</ele><time>2026-05-01T07:26:17.634Z</time></trkpt><trkpt lat="42.5138069" lon="14.1650134"><ele>1.5</ele><time>2026-05-01T07:26:19.643Z</time></trkpt><trkpt lat="42.5136157" lon="14.1652306"><ele>2.0</ele><time>2026-05-01T07:26:21.639Z</time></trkpt><trkpt lat="42.5134222" lon="14.1654484"><ele>2.0</ele><time>2026-05-01T07:26:23.635Z</time></trkpt><trkpt lat="42.5132253" lon="14.1656535"><ele>2.0</ele><time>2026-05-01T07:26:25.64Z</time></trkpt><trkpt lat="42.5130397" lon="14.1658459"><ele>2.5</ele><time>2026-05-01T07:26:27.648Z</time></trkpt><trkpt lat="42.5128501" lon="14.166059"><ele>3.0</ele><time>2026-05-01T07:26:29.646Z</time></trkpt><trkpt lat="42.5126536" lon="14.1662795"><ele>3.0</ele><time>2026-05-01T07:26:31.647Z</time></trkpt><trkpt lat="42.5124629" lon="14.1664846"><ele>3.0</ele><time>2026-05-01T07:26:33.646Z</time></trkpt><trkpt lat="42.512291" lon="14.1666716"><ele>2.6666666666666665</ele><time>2026-05-01T07:26:35.644Z</time></trkpt><trkpt lat="42.5121162" lon="14.1668554"><ele>2.333333333333333</ele><time>2026-05-01T07:26:37.645Z</time></trkpt><trkpt lat="42.5119462" lon="14.1670392"><ele>2.0</ele><time>2026-05-01T07:26:39.647Z</time></trkpt><trkpt lat="42.5117821" lon="14.1672119"><ele>1.3333333333333333</ele><time>2026-05-01T07:26:41.644Z</time></trkpt><trkpt lat="42.5116209" lon="14.1673868"><ele>0.6666666666666666</ele><time>2026-05-01T07:26:43.649Z</time></trkpt><trkpt lat="42.5114543" lon="14.1675644"><ele>0.0</ele><time>2026-05-01T07:26:45.647Z</time></trkpt><trkpt lat="42.5112817" lon="14.1677462"><ele>0.6666666666666666</ele><time>2026-05-01T07:26:47.653Z</time></trkpt><trkpt lat="42.51112" lon="14.1679219"><ele>1.3333333333333333</ele><time>2026-05-01T07:26:49.646Z</time></trkpt><trkpt lat="42.5109749" lon="14.1680698"><ele>2.0</ele><time>2026-05-01T07:26:51.645Z</time></trkpt><trkpt lat="42.5108455" lon="14.1682001"><ele>2.0</ele><time>2026-05-01T07:26:53.648Z</time></trkpt><trkpt lat="42.5107121" lon="14.1683393"><ele>2.0</ele><time>2026-05-01T07:26:55.644Z</time></trkpt><trkpt lat="42.5105766" lon="14.168486"><ele>2.0</ele><time>2026-05-01T07:26:57.648Z</time></trkpt><trkpt lat="42.5104601" lon="14.1686219"><ele>1.75</ele><time>2026-05-01T07:26:59.654Z</time></trkpt><trkpt lat="42.5103546" lon="14.168744"><ele>1.5</ele><time>2026-05-01T07:27:01.657Z</time></trkpt><trkpt lat="42.5102562" lon="14.1688446"><ele>1.25</ele><time>2026-05-01T07:27:03.655Z</time></trkpt><trkpt lat="42.5101727" lon="14.1689251"><ele>1.0</ele><time>2026-05-01T07:27:05.647Z</time></trkpt><trkpt lat="42.5100942" lon="14.1689734"><ele>1.0</ele><time>2026-05-01T07:27:07.645Z</time></trkpt><trkpt lat="42.509979" lon="14.1690147"><ele>1.0</ele><time>2026-05-01T07:27:09.644Z</time></trkpt><trkpt lat="42.5098866" lon="14.169126"><ele>1.0</ele><time>2026-05-01T07:27:11.634Z</time></trkpt><trkpt lat="42.5097655" lon="14.1692862"><ele>1.0</ele><time>2026-05-01T07:27:13.532Z</time></trkpt><trkpt lat="42.5096146" lon="14.1694441"><ele>1.0</ele><time>2026-05-01T07:27:15.542Z</time></trkpt><trkpt lat="42.5094454" lon="14.1696034"><ele>1.0</ele><time>2026-05-01T07:27:17.562Z</time></trkpt><trkpt lat="42.5092702" lon="14.1697629"><ele>1.0</ele><time>2026-05-01T07:27:19.56Z</time></trkpt><trkpt lat="42.5091178" lon="14.1699049"><ele>1.0</ele><time>2026-05-01T07:27:21.553Z</time></trkpt><trkpt lat="42.5089804" lon="14.1700372"><ele>1.0</ele><time>2026-05-01T07:27:23.553Z</time></trkpt><trkpt lat="42.508831" lon="14.170179"><ele>1.0</ele><time>2026-05-01T07:27:25.55Z</time></trkpt><trkpt lat="42.5086785" lon="14.1703253"><ele>1.3333333333333333</ele><time>2026-05-01T07:27:27.552Z</time></trkpt><trkpt lat="42.5085426" lon="14.1704402"><ele>1.6666666666666665</ele><time>2026-05-01T07:27:29.55Z</time></trkpt><trkpt lat="42.5083927" lon="14.1705504"><ele>2.0</ele><time>2026-05-01T07:27:31.547Z</time></trkpt><trkpt lat="42.5082326" lon="14.1706999"><ele>2.0</ele><time>2026-05-01T07:27:33.554Z</time></trkpt><trkpt lat="42.5080594" lon="14.1708692"><ele>2.0</ele><time>2026-05-01T07:27:35.551Z</time></trkpt><trkpt lat="42.5079034" lon="14.1710178"><ele>2.0</ele><time>2026-05-01T07:27:37.555Z</time></trkpt><trkpt lat="42.5077364" lon="14.1711679"><ele>1.6666666666666665</ele><time>2026-05-01T07:27:39.553Z</time></trkpt><trkpt lat="42.5075643" lon="14.1713183"><ele>1.3333333333333333</ele><time>2026-05-01T07:27:41.555Z</time></trkpt><trkpt lat="42.5073881" lon="14.1714928"><ele>1.0</ele><time>2026-05-01T07:27:43.573Z</time></trkpt><trkpt lat="42.5071992" lon="14.1716724"><ele>4.0</ele><time>2026-05-01T07:27:45.553Z</time></trkpt><trkpt lat="42.5070115" lon="14.1718545"><ele>7.0</ele><time>2026-05-01T07:27:47.554Z</time></trkpt><trkpt lat="42.5068013" lon="14.1720398"><ele>7.0</ele><time>2026-05-01T07:27:49.551Z</time></trkpt><trkpt lat="42.5065834" lon="14.1722557"><ele>7.0</ele><time>2026-05-01T07:27:51.553Z</time></trkpt><trkpt lat="42.5063504" lon="14.1724641"><ele>5.5</ele><time>2026-05-01T07:27:53.548Z</time></trkpt><trkpt lat="42.5061259" lon="14.172683"><ele>4.0</ele><time>2026-05-01T07:27:55.556Z</time></trkpt><trkpt lat="42.5059153" lon="14.1728857"><ele>4.0</ele><time>2026-05-01T07:27:57.56Z</time></trkpt><trkpt lat="42.5057253" lon="14.1730637"><ele>4.0</ele><time>2026-05-01T07:27:59.559Z</time></trkpt><trkpt lat="42.5055096" lon="14.173259"><ele>3.5</ele><time>2026-05-01T07:28:01.561Z</time></trkpt><trkpt lat="42.505307" lon="14.1734479"><ele>3.0</ele><time>2026-05-01T07:28:03.559Z</time></trkpt><trkpt lat="42.5051119" lon="14.173625"><ele>3.0</ele><time>2026-05-01T07:28:05.557Z</time></trkpt><trkpt lat="42.50493" lon="14.1738048"><ele>3.0</ele><time>2026-05-01T07:28:07.556Z</time></trkpt><trkpt lat="42.5047498" lon="14.1739844"><ele>3.0</ele><time>2026-05-01T07:28:09.56Z</time></trkpt><trkpt lat="42.5045661" lon="14.1741535"><ele>3.666666666666667</ele><time>2026-05-01T07:28:11.56Z</time></trkpt><trkpt lat="42.5043764" lon="14.1743227"><ele>4.333333333333334</ele><time>2026-05-01T07:28:13.555Z</time></trkpt><trkpt lat="42.5042017" lon="14.1744739"><ele>5.0</ele><time>2026-05-01T07:28:15.551Z</time></trkpt><trkpt lat="42.5040315" lon="14.1746351"><ele>5.0</ele><time>2026-05-01T07:28:17.553Z</time></trkpt><trkpt lat="42.5038601" lon="14.1747909"><ele>5.0</ele><time>2026-05-01T07:28:19.556Z</time></trkpt><trkpt lat="42.5036737" lon="14.1749684"><ele>5.0</ele><time>2026-05-01T07:28:21.559Z</time></trkpt><trkpt lat="42.5034728" lon="14.1751553"><ele>5.5</ele><time>2026-05-01T07:28:23.557Z</time></trkpt><trkpt lat="42.5032632" lon="14.1753276"><ele>6.0</ele><time>2026-05-01T07:28:25.555Z</time></trkpt><trkpt lat="42.5030647" lon="14.1755111"><ele>5.5</ele><time>2026-05-01T07:28:27.56Z</time></trkpt><trkpt lat="42.5028755" lon="14.1756933"><ele>5.0</ele><time>2026-05-01T07:28:29.562Z</time></trkpt><trkpt lat="42.5026801" lon="14.1758803"><ele>5.0</ele><time>2026-05-01T07:28:31.563Z</time></trkpt><trkpt lat="42.50248" lon="14.1760597"><ele>5.0</ele><time>2026-05-01T07:28:33.562Z</time></trkpt><trkpt lat="42.5022885" lon="14.1762256"><ele>5.0</ele><time>2026-05-01T07:28:35.56Z</time></trkpt><trkpt lat="42.5021137" lon="14.1763874"><ele>5.0</ele><time>2026-05-01T07:28:37.564Z</time></trkpt><trkpt lat="42.5019571" lon="14.1765439"><ele>5.0</ele><time>2026-05-01T07:28:39.568Z</time></trkpt><trkpt lat="42.5018009" lon="14.1766937"><ele>4.666666666666667</ele><time>2026-05-01T07:28:41.572Z</time></trkpt><trkpt lat="42.5016319" lon="14.176846"><ele>4.333333333333333</ele><time>2026-05-01T07:28:43.568Z</time></trkpt><trkpt lat="42.5014706" lon="14.176993"><ele>4.0</ele><time>2026-05-01T07:28:45.585Z</time></trkpt><trkpt lat="42.5012975" lon="14.1771364"><ele>4.25</ele><time>2026-05-01T07:28:47.56Z</time></trkpt><trkpt lat="42.5011558" lon="14.1772825"><ele>4.5</ele><time>2026-05-01T07:28:49.565Z</time></trkpt><trkpt lat="42.5010437" lon="14.1774102"><ele>4.75</ele><time>2026-05-01T07:28:51.565Z</time></trkpt><trkpt lat="42.5009518" lon="14.1774987"><ele>5.0</ele><time>2026-05-01T07:28:53.557Z</time></trkpt><trkpt lat="42.5008637" lon="14.1775923"><ele>5.0</ele><time>2026-05-01T07:28:55.563Z</time></trkpt><trkpt lat="42.5007529" lon="14.1777033"><ele>5.0</ele><time>2026-05-01T07:28:57.555Z</time></trkpt><trkpt lat="42.5006159" lon="14.1778425"><ele>5.0</ele><time>2026-05-01T07:28:59.555Z</time></trkpt><trkpt lat="42.5004731" lon="14.177983"><ele>4.666666666666667</ele><time>2026-05-01T07:29:01.557Z</time></trkpt><trkpt lat="42.500321" lon="14.178137"><ele>4.333333333333333</ele><time>2026-05-01T07:29:03.558Z</time></trkpt><trkpt lat="42.5001644" lon="14.1782931"><ele>4.0</ele><time>2026-05-01T07:29:05.554Z</time></trkpt><trkpt lat="42.5000022" lon="14.1784595"><ele>4.333333333333333</ele><time>2026-05-01T07:29:07.558Z</time></trkpt><trkpt lat="42.4998354" lon="14.1786276"><ele>4.666666666666667</ele><time>2026-05-01T07:29:09.561Z</time></trkpt><trkpt lat="42.499668" lon="14.1788053"><ele>5.0</ele><time>2026-05-01T07:29:11.556Z</time></trkpt><trkpt lat="42.4995005" lon="14.1789776"><ele>4.5</ele><time>2026-05-01T07:29:13.555Z</time></trkpt><trkpt lat="42.499328" lon="14.1791728"><ele>4.0</ele><time>2026-05-01T07:29:15.557Z</time></trkpt><trkpt lat="42.4991391" lon="14.1793538"><ele>4.0</ele><time>2026-05-01T07:29:17.556Z</time></trkpt><trkpt lat="42.4989623" lon="14.179535"><ele>4.0</ele><time>2026-05-01T07:29:19.555Z</time></trkpt><trkpt lat="42.4987901" lon="14.1797041"><ele>4.0</ele><time>2026-05-01T07:29:21.554Z</time></trkpt><trkpt lat="42.4985984" lon="14.1799042"><ele>4.5</ele><time>2026-05-01T07:29:23.554Z</time></trkpt><trkpt lat="42.4983959" lon="14.1801042"><ele>5.0</ele><time>2026-05-01T07:29:25.57Z</time></trkpt><trkpt lat="42.4981847" lon="14.1803188"><ele>5.0</ele><time>2026-05-01T07:29:27.637Z</time></trkpt><trkpt lat="42.4979744" lon="14.180534"><ele>5.0</ele><time>2026-05-01T07:29:29.63Z</time></trkpt><trkpt lat="42.4977597" lon="14.180751"><ele>5.5</ele><time>2026-05-01T07:29:31.638Z</time></trkpt><trkpt lat="42.4975515" lon="14.1809675"><ele>6.0</ele><time>2026-05-01T07:29:33.635Z</time></trkpt><trkpt lat="42.4973689" lon="14.1811658"><ele>6.0</ele><time>2026-05-01T07:29:35.637Z</time></trkpt><trkpt lat="42.4971886" lon="14.1813807"><ele>6.0</ele><time>2026-05-01T07:29:37.637Z</time></trkpt><trkpt lat="42.4969973" lon="14.1815728"><ele>5.5</ele><time>2026-05-01T07:29:39.637Z</time></trkpt><trkpt lat="42.4967972" lon="14.1817773"><ele>5.0</ele><time>2026-05-01T07:29:41.637Z</time></trkpt><trkpt lat="42.4965889" lon="14.1819839"><ele>5.0</ele><time>2026-05-01T07:29:43.637Z</time></trkpt><trkpt lat="42.4963793" lon="14.1821956"><ele>5.0</ele><time>2026-05-01T07:29:45.637Z</time></trkpt><trkpt lat="42.496186" lon="14.1823858"><ele>4.0</ele><time>2026-05-01T07:29:47.651Z</time></trkpt><trkpt lat="42.4960175" lon="14.1825658"><ele>3.0</ele><time>2026-05-01T07:29:49.633Z</time></trkpt><trkpt lat="42.495855" lon="14.1827305"><ele>2.0</ele><time>2026-05-01T07:29:51.642Z</time></trkpt><trkpt lat="42.4957005" lon="14.1828902"><ele>2.0</ele><time>2026-05-01T07:29:53.637Z</time></trkpt><trkpt lat="42.4955244" lon="14.1830676"><ele>2.0</ele><time>2026-05-01T07:29:55.639Z</time></trkpt><trkpt lat="42.4953376" lon="14.183265"><ele>3.5</ele><time>2026-05-01T07:29:57.641Z</time></trkpt><trkpt lat="42.4951439" lon="14.1834621"><ele>5.0</ele><time>2026-05-01T07:29:59.646Z</time></trkpt><trkpt lat="42.4949536" lon="14.1836535"><ele>5.0</ele><time>2026-05-01T07:30:01.647Z</time></trkpt><trkpt lat="42.4947843" lon="14.1838326"><ele>5.0</ele><time>2026-05-01T07:30:03.641Z</time></trkpt><trkpt lat="42.4946209" lon="14.1840034"><ele>5.0</ele><time>2026-05-01T07:30:05.641Z</time></trkpt><trkpt lat="42.4944543" lon="14.184181"><ele>5.0</ele><time>2026-05-01T07:30:07.638Z</time></trkpt><trkpt lat="42.4942551" lon="14.1843696"><ele>5.0</ele><time>2026-05-01T07:30:09.632Z</time></trkpt><trkpt lat="42.4940716" lon="14.1845571"><ele>5.0</ele><time>2026-05-01T07:30:11.634Z</time></trkpt><trkpt lat="42.4939006" lon="14.1847348"><ele>5.0</ele><time>2026-05-01T07:30:13.639Z</time></trkpt><trkpt lat="42.4937348" lon="14.1849116"><ele>5.0</ele><time>2026-05-01T07:30:15.64Z</time></trkpt><trkpt lat="42.4935718" lon="14.1851001"><ele>4.666666666666667</ele><time>2026-05-01T07:30:17.637Z</time></trkpt><trkpt lat="42.493415" lon="14.1852704"><ele>4.333333333333333</ele><time>2026-05-01T07:30:19.643Z</time></trkpt><trkpt lat="42.4932822" lon="14.185417"><ele>4.0</ele><time>2026-05-01T07:30:21.642Z</time></trkpt><trkpt lat="42.493158" lon="14.185562"><ele>4.666666666666666</ele><time>2026-05-01T07:30:23.641Z</time></trkpt><trkpt lat="42.4930408" lon="14.1856956"><ele>5.333333333333333</ele><time>2026-05-01T07:30:25.639Z</time></trkpt><trkpt lat="42.4929388" lon="14.1858259"><ele>6.0</ele><time>2026-05-01T07:30:27.634Z</time></trkpt><trkpt lat="42.4928142" lon="14.1859827"><ele>6.0</ele><time>2026-05-01T07:30:29.63Z</time></trkpt><trkpt lat="42.4926835" lon="14.1861301"><ele>6.0</ele><time>2026-05-01T07:30:31.625Z</time></trkpt><trkpt lat="42.4925497" lon="14.1862784"><ele>6.0</ele><time>2026-05-01T07:30:33.623Z</time></trkpt><trkpt lat="42.4924259" lon="14.18642"><ele>5.333333333333333</ele><time>2026-05-01T07:30:35.639Z</time></trkpt><trkpt lat="42.4922926" lon="14.1865609"><ele>4.666666666666666</ele><time>2026-05-01T07:30:37.641Z</time></trkpt><trkpt lat="42.4921284" lon="14.1867375"><ele>4.0</ele><time>2026-05-01T07:30:39.638Z</time></trkpt><trkpt lat="42.4919318" lon="14.1869518"><ele>4.0</ele><time>2026-05-01T07:30:41.637Z</time></trkpt><trkpt lat="42.4917492" lon="14.1871561"><ele>4.0</ele><time>2026-05-01T07:30:43.634Z</time></trkpt><trkpt lat="42.4915828" lon="14.1873381"><ele>4.0</ele><time>2026-05-01T07:30:45.635Z</time></trkpt><trkpt lat="42.4914167" lon="14.1875324"><ele>4.0</ele><time>2026-05-01T07:30:47.627Z</time></trkpt><trkpt lat="42.4912074" lon="14.1877586"><ele>4.5</ele><time>2026-05-01T07:30:49.649Z</time></trkpt><trkpt lat="42.4909859" lon="14.1879998"><ele>5.0</ele><time>2026-05-01T07:30:51.639Z</time></trkpt><trkpt lat="42.490766" lon="14.1882357"><ele>5.5</ele><time>2026-05-01T07:30:53.639Z</time></trkpt><trkpt lat="42.4905543" lon="14.1884625"><ele>6.0</ele><time>2026-05-01T07:30:55.634Z</time></trkpt><trkpt lat="42.4903548" lon="14.1886686"><ele>6.0</ele><time>2026-05-01T07:30:57.646Z</time></trkpt><trkpt lat="42.4901544" lon="14.1888866"><ele>6.0</ele><time>2026-05-01T07:30:59.641Z</time></trkpt><trkpt lat="42.4899496" lon="14.1891098"><ele>6.0</ele><time>2026-05-01T07:31:01.636Z</time></trkpt><trkpt lat="42.4897575" lon="14.1893077"><ele>6.0</ele><time>2026-05-01T07:31:03.64Z</time></trkpt><trkpt lat="42.4895709" lon="14.1894986"><ele>6.0</ele><time>2026-05-01T07:31:05.646Z</time></trkpt><trkpt lat="42.489383" lon="14.189707"><ele>6.0</ele><time>2026-05-01T07:31:07.638Z</time></trkpt><trkpt lat="42.4891781" lon="14.1899324"><ele>4.0</ele><time>2026-05-01T07:31:09.635Z</time></trkpt><trkpt lat="42.488971" lon="14.1901577"><ele>2.0</ele><time>2026-05-01T07:31:11.64Z</time></trkpt><trkpt lat="42.4887823" lon="14.1903647"><ele>2.5</ele><time>2026-05-01T07:31:13.65Z</time></trkpt><trkpt lat="42.4885879" lon="14.1905863"><ele>3.0</ele><time>2026-05-01T07:31:15.644Z</time></trkpt><trkpt lat="42.4883856" lon="14.1908059"><ele>4.0</ele><time>2026-05-01T07:31:17.638Z</time></trkpt><trkpt lat="42.488181" lon="14.1910315"><ele>5.0</ele><time>2026-05-01T07:31:19.634Z</time></trkpt><trkpt lat="42.4879745" lon="14.1912511"><ele>5.5</ele><time>2026-05-01T07:31:21.645Z</time></trkpt><trkpt lat="42.4877846" lon="14.1914584"><ele>6.0</ele><time>2026-05-01T07:31:23.639Z</time></trkpt><trkpt lat="42.4875932" lon="14.1916684"><ele>6.0</ele><time>2026-05-01T07:31:25.63Z</time></trkpt><trkpt lat="42.4874044" lon="14.1918747"><ele>6.0</ele><time>2026-05-01T07:31:27.634Z</time></trkpt><trkpt lat="42.4872165" lon="14.1920764"><ele>4.5</ele><time>2026-05-01T07:31:29.635Z</time></trkpt><trkpt lat="42.4870327" lon="14.1922754"><ele>3.0</ele><time>2026-05-01T07:31:31.636Z</time></trkpt><trkpt lat="42.4868432" lon="14.1924768"><ele>3.0</ele><time>2026-05-01T07:31:33.636Z</time></trkpt><trkpt lat="42.4866457" lon="14.1926827"><ele>3.0</ele><time>2026-05-01T07:31:35.63Z</time></trkpt><trkpt lat="42.4864461" lon="14.1928942"><ele>3.0</ele><time>2026-05-01T07:31:37.638Z</time></trkpt><trkpt lat="42.4862555" lon="14.1930957"><ele>3.0</ele><time>2026-05-01T07:31:39.634Z</time></trkpt><trkpt lat="42.4860687" lon="14.193294"><ele>3.5</ele><time>2026-05-01T07:31:41.632Z</time></trkpt><trkpt lat="42.4858778" lon="14.1934946"><ele>4.0</ele><time>2026-05-01T07:31:43.638Z</time></trkpt><trkpt lat="42.4856922" lon="14.1936984"><ele>4.0</ele><time>2026-05-01T07:31:45.635Z</time></trkpt><trkpt lat="42.4855204" lon="14.1938966"><ele>4.0</ele><time>2026-05-01T07:31:47.638Z</time></trkpt><trkpt lat="42.4853678" lon="14.1940793"><ele>4.0</ele><time>2026-05-01T07:31:49.64Z</time></trkpt><trkpt lat="42.4852084" lon="14.194275"><ele>3.5</ele><time>2026-05-01T07:31:51.639Z</time></trkpt><trkpt lat="42.4850371" lon="14.1944853"><ele>3.0</ele><time>2026-05-01T07:31:53.638Z</time></trkpt><trkpt lat="42.4848447" lon="14.1947211"><ele>2.5</ele><time>2026-05-01T07:31:55.634Z</time></trkpt><trkpt lat="42.4846483" lon="14.1949788"><ele>2.0</ele><time>2026-05-01T07:31:57.641Z</time></trkpt><trkpt lat="42.4844528" lon="14.1952434"><ele>2.0</ele><time>2026-05-01T07:31:59.641Z</time></trkpt><trkpt lat="42.4842771" lon="14.1954979"><ele>2.0</ele><time>2026-05-01T07:32:01.639Z</time></trkpt><trkpt lat="42.4840581" lon="14.1957984"><ele>1.5</ele><time>2026-05-01T07:32:03.541Z</time></trkpt><trkpt lat="42.4838381" lon="14.1960674"><ele>1.0</ele><time>2026-05-01T07:32:05.548Z</time></trkpt><trkpt lat="42.48367" lon="14.1963233"><ele>3.5</ele><time>2026-05-01T07:32:07.55Z</time></trkpt><trkpt lat="42.4834667" lon="14.1965881"><ele>6.0</ele><time>2026-05-01T07:32:09.544Z</time></trkpt><trkpt lat="42.4833017" lon="14.1968517"><ele>6.0</ele><time>2026-05-01T07:32:11.547Z</time></trkpt><trkpt lat="42.4831214" lon="14.1971105"><ele>6.0</ele><time>2026-05-01T07:32:13.541Z</time></trkpt><trkpt lat="42.4829274" lon="14.1973968"><ele>6.5</ele><time>2026-05-01T07:32:15.538Z</time></trkpt><trkpt lat="42.4827476" lon="14.1976443"><ele>7.0</ele><time>2026-05-01T07:32:17.543Z</time></trkpt><trkpt lat="42.4826012" lon="14.1978584"><ele>7.0</ele><time>2026-05-01T07:32:19.547Z</time></trkpt><trkpt lat="42.4824579" lon="14.1980642"><ele>7.0</ele><time>2026-05-01T07:32:21.56Z</time></trkpt><trkpt lat="42.4822929" lon="14.1982982"><ele>7.0</ele><time>2026-05-01T07:32:23.544Z</time></trkpt><trkpt lat="42.4821099" lon="14.1985698"><ele>7.0</ele><time>2026-05-01T07:32:25.541Z</time></trkpt><trkpt lat="42.4818919" lon="14.1988835"><ele>7.0</ele><time>2026-05-01T07:32:27.546Z</time></trkpt><trkpt lat="42.4816647" lon="14.1991882"><ele>7.0</ele><time>2026-05-01T07:32:29.545Z</time></trkpt><trkpt lat="42.4814624" lon="14.1995356"><ele>7.0</ele><time>2026-05-01T07:32:31.549Z</time></trkpt><trkpt lat="42.4812646" lon="14.1998235"><ele>5.0</ele><time>2026-05-01T07:32:33.55Z</time></trkpt><trkpt lat="42.4811032" lon="14.2000653"><ele>3.0</ele><time>2026-05-01T07:32:35.552Z</time></trkpt><trkpt lat="42.4809441" lon="14.200286"><ele>3.0</ele><time>2026-05-01T07:32:37.549Z</time></trkpt><trkpt lat="42.4807901" lon="14.2004964"><ele>3.0</ele><time>2026-05-01T07:32:39.548Z</time></trkpt><trkpt lat="42.4806446" lon="14.2007243"><ele>3.0</ele><time>2026-05-01T07:32:41.545Z</time></trkpt><trkpt lat="42.480479" lon="14.2009607"><ele>3.666666666666667</ele><time>2026-05-01T07:32:43.544Z</time></trkpt><trkpt lat="42.4803359" lon="14.2011641"><ele>4.333333333333334</ele><time>2026-05-01T07:32:45.552Z</time></trkpt><trkpt lat="42.4801943" lon="14.2013688"><ele>5.0</ele><time>2026-05-01T07:32:47.542Z</time></trkpt><trkpt lat="42.4800465" lon="14.2015876"><ele>5.0</ele><time>2026-05-01T07:32:49.549Z</time></trkpt><trkpt lat="42.4799215" lon="14.2018013"><ele>5.0</ele><time>2026-05-01T07:32:51.546Z</time></trkpt><trkpt lat="42.4797817" lon="14.201996"><ele>5.0</ele><time>2026-05-01T07:32:53.543Z</time></trkpt><trkpt lat="42.4796556" lon="14.2021627"><ele>5.0</ele><time>2026-05-01T07:32:55.545Z</time></trkpt><trkpt lat="42.4795369" lon="14.2023251"><ele>5.0</ele><time>2026-05-01T07:32:57.544Z</time></trkpt><trkpt lat="42.4794063" lon="14.2025205"><ele>5.0</ele><time>2026-05-01T07:32:59.552Z</time></trkpt><trkpt lat="42.4792566" lon="14.2027666"><ele>4.5</ele><time>2026-05-01T07:33:01.548Z</time></trkpt><trkpt lat="42.4790993" lon="14.2029948"><ele>4.0</ele><time>2026-05-01T07:33:03.549Z</time></trkpt><trkpt lat="42.4789485" lon="14.2032108"><ele>3.333333333333333</ele><time>2026-05-01T07:33:05.548Z</time></trkpt><trkpt lat="42.4787922" lon="14.2034132"><ele>2.6666666666666665</ele><time>2026-05-01T07:33:07.555Z</time></trkpt><trkpt lat="42.4786495" lon="14.2036088"><ele>2.0</ele><time>2026-05-01T07:33:09.552Z</time></trkpt><trkpt lat="42.478507" lon="14.203821"><ele>2.6666666666666665</ele><time>2026-05-01T07:33:11.553Z</time></trkpt><trkpt lat="42.4783673" lon="14.2040404"><ele>3.333333333333333</ele><time>2026-05-01T07:33:13.551Z</time></trkpt><trkpt lat="42.4782304" lon="14.2042635"><ele>4.0</ele><time>2026-05-01T07:33:15.552Z</time></trkpt><trkpt lat="42.4780952" lon="14.2044751"><ele>4.0</ele><time>2026-05-01T07:33:17.553Z</time></trkpt><trkpt lat="42.4779471" lon="14.2046935"><ele>4.0</ele><time>2026-05-01T07:33:19.555Z</time></trkpt><trkpt lat="42.4777887" lon="14.2049097"><ele>4.0</ele><time>2026-05-01T07:33:21.547Z</time></trkpt><trkpt lat="42.4776475" lon="14.2051025"><ele>4.666666666666666</ele><time>2026-05-01T07:33:23.565Z</time></trkpt><trkpt lat="42.4775116" lon="14.2052931"><ele>5.333333333333333</ele><time>2026-05-01T07:33:25.546Z</time></trkpt><trkpt lat="42.4773765" lon="14.2054785"><ele>6.0</ele><time>2026-05-01T07:33:27.542Z</time></trkpt><trkpt lat="42.4772424" lon="14.2056767"><ele>5.666666666666667</ele><time>2026-05-01T07:33:29.543Z</time></trkpt><trkpt lat="42.4771172" lon="14.2058734"><ele>5.333333333333334</ele><time>2026-05-01T07:33:31.537Z</time></trkpt><trkpt lat="42.4770053" lon="14.2060545"><ele>5.0</ele><time>2026-05-01T07:33:33.535Z</time></trkpt><trkpt lat="42.476879" lon="14.2062257"><ele>5.0</ele><time>2026-05-01T07:33:35.539Z</time></trkpt><trkpt lat="42.4767456" lon="14.2063999"><ele>5.0</ele><time>2026-05-01T07:33:37.548Z</time></trkpt><trkpt lat="42.476616" lon="14.2065879"><ele>5.0</ele><time>2026-05-01T07:33:39.542Z</time></trkpt><trkpt lat="42.4764843" lon="14.2067851"><ele>5.333333333333334</ele><time>2026-05-01T07:33:41.542Z</time></trkpt><trkpt lat="42.4763355" lon="14.2069853"><ele>5.666666666666667</ele><time>2026-05-01T07:33:43.547Z</time></trkpt><trkpt lat="42.4761873" lon="14.2072036"><ele>6.0</ele><time>2026-05-01T07:33:45.548Z</time></trkpt><trkpt lat="42.4760442" lon="14.2074343"><ele>5.333333333333333</ele><time>2026-05-01T07:33:47.547Z</time></trkpt><trkpt lat="42.4758991" lon="14.2076555"><ele>4.666666666666666</ele><time>2026-05-01T07:33:49.547Z</time></trkpt><trkpt lat="42.4757339" lon="14.207874"><ele>4.0</ele><time>2026-05-01T07:33:51.551Z</time></trkpt><trkpt lat="42.4755741" lon="14.2080964"><ele>4.5</ele><time>2026-05-01T07:33:53.554Z</time></trkpt><trkpt lat="42.4754082" lon="14.2083554"><ele>5.0</ele><time>2026-05-01T07:33:55.55Z</time></trkpt><trkpt lat="42.475216" lon="14.2086216"><ele>5.0</ele><time>2026-05-01T07:33:57.547Z</time></trkpt><trkpt lat="42.4750483" lon="14.2088861"><ele>5.0</ele><time>2026-05-01T07:33:59.55Z</time></trkpt><trkpt lat="42.4748852" lon="14.2091559"><ele>4.5</ele><time>2026-05-01T07:34:01.553Z</time></trkpt><trkpt lat="42.4747031" lon="14.2094308"><ele>4.0</ele><time>2026-05-01T07:34:03.553Z</time></trkpt><trkpt lat="42.4745101" lon="14.2096986"><ele>3.333333333333333</ele><time>2026-05-01T07:34:05.547Z</time></trkpt><trkpt lat="42.474349" lon="14.209929"><ele>2.6666666666666665</ele><time>2026-05-01T07:34:07.539Z</time></trkpt><trkpt lat="42.4742605" lon="14.2100801"><ele>2.0</ele><time>2026-05-01T07:34:09.537Z</time></trkpt><trkpt lat="42.474208" lon="14.2101812"><ele>2.0</ele><time>2026-05-01T07:34:11.533Z</time></trkpt><trkpt lat="42.474165" lon="14.2102628"><ele>2.0</ele><time>2026-05-01T07:34:17.549Z</time></trkpt><trkpt lat="42.4740485" lon="14.210389"><ele>2.0</ele><time>2026-05-01T07:34:21.549Z</time></trkpt><trkpt lat="42.4739741" lon="14.2104652"><ele>2.0</ele><time>2026-05-01T07:34:23.552Z</time></trkpt><trkpt lat="42.4738911" lon="14.2105828"><ele>2.0</ele><time>2026-05-01T07:34:25.561Z</time></trkpt><trkpt lat="42.4738097" lon="14.2107009"><ele>2.75</ele><time>2026-05-01T07:34:27.563Z</time></trkpt><trkpt lat="42.4737341" lon="14.2108175"><ele>3.5</ele><time>2026-05-01T07:34:29.56Z</time></trkpt><trkpt lat="42.4736592" lon="14.2109385"><ele>4.25</ele><time>2026-05-01T07:34:31.561Z</time></trkpt><trkpt lat="42.4735629" lon="14.2110846"><ele>5.0</ele><time>2026-05-01T07:34:33.558Z</time></trkpt><trkpt lat="42.4734988" lon="14.2111955"><ele>5.0</ele><time>2026-05-01T07:34:35.564Z</time></trkpt><trkpt lat="42.4734544" lon="14.2112703"><ele>5.0</ele><time>2026-05-01T07:34:37.563Z</time></trkpt><trkpt lat="42.4733978" lon="14.2113458"><ele>5.0</ele><time>2026-05-01T07:34:39.571Z</time></trkpt><trkpt lat="42.4733343" lon="14.2114061"><ele>5.0</ele><time>2026-05-01T07:34:43.566Z</time></trkpt><trkpt lat="42.4732726" lon="14.21151"><ele>5.0</ele><time>2026-05-01T07:35:07.565Z</time></trkpt><trkpt lat="42.473182" lon="14.2116935"><ele>5.0</ele><time>2026-05-01T07:35:09.576Z</time></trkpt><trkpt lat="42.4730895" lon="14.2118701"><ele>5.0</ele><time>2026-05-01T07:35:11.565Z</time></trkpt><trkpt lat="42.4729877" lon="14.2120692"><ele>5.0</ele><time>2026-05-01T07:35:13.555Z</time></trkpt><trkpt lat="42.4728504" lon="14.2123036"><ele>4.0</ele><time>2026-05-01T07:35:15.628Z</time></trkpt><trkpt lat="42.4726777" lon="14.212605"><ele>3.0</ele><time>2026-05-01T07:35:17.551Z</time></trkpt><trkpt lat="42.472494" lon="14.2128844"><ele>3.0</ele><time>2026-05-01T07:35:19.545Z</time></trkpt><trkpt lat="42.4723588" lon="14.2131145"><ele>3.0</ele><time>2026-05-01T07:35:21.547Z</time></trkpt><trkpt lat="42.4722293" lon="14.2133633"><ele>3.0</ele><time>2026-05-01T07:35:23.545Z</time></trkpt><trkpt lat="42.4721012" lon="14.2136099"><ele>4.5</ele><time>2026-05-01T07:35:25.544Z</time></trkpt><trkpt lat="42.4719523" lon="14.2138742"><ele>6.0</ele><time>2026-05-01T07:35:27.559Z</time></trkpt><trkpt lat="42.4717933" lon="14.2141394"><ele>6.0</ele><time>2026-05-01T07:35:29.538Z</time></trkpt><trkpt lat="42.4716448" lon="14.21438"><ele>6.0</ele><time>2026-05-01T07:35:31.541Z</time></trkpt><trkpt lat="42.4715035" lon="14.2146098"><ele>6.0</ele><time>2026-05-01T07:35:33.536Z</time></trkpt><trkpt lat="42.4713779" lon="14.2148146"><ele>6.0</ele><time>2026-05-01T07:35:35.546Z</time></trkpt><trkpt lat="42.4712545" lon="14.2150202"><ele>6.0</ele><time>2026-05-01T07:35:37.541Z</time></trkpt><trkpt lat="42.4711201" lon="14.2152507"><ele>6.0</ele><time>2026-05-01T07:35:39.543Z</time></trkpt><trkpt lat="42.4709789" lon="14.2154817"><ele>6.0</ele><time>2026-05-01T07:35:41.551Z</time></trkpt><trkpt lat="42.4708265" lon="14.2157614"><ele>7.0</ele><time>2026-05-01T07:35:43.543Z</time></trkpt><trkpt lat="42.4706581" lon="14.2160399"><ele>8.0</ele><time>2026-05-01T07:35:45.541Z</time></trkpt><trkpt lat="42.4705231" lon="14.2162949"><ele>6.666666666666666</ele><time>2026-05-01T07:35:47.546Z</time></trkpt><trkpt lat="42.4704109" lon="14.2165143"><ele>5.333333333333333</ele><time>2026-05-01T07:35:49.546Z</time></trkpt><trkpt lat="42.4703035" lon="14.2166929"><ele>4.0</ele><time>2026-05-01T07:35:51.545Z</time></trkpt><trkpt lat="42.4702106" lon="14.2168309"><ele>4.0</ele><time>2026-05-01T07:35:53.549Z</time></trkpt><trkpt lat="42.4701235" lon="14.2169694"><ele>4.0</ele><time>2026-05-01T07:35:55.545Z</time></trkpt><trkpt lat="42.4700282" lon="14.2171313"><ele>4.0</ele><time>2026-05-01T07:35:57.546Z</time></trkpt><trkpt lat="42.4699482" lon="14.2172809"><ele>4.0</ele><time>2026-05-01T07:35:59.548Z</time></trkpt><trkpt lat="42.4698429" lon="14.2174519"><ele>4.0</ele><time>2026-05-01T07:36:01.545Z</time></trkpt><trkpt lat="42.4697414" lon="14.2176266"><ele>4.0</ele><time>2026-05-01T07:36:03.545Z</time></trkpt><trkpt lat="42.4696449" lon="14.2177881"><ele>4.0</ele><time>2026-05-01T07:36:05.546Z</time></trkpt><trkpt lat="42.4695394" lon="14.2179709"><ele>4.0</ele><time>2026-05-01T07:36:07.547Z</time></trkpt><trkpt lat="42.4694375" lon="14.218135"><ele>4.0</ele><time>2026-05-01T07:36:09.552Z</time></trkpt><trkpt lat="42.4693565" lon="14.2182631"><ele>4.0</ele><time>2026-05-01T07:36:11.546Z</time></trkpt><trkpt lat="42.4692942" lon="14.2183819"><ele>4.0</ele><time>2026-05-01T07:36:13.551Z</time></trkpt><trkpt lat="42.4692221" lon="14.2185001"><ele>4.0</ele><time>2026-05-01T07:36:15.553Z</time></trkpt><trkpt lat="42.4691652" lon="14.218613"><ele>4.0</ele><time>2026-05-01T07:36:17.547Z</time></trkpt><trkpt lat="42.4691094" lon="14.2187132"><ele>4.0</ele><time>2026-05-01T07:36:19.544Z</time></trkpt><trkpt lat="42.4690335" lon="14.2188629"><ele>4.0</ele><time>2026-05-01T07:36:23.556Z</time></trkpt><trkpt lat="42.4689591" lon="14.2190079"><ele>4.333333333333333</ele><time>2026-05-01T07:36:25.542Z</time></trkpt><trkpt lat="42.4688241" lon="14.21923"><ele>4.666666666666667</ele><time>2026-05-01T07:36:27.533Z</time></trkpt><trkpt lat="42.4686813" lon="14.2194706"><ele>5.0</ele><time>2026-05-01T07:36:29.539Z</time></trkpt><trkpt lat="42.4685058" lon="14.2197632"><ele>4.0</ele><time>2026-05-01T07:36:31.536Z</time></trkpt><trkpt lat="42.4683204" lon="14.220084"><ele>3.0</ele><time>2026-05-01T07:36:33.54Z</time></trkpt><trkpt lat="42.4681974" lon="14.2203098"><ele>3.0</ele><time>2026-05-01T07:36:35.537Z</time></trkpt><trkpt lat="42.4681012" lon="14.220465"><ele>3.0</ele><time>2026-05-01T07:36:37.532Z</time></trkpt><trkpt lat="42.4680237" lon="14.2205841"><ele>3.0</ele><time>2026-05-01T07:36:39.534Z</time></trkpt><trkpt lat="42.467955" lon="14.2207212"><ele>3.0</ele><time>2026-05-01T07:36:41.537Z</time></trkpt><trkpt lat="42.4678881" lon="14.2208399"><ele>2.75</ele><time>2026-05-01T07:36:43.536Z</time></trkpt><trkpt lat="42.4678091" lon="14.22096"><ele>2.5</ele><time>2026-05-01T07:36:45.535Z</time></trkpt><trkpt lat="42.4677245" lon="14.2210751"><ele>2.25</ele><time>2026-05-01T07:36:47.535Z</time></trkpt><trkpt lat="42.4676462" lon="14.2212269"><ele>2.0</ele><time>2026-05-01T07:36:49.543Z</time></trkpt><trkpt lat="42.4675443" lon="14.2213969"><ele>1.75</ele><time>2026-05-01T07:36:51.547Z</time></trkpt><trkpt lat="42.467445" lon="14.2215448"><ele>1.5</ele><time>2026-05-01T07:36:53.547Z</time></trkpt><trkpt lat="42.467358" lon="14.2216857"><ele>1.25</ele><time>2026-05-01T07:36:55.548Z</time></trkpt><trkpt lat="42.4672797" lon="14.2218303"><ele>1.0</ele><time>2026-05-01T07:36:57.539Z</time></trkpt><trkpt lat="42.4672221" lon="14.2219026"><ele>1.0</ele><time>2026-05-01T07:36:59.553Z</time></trkpt><trkpt lat="42.4671174" lon="14.2220228"><ele>1.0</ele><time>2026-05-01T07:37:05.553Z</time></trkpt><trkpt lat="42.4670014" lon="14.2221149"><ele>1.0</ele><time>2026-05-01T07:37:07.557Z</time></trkpt><trkpt lat="42.4668316" lon="14.2221582"><ele>1.0</ele><time>2026-05-01T07:37:09.542Z</time></trkpt><trkpt lat="42.4666259" lon="14.2221045"><ele>2.0</ele><time>2026-05-01T07:37:11.534Z</time></trkpt><trkpt lat="42.4663957" lon="14.2219738"><ele>3.0</ele><time>2026-05-01T07:37:13.541Z</time></trkpt><trkpt lat="42.4661853" lon="14.2217719"><ele>3.0</ele><time>2026-05-01T07:37:15.539Z</time></trkpt><trkpt lat="42.4660303" lon="14.2216218"><ele>3.0</ele><time>2026-05-01T07:37:17.541Z</time></trkpt><trkpt lat="42.4659516" lon="14.2215245"><ele>3.0</ele><time>2026-05-01T07:37:19.547Z</time></trkpt><trkpt lat="42.4659135" lon="14.2214245"><ele>3.0</ele><time>2026-05-01T07:37:21.553Z</time></trkpt><trkpt lat="42.4658737" lon="14.2212736"><ele>4.333333333333334</ele><time>2026-05-01T07:37:23.555Z</time></trkpt><trkpt lat="42.4658112" lon="14.2210848"><ele>5.666666666666667</ele><time>2026-05-01T07:37:25.557Z</time></trkpt><trkpt lat="42.4657363" lon="14.2208234"><ele>7.0</ele><time>2026-05-01T07:37:27.631Z</time></trkpt><trkpt lat="42.4656805" lon="14.2206086"><ele>8.5</ele><time>2026-05-01T07:37:29.63Z</time></trkpt><trkpt lat="42.4656398" lon="14.2204308"><ele>10.0</ele><time>2026-05-01T07:37:31.627Z</time></trkpt><trkpt lat="42.4655963" lon="14.2202668"><ele>11.5</ele><time>2026-05-01T07:37:33.621Z</time></trkpt><trkpt lat="42.4655609" lon="14.2201032"><ele>13.0</ele><time>2026-05-01T07:37:35.612Z</time></trkpt><trkpt lat="42.4655315" lon="14.21994"><ele>11.0</ele><time>2026-05-01T07:37:37.62Z</time></trkpt><trkpt lat="42.4654943" lon="14.2197715"><ele>9.0</ele><time>2026-05-01T07:37:39.618Z</time></trkpt><trkpt lat="42.4654772" lon="14.2195755"><ele>7.0</ele><time>2026-05-01T07:37:41.614Z</time></trkpt><trkpt lat="42.4654394" lon="14.2193831"><ele>5.0</ele><time>2026-05-01T07:37:43.608Z</time></trkpt><trkpt lat="42.4654014" lon="14.2192072"><ele>4.8</ele><time>2026-05-01T07:37:45.612Z</time></trkpt><trkpt lat="42.4653613" lon="14.2190623"><ele>4.6</ele><time>2026-05-01T07:37:47.608Z</time></trkpt><trkpt lat="42.4653323" lon="14.2189149"><ele>4.4</ele><time>2026-05-01T07:37:49.616Z</time></trkpt><trkpt lat="42.4652965" lon="14.218783"><ele>4.2</ele><time>2026-05-01T07:37:51.594Z</time></trkpt><trkpt lat="42.4652664" lon="14.2186465"><ele>4.0</ele><time>2026-05-01T07:37:53.6Z</time></trkpt><trkpt lat="42.4651975" lon="14.2185979"><ele>3.75</ele><time>2026-05-01T07:37:55.6Z</time></trkpt><trkpt lat="42.4651088" lon="14.2185688"><ele>3.5</ele><time>2026-05-01T07:37:57.607Z</time></trkpt><trkpt lat="42.4649922" lon="14.2185056"><ele>3.25</ele><time>2026-05-01T07:37:59.511Z</time></trkpt><trkpt lat="42.4649185" lon="14.2182704"><ele>3.0</ele><time>2026-05-01T07:38:01.526Z</time></trkpt><trkpt lat="42.4648492" lon="14.2179926"><ele>5.5</ele><time>2026-05-01T07:38:03.526Z</time></trkpt><trkpt lat="42.464764" lon="14.2176754"><ele>8.0</ele><time>2026-05-01T07:38:05.523Z</time></trkpt><trkpt lat="42.4646723" lon="14.2173729"><ele>6.666666666666666</ele><time>2026-05-01T07:38:07.522Z</time></trkpt><trkpt lat="42.4645937" lon="14.2171133"><ele>5.333333333333333</ele><time>2026-05-01T07:38:09.52Z</time></trkpt><trkpt lat="42.4645298" lon="14.2168944"><ele>4.0</ele><time>2026-05-01T07:38:11.528Z</time></trkpt><trkpt lat="42.4644486" lon="14.2167026"><ele>4.0</ele><time>2026-05-01T07:38:13.528Z</time></trkpt><trkpt lat="42.4643444" lon="14.2164946"><ele>4.0</ele><time>2026-05-01T07:38:15.521Z</time></trkpt><trkpt lat="42.4642484" lon="14.216235"><ele>4.0</ele><time>2026-05-01T07:38:17.528Z</time></trkpt><trkpt lat="42.4641484" lon="14.2159665"><ele>4.0</ele><time>2026-05-01T07:38:19.533Z</time></trkpt><trkpt lat="42.4640459" lon="14.215726"><ele>4.0</ele><time>2026-05-01T07:38:21.532Z</time></trkpt><trkpt lat="42.4639587" lon="14.215461"><ele>4.0</ele><time>2026-05-01T07:38:23.526Z</time></trkpt><trkpt lat="42.4638733" lon="14.2151965"><ele>5.666666666666666</ele><time>2026-05-01T07:38:25.533Z</time></trkpt><trkpt lat="42.4637782" lon="14.2149341"><ele>7.333333333333333</ele><time>2026-05-01T07:38:27.544Z</time></trkpt><trkpt lat="42.4636839" lon="14.214696"><ele>9.0</ele><time>2026-05-01T07:38:29.538Z</time></trkpt><trkpt lat="42.4635884" lon="14.2144578"><ele>9.0</ele><time>2026-05-01T07:38:31.535Z</time></trkpt><trkpt lat="42.4634847" lon="14.2142337"><ele>9.0</ele><time>2026-05-01T07:38:33.533Z</time></trkpt><trkpt lat="42.4633854" lon="14.2139991"><ele>9.0</ele><time>2026-05-01T07:38:35.521Z</time></trkpt><trkpt lat="42.4632668" lon="14.2137263"><ele>10.5</ele><time>2026-05-01T07:38:37.525Z</time></trkpt><trkpt lat="42.463151" lon="14.2134419"><ele>12.0</ele><time>2026-05-01T07:38:39.521Z</time></trkpt><trkpt lat="42.4630442" lon="14.2131678"><ele>10.333333333333334</ele><time>2026-05-01T07:38:41.528Z</time></trkpt><trkpt lat="42.4629372" lon="14.2129285"><ele>8.666666666666668</ele><time>2026-05-01T07:38:43.527Z</time></trkpt><trkpt lat="42.4628235" lon="14.2127095"><ele>7.0</ele><time>2026-05-01T07:38:45.529Z</time></trkpt><trkpt lat="42.4627459" lon="14.2125353"><ele>7.0</ele><time>2026-05-01T07:38:47.528Z</time></trkpt><trkpt lat="42.4626936" lon="14.212384"><ele>7.0</ele><time>2026-05-01T07:38:49.529Z</time></trkpt><trkpt lat="42.4626142" lon="14.212208"><ele>7.0</ele><time>2026-05-01T07:38:51.528Z</time></trkpt><trkpt lat="42.4625008" lon="14.2119847"><ele>6.0</ele><time>2026-05-01T07:38:53.548Z</time></trkpt><trkpt lat="42.4623868" lon="14.2117407"><ele>5.0</ele><time>2026-05-01T07:38:55.535Z</time></trkpt><trkpt lat="42.4622667" lon="14.2114885"><ele>4.0</ele><time>2026-05-01T07:38:57.54Z</time></trkpt><trkpt lat="42.4621458" lon="14.2112086"><ele>4.5</ele><time>2026-05-01T07:38:59.541Z</time></trkpt><trkpt lat="42.4620269" lon="14.2109341"><ele>5.0</ele><time>2026-05-01T07:39:01.54Z</time></trkpt><trkpt lat="42.4619137" lon="14.2106803"><ele>4.666666666666667</ele><time>2026-05-01T07:39:03.558Z</time></trkpt><trkpt lat="42.4618395" lon="14.2104444"><ele>4.333333333333333</ele><time>2026-05-01T07:39:05.526Z</time></trkpt><trkpt lat="42.4618096" lon="14.2102057"><ele>4.0</ele><time>2026-05-01T07:39:07.516Z</time></trkpt><trkpt lat="42.461791" lon="14.2099644"><ele>4.333333333333333</ele><time>2026-05-01T07:39:09.525Z</time></trkpt><trkpt lat="42.4617802" lon="14.2097129"><ele>4.666666666666667</ele><time>2026-05-01T07:39:11.521Z</time></trkpt><trkpt lat="42.4618023" lon="14.2094739"><ele>5.0</ele><time>2026-05-01T07:39:13.534Z</time></trkpt><trkpt lat="42.4619119" lon="14.2092841"><ele>5.0</ele><time>2026-05-01T07:39:15.531Z</time></trkpt><trkpt lat="42.4620175" lon="14.209072"><ele>5.0</ele><time>2026-05-01T07:39:17.536Z</time></trkpt><trkpt lat="42.4620824" lon="14.2089055"><ele>5.0</ele><time>2026-05-01T07:39:19.53Z</time></trkpt><trkpt lat="42.4621219" lon="14.2087715"><ele>5.0</ele><time>2026-05-01T07:39:21.535Z</time></trkpt><trkpt lat="42.4621725" lon="14.2086392"><ele>4.5</ele><time>2026-05-01T07:39:23.536Z</time></trkpt><trkpt lat="42.4622784" lon="14.2084963"><ele>4.0</ele><time>2026-05-01T07:39:25.543Z</time></trkpt><trkpt lat="42.4623346" lon="14.2083286"><ele>3.5</ele><time>2026-05-01T07:39:27.538Z</time></trkpt><trkpt lat="42.4622672" lon="14.2081817"><ele>3.0</ele><time>2026-05-01T07:39:29.532Z</time></trkpt><trkpt lat="42.4621233" lon="14.2081368"><ele>3.666666666666667</ele><time>2026-05-01T07:39:31.541Z</time></trkpt><trkpt lat="42.4619574" lon="14.208183"><ele>4.333333333333334</ele><time>2026-05-01T07:39:33.545Z</time></trkpt><trkpt lat="42.4617791" lon="14.2081411"><ele>5.0</ele><time>2026-05-01T07:39:35.544Z</time></trkpt><trkpt lat="42.4615885" lon="14.2080778"><ele>5.0</ele><time>2026-05-01T07:39:37.533Z</time></trkpt><trkpt lat="42.4613877" lon="14.2080378"><ele>5.0</ele><time>2026-05-01T07:39:39.535Z</time></trkpt><trkpt lat="42.4612462" lon="14.2080009"><ele>5.0</ele><time>2026-05-01T07:39:41.535Z</time></trkpt><trkpt lat="42.4611364" lon="14.2079384"><ele>5.25</ele><time>2026-05-01T07:39:45.554Z</time></trkpt><trkpt lat="42.4610945" lon="14.2078636"><ele>5.5</ele><time>2026-05-01T07:39:47.547Z</time></trkpt><trkpt lat="42.4610116" lon="14.2077488"><ele>5.75</ele><time>2026-05-01T07:39:49.538Z</time></trkpt><trkpt lat="42.4608954" lon="14.2077114"><ele>6.0</ele><time>2026-05-01T07:39:51.532Z</time></trkpt><trkpt lat="42.4607759" lon="14.2078719"><ele>6.0</ele><time>2026-05-01T07:39:53.535Z</time></trkpt><trkpt lat="42.4607678" lon="14.2080908"><ele>6.0</ele><time>2026-05-01T07:39:55.535Z</time></trkpt><trkpt lat="42.4608069" lon="14.2083029"><ele>6.0</ele><time>2026-05-01T07:39:57.534Z</time></trkpt><trkpt lat="42.4607843" lon="14.2084552"><ele>6.0</ele><time>2026-05-01T07:39:59.521Z</time></trkpt><trkpt lat="42.4607281" lon="14.2085714"><ele>6.0</ele><time>2026-05-01T07:40:01.525Z</time></trkpt><trkpt lat="42.4606647" lon="14.2086224"><ele>6.0</ele><time>2026-05-01T07:40:03.534Z</time></trkpt><trkpt lat="42.4606009" lon="14.2086923"><ele>6.0</ele><time>2026-05-01T07:40:05.556Z</time></trkpt><trkpt lat="42.4605409" lon="14.2087279"><ele>6.0</ele><time>2026-05-01T07:40:07.54Z</time></trkpt><trkpt lat="42.4604609" lon="14.2087813"><ele>6.0</ele><time>2026-05-01T07:40:09.548Z</time></trkpt><trkpt lat="42.4603544" lon="14.2088455"><ele>6.0</ele><time>2026-05-01T07:40:11.538Z</time></trkpt><trkpt lat="42.4602559" lon="14.2089149"><ele>5.25</ele><time>2026-05-01T07:40:13.536Z</time></trkpt><trkpt lat="42.4601345" lon="14.2089966"><ele>4.5</ele><time>2026-05-01T07:40:15.544Z</time></trkpt><trkpt lat="42.4599973" lon="14.2090904"><ele>3.75</ele><time>2026-05-01T07:40:17.539Z</time></trkpt><trkpt lat="42.4598569" lon="14.2091823"><ele>3.0</ele><time>2026-05-01T07:40:19.528Z</time></trkpt><trkpt lat="42.4597471" lon="14.2092529"><ele>3.0</ele><time>2026-05-01T07:40:21.536Z</time></trkpt><trkpt lat="42.4596391" lon="14.2093319"><ele>3.0</ele><time>2026-05-01T07:40:23.541Z</time></trkpt><trkpt lat="42.4595113" lon="14.2094071"><ele>3.0</ele><time>2026-05-01T07:40:25.533Z</time></trkpt><trkpt lat="42.459351" lon="14.209504"><ele>3.0</ele><time>2026-05-01T07:40:27.613Z</time></trkpt><trkpt lat="42.4591826" lon="14.2096166"><ele>3.666666666666667</ele><time>2026-05-01T07:40:29.608Z</time></trkpt><trkpt lat="42.4590265" lon="14.2097209"><ele>4.333333333333334</ele><time>2026-05-01T07:40:31.61Z</time></trkpt><trkpt lat="42.4588678" lon="14.2098236"><ele>5.0</ele><time>2026-05-01T07:40:33.596Z</time></trkpt><trkpt lat="42.4587259" lon="14.2099149"><ele>5.25</ele><time>2026-05-01T07:40:35.602Z</time></trkpt><trkpt lat="42.4585913" lon="14.2100053"><ele>5.5</ele><time>2026-05-01T07:40:37.602Z</time></trkpt><trkpt lat="42.4584796" lon="14.2100553"><ele>5.75</ele><time>2026-05-01T07:40:39.604Z</time></trkpt><trkpt lat="42.4584056" lon="14.2101174"><ele>6.0</ele><time>2026-05-01T07:40:41.6Z</time></trkpt><trkpt lat="42.4583243" lon="14.2102032"><ele>6.0</ele><time>2026-05-01T07:40:45.613Z</time></trkpt><trkpt lat="42.4582803" lon="14.210433"><ele>6.0</ele><time>2026-05-01T07:40:49.6Z</time></trkpt><trkpt lat="42.4583621" lon="14.2106237"><ele>6.0</ele><time>2026-05-01T07:40:51.599Z</time></trkpt><trkpt lat="42.4584895" lon="14.210792"><ele>6.25</ele><time>2026-05-01T07:40:53.531Z</time></trkpt><trkpt lat="42.4585664" lon="14.2109178"><ele>6.5</ele><time>2026-05-01T07:40:55.523Z</time></trkpt><trkpt lat="42.4585831" lon="14.2110626"><ele>6.75</ele><time>2026-05-01T07:40:57.525Z</time></trkpt><trkpt lat="42.4584795" lon="14.2111729"><ele>7.0</ele><time>2026-05-01T07:40:59.516Z</time></trkpt><trkpt lat="42.458276" lon="14.2112615"><ele>7.0</ele><time>2026-05-01T07:41:01.522Z</time></trkpt><trkpt lat="42.4580557" lon="14.2113999"><ele>7.0</ele><time>2026-05-01T07:41:03.521Z</time></trkpt><trkpt lat="42.4578235" lon="14.2115521"><ele>5.5</ele><time>2026-05-01T07:41:05.519Z</time></trkpt><trkpt lat="42.4575742" lon="14.2117044"><ele>4.0</ele><time>2026-05-01T07:41:07.516Z</time></trkpt><trkpt lat="42.4573123" lon="14.2118863"><ele>3.0</ele><time>2026-05-01T07:41:09.521Z</time></trkpt><trkpt lat="42.4570098" lon="14.2120698"><ele>2.0</ele><time>2026-05-01T07:41:11.518Z</time></trkpt><trkpt lat="42.4567033" lon="14.2122244"><ele>2.5</ele><time>2026-05-01T07:41:13.517Z</time></trkpt><trkpt lat="42.4564031" lon="14.212342"><ele>3.0</ele><time>2026-05-01T07:41:15.525Z</time></trkpt><trkpt lat="42.4561213" lon="14.2124523"><ele>3.0</ele><time>2026-05-01T07:41:17.522Z</time></trkpt><trkpt lat="42.4558751" lon="14.2125253"><ele>3.0</ele><time>2026-05-01T07:41:19.521Z</time></trkpt><trkpt lat="42.4556392" lon="14.2125514"><ele>3.0</ele><time>2026-05-01T07:41:21.524Z</time></trkpt><trkpt lat="42.4554045" lon="14.2125479"><ele>3.0</ele><time>2026-05-01T07:41:23.532Z</time></trkpt><trkpt lat="42.4551781" lon="14.212567"><ele>3.0</ele><time>2026-05-01T07:41:25.524Z</time></trkpt><trkpt lat="42.4549673" lon="14.2125934"><ele>3.0</ele><time>2026-05-01T07:41:27.536Z</time></trkpt><trkpt lat="42.4547855" lon="14.2125996"><ele>3.0</ele><time>2026-05-01T07:41:29.527Z</time></trkpt><trkpt lat="42.4546552" lon="14.2126973"><ele>3.0</ele><time>2026-05-01T07:41:31.534Z</time></trkpt><trkpt lat="42.4546288" lon="14.2129116"><ele>3.0</ele><time>2026-05-01T07:41:33.529Z</time></trkpt><trkpt lat="42.4545909" lon="14.213135"><ele>3.0</ele><time>2026-05-01T07:41:35.52Z</time></trkpt><trkpt lat="42.454458" lon="14.2132847"><ele>3.0</ele><time>2026-05-01T07:41:37.545Z</time></trkpt><trkpt lat="42.4542507" lon="14.2133506"><ele>3.0</ele><time>2026-05-01T07:41:39.514Z</time></trkpt><trkpt lat="42.4540244" lon="14.2134575"><ele>3.0</ele><time>2026-05-01T07:41:41.529Z</time></trkpt><trkpt lat="42.4537975" lon="14.2135562"><ele>3.0</ele><time>2026-05-01T07:41:43.528Z</time></trkpt><trkpt lat="42.4535965" lon="14.213641"><ele>3.0</ele><time>2026-05-01T07:41:45.532Z</time></trkpt><trkpt lat="42.4533927" lon="14.2137365"><ele>2.6666666666666665</ele><time>2026-05-01T07:41:47.523Z</time></trkpt><trkpt lat="42.4531846" lon="14.2138383"><ele>2.333333333333333</ele><time>2026-05-01T07:41:49.529Z</time></trkpt><trkpt lat="42.4530045" lon="14.2139236"><ele>2.0</ele><time>2026-05-01T07:41:51.528Z</time></trkpt><trkpt lat="42.4528036" lon="14.2140215"><ele>1.3333333333333333</ele><time>2026-05-01T07:41:53.533Z</time></trkpt><trkpt lat="42.4525966" lon="14.2141178"><ele>0.6666666666666666</ele><time>2026-05-01T07:41:55.535Z</time></trkpt><trkpt lat="42.4523878" lon="14.2142098"><ele>0.0</ele><time>2026-05-01T07:41:57.537Z</time></trkpt><trkpt lat="42.4521981" lon="14.2143157"><ele>0.3333333333333333</ele><time>2026-05-01T07:41:59.539Z</time></trkpt><trkpt lat="42.4519995" lon="14.2144457"><ele>0.6666666666666666</ele><time>2026-05-01T07:42:01.53Z</time></trkpt><trkpt lat="42.4518283" lon="14.2146227"><ele>1.0</ele><time>2026-05-01T07:42:03.526Z</time></trkpt><trkpt lat="42.4516988" lon="14.2148135"><ele>1.0</ele><time>2026-05-01T07:42:05.521Z</time></trkpt><trkpt lat="42.4515753" lon="14.2150521"><ele>1.0</ele><time>2026-05-01T07:42:07.527Z</time></trkpt><trkpt lat="42.4514362" lon="14.2153169"><ele>1.0</ele><time>2026-05-01T07:42:09.526Z</time></trkpt><trkpt lat="42.4513285" lon="14.2155316"><ele>1.0</ele><time>2026-05-01T07:42:11.528Z</time></trkpt><trkpt lat="42.4512409" lon="14.2156968"><ele>1.0</ele><time>2026-05-01T07:42:13.538Z</time></trkpt><trkpt lat="42.4511647" lon="14.2158688"><ele>1.6666666666666665</ele><time>2026-05-01T07:42:15.536Z</time></trkpt><trkpt lat="42.4510714" lon="14.216051"><ele>2.3333333333333335</ele><time>2026-05-01T07:42:17.536Z</time></trkpt><trkpt lat="42.4509786" lon="14.2161906"><ele>3.0</ele><time>2026-05-01T07:42:19.531Z</time></trkpt><trkpt lat="42.450893" lon="14.2163724"><ele>3.25</ele><time>2026-05-01T07:42:21.537Z</time></trkpt><trkpt lat="42.4507841" lon="14.2165571"><ele>3.5</ele><time>2026-05-01T07:42:23.529Z</time></trkpt><trkpt lat="42.4507029" lon="14.2167165"><ele>3.75</ele><time>2026-05-01T07:42:25.526Z</time></trkpt><trkpt lat="42.4506414" lon="14.21682"><ele>4.0</ele><time>2026-05-01T07:42:27.526Z</time></trkpt><trkpt lat="42.4505903" lon="14.2169122"><ele>4.0</ele><time>2026-05-01T07:42:31.537Z</time></trkpt><trkpt lat="42.4504323" lon="14.2169029"><ele>4.0</ele><time>2026-05-01T07:42:35.535Z</time></trkpt><trkpt lat="42.4503322" lon="14.2167043"><ele>4.0</ele><time>2026-05-01T07:42:37.525Z</time></trkpt><trkpt lat="42.4501972" lon="14.2164975"><ele>4.0</ele><time>2026-05-01T07:42:39.538Z</time></trkpt><trkpt lat="42.4500709" lon="14.2163063"><ele>4.0</ele><time>2026-05-01T07:42:41.519Z</time></trkpt><trkpt lat="42.4499679" lon="14.2161412"><ele>4.0</ele><time>2026-05-01T07:42:43.521Z</time></trkpt><trkpt lat="42.4498692" lon="14.2160036"><ele>4.0</ele><time>2026-05-01T07:42:45.522Z</time></trkpt><trkpt lat="42.4497673" lon="14.2158901"><ele>4.0</ele><time>2026-05-01T07:42:47.525Z</time></trkpt><trkpt lat="42.4496929" lon="14.2158071"><ele>4.0</ele><time>2026-05-01T07:42:49.536Z</time></trkpt><trkpt lat="42.4496184" lon="14.2157074"><ele>4.0</ele><time>2026-05-01T07:42:53.556Z</time></trkpt><trkpt lat="42.4495304" lon="14.2155073"><ele>4.0</ele><time>2026-05-01T07:42:57.559Z</time></trkpt><trkpt lat="42.4494869" lon="14.2153977"><ele>4.0</ele><time>2026-05-01T07:42:59.536Z</time></trkpt><trkpt lat="42.4494056" lon="14.2154073"><ele>4.0</ele><time>2026-05-01T07:43:01.546Z</time></trkpt><trkpt lat="42.4492874" lon="14.2155267"><ele>4.0</ele><time>2026-05-01T07:43:03.537Z</time></trkpt><trkpt lat="42.4491277" lon="14.2156826"><ele>4.0</ele><time>2026-05-01T07:43:05.609Z</time></trkpt><trkpt lat="42.4489586" lon="14.2158063"><ele>4.0</ele><time>2026-05-01T07:43:07.612Z</time></trkpt><trkpt lat="42.4487828" lon="14.2159362"><ele>4.0</ele><time>2026-05-01T07:43:09.615Z</time></trkpt><trkpt lat="42.4485968" lon="14.21605"><ele>5.0</ele><time>2026-05-01T07:43:11.607Z</time></trkpt><trkpt lat="42.4484013" lon="14.2161658"><ele>6.0</ele><time>2026-05-01T07:43:13.612Z</time></trkpt><trkpt lat="42.4482049" lon="14.2162815"><ele>7.0</ele><time>2026-05-01T07:43:15.613Z</time></trkpt><trkpt lat="42.4479979" lon="14.2163832"><ele>7.0</ele><time>2026-05-01T07:43:17.611Z</time></trkpt><trkpt lat="42.4478068" lon="14.2164843"><ele>7.0</ele><time>2026-05-01T07:43:19.607Z</time></trkpt><trkpt lat="42.4476141" lon="14.2165868"><ele>7.0</ele><time>2026-05-01T07:43:21.609Z</time></trkpt><trkpt lat="42.4474162" lon="14.2166981"><ele>7.0</ele><time>2026-05-01T07:43:23.613Z</time></trkpt><trkpt lat="42.4472286" lon="14.2168016"><ele>7.0</ele><time>2026-05-01T07:43:25.609Z</time></trkpt><trkpt lat="42.4470613" lon="14.2168944"><ele>7.0</ele><time>2026-05-01T07:43:27.616Z</time></trkpt><trkpt lat="42.4469054" lon="14.216984"><ele>7.199999999999999</ele><time>2026-05-01T07:43:29.621Z</time></trkpt><trkpt lat="42.4467808" lon="14.2170561"><ele>7.3999999999999995</ele><time>2026-05-01T07:43:31.619Z</time></trkpt><trkpt lat="42.4466716" lon="14.2171117"><ele>7.6000000000000005</ele><time>2026-05-01T07:43:33.617Z</time></trkpt><trkpt lat="42.4465934" lon="14.2171599"><ele>7.800000000000001</ele><time>2026-05-01T07:43:35.613Z</time></trkpt><trkpt lat="42.4465044" lon="14.2172191"><ele>8.0</ele><time>2026-05-01T07:43:37.609Z</time></trkpt><trkpt lat="42.4464191" lon="14.2172704"><ele>8.0</ele><time>2026-05-01T07:43:39.612Z</time></trkpt><trkpt lat="42.4463508" lon="14.2173117"><ele>8.0</ele><time>2026-05-01T07:43:43.621Z</time></trkpt><trkpt lat="42.4462665" lon="14.2173511"><ele>8.0</ele><time>2026-05-01T07:44:13.629Z</time></trkpt><trkpt lat="42.4462004" lon="14.2173846"><ele>8.0</ele><time>2026-05-01T07:44:15.529Z</time></trkpt><trkpt lat="42.4461198" lon="14.2173442"><ele>8.0</ele><time>2026-05-01T07:44:17.527Z</time></trkpt><trkpt lat="42.4460241" lon="14.2171598"><ele>6.666666666666666</ele><time>2026-05-01T07:44:19.52Z</time></trkpt><trkpt lat="42.4458735" lon="14.2169756"><ele>5.333333333333333</ele><time>2026-05-01T07:44:21.527Z</time></trkpt><trkpt lat="42.4457007" lon="14.2168031"><ele>4.0</ele><time>2026-05-01T07:44:23.523Z</time></trkpt><trkpt lat="42.4455223" lon="14.2166283"><ele>5.333333333333333</ele><time>2026-05-01T07:44:25.525Z</time></trkpt><trkpt lat="42.4453586" lon="14.2164795"><ele>6.666666666666666</ele><time>2026-05-01T07:44:27.528Z</time></trkpt><trkpt lat="42.4452132" lon="14.2163252"><ele>8.0</ele><time>2026-05-01T07:44:29.529Z</time></trkpt><trkpt lat="42.4450467" lon="14.2161678"><ele>8.0</ele><time>2026-05-01T07:44:31.532Z</time></trkpt><trkpt lat="42.4448653" lon="14.2159956"><ele>8.0</ele><time>2026-05-01T07:44:33.517Z</time></trkpt><trkpt lat="42.4446449" lon="14.2157839"><ele>7.0</ele><time>2026-05-01T07:44:35.521Z</time></trkpt><trkpt lat="42.4444168" lon="14.2155313"><ele>6.0</ele><time>2026-05-01T07:44:37.522Z</time></trkpt><trkpt lat="42.4441619" lon="14.2152869"><ele>6.0</ele><time>2026-05-01T07:44:39.525Z</time></trkpt><trkpt lat="42.4439233" lon="14.2150574"><ele>6.0</ele><time>2026-05-01T07:44:41.528Z</time></trkpt><trkpt lat="42.4436823" lon="14.2148594"><ele>6.5</ele><time>2026-05-01T07:44:43.547Z</time></trkpt><trkpt lat="42.443483" lon="14.2146505"><ele>7.0</ele><time>2026-05-01T07:44:45.537Z</time></trkpt><trkpt lat="42.4433274" lon="14.2144403"><ele>7.0</ele><time>2026-05-01T07:44:47.534Z</time></trkpt><trkpt lat="42.4431994" lon="14.214213"><ele>7.0</ele><time>2026-05-01T07:44:49.531Z</time></trkpt><trkpt lat="42.4430859" lon="14.214015"><ele>7.0</ele><time>2026-05-01T07:44:51.537Z</time></trkpt><trkpt lat="42.442996" lon="14.2138708"><ele>7.666666666666667</ele><time>2026-05-01T07:44:53.523Z</time></trkpt><trkpt lat="42.4428769" lon="14.2138475"><ele>8.333333333333334</ele><time>2026-05-01T07:44:55.527Z</time></trkpt><trkpt lat="42.4426982" lon="14.2138429"><ele>9.0</ele><time>2026-05-01T07:44:57.527Z</time></trkpt><trkpt lat="42.442492" lon="14.2138372"><ele>9.0</ele><time>2026-05-01T07:44:59.534Z</time></trkpt><trkpt lat="42.4422678" lon="14.2138415"><ele>9.0</ele><time>2026-05-01T07:45:01.516Z</time></trkpt><trkpt lat="42.4419779" lon="14.2138547"><ele>8.5</ele><time>2026-05-01T07:45:03.524Z</time></trkpt><trkpt lat="42.4416996" lon="14.213846"><ele>8.0</ele><time>2026-05-01T07:45:05.526Z</time></trkpt><trkpt lat="42.4414167" lon="14.2138161"><ele>14.0</ele><time>2026-05-01T07:45:07.532Z</time></trkpt><trkpt lat="42.4411056" lon="14.2137887"><ele>20.0</ele><time>2026-05-01T07:45:09.53Z</time></trkpt><trkpt lat="42.4408079" lon="14.213742"><ele>20.0</ele><time>2026-05-01T07:45:11.527Z</time></trkpt><trkpt lat="42.4404948" lon="14.2137015"><ele>20.0</ele><time>2026-05-01T07:45:13.516Z</time></trkpt><trkpt lat="42.4402433" lon="14.2138055"><ele>20.5</ele><time>2026-05-01T07:45:15.517Z</time></trkpt><trkpt lat="42.4400063" lon="14.2140269"><ele>21.0</ele><time>2026-05-01T07:45:17.515Z</time></trkpt><trkpt lat="42.4397233" lon="14.2142337"><ele>25.5</ele><time>2026-05-01T07:45:19.521Z</time></trkpt><trkpt lat="42.4394128" lon="14.214367"><ele>30.0</ele><time>2026-05-01T07:45:21.511Z</time></trkpt><trkpt lat="42.4391296" lon="14.2145969"><ele>30.0</ele><time>2026-05-01T07:45:23.526Z</time></trkpt><trkpt lat="42.4388502" lon="14.2148026"><ele>30.0</ele><time>2026-05-01T07:45:25.524Z</time></trkpt><trkpt lat="42.4385869" lon="14.2149784"><ele>36.5</ele><time>2026-05-01T07:45:27.516Z</time></trkpt><trkpt lat="42.4382984" lon="14.2150598"><ele>43.0</ele><time>2026-05-01T07:45:29.526Z</time></trkpt><trkpt lat="42.4380202" lon="14.2151044"><ele>44.0</ele><time>2026-05-01T07:45:31.519Z</time></trkpt><trkpt lat="42.4377103" lon="14.2150594"><ele>45.0</ele><time>2026-05-01T07:45:33.521Z</time></trkpt><trkpt lat="42.4374548" lon="14.215013"><ele>45.0</ele><time>2026-05-01T07:45:35.511Z</time></trkpt><trkpt lat="42.4372332" lon="14.2150493"><ele>45.0</ele><time>2026-05-01T07:45:37.512Z</time></trkpt><trkpt lat="42.4370389" lon="14.2151719"><ele>45.0</ele><time>2026-05-01T07:45:39.517Z</time></trkpt><trkpt lat="42.4368296" lon="14.2153836"><ele>48.5</ele><time>2026-05-01T07:45:41.509Z</time></trkpt><trkpt lat="42.436633" lon="14.2156902"><ele>52.0</ele><time>2026-05-01T07:45:43.516Z</time></trkpt><trkpt lat="42.436467" lon="14.215941"><ele>52.0</ele><time>2026-05-01T07:45:45.515Z</time></trkpt><trkpt lat="42.436313" lon="14.2161735"><ele>52.0</ele><time>2026-05-01T07:45:47.516Z</time></trkpt><trkpt lat="42.4361871" lon="14.2163879"><ele>52.0</ele><time>2026-05-01T07:45:49.524Z</time></trkpt><trkpt lat="42.4360725" lon="14.2165491"><ele>52.5</ele><time>2026-05-01T07:45:51.528Z</time></trkpt><trkpt lat="42.4359514" lon="14.2166706"><ele>53.0</ele><time>2026-05-01T07:45:53.528Z</time></trkpt><trkpt lat="42.435862" lon="14.216754"><ele>53.5</ele><time>2026-05-01T07:45:55.523Z</time></trkpt><trkpt lat="42.4358249" lon="14.2168385"><ele>54.0</ele><time>2026-05-01T07:45:59.537Z</time></trkpt><trkpt lat="42.4359648" lon="14.2169981"><ele>54.0</ele><time>2026-05-01T07:46:07.546Z</time></trkpt><trkpt lat="42.4361557" lon="14.2171039"><ele>54.0</ele><time>2026-05-01T07:46:09.606Z</time></trkpt><trkpt lat="42.4363492" lon="14.2172608"><ele>54.0</ele><time>2026-05-01T07:46:11.609Z</time></trkpt><trkpt lat="42.436524" lon="14.2174677"><ele>55.66666666666667</ele><time>2026-05-01T07:46:13.59Z</time></trkpt><trkpt lat="42.4366577" lon="14.2176237"><ele>57.333333333333336</ele><time>2026-05-01T07:46:15.61Z</time></trkpt><trkpt lat="42.4368017" lon="14.2177823"><ele>59.0</ele><time>2026-05-01T07:46:17.606Z</time></trkpt><trkpt lat="42.4369489" lon="14.2179346"><ele>59.0</ele><time>2026-05-01T07:46:19.612Z</time></trkpt><trkpt lat="42.4370905" lon="14.2180747"><ele>59.0</ele><time>2026-05-01T07:46:21.608Z</time></trkpt><trkpt lat="42.4372386" lon="14.218223"><ele>59.0</ele><time>2026-05-01T07:46:23.618Z</time></trkpt><trkpt lat="42.4373937" lon="14.2184056"><ele>59.66666666666667</ele><time>2026-05-01T07:46:25.615Z</time></trkpt><trkpt lat="42.4375454" lon="14.2185855"><ele>60.33333333333333</ele><time>2026-05-01T07:46:27.614Z</time></trkpt><trkpt lat="42.4376979" lon="14.2187641"><ele>61.0</ele><time>2026-05-01T07:46:29.613Z</time></trkpt><trkpt lat="42.4378431" lon="14.2189386"><ele>59.33333333333333</ele><time>2026-05-01T07:46:31.609Z</time></trkpt><trkpt lat="42.4379723" lon="14.2190926"><ele>57.66666666666667</ele><time>2026-05-01T07:46:33.609Z</time></trkpt><trkpt lat="42.438117" lon="14.2192397"><ele>56.0</ele><time>2026-05-01T07:46:35.618Z</time></trkpt><trkpt lat="42.438262" lon="14.2193787"><ele>56.0</ele><time>2026-05-01T07:46:37.626Z</time></trkpt><trkpt lat="42.4384075" lon="14.2195091"><ele>56.0</ele><time>2026-05-01T07:46:39.624Z</time></trkpt><trkpt lat="42.4385606" lon="14.2196434"><ele>56.0</ele><time>2026-05-01T07:46:41.619Z</time></trkpt><trkpt lat="42.4387197" lon="14.2198125"><ele>56.333333333333336</ele><time>2026-05-01T07:46:43.617Z</time></trkpt><trkpt lat="42.4388544" lon="14.2200357"><ele>56.66666666666667</ele><time>2026-05-01T07:46:45.61Z</time></trkpt><trkpt lat="42.4389623" lon="14.2202579"><ele>57.0</ele><time>2026-05-01T07:46:47.607Z</time></trkpt><trkpt lat="42.4390308" lon="14.2204766"><ele>56.66666666666667</ele><time>2026-05-01T07:46:49.617Z</time></trkpt><trkpt lat="42.4390866" lon="14.2207326"><ele>56.333333333333336</ele><time>2026-05-01T07:46:51.607Z</time></trkpt><trkpt lat="42.439095" lon="14.2210034"><ele>56.0</ele><time>2026-05-01T07:46:53.602Z</time></trkpt><trkpt lat="42.4390702" lon="14.2212567"><ele>55.0</ele><time>2026-05-01T07:46:55.615Z</time></trkpt><trkpt lat="42.4390143" lon="14.2215262"><ele>54.0</ele><time>2026-05-01T07:46:57.615Z</time></trkpt><trkpt lat="42.4389736" lon="14.2217884"><ele>53.0</ele><time>2026-05-01T07:46:59.616Z</time></trkpt><trkpt lat="42.4389715" lon="14.222001"><ele>53.0</ele><time>2026-05-01T07:47:01.614Z</time></trkpt><trkpt lat="42.4389982" lon="14.2221794"><ele>53.0</ele><time>2026-05-01T07:47:03.599Z</time></trkpt><trkpt lat="42.4390239" lon="14.2223086"><ele>53.0</ele><time>2026-05-01T07:47:05.596Z</time></trkpt><trkpt lat="42.4390093" lon="14.2224485"><ele>53.0</ele><time>2026-05-01T07:47:07.604Z</time></trkpt><trkpt lat="42.4389007" lon="14.2225868"><ele>47.66666666666667</ele><time>2026-05-01T07:47:09.593Z</time></trkpt><trkpt lat="42.438729" lon="14.2227257"><ele>42.333333333333336</ele><time>2026-05-01T07:47:11.507Z</time></trkpt><trkpt lat="42.4385144" lon="14.2226946"><ele>37.0</ele><time>2026-05-01T07:47:13.527Z</time></trkpt><trkpt lat="42.4383646" lon="14.2224983"><ele>39.0</ele><time>2026-05-01T07:47:15.521Z</time></trkpt><trkpt lat="42.4382572" lon="14.2222189"><ele>41.0</ele><time>2026-05-01T07:47:17.536Z</time></trkpt><trkpt lat="42.4381765" lon="14.2219099"><ele>41.0</ele><time>2026-05-01T07:47:19.522Z</time></trkpt><trkpt lat="42.4381328" lon="14.2216748"><ele>41.0</ele><time>2026-05-01T07:47:21.508Z</time></trkpt><trkpt lat="42.4380412" lon="14.2215448"><ele>41.0</ele><time>2026-05-01T07:47:23.518Z</time></trkpt><trkpt lat="42.437912" lon="14.2215148"><ele>41.0</ele><time>2026-05-01T07:47:25.52Z</time></trkpt><trkpt lat="42.4377713" lon="14.2216204"><ele>41.33333333333333</ele><time>2026-05-01T07:47:27.514Z</time></trkpt><trkpt lat="42.4376647" lon="14.221791"><ele>41.666666666666664</ele><time>2026-05-01T07:47:29.501Z</time></trkpt><trkpt lat="42.4376604" lon="14.222007"><ele>42.0</ele><time>2026-05-01T07:47:31.501Z</time></trkpt><trkpt lat="42.4377652" lon="14.2222531"><ele>41.5</ele><time>2026-05-01T07:47:33.502Z</time></trkpt><trkpt lat="42.4378822" lon="14.2225338"><ele>41.0</ele><time>2026-05-01T07:47:35.5Z</time></trkpt><trkpt lat="42.4379547" lon="14.222898"><ele>37.5</ele><time>2026-05-01T07:47:37.506Z</time></trkpt><trkpt lat="42.4380133" lon="14.2232911"><ele>34.0</ele><time>2026-05-01T07:47:39.516Z</time></trkpt><trkpt lat="42.4380674" lon="14.2236738"><ele>31.5</ele><time>2026-05-01T07:47:41.522Z</time></trkpt><trkpt lat="42.4381112" lon="14.2240626"><ele>29.0</ele><time>2026-05-01T07:47:43.52Z</time></trkpt><trkpt lat="42.4381524" lon="14.224468"><ele>27.5</ele><time>2026-05-01T07:47:45.52Z</time></trkpt><trkpt lat="42.4381898" lon="14.2248885"><ele>26.0</ele><time>2026-05-01T07:47:47.519Z</time></trkpt><trkpt lat="42.4382629" lon="14.2252253"><ele>26.0</ele><time>2026-05-01T07:47:49.52Z</time></trkpt><trkpt lat="42.4382477" lon="14.2255113"><ele>26.0</ele><time>2026-05-01T07:47:51.512Z</time></trkpt><trkpt lat="42.4381438" lon="14.225759"><ele>26.0</ele><time>2026-05-01T07:47:53.522Z</time></trkpt><trkpt lat="42.4380062" lon="14.2259887"><ele>29.333333333333332</ele><time>2026-05-01T07:47:55.523Z</time></trkpt><trkpt lat="42.4378525" lon="14.2261633"><ele>32.666666666666664</ele><time>2026-05-01T07:47:57.53Z</time></trkpt><trkpt lat="42.4376867" lon="14.2261575"><ele>36.0</ele><time>2026-05-01T07:47:59.529Z</time></trkpt><trkpt lat="42.43752" lon="14.2260099"><ele>36.0</ele><time>2026-05-01T07:48:01.523Z</time></trkpt><trkpt lat="42.4373536" lon="14.2258229"><ele>36.0</ele><time>2026-05-01T07:48:03.527Z</time></trkpt><trkpt lat="42.4371901" lon="14.2256354"><ele>36.0</ele><time>2026-05-01T07:48:05.526Z</time></trkpt><trkpt lat="42.4369865" lon="14.2254584"><ele>38.0</ele><time>2026-05-01T07:48:07.524Z</time></trkpt><trkpt lat="42.4367379" lon="14.2253563"><ele>40.0</ele><time>2026-05-01T07:48:09.518Z</time></trkpt><trkpt lat="42.4363969" lon="14.2252834"><ele>44.0</ele><time>2026-05-01T07:48:11.533Z</time></trkpt><trkpt lat="42.4361006" lon="14.2252243"><ele>48.0</ele><time>2026-05-01T07:48:13.526Z</time></trkpt><trkpt lat="42.4358269" lon="14.2251786"><ele>48.0</ele><time>2026-05-01T07:48:15.532Z</time></trkpt><trkpt lat="42.4355885" lon="14.2251566"><ele>48.0</ele><time>2026-05-01T07:48:17.524Z</time></trkpt><trkpt lat="42.4353996" lon="14.2252343"><ele>48.0</ele><time>2026-05-01T07:48:19.537Z</time></trkpt><trkpt lat="42.4352408" lon="14.2254367"><ele>56.5</ele><time>2026-05-01T07:48:21.52Z</time></trkpt><trkpt lat="42.4351112" lon="14.2257257"><ele>65.0</ele><time>2026-05-01T07:48:23.519Z</time></trkpt><trkpt lat="42.4350241" lon="14.225983"><ele>65.0</ele><time>2026-05-01T07:48:25.525Z</time></trkpt><trkpt lat="42.4350481" lon="14.2262087"><ele>65.0</ele><time>2026-05-01T07:48:27.525Z</time></trkpt><trkpt lat="42.4351745" lon="14.2263993"><ele>65.0</ele><time>2026-05-01T07:48:29.519Z</time></trkpt><trkpt lat="42.4353766" lon="14.2265134"><ele>67.33333333333334</ele><time>2026-05-01T07:48:31.513Z</time></trkpt><trkpt lat="42.4355897" lon="14.2265743"><ele>69.66666666666667</ele><time>2026-05-01T07:48:33.523Z</time></trkpt><trkpt lat="42.4357128" lon="14.226682"><ele>72.0</ele><time>2026-05-01T07:48:35.529Z</time></trkpt><trkpt lat="42.4356714" lon="14.2268824"><ele>72.0</ele><time>2026-05-01T07:48:37.527Z</time></trkpt><trkpt lat="42.4355202" lon="14.2271158"><ele>72.0</ele><time>2026-05-01T07:48:39.52Z</time></trkpt><trkpt lat="42.4353356" lon="14.2274129"><ele>76.5</ele><time>2026-05-01T07:48:41.524Z</time></trkpt><trkpt lat="42.435195" lon="14.2277697"><ele>81.0</ele><time>2026-05-01T07:48:43.523Z</time></trkpt><trkpt lat="42.4351049" lon="14.2281296"><ele>84.0</ele><time>2026-05-01T07:48:45.522Z</time></trkpt><trkpt lat="42.4350467" lon="14.2284744"><ele>87.0</ele><time>2026-05-01T07:48:47.522Z</time></trkpt><trkpt lat="42.4350017" lon="14.2288672"><ele>89.5</ele><time>2026-05-01T07:48:49.524Z</time></trkpt><trkpt lat="42.4349636" lon="14.2292644"><ele>92.0</ele><time>2026-05-01T07:48:51.521Z</time></trkpt><trkpt lat="42.4349044" lon="14.2296374"><ele>97.0</ele><time>2026-05-01T07:48:53.528Z</time></trkpt><trkpt lat="42.4349019" lon="14.2300084"><ele>102.0</ele><time>2026-05-01T07:48:55.516Z</time></trkpt><trkpt lat="42.435017" lon="14.2303826"><ele>113.0</ele><time>2026-05-01T07:48:57.521Z</time></trkpt><trkpt lat="42.4351453" lon="14.2307582"><ele>124.0</ele><time>2026-05-01T07:48:59.533Z</time></trkpt><trkpt lat="42.4352969" lon="14.2311378"><ele>123.5</ele><time>2026-05-01T07:49:01.53Z</time></trkpt><trkpt lat="42.4354352" lon="14.2314809"><ele>123.0</ele><time>2026-05-01T07:49:03.517Z</time></trkpt><trkpt lat="42.4356276" lon="14.2316752"><ele>123.0</ele><time>2026-05-01T07:49:05.526Z</time></trkpt><trkpt lat="42.435853" lon="14.2316972"><ele>123.0</ele><time>2026-05-01T07:49:07.53Z</time></trkpt><trkpt lat="42.4360315" lon="14.2316674"><ele>123.0</ele><time>2026-05-01T07:49:09.528Z</time></trkpt><trkpt lat="42.4361523" lon="14.2317275"><ele>123.0</ele><time>2026-05-01T07:49:11.522Z</time></trkpt><trkpt lat="42.4361447" lon="14.2318628"><ele>123.0</ele><time>2026-05-01T07:49:13.528Z</time></trkpt><trkpt lat="42.4360053" lon="14.2319845"><ele>123.0</ele><time>2026-05-01T07:49:15.536Z</time></trkpt><trkpt lat="42.435763" lon="14.2320659"><ele>123.0</ele><time>2026-05-01T07:49:17.535Z</time></trkpt><trkpt lat="42.4354882" lon="14.2321158"><ele>123.0</ele><time>2026-05-01T07:49:19.533Z</time></trkpt><trkpt lat="42.4351967" lon="14.2320739"><ele>132.5</ele><time>2026-05-01T07:49:21.556Z</time></trkpt><trkpt lat="42.4349146" lon="14.232069"><ele>142.0</ele><time>2026-05-01T07:49:23.539Z</time></trkpt><trkpt lat="42.4346383" lon="14.2320815"><ele>142.5</ele><time>2026-05-01T07:49:25.537Z</time></trkpt><trkpt lat="42.4343708" lon="14.2321531"><ele>143.0</ele><time>2026-05-01T07:49:27.528Z</time></trkpt><trkpt lat="42.4341311" lon="14.2323696"><ele>143.0</ele><time>2026-05-01T07:49:29.529Z</time></trkpt><trkpt lat="42.4338804" lon="14.2325849"><ele>143.0</ele><time>2026-05-01T07:49:31.53Z</time></trkpt><trkpt lat="42.4336527" lon="14.2328406"><ele>149.0</ele><time>2026-05-01T07:49:33.519Z</time></trkpt><trkpt lat="42.4335687" lon="14.2331401"><ele>155.0</ele><time>2026-05-01T07:49:35.512Z</time></trkpt><trkpt lat="42.433564" lon="14.2335076"><ele>155.0</ele><time>2026-05-01T07:49:37.523Z</time></trkpt><trkpt lat="42.433565" lon="14.2338623"><ele>155.0</ele><time>2026-05-01T07:49:39.524Z</time></trkpt><trkpt lat="42.4335112" lon="14.2341729"><ele>154.5</ele><time>2026-05-01T07:49:41.531Z</time></trkpt><trkpt lat="42.4334067" lon="14.2344802"><ele>154.0</ele><time>2026-05-01T07:49:43.527Z</time></trkpt><trkpt lat="42.4333212" lon="14.234761"><ele>153.0</ele><time>2026-05-01T07:49:45.524Z</time></trkpt><trkpt lat="42.4332623" lon="14.2350251"><ele>152.0</ele><time>2026-05-01T07:49:47.52Z</time></trkpt><trkpt lat="42.4332203" lon="14.2352876"><ele>151.0</ele><time>2026-05-01T07:49:49.521Z</time></trkpt><trkpt lat="42.4332086" lon="14.2355445"><ele>150.0</ele><time>2026-05-01T07:49:51.531Z</time></trkpt><trkpt lat="42.4332349" lon="14.2358029"><ele>149.0</ele><time>2026-05-01T07:49:53.526Z</time></trkpt><trkpt lat="42.4332379" lon="14.2360177"><ele>148.0</ele><time>2026-05-01T07:49:55.524Z</time></trkpt><trkpt lat="42.4332306" lon="14.2362073"><ele>148.0</ele><time>2026-05-01T07:49:57.523Z</time></trkpt><trkpt lat="42.4332138" lon="14.2363374"><ele>148.0</ele><time>2026-05-01T07:49:59.527Z</time></trkpt><trkpt lat="42.433157" lon="14.2363966"><ele>148.0</ele><time>2026-05-01T07:50:01.516Z</time></trkpt><trkpt lat="42.433037" lon="14.2364032"><ele>148.0</ele><time>2026-05-01T07:50:03.531Z</time></trkpt><trkpt lat="42.4328484" lon="14.2363647"><ele>148.0</ele><time>2026-05-01T07:50:05.526Z</time></trkpt><trkpt lat="42.4325986" lon="14.2363318"><ele>148.0</ele><time>2026-05-01T07:50:07.52Z</time></trkpt><trkpt lat="42.43235" lon="14.2363104"><ele>148.66666666666669</ele><time>2026-05-01T07:50:09.523Z</time></trkpt><trkpt lat="42.4321389" lon="14.2362988"><ele>149.33333333333334</ele><time>2026-05-01T07:50:11.52Z</time></trkpt><trkpt lat="42.4319403" lon="14.2362945"><ele>150.0</ele><time>2026-05-01T07:50:13.526Z</time></trkpt><trkpt lat="42.4317349" lon="14.2362857"><ele>150.0</ele><time>2026-05-01T07:50:15.528Z</time></trkpt><trkpt lat="42.4314938" lon="14.2362738"><ele>150.0</ele><time>2026-05-01T07:50:17.525Z</time></trkpt><trkpt lat="42.4312148" lon="14.2362631"><ele>150.5</ele><time>2026-05-01T07:50:19.523Z</time></trkpt><trkpt lat="42.4309162" lon="14.2362278"><ele>151.0</ele><time>2026-05-01T07:50:21.524Z</time></trkpt><trkpt lat="42.4306475" lon="14.2362082"><ele>151.5</ele><time>2026-05-01T07:50:23.529Z</time></trkpt><trkpt lat="42.4304103" lon="14.2361992"><ele>152.0</ele><time>2026-05-01T07:50:25.613Z</time></trkpt><trkpt lat="42.4301709" lon="14.2361899"><ele>152.0</ele><time>2026-05-01T07:50:27.606Z</time></trkpt><trkpt lat="42.429934" lon="14.2361724"><ele>152.0</ele><time>2026-05-01T07:50:29.616Z</time></trkpt><trkpt lat="42.4296882" lon="14.2361495"><ele>152.66666666666666</ele><time>2026-05-01T07:50:31.615Z</time></trkpt><trkpt lat="42.4294738" lon="14.2361048"><ele>153.33333333333334</ele><time>2026-05-01T07:50:33.605Z</time></trkpt><trkpt lat="42.4293505" lon="14.235941"><ele>154.0</ele><time>2026-05-01T07:50:35.615Z</time></trkpt><trkpt lat="42.4292725" lon="14.235736"><ele>154.0</ele><time>2026-05-01T07:50:37.595Z</time></trkpt><trkpt lat="42.429275" lon="14.2354072"><ele>154.0</ele><time>2026-05-01T07:50:39.601Z</time></trkpt><trkpt lat="42.429259" lon="14.2351164"><ele>154.0</ele><time>2026-05-01T07:50:41.613Z</time></trkpt><trkpt lat="42.4292404" lon="14.2347789"><ele>154.0</ele><time>2026-05-01T07:50:43.613Z</time></trkpt><trkpt lat="42.4292107" lon="14.2344573"><ele>154.0</ele><time>2026-05-01T07:50:45.603Z</time></trkpt><trkpt lat="42.429132" lon="14.2342009"><ele>154.0</ele><time>2026-05-01T07:50:47.611Z</time></trkpt><trkpt lat="42.4289645" lon="14.2340234"><ele>154.0</ele><time>2026-05-01T07:50:49.595Z</time></trkpt><trkpt lat="42.4287254" lon="14.2339037"><ele>153.0</ele><time>2026-05-01T07:50:51.594Z</time></trkpt><trkpt lat="42.4284357" lon="14.2338083"><ele>152.0</ele><time>2026-05-01T07:50:53.546Z</time></trkpt><trkpt lat="42.428178" lon="14.2336729"><ele>152.0</ele><time>2026-05-01T07:50:55.532Z</time></trkpt><trkpt lat="42.4279507" lon="14.233554"><ele>152.0</ele><time>2026-05-01T07:50:57.543Z</time></trkpt><trkpt lat="42.4277322" lon="14.2334385"><ele>152.0</ele><time>2026-05-01T07:50:59.539Z</time></trkpt><trkpt lat="42.4275302" lon="14.2333528"><ele>152.0</ele><time>2026-05-01T07:51:01.54Z</time></trkpt><trkpt lat="42.4273606" lon="14.2332689"><ele>152.0</ele><time>2026-05-01T07:51:03.534Z</time></trkpt><trkpt lat="42.4272036" lon="14.2331421"><ele>151.33333333333331</ele><time>2026-05-01T07:51:05.534Z</time></trkpt><trkpt lat="42.4270547" lon="14.2329457"><ele>150.66666666666666</ele><time>2026-05-01T07:51:07.524Z</time></trkpt><trkpt lat="42.4269267" lon="14.2327295"><ele>150.0</ele><time>2026-05-01T07:51:09.52Z</time></trkpt><trkpt lat="42.4267817" lon="14.2324917"><ele>150.0</ele><time>2026-05-01T07:51:11.522Z</time></trkpt><trkpt lat="42.4265746" lon="14.232341"><ele>150.0</ele><time>2026-05-01T07:51:13.526Z</time></trkpt><trkpt lat="42.4263317" lon="14.2322294"><ele>148.0</ele><time>2026-05-01T07:51:15.528Z</time></trkpt><trkpt lat="42.4261034" lon="14.2321256"><ele>146.0</ele><time>2026-05-01T07:51:17.528Z</time></trkpt><trkpt lat="42.4258959" lon="14.2320136"><ele>146.0</ele><time>2026-05-01T07:51:19.537Z</time></trkpt><trkpt lat="42.4256929" lon="14.2319048"><ele>146.0</ele><time>2026-05-01T07:51:21.538Z</time></trkpt><trkpt lat="42.4254871" lon="14.2317955"><ele>146.0</ele><time>2026-05-01T07:51:23.537Z</time></trkpt><trkpt lat="42.4252874" lon="14.2317182"><ele>149.66666666666666</ele><time>2026-05-01T07:51:25.526Z</time></trkpt><trkpt lat="42.4250735" lon="14.2317194"><ele>153.33333333333334</ele><time>2026-05-01T07:51:27.526Z</time></trkpt><trkpt lat="42.4248888" lon="14.2318776"><ele>157.0</ele><time>2026-05-01T07:51:29.519Z</time></trkpt><trkpt lat="42.424719" lon="14.2320708"><ele>158.66666666666669</ele><time>2026-05-01T07:51:31.524Z</time></trkpt><trkpt lat="42.4245195" lon="14.2321463"><ele>160.33333333333334</ele><time>2026-05-01T07:51:33.516Z</time></trkpt><trkpt lat="42.4242917" lon="14.2321149"><ele>162.0</ele><time>2026-05-01T07:51:35.524Z</time></trkpt><trkpt lat="42.4240359" lon="14.2320319"><ele>162.5</ele><time>2026-05-01T07:51:37.529Z</time></trkpt><trkpt lat="42.4238007" lon="14.2319351"><ele>163.0</ele><time>2026-05-01T07:51:39.522Z</time></trkpt><trkpt lat="42.4235804" lon="14.2318321"><ele>163.0</ele><time>2026-05-01T07:51:41.518Z</time></trkpt><trkpt lat="42.4233651" lon="14.2317026"><ele>163.0</ele><time>2026-05-01T07:51:43.524Z</time></trkpt><trkpt lat="42.4231653" lon="14.2315952"><ele>163.0</ele><time>2026-05-01T07:51:45.527Z</time></trkpt><trkpt lat="42.4229749" lon="14.2315127"><ele>163.0</ele><time>2026-05-01T07:51:47.524Z</time></trkpt><trkpt lat="42.4227711" lon="14.231438"><ele>163.0</ele><time>2026-05-01T07:51:49.526Z</time></trkpt><trkpt lat="42.4225615" lon="14.2313821"><ele>163.0</ele><time>2026-05-01T07:51:51.529Z</time></trkpt><trkpt lat="42.4223622" lon="14.231322"><ele>163.0</ele><time>2026-05-01T07:51:53.535Z</time></trkpt><trkpt lat="42.4221609" lon="14.2312946"><ele>163.0</ele><time>2026-05-01T07:51:55.546Z</time></trkpt><trkpt lat="42.4219317" lon="14.2312374"><ele>166.0</ele><time>2026-05-01T07:51:57.53Z</time></trkpt><trkpt lat="42.4216754" lon="14.2311839"><ele>169.0</ele><time>2026-05-01T07:51:59.526Z</time></trkpt><trkpt lat="42.4214329" lon="14.2311099"><ele>166.5</ele><time>2026-05-01T07:52:01.526Z</time></trkpt><trkpt lat="42.4211905" lon="14.2310263"><ele>164.0</ele><time>2026-05-01T07:52:03.528Z</time></trkpt><trkpt lat="42.4209293" lon="14.2309094"><ele>164.0</ele><time>2026-05-01T07:52:05.525Z</time></trkpt><trkpt lat="42.4206434" lon="14.2307644"><ele>164.0</ele><time>2026-05-01T07:52:07.535Z</time></trkpt><trkpt lat="42.4203186" lon="14.2306347"><ele>159.5</ele><time>2026-05-01T07:52:09.535Z</time></trkpt><trkpt lat="42.4199897" lon="14.2305416"><ele>155.0</ele><time>2026-05-01T07:52:11.529Z</time></trkpt><trkpt lat="42.4196535" lon="14.2305192"><ele>155.0</ele><time>2026-05-01T07:52:13.535Z</time></trkpt><trkpt lat="42.4193221" lon="14.2305035"><ele>155.0</ele><time>2026-05-01T07:52:15.538Z</time></trkpt><trkpt lat="42.4189931" lon="14.2304983"><ele>153.0</ele><time>2026-05-01T07:52:17.535Z</time></trkpt><trkpt lat="42.4186713" lon="14.2304996"><ele>151.0</ele><time>2026-05-01T07:52:19.531Z</time></trkpt><trkpt lat="42.4183552" lon="14.2304825"><ele>151.0</ele><time>2026-05-01T07:52:21.536Z</time></trkpt><trkpt lat="42.4180665" lon="14.2304588"><ele>151.0</ele><time>2026-05-01T07:52:23.54Z</time></trkpt><trkpt lat="42.4177691" lon="14.2304655"><ele>155.0</ele><time>2026-05-01T07:52:25.538Z</time></trkpt><trkpt lat="42.4174837" lon="14.2304431"><ele>159.0</ele><time>2026-05-01T07:52:27.538Z</time></trkpt><trkpt lat="42.4172481" lon="14.2304302"><ele>160.0</ele><time>2026-05-01T07:52:29.534Z</time></trkpt><trkpt lat="42.4170753" lon="14.2304389"><ele>161.0</ele><time>2026-05-01T07:52:31.54Z</time></trkpt><trkpt lat="42.4169602" lon="14.2304346"><ele>162.0</ele><time>2026-05-01T07:52:33.534Z</time></trkpt><trkpt lat="42.416869" lon="14.230478"><ele>163.0</ele><time>2026-05-01T07:52:35.528Z</time></trkpt><trkpt lat="42.4168268" lon="14.230564"><ele>164.25</ele><time>2026-05-01T07:52:37.535Z</time></trkpt><trkpt lat="42.4168112" lon="14.2306525"><ele>165.5</ele><time>2026-05-01T07:52:41.546Z</time></trkpt><trkpt lat="42.4168465" lon="14.2308513"><ele>166.75</ele><time>2026-05-01T07:52:45.544Z</time></trkpt><trkpt lat="42.4169528" lon="14.231102"><ele>168.0</ele><time>2026-05-01T07:52:47.533Z</time></trkpt><trkpt lat="42.4170873" lon="14.231354"><ele>167.5</ele><time>2026-05-01T07:52:49.53Z</time></trkpt><trkpt lat="42.417224" lon="14.231652"><ele>167.0</ele><time>2026-05-01T07:52:51.537Z</time></trkpt><trkpt lat="42.4173681" lon="14.2319821"><ele>166.0</ele><time>2026-05-01T07:52:53.624Z</time></trkpt><trkpt lat="42.4175146" lon="14.2323336"><ele>165.0</ele><time>2026-05-01T07:52:55.621Z</time></trkpt><trkpt lat="42.4176691" lon="14.2327054"><ele>165.0</ele><time>2026-05-01T07:52:57.636Z</time></trkpt><trkpt lat="42.4178309" lon="14.23309"><ele>165.0</ele><time>2026-05-01T07:52:59.629Z</time></trkpt><trkpt lat="42.4179982" lon="14.233485"><ele>165.0</ele><time>2026-05-01T07:53:01.619Z</time></trkpt><trkpt lat="42.4181607" lon="14.2338841"><ele>165.0</ele><time>2026-05-01T07:53:03.619Z</time></trkpt><trkpt lat="42.4183095" lon="14.2342846"><ele>164.5</ele><time>2026-05-01T07:53:05.618Z</time></trkpt><trkpt lat="42.4184754" lon="14.2346852"><ele>164.0</ele><time>2026-05-01T07:53:07.617Z</time></trkpt><trkpt lat="42.4186483" lon="14.2350883"><ele>162.0</ele><time>2026-05-01T07:53:09.621Z</time></trkpt><trkpt lat="42.4188135" lon="14.2354966"><ele>160.0</ele><time>2026-05-01T07:53:11.624Z</time></trkpt><trkpt lat="42.4189671" lon="14.2358855"><ele>160.0</ele><time>2026-05-01T07:53:13.624Z</time></trkpt><trkpt lat="42.4191067" lon="14.2362737"><ele>160.0</ele><time>2026-05-01T07:53:15.625Z</time></trkpt><trkpt lat="42.419232" lon="14.2366735"><ele>158.0</ele><time>2026-05-01T07:53:17.625Z</time></trkpt><trkpt lat="42.4193465" lon="14.2370842"><ele>156.0</ele><time>2026-05-01T07:53:19.619Z</time></trkpt><trkpt lat="42.419449" lon="14.2374554"><ele>154.5</ele><time>2026-05-01T07:53:21.616Z</time></trkpt><trkpt lat="42.4195477" lon="14.2378004"><ele>153.0</ele><time>2026-05-01T07:53:23.611Z</time></trkpt><trkpt lat="42.4196515" lon="14.2381691"><ele>153.0</ele><time>2026-05-01T07:53:25.612Z</time></trkpt><trkpt lat="42.4197808" lon="14.238517"><ele>153.0</ele><time>2026-05-01T07:53:27.613Z</time></trkpt><trkpt lat="42.4199665" lon="14.2388149"><ele>151.0</ele><time>2026-05-01T07:53:29.591Z</time></trkpt><trkpt lat="42.4201706" lon="14.2390841"><ele>149.0</ele><time>2026-05-01T07:53:31.51Z</time></trkpt><trkpt lat="42.4203357" lon="14.2394384"><ele>149.0</ele><time>2026-05-01T07:53:33.518Z</time></trkpt><trkpt lat="42.4204792" lon="14.2397878"><ele>149.0</ele><time>2026-05-01T07:53:35.515Z</time></trkpt><trkpt lat="42.4206082" lon="14.2401154"><ele>149.0</ele><time>2026-05-01T07:53:37.521Z</time></trkpt><trkpt lat="42.4207334" lon="14.2404835"><ele>149.0</ele><time>2026-05-01T07:53:39.521Z</time></trkpt><trkpt lat="42.4208171" lon="14.2408681"><ele>146.0</ele><time>2026-05-01T07:53:41.522Z</time></trkpt><trkpt lat="42.4208944" lon="14.241212"><ele>143.0</ele><time>2026-05-01T07:53:43.524Z</time></trkpt><trkpt lat="42.4209663" lon="14.2415269"><ele>140.66666666666666</ele><time>2026-05-01T07:53:45.522Z</time></trkpt><trkpt lat="42.4210325" lon="14.2418022"><ele>138.33333333333334</ele><time>2026-05-01T07:53:47.52Z</time></trkpt><trkpt lat="42.4210465" lon="14.2420971"><ele>136.0</ele><time>2026-05-01T07:53:49.522Z</time></trkpt><trkpt lat="42.4209924" lon="14.2424037"><ele>134.0</ele><time>2026-05-01T07:53:51.513Z</time></trkpt><trkpt lat="42.420826" lon="14.2426292"><ele>132.0</ele><time>2026-05-01T07:53:53.526Z</time></trkpt><trkpt lat="42.4205716" lon="14.2427762"><ele>126.5</ele><time>2026-05-01T07:53:55.515Z</time></trkpt><trkpt lat="42.4203979" lon="14.2430245"><ele>121.0</ele><time>2026-05-01T07:53:57.509Z</time></trkpt><trkpt lat="42.4202663" lon="14.2434182"><ele>119.0</ele><time>2026-05-01T07:53:59.532Z</time></trkpt><trkpt lat="42.420175" lon="14.2438092"><ele>117.0</ele><time>2026-05-01T07:54:01.525Z</time></trkpt><trkpt lat="42.4200947" lon="14.2442184"><ele>116.5</ele><time>2026-05-01T07:54:03.52Z</time></trkpt><trkpt lat="42.4200415" lon="14.2446635"><ele>116.0</ele><time>2026-05-01T07:54:05.518Z</time></trkpt><trkpt lat="42.4199987" lon="14.245163"><ele>116.0</ele><time>2026-05-01T07:54:07.527Z</time></trkpt><trkpt lat="42.4199792" lon="14.2456093"><ele>116.0</ele><time>2026-05-01T07:54:09.523Z</time></trkpt><trkpt lat="42.4199585" lon="14.2460711"><ele>115.5</ele><time>2026-05-01T07:54:11.523Z</time></trkpt><trkpt lat="42.4199346" lon="14.2465124"><ele>115.0</ele><time>2026-05-01T07:54:13.517Z</time></trkpt><trkpt lat="42.4199211" lon="14.2469418"><ele>113.0</ele><time>2026-05-01T07:54:15.519Z</time></trkpt><trkpt lat="42.4199343" lon="14.2473868"><ele>111.0</ele><time>2026-05-01T07:54:17.52Z</time></trkpt><trkpt lat="42.4199791" lon="14.2477778"><ele>108.0</ele><time>2026-05-01T07:54:19.527Z</time></trkpt><trkpt lat="42.4200518" lon="14.2481751"><ele>105.0</ele><time>2026-05-01T07:54:21.523Z</time></trkpt><trkpt lat="42.420111" lon="14.2484916"><ele>105.0</ele><time>2026-05-01T07:54:23.531Z</time></trkpt><trkpt lat="42.4201439" lon="14.2486652"><ele>105.0</ele><time>2026-05-01T07:54:25.529Z</time></trkpt><trkpt lat="42.4201677" lon="14.2487979"><ele>105.0</ele><time>2026-05-01T07:54:33.535Z</time></trkpt><trkpt lat="42.4201448" lon="14.2488958"><ele>105.0</ele><time>2026-05-01T07:54:35.529Z</time></trkpt><trkpt lat="42.4199977" lon="14.249008"><ele>103.8</ele><time>2026-05-01T07:54:37.534Z</time></trkpt><trkpt lat="42.4198838" lon="14.2491153"><ele>102.6</ele><time>2026-05-01T07:54:39.523Z</time></trkpt><trkpt lat="42.4197746" lon="14.2492123"><ele>101.4</ele><time>2026-05-01T07:54:41.523Z</time></trkpt><trkpt lat="42.4197074" lon="14.2492861"><ele>100.2</ele><time>2026-05-01T07:54:45.533Z</time></trkpt><trkpt lat="42.4196471" lon="14.2493467"><ele>99.0</ele><time>2026-05-01T07:54:49.543Z</time></trkpt><trkpt lat="42.4194968" lon="14.2492778"><ele>94.0</ele><time>2026-05-01T07:54:53.541Z</time></trkpt><trkpt lat="42.4193566" lon="14.2492106"><ele>89.0</ele><time>2026-05-01T07:54:55.531Z</time></trkpt><trkpt lat="42.4192068" lon="14.2491573"><ele>84.0</ele><time>2026-05-01T07:54:57.53Z</time></trkpt><trkpt lat="42.4190189" lon="14.2491009"><ele>84.0</ele><time>2026-05-01T07:54:59.532Z</time></trkpt><trkpt lat="42.4188286" lon="14.2490579"><ele>84.0</ele><time>2026-05-01T07:55:01.548Z</time></trkpt><trkpt lat="42.418684" lon="14.2490316"><ele>84.0</ele><time>2026-05-01T07:55:03.535Z</time></trkpt><trkpt lat="42.4185457" lon="14.2489859"><ele>80.0</ele><time>2026-05-01T07:55:05.524Z</time></trkpt><trkpt lat="42.4184227" lon="14.2489529"><ele>76.0</ele><time>2026-05-01T07:55:07.504Z</time></trkpt><trkpt lat="42.4182877" lon="14.2489505"><ele>72.0</ele><time>2026-05-01T07:55:09.489Z</time></trkpt><trkpt lat="42.418156" lon="14.2489316"><ele>68.0</ele><time>2026-05-01T07:55:11.441Z</time></trkpt><trkpt lat="42.4179457" lon="14.2489673"><ele>65.0</ele><time>2026-05-01T07:55:13.504Z</time></trkpt><trkpt lat="42.4179002" lon="14.2488916"><ele>62.0</ele><time>2026-05-01T07:55:15.508Z</time></trkpt><trkpt lat="42.4178548" lon="14.2488259"><ele>59.0</ele><time>2026-05-01T07:55:19.56Z</time></trkpt><trkpt lat="42.4177693" lon="14.2486946"><ele>56.0</ele><time>2026-05-01T07:55:23.552Z</time></trkpt><trkpt lat="42.4176806" lon="14.248653"><ele>53.0</ele><time>2026-05-01T07:55:25.546Z</time></trkpt><trkpt lat="42.4175843" lon="14.2486055"><ele>53.0</ele><time>2026-05-01T07:55:27.551Z</time></trkpt><trkpt lat="42.417469" lon="14.2485616"><ele>53.0</ele><time>2026-05-01T07:55:29.539Z</time></trkpt><trkpt lat="42.4173582" lon="14.2485088"><ele>53.0</ele><time>2026-05-01T07:55:31.547Z</time></trkpt><trkpt lat="42.4172774" lon="14.2484112"><ele>53.0</ele><time>2026-05-01T07:55:33.547Z</time></trkpt><trkpt lat="42.4172232" lon="14.2482672"><ele>53.2</ele><time>2026-05-01T07:55:35.543Z</time></trkpt><trkpt lat="42.4172246" lon="14.2481243"><ele>53.4</ele><time>2026-05-01T07:55:37.543Z</time></trkpt><trkpt lat="42.4172494" lon="14.2479843"><ele>53.60000000000001</ele><time>2026-05-01T07:55:39.551Z</time></trkpt><trkpt lat="42.4171646" lon="14.2478937"><ele>53.800000000000004</ele><time>2026-05-01T07:56:11.566Z</time></trkpt><trkpt lat="42.4170956" lon="14.2478896"><ele>54.0</ele><time>2026-05-01T07:56:13.559Z</time></trkpt><trkpt lat="42.4170265" lon="14.2478876"><ele>52.166666666666664</ele><time>2026-05-01T07:56:15.553Z</time></trkpt><trkpt lat="42.4169615" lon="14.247871"><ele>50.333333333333336</ele><time>2026-05-01T07:56:17.557Z</time></trkpt><trkpt lat="42.4168985" lon="14.2478583"><ele>48.5</ele><time>2026-05-01T07:56:19.56Z</time></trkpt><trkpt lat="42.4167727" lon="14.2477987"><ele>46.66666666666667</ele><time>2026-05-01T07:56:23.564Z</time></trkpt><trkpt lat="42.4166906" lon="14.247767"><ele>44.833333333333336</ele><time>2026-05-01T07:56:25.557Z</time></trkpt><trkpt lat="42.4166205" lon="14.2477708"><ele>43.0</ele><time>2026-05-01T07:56:27.558Z</time></trkpt><trkpt lat="42.4165185" lon="14.2477875"><ele>43.0</ele><time>2026-05-01T07:56:29.565Z</time></trkpt><trkpt lat="42.416447" lon="14.2478358"><ele>43.0</ele><time>2026-05-01T07:56:31.559Z</time></trkpt><trkpt lat="42.4163771" lon="14.2479682"><ele>43.0</ele><time>2026-05-01T07:56:33.56Z</time></trkpt><trkpt lat="42.4162854" lon="14.2481115"><ele>43.0</ele><time>2026-05-01T07:56:35.558Z</time></trkpt><trkpt lat="42.4161995" lon="14.2482237"><ele>45.75</ele><time>2026-05-01T07:56:37.552Z</time></trkpt><trkpt lat="42.4161095" lon="14.2483509"><ele>48.5</ele><time>2026-05-01T07:56:39.554Z</time></trkpt><trkpt lat="42.4160142" lon="14.2484639"><ele>51.25</ele><time>2026-05-01T07:56:41.564Z</time></trkpt><trkpt lat="42.4159199" lon="14.2485809"><ele>54.0</ele><time>2026-05-01T07:56:43.564Z</time></trkpt><trkpt lat="42.4158139" lon="14.2486892"><ele>54.0</ele><time>2026-05-01T07:56:45.566Z</time></trkpt><trkpt lat="42.415707" lon="14.2488012"><ele>54.0</ele><time>2026-05-01T07:56:47.564Z</time></trkpt><trkpt lat="42.415587" lon="14.2489049"><ele>54.0</ele><time>2026-05-01T07:56:49.564Z</time></trkpt><trkpt lat="42.4154649" lon="14.2490316"><ele>54.0</ele><time>2026-05-01T07:56:51.562Z</time></trkpt><trkpt lat="42.415352" lon="14.249189"><ele>61.33333333333333</ele><time>2026-05-01T07:56:53.57Z</time></trkpt><trkpt lat="42.4152716" lon="14.2493687"><ele>68.66666666666666</ele><time>2026-05-01T07:56:55.565Z</time></trkpt><trkpt lat="42.4151664" lon="14.2495152"><ele>76.0</ele><time>2026-05-01T07:56:57.564Z</time></trkpt><trkpt lat="42.4150448" lon="14.2496588"><ele>76.0</ele><time>2026-05-01T07:56:59.571Z</time></trkpt><trkpt lat="42.4149242" lon="14.2497514"><ele>76.0</ele><time>2026-05-01T07:57:01.568Z</time></trkpt><trkpt lat="42.4147921" lon="14.2498311"><ele>76.0</ele><time>2026-05-01T07:57:03.568Z</time></trkpt><trkpt lat="42.4146642" lon="14.2499492"><ele>76.0</ele><time>2026-05-01T07:57:05.575Z</time></trkpt><trkpt lat="42.4145418" lon="14.2500689"><ele>78.0</ele><time>2026-05-01T07:57:07.568Z</time></trkpt><trkpt lat="42.4144494" lon="14.2501738"><ele>80.0</ele><time>2026-05-01T07:57:09.568Z</time></trkpt><trkpt lat="42.4143625" lon="14.2502698"><ele>82.0</ele><time>2026-05-01T07:57:11.561Z</time></trkpt><trkpt lat="42.4142742" lon="14.2502731"><ele>84.0</ele><time>2026-05-01T07:57:13.56Z</time></trkpt><trkpt lat="42.4141976" lon="14.250165"><ele>86.0</ele><time>2026-05-01T07:57:15.567Z</time></trkpt><trkpt lat="42.4140909" lon="14.2499767"><ele>86.0</ele><time>2026-05-01T07:57:17.591Z</time></trkpt><trkpt lat="42.413936" lon="14.2498105"><ele>86.0</ele><time>2026-05-01T07:57:19.653Z</time></trkpt><trkpt lat="42.4138032" lon="14.2497221"><ele>86.0</ele><time>2026-05-01T07:57:21.641Z</time></trkpt><trkpt lat="42.4137111" lon="14.2496828"><ele>86.0</ele><time>2026-05-01T07:57:23.631Z</time></trkpt><trkpt lat="42.4136382" lon="14.2496659"><ele>86.6</ele><time>2026-05-01T07:57:27.652Z</time></trkpt><trkpt lat="42.4135678" lon="14.2496856"><ele>87.19999999999999</ele><time>2026-05-01T07:57:45.657Z</time></trkpt><trkpt lat="42.4134528" lon="14.249689"><ele>87.80000000000001</ele><time>2026-05-01T07:57:49.657Z</time></trkpt><trkpt lat="42.4134073" lon="14.2497514"><ele>88.4</ele><time>2026-05-01T07:57:51.654Z</time></trkpt><trkpt lat="42.4132713" lon="14.2498429"><ele>89.0</ele><time>2026-05-01T07:58:01.569Z</time></trkpt><trkpt lat="42.4132051" lon="14.2498768"><ele>90.66666666666667</ele><time>2026-05-01T07:58:03.568Z</time></trkpt><trkpt lat="42.4131426" lon="14.2496706"><ele>92.33333333333333</ele><time>2026-05-01T07:58:07.577Z</time></trkpt><trkpt lat="42.413133" lon="14.2494231"><ele>94.0</ele><time>2026-05-01T07:58:09.561Z</time></trkpt><trkpt lat="42.4131015" lon="14.2491115"><ele>96.0</ele><time>2026-05-01T07:58:11.574Z</time></trkpt><trkpt lat="42.4130653" lon="14.248786"><ele>98.0</ele><time>2026-05-01T07:58:13.566Z</time></trkpt><trkpt lat="42.4130166" lon="14.24847"><ele>97.5</ele><time>2026-05-01T07:58:15.561Z</time></trkpt><trkpt lat="42.4129565" lon="14.24817"><ele>97.0</ele><time>2026-05-01T07:58:17.567Z</time></trkpt><trkpt lat="42.412908" lon="14.2478599"><ele>97.0</ele><time>2026-05-01T07:58:19.566Z</time></trkpt><trkpt lat="42.4128609" lon="14.2475674"><ele>97.0</ele><time>2026-05-01T07:58:21.559Z</time></trkpt><trkpt lat="42.4128182" lon="14.2473298"><ele>97.0</ele><time>2026-05-01T07:58:23.559Z</time></trkpt><trkpt lat="42.4127699" lon="14.2471685"><ele>99.25</ele><time>2026-05-01T07:58:25.545Z</time></trkpt><trkpt lat="42.4128131" lon="14.2471059"><ele>101.5</ele><time>2026-05-01T07:58:27.553Z</time></trkpt><trkpt lat="42.4129383" lon="14.2470667"><ele>103.75</ele><time>2026-05-01T07:58:29.571Z</time></trkpt><trkpt lat="42.4131345" lon="14.2469717"><ele>106.0</ele><time>2026-05-01T07:58:31.558Z</time></trkpt><trkpt lat="42.4133412" lon="14.2468632"><ele>106.6</ele><time>2026-05-01T07:58:33.559Z</time></trkpt><trkpt lat="42.4134632" lon="14.2468008"><ele>107.19999999999999</ele><time>2026-05-01T07:58:35.569Z</time></trkpt><trkpt lat="42.4135344" lon="14.2467407"><ele>107.80000000000001</ele><time>2026-05-01T07:58:37.567Z</time></trkpt><trkpt lat="42.4136041" lon="14.2467031"><ele>108.4</ele><time>2026-05-01T07:58:39.558Z</time></trkpt><trkpt lat="42.4136746" lon="14.2466404"><ele>109.0</ele><time>2026-05-01T07:58:41.572Z</time></trkpt><trkpt lat="42.4137156" lon="14.2465435"><ele>110.75</ele><time>2026-05-01T07:58:43.573Z</time></trkpt><trkpt lat="42.4137463" lon="14.2464179"><ele>112.5</ele><time>2026-05-01T07:59:01.571Z</time></trkpt><trkpt lat="42.4137905" lon="14.2462844"><ele>114.25</ele><time>2026-05-01T07:59:05.579Z</time></trkpt><trkpt lat="42.4138087" lon="14.246103"><ele>116.0</ele><time>2026-05-01T07:59:07.575Z</time></trkpt><trkpt lat="42.4138307" lon="14.2459409"><ele>116.0</ele><time>2026-05-01T07:59:09.601Z</time></trkpt><trkpt lat="42.4138338" lon="14.2458194"><ele>116.0</ele><time>2026-05-01T07:59:11.563Z</time></trkpt><trkpt lat="42.4138109" lon="14.2457227"><ele>116.0</ele><time>2026-05-01T08:01:29.569Z</time></trkpt><trkpt lat="42.4138004" lon="14.2455284"><ele>116.0</ele><time>2026-05-01T08:03:19.559Z</time></trkpt><trkpt lat="42.41374" lon="14.2453165"><ele>117.25</ele><time>2026-05-01T08:03:21.539Z</time></trkpt><trkpt lat="42.4136222" lon="14.2450871"><ele>118.5</ele><time>2026-05-01T08:03:23.569Z</time></trkpt><trkpt lat="42.4135556" lon="14.2449236"><ele>119.75</ele><time>2026-05-01T08:03:25.553Z</time></trkpt><trkpt lat="42.413549" lon="14.2448273"><ele>121.0</ele><time>2026-05-01T08:03:29.578Z</time></trkpt><trkpt lat="42.4135438" lon="14.2447012"><ele>121.5</ele><time>2026-05-01T08:03:41.568Z</time></trkpt><trkpt lat="42.4135083" lon="14.2445318"><ele>122.0</ele><time>2026-05-01T08:03:43.578Z</time></trkpt><trkpt lat="42.4134425" lon="14.2443627"><ele>122.5</ele><time>2026-05-01T08:03:45.565Z</time></trkpt><trkpt lat="42.4133837" lon="14.2442326"><ele>123.0</ele><time>2026-05-01T08:03:47.577Z</time></trkpt><trkpt lat="42.4133181" lon="14.2440848"><ele>121.0</ele><time>2026-05-01T08:03:49.556Z</time></trkpt><trkpt lat="42.4132515" lon="14.2439124"><ele>119.0</ele><time>2026-05-01T08:03:51.558Z</time></trkpt><trkpt lat="42.4131533" lon="14.2437389"><ele>117.0</ele><time>2026-05-01T08:03:53.581Z</time></trkpt><trkpt lat="42.4130998" lon="14.2435197"><ele>117.0</ele><time>2026-05-01T08:03:55.573Z</time></trkpt><trkpt lat="42.4130672" lon="14.2432823"><ele>117.0</ele><time>2026-05-01T08:03:57.57Z</time></trkpt><trkpt lat="42.4130542" lon="14.2430617"><ele>117.0</ele><time>2026-05-01T08:03:59.645Z</time></trkpt><trkpt lat="42.4130662" lon="14.2428461"><ele>115.33333333333334</ele><time>2026-05-01T08:04:01.638Z</time></trkpt><trkpt lat="42.413091" lon="14.2425963"><ele>113.66666666666667</ele><time>2026-05-01T08:04:03.64Z</time></trkpt><trkpt lat="42.4130469" lon="14.2423719"><ele>112.0</ele><time>2026-05-01T08:04:05.619Z</time></trkpt><trkpt lat="42.4129489" lon="14.2421484"><ele>118.0</ele><time>2026-05-01T08:04:07.633Z</time></trkpt><trkpt lat="42.4128788" lon="14.2419479"><ele>124.0</ele><time>2026-05-01T08:04:09.64Z</time></trkpt><trkpt lat="42.4128168" lon="14.2417477"><ele>130.0</ele><time>2026-05-01T08:04:11.638Z</time></trkpt><trkpt lat="42.4127684" lon="14.2415557"><ele>126.0</ele><time>2026-05-01T08:04:13.657Z</time></trkpt><trkpt lat="42.4126966" lon="14.241361"><ele>122.0</ele><time>2026-05-01T08:04:15.654Z</time></trkpt><trkpt lat="42.4126111" lon="14.2411706"><ele>118.0</ele><time>2026-05-01T08:04:17.64Z</time></trkpt><trkpt lat="42.4124964" lon="14.2409843"><ele>118.0</ele><time>2026-05-01T08:04:19.625Z</time></trkpt><trkpt lat="42.4123658" lon="14.2408468"><ele>118.0</ele><time>2026-05-01T08:04:21.553Z</time></trkpt><trkpt lat="42.4122449" lon="14.240712"><ele>118.0</ele><time>2026-05-01T08:04:23.556Z</time></trkpt><trkpt lat="42.4121566" lon="14.2405812"><ele>119.75</ele><time>2026-05-01T08:04:25.558Z</time></trkpt><trkpt lat="42.4120464" lon="14.240447"><ele>121.5</ele><time>2026-05-01T08:04:27.566Z</time></trkpt><trkpt lat="42.4119244" lon="14.24036"><ele>123.25</ele><time>2026-05-01T08:04:29.557Z</time></trkpt><trkpt lat="42.4118523" lon="14.2402624"><ele>125.0</ele><time>2026-05-01T08:04:45.561Z</time></trkpt><trkpt lat="42.4118203" lon="14.2401841"><ele>125.0</ele><time>2026-05-01T08:04:51.564Z</time></trkpt><trkpt lat="42.4117784" lon="14.240089"><ele>125.0</ele><time>2026-05-01T08:04:53.571Z</time></trkpt><trkpt lat="42.4117313" lon="14.2400081"><ele>125.0</ele><time>2026-05-01T08:04:55.566Z</time></trkpt><trkpt lat="42.4117005" lon="14.2399242"><ele>125.0</ele><time>2026-05-01T08:04:57.547Z</time></trkpt><trkpt lat="42.4116193" lon="14.2397788"><ele>125.0</ele><time>2026-05-01T08:04:59.565Z</time></trkpt><trkpt lat="42.4115463" lon="14.2396062"><ele>122.33333333333333</ele><time>2026-05-01T08:05:01.547Z</time></trkpt><trkpt lat="42.4114862" lon="14.2393748"><ele>119.66666666666666</ele><time>2026-05-01T08:05:03.549Z</time></trkpt><trkpt lat="42.4114303" lon="14.2392004"><ele>117.0</ele><time>2026-05-01T08:05:05.551Z</time></trkpt><trkpt lat="42.411347" lon="14.2389903"><ele>125.33333333333334</ele><time>2026-05-01T08:05:07.548Z</time></trkpt><trkpt lat="42.4112633" lon="14.2387552"><ele>133.66666666666669</ele><time>2026-05-01T08:05:09.56Z</time></trkpt><trkpt lat="42.411148" lon="14.2385121"><ele>142.0</ele><time>2026-05-01T08:05:11.551Z</time></trkpt><trkpt lat="42.4110336" lon="14.2382602"><ele>142.0</ele><time>2026-05-01T08:05:13.55Z</time></trkpt><trkpt lat="42.4109375" lon="14.2380226"><ele>142.0</ele><time>2026-05-01T08:05:15.553Z</time></trkpt><trkpt lat="42.410854" lon="14.2378273"><ele>142.0</ele><time>2026-05-01T08:05:17.548Z</time></trkpt><trkpt lat="42.4107867" lon="14.2376258"><ele>142.0</ele><time>2026-05-01T08:05:19.551Z</time></trkpt><trkpt lat="42.4107076" lon="14.237427"><ele>142.0</ele><time>2026-05-01T08:05:21.55Z</time></trkpt><trkpt lat="42.410595" lon="14.2372423"><ele>142.0</ele><time>2026-05-01T08:05:23.559Z</time></trkpt><trkpt lat="42.410504" lon="14.2370709"><ele>145.66666666666669</ele><time>2026-05-01T08:05:25.565Z</time></trkpt><trkpt lat="42.4104133" lon="14.2369323"><ele>149.33333333333334</ele><time>2026-05-01T08:05:27.557Z</time></trkpt><trkpt lat="42.4103606" lon="14.2367502"><ele>153.0</ele><time>2026-05-01T08:05:29.55Z</time></trkpt><trkpt lat="42.4102769" lon="14.2365288"><ele>151.33333333333334</ele><time>2026-05-01T08:05:31.552Z</time></trkpt><trkpt lat="42.4101679" lon="14.2363195"><ele>149.66666666666669</ele><time>2026-05-01T08:05:33.549Z</time></trkpt><trkpt lat="42.4100567" lon="14.2361443"><ele>148.0</ele><time>2026-05-01T08:05:35.549Z</time></trkpt><trkpt lat="42.4099176" lon="14.2359945"><ele>148.0</ele><time>2026-05-01T08:05:37.55Z</time></trkpt><trkpt lat="42.409759" lon="14.235819"><ele>148.0</ele><time>2026-05-01T08:05:39.547Z</time></trkpt><trkpt lat="42.409579" lon="14.2355808"><ele>148.0</ele><time>2026-05-01T08:05:41.553Z</time></trkpt><trkpt lat="42.4094021" lon="14.2353841"><ele>148.0</ele><time>2026-05-01T08:05:43.549Z</time></trkpt><trkpt lat="42.4092767" lon="14.2351902"><ele>148.0</ele><time>2026-05-01T08:05:45.529Z</time></trkpt><trkpt lat="42.4091811" lon="14.2350812"><ele>148.0</ele><time>2026-05-01T08:05:47.543Z</time></trkpt><trkpt lat="42.4090984" lon="14.2350139"><ele>148.0</ele><time>2026-05-01T08:05:49.54Z</time></trkpt><trkpt lat="42.4090236" lon="14.2348972"><ele>148.0</ele><time>2026-05-01T08:05:51.547Z</time></trkpt><trkpt lat="42.409016" lon="14.2347443"><ele>148.0</ele><time>2026-05-01T08:05:53.55Z</time></trkpt><trkpt lat="42.408995" lon="14.2346207"><ele>148.0</ele><time>2026-05-01T08:05:55.549Z</time></trkpt><trkpt lat="42.4088757" lon="14.2345489"><ele>150.66666666666669</ele><time>2026-05-01T08:05:57.538Z</time></trkpt><trkpt lat="42.4087009" lon="14.2344038"><ele>153.33333333333334</ele><time>2026-05-01T08:05:59.558Z</time></trkpt><trkpt lat="42.4085259" lon="14.2342063"><ele>156.0</ele><time>2026-05-01T08:06:01.552Z</time></trkpt><trkpt lat="42.4083616" lon="14.2340123"><ele>154.0</ele><time>2026-05-01T08:06:03.562Z</time></trkpt><trkpt lat="42.4082417" lon="14.2338018"><ele>152.0</ele><time>2026-05-01T08:06:05.55Z</time></trkpt><trkpt lat="42.4081428" lon="14.2335121"><ele>150.0</ele><time>2026-05-01T08:06:07.556Z</time></trkpt><trkpt lat="42.4080365" lon="14.233188"><ele>156.5</ele><time>2026-05-01T08:06:09.549Z</time></trkpt><trkpt lat="42.4079284" lon="14.2329176"><ele>163.0</ele><time>2026-05-01T08:06:11.547Z</time></trkpt><trkpt lat="42.4077788" lon="14.2326761"><ele>163.0</ele><time>2026-05-01T08:06:13.544Z</time></trkpt><trkpt lat="42.4076144" lon="14.2324714"><ele>163.0</ele><time>2026-05-01T08:06:15.553Z</time></trkpt><trkpt lat="42.4074605" lon="14.2322682"><ele>163.0</ele><time>2026-05-01T08:06:17.551Z</time></trkpt><trkpt lat="42.4073236" lon="14.232048"><ele>164.0</ele><time>2026-05-01T08:06:19.551Z</time></trkpt><trkpt lat="42.4071873" lon="14.2318145"><ele>165.0</ele><time>2026-05-01T08:06:21.556Z</time></trkpt><trkpt lat="42.4071131" lon="14.2316258"><ele>166.0</ele><time>2026-05-01T08:06:23.549Z</time></trkpt><trkpt lat="42.4070897" lon="14.2314421"><ele>166.0</ele><time>2026-05-01T08:06:25.551Z</time></trkpt><trkpt lat="42.407059" lon="14.2312599"><ele>166.0</ele><time>2026-05-01T08:06:27.558Z</time></trkpt><trkpt lat="42.4069359" lon="14.2310596"><ele>166.0</ele><time>2026-05-01T08:06:29.541Z</time></trkpt><trkpt lat="42.4067638" lon="14.2308265"><ele>166.0</ele><time>2026-05-01T08:06:31.568Z</time></trkpt><trkpt lat="42.4065927" lon="14.2306495"><ele>166.0</ele><time>2026-05-01T08:06:33.565Z</time></trkpt><trkpt lat="42.4064353" lon="14.2304757"><ele>166.0</ele><time>2026-05-01T08:06:35.565Z</time></trkpt><trkpt lat="42.406299" lon="14.2302915"><ele>166.8</ele><time>2026-05-01T08:06:37.565Z</time></trkpt><trkpt lat="42.406186" lon="14.2301362"><ele>167.60000000000002</ele><time>2026-05-01T08:06:39.563Z</time></trkpt><trkpt lat="42.4061073" lon="14.2300152"><ele>168.4</ele><time>2026-05-01T08:06:41.568Z</time></trkpt><trkpt lat="42.4060542" lon="14.229936"><ele>169.2</ele><time>2026-05-01T08:06:43.563Z</time></trkpt><trkpt lat="42.4060206" lon="14.2298497"><ele>170.0</ele><time>2026-05-01T08:06:45.578Z</time></trkpt><trkpt lat="42.4059537" lon="14.2297653"><ele>167.2</ele><time>2026-05-01T08:06:47.581Z</time></trkpt><trkpt lat="42.4058752" lon="14.2297131"><ele>164.4</ele><time>2026-05-01T08:06:51.583Z</time></trkpt><trkpt lat="42.4057843" lon="14.2296477"><ele>161.6</ele><time>2026-05-01T08:07:17.578Z</time></trkpt><trkpt lat="42.4057141" lon="14.2296051"><ele>158.8</ele><time>2026-05-01T08:07:19.575Z</time></trkpt><trkpt lat="42.4056238" lon="14.2295797"><ele>156.0</ele><time>2026-05-01T08:07:21.559Z</time></trkpt><trkpt lat="42.4055237" lon="14.2295164"><ele>158.0</ele><time>2026-05-01T08:07:23.568Z</time></trkpt><trkpt lat="42.4054255" lon="14.2293733"><ele>160.0</ele><time>2026-05-01T08:07:25.544Z</time></trkpt><trkpt lat="42.4053288" lon="14.2291883"><ele>162.0</ele><time>2026-05-01T08:07:27.529Z</time></trkpt><trkpt lat="42.4052453" lon="14.2289746"><ele>162.0</ele><time>2026-05-01T08:07:29.533Z</time></trkpt><trkpt lat="42.4051587" lon="14.2287968"><ele>162.0</ele><time>2026-05-01T08:07:31.538Z</time></trkpt><trkpt lat="42.4050534" lon="14.2286529"><ele>162.0</ele><time>2026-05-01T08:07:33.539Z</time></trkpt><trkpt lat="42.4049659" lon="14.2285263"><ele>162.0</ele><time>2026-05-01T08:07:35.539Z</time></trkpt><trkpt lat="42.4049168" lon="14.2284329"><ele>162.0</ele><time>2026-05-01T08:07:37.535Z</time></trkpt><trkpt lat="42.4048366" lon="14.2283031"><ele>162.0</ele><time>2026-05-01T08:07:41.554Z</time></trkpt><trkpt lat="42.4048073" lon="14.2281485"><ele>162.0</ele><time>2026-05-01T08:07:45.562Z</time></trkpt><trkpt lat="42.4047707" lon="14.2280026"><ele>162.0</ele><time>2026-05-01T08:07:47.556Z</time></trkpt><trkpt lat="42.404729" lon="14.2278202"><ele>160.33333333333334</ele><time>2026-05-01T08:07:49.549Z</time></trkpt><trkpt lat="42.4046879" lon="14.2276165"><ele>158.66666666666669</ele><time>2026-05-01T08:07:51.535Z</time></trkpt><trkpt lat="42.4046186" lon="14.2274034"><ele>157.0</ele><time>2026-05-01T08:07:53.544Z</time></trkpt><trkpt lat="42.4045123" lon="14.2271757"><ele>157.0</ele><time>2026-05-01T08:07:55.545Z</time></trkpt><trkpt lat="42.4044008" lon="14.2269678"><ele>157.0</ele><time>2026-05-01T08:07:57.536Z</time></trkpt><trkpt lat="42.404338" lon="14.2268186"><ele>157.0</ele><time>2026-05-01T08:07:59.538Z</time></trkpt><trkpt lat="42.4043389" lon="14.2266781"><ele>157.0</ele><time>2026-05-01T08:08:01.546Z</time></trkpt><trkpt lat="42.4043434" lon="14.2265526"><ele>155.0</ele><time>2026-05-01T08:08:03.54Z</time></trkpt><trkpt lat="42.4042971" lon="14.22642"><ele>153.0</ele><time>2026-05-01T08:08:05.546Z</time></trkpt><trkpt lat="42.4042125" lon="14.226339"><ele>151.0</ele><time>2026-05-01T08:08:07.536Z</time></trkpt><trkpt lat="42.4040541" lon="14.2262473"><ele>149.0</ele><time>2026-05-01T08:08:09.539Z</time></trkpt><trkpt lat="42.4038966" lon="14.2261035"><ele>156.33333333333331</ele><time>2026-05-01T08:08:11.538Z</time></trkpt><trkpt lat="42.4037554" lon="14.2259084"><ele>163.66666666666666</ele><time>2026-05-01T08:08:13.55Z</time></trkpt><trkpt lat="42.4036537" lon="14.2257091"><ele>171.0</ele><time>2026-05-01T08:08:15.551Z</time></trkpt><trkpt lat="42.4036018" lon="14.2255022"><ele>171.0</ele><time>2026-05-01T08:08:17.55Z</time></trkpt><trkpt lat="42.40354" lon="14.2252739"><ele>171.0</ele><time>2026-05-01T08:08:19.544Z</time></trkpt><trkpt lat="42.4035051" lon="14.2250512"><ele>171.0</ele><time>2026-05-01T08:08:21.542Z</time></trkpt><trkpt lat="42.403484" lon="14.2248014"><ele>167.66666666666666</ele><time>2026-05-01T08:08:23.546Z</time></trkpt><trkpt lat="42.4034369" lon="14.2245942"><ele>164.33333333333331</ele><time>2026-05-01T08:08:25.553Z</time></trkpt><trkpt lat="42.4033374" lon="14.2244033"><ele>161.0</ele><time>2026-05-01T08:08:27.548Z</time></trkpt><trkpt lat="42.4032383" lon="14.2242084"><ele>161.0</ele><time>2026-05-01T08:08:29.54Z</time></trkpt><trkpt lat="42.4031222" lon="14.2240057"><ele>161.0</ele><time>2026-05-01T08:08:31.538Z</time></trkpt><trkpt lat="42.4030096" lon="14.2238544"><ele>161.0</ele><time>2026-05-01T08:08:33.541Z</time></trkpt><trkpt lat="42.4028685" lon="14.2237953"><ele>162.5</ele><time>2026-05-01T08:08:35.54Z</time></trkpt><trkpt lat="42.4026929" lon="14.2237759"><ele>164.0</ele><time>2026-05-01T08:08:37.552Z</time></trkpt><trkpt lat="42.4025569" lon="14.2237132"><ele>165.5</ele><time>2026-05-01T08:08:39.56Z</time></trkpt><trkpt lat="42.4024565" lon="14.2236081"><ele>167.0</ele><time>2026-05-01T08:08:41.553Z</time></trkpt><trkpt lat="42.4023359" lon="14.2234814"><ele>167.0</ele><time>2026-05-01T08:08:43.573Z</time></trkpt><trkpt lat="42.4022254" lon="14.2234037"><ele>167.0</ele><time>2026-05-01T08:08:45.567Z</time></trkpt><trkpt lat="42.4020961" lon="14.2234011"><ele>167.0</ele><time>2026-05-01T08:08:47.553Z</time></trkpt><trkpt lat="42.4019116" lon="14.2234997"><ele>174.0</ele><time>2026-05-01T08:08:49.561Z</time></trkpt><trkpt lat="42.4016871" lon="14.223651"><ele>181.0</ele><time>2026-05-01T08:08:51.64Z</time></trkpt><trkpt lat="42.4014905" lon="14.2237528"><ele>183.66666666666669</ele><time>2026-05-01T08:08:53.643Z</time></trkpt><trkpt lat="42.4013198" lon="14.2238359"><ele>186.33333333333334</ele><time>2026-05-01T08:08:55.654Z</time></trkpt><trkpt lat="42.4011573" lon="14.2239182"><ele>189.0</ele><time>2026-05-01T08:08:57.647Z</time></trkpt><trkpt lat="42.4010018" lon="14.2240113"><ele>189.75</ele><time>2026-05-01T08:08:59.645Z</time></trkpt><trkpt lat="42.4008636" lon="14.2241385"><ele>190.5</ele><time>2026-05-01T08:09:01.639Z</time></trkpt><trkpt lat="42.4007441" lon="14.2242618"><ele>191.25</ele><time>2026-05-01T08:09:03.628Z</time></trkpt><trkpt lat="42.4006496" lon="14.2243643"><ele>192.0</ele><time>2026-05-01T08:09:05.638Z</time></trkpt><trkpt lat="42.4005903" lon="14.2244144"><ele>192.0</ele><time>2026-05-01T08:09:07.639Z</time></trkpt><trkpt lat="42.4004877" lon="14.2242367"><ele>192.0</ele><time>2026-05-01T08:09:13.648Z</time></trkpt><trkpt lat="42.400411" lon="14.2240683"><ele>192.0</ele><time>2026-05-01T08:09:15.65Z</time></trkpt><trkpt lat="42.4003196" lon="14.2238756"><ele>192.66666666666669</ele><time>2026-05-01T08:09:17.651Z</time></trkpt><trkpt lat="42.4002232" lon="14.2237029"><ele>193.33333333333334</ele><time>2026-05-01T08:09:19.651Z</time></trkpt><trkpt lat="42.4001081" lon="14.2235161"><ele>194.0</ele><time>2026-05-01T08:09:21.649Z</time></trkpt><trkpt lat="42.3999685" lon="14.2233332"><ele>194.0</ele><time>2026-05-01T08:09:23.631Z</time></trkpt><trkpt lat="42.3997982" lon="14.2231381"><ele>194.0</ele><time>2026-05-01T08:09:25.631Z</time></trkpt><trkpt lat="42.3996151" lon="14.2229409"><ele>194.0</ele><time>2026-05-01T08:09:27.648Z</time></trkpt><trkpt lat="42.3994394" lon="14.2227541"><ele>194.0</ele><time>2026-05-01T08:09:29.645Z</time></trkpt><trkpt lat="42.3992652" lon="14.2225631"><ele>194.0</ele><time>2026-05-01T08:09:31.645Z</time></trkpt><trkpt lat="42.3990879" lon="14.2223772"><ele>194.33333333333334</ele><time>2026-05-01T08:09:33.63Z</time></trkpt><trkpt lat="42.3989356" lon="14.2222058"><ele>194.66666666666669</ele><time>2026-05-01T08:09:35.634Z</time></trkpt><trkpt lat="42.3987754" lon="14.222008"><ele>195.0</ele><time>2026-05-01T08:09:37.65Z</time></trkpt><trkpt lat="42.3986183" lon="14.2217823"><ele>195.0</ele><time>2026-05-01T08:09:39.643Z</time></trkpt><trkpt lat="42.3984767" lon="14.2215357"><ele>195.0</ele><time>2026-05-01T08:09:41.636Z</time></trkpt><trkpt lat="42.3983445" lon="14.2212887"><ele>196.33333333333331</ele><time>2026-05-01T08:09:43.641Z</time></trkpt><trkpt lat="42.3982419" lon="14.2210779"><ele>197.66666666666666</ele><time>2026-05-01T08:09:45.634Z</time></trkpt><trkpt lat="42.3981509" lon="14.2208896"><ele>199.0</ele><time>2026-05-01T08:09:47.641Z</time></trkpt><trkpt lat="42.3980605" lon="14.2207175"><ele>199.0</ele><time>2026-05-01T08:09:49.628Z</time></trkpt><trkpt lat="42.3980078" lon="14.220564"><ele>199.0</ele><time>2026-05-01T08:09:51.609Z</time></trkpt><trkpt lat="42.3980135" lon="14.2208073"><ele>199.0</ele><time>2026-05-01T08:09:53.623Z</time></trkpt><trkpt lat="42.3979423" lon="14.2208782"><ele>199.0</ele><time>2026-05-01T08:09:55.615Z</time></trkpt><trkpt lat="42.3978132" lon="14.2210179"><ele>199.0</ele><time>2026-05-01T08:09:57.62Z</time></trkpt><trkpt lat="42.3977379" lon="14.220978"><ele>199.0</ele><time>2026-05-01T08:10:01.635Z</time></trkpt><trkpt lat="42.3974109" lon="14.2214379"><ele>197.66666666666666</ele><time>2026-05-01T08:10:03.644Z</time></trkpt><trkpt lat="42.3972802" lon="14.2216223"><ele>196.33333333333331</ele><time>2026-05-01T08:10:05.624Z</time></trkpt><trkpt lat="42.3971667" lon="14.2217721"><ele>195.0</ele><time>2026-05-01T08:10:07.623Z</time></trkpt><trkpt lat="42.3971111" lon="14.2219153"><ele>195.0</ele><time>2026-05-01T08:10:09.639Z</time></trkpt><trkpt lat="42.3971302" lon="14.2221049"><ele>195.0</ele><time>2026-05-01T08:10:11.61Z</time></trkpt><trkpt lat="42.3972038" lon="14.2222811"><ele>195.0</ele><time>2026-05-01T08:10:13.619Z</time></trkpt><trkpt lat="42.3973208" lon="14.2224962"><ele>194.5</ele><time>2026-05-01T08:10:15.629Z</time></trkpt><trkpt lat="42.397431" lon="14.222665"><ele>194.0</ele><time>2026-05-01T08:10:17.63Z</time></trkpt><trkpt lat="42.3974921" lon="14.2227959"><ele>193.5</ele><time>2026-05-01T08:10:19.628Z</time></trkpt><trkpt lat="42.3975445" lon="14.2229041"><ele>193.0</ele><time>2026-05-01T08:10:21.631Z</time></trkpt><trkpt lat="42.3975987" lon="14.2230361"><ele>192.25</ele><time>2026-05-01T08:10:25.627Z</time></trkpt><trkpt lat="42.3976527" lon="14.2231573"><ele>191.5</ele><time>2026-05-01T08:10:27.645Z</time></trkpt><trkpt lat="42.3977087" lon="14.2232948"><ele>190.75</ele><time>2026-05-01T08:10:29.644Z</time></trkpt><trkpt lat="42.3977309" lon="14.2235003"><ele>190.0</ele><time>2026-05-01T08:10:33.622Z</time></trkpt><trkpt lat="42.3977125" lon="14.2236761"><ele>190.0</ele><time>2026-05-01T08:10:35.624Z</time></trkpt><trkpt lat="42.3976825" lon="14.2239064"><ele>190.0</ele><time>2026-05-01T08:10:37.647Z</time></trkpt><trkpt lat="42.3976321" lon="14.2241109"><ele>190.0</ele><time>2026-05-01T08:10:39.643Z</time></trkpt><trkpt lat="42.3976036" lon="14.2243009"><ele>188.25</ele><time>2026-05-01T08:10:41.625Z</time></trkpt><trkpt lat="42.3975625" lon="14.2244897"><ele>186.5</ele><time>2026-05-01T08:10:43.616Z</time></trkpt><trkpt lat="42.3975269" lon="14.224682"><ele>184.75</ele><time>2026-05-01T08:10:45.639Z</time></trkpt><trkpt lat="42.3975102" lon="14.2248843"><ele>183.0</ele><time>2026-05-01T08:10:47.63Z</time></trkpt><trkpt lat="42.3975126" lon="14.2251072"><ele>180.33333333333334</ele><time>2026-05-01T08:10:49.612Z</time></trkpt><trkpt lat="42.3975456" lon="14.225337"><ele>177.66666666666669</ele><time>2026-05-01T08:10:51.619Z</time></trkpt><trkpt lat="42.3975985" lon="14.2255854"><ele>175.0</ele><time>2026-05-01T08:10:53.629Z</time></trkpt><trkpt lat="42.3976441" lon="14.225827"><ele>175.0</ele><time>2026-05-01T08:10:55.629Z</time></trkpt><trkpt lat="42.3975616" lon="14.2259337"><ele>175.0</ele><time>2026-05-01T08:10:59.64Z</time></trkpt><trkpt lat="42.3974403" lon="14.2259037"><ele>175.0</ele><time>2026-05-01T08:11:03.643Z</time></trkpt><trkpt lat="42.3973758" lon="14.2258125"><ele>175.0</ele><time>2026-05-01T08:11:05.641Z</time></trkpt><trkpt lat="42.3972941" lon="14.2257344"><ele>175.0</ele><time>2026-05-01T08:11:07.624Z</time></trkpt><trkpt lat="42.3971927" lon="14.2255551"><ele>175.0</ele><time>2026-05-01T08:11:09.61Z</time></trkpt><trkpt lat="42.3972266" lon="14.2256449"><ele>175.0</ele><time>2026-05-01T08:11:11.635Z</time></trkpt><trkpt lat="42.3971797" lon="14.2255143"><ele>175.0</ele><time>2026-05-01T08:11:17.644Z</time></trkpt><trkpt lat="42.3970989" lon="14.2253905"><ele>175.0</ele><time>2026-05-01T08:11:21.634Z</time></trkpt><trkpt lat="42.3970471" lon="14.2253233"><ele>175.0</ele><time>2026-05-01T08:11:23.628Z</time></trkpt><trkpt lat="42.3969937" lon="14.2252666"><ele>175.0</ele><time>2026-05-01T08:11:25.631Z</time></trkpt><trkpt lat="42.3969311" lon="14.2252273"><ele>172.16666666666669</ele><time>2026-05-01T08:11:27.624Z</time></trkpt><trkpt lat="42.3968652" lon="14.2252092"><ele>169.33333333333334</ele><time>2026-05-01T08:11:29.63Z</time></trkpt><trkpt lat="42.3967959" lon="14.2251996"><ele>166.5</ele><time>2026-05-01T08:11:31.628Z</time></trkpt><trkpt lat="42.3967252" lon="14.2252007"><ele>163.66666666666666</ele><time>2026-05-01T08:11:33.628Z</time></trkpt><trkpt lat="42.3966451" lon="14.2252119"><ele>160.83333333333331</ele><time>2026-05-01T08:11:35.625Z</time></trkpt><trkpt lat="42.3965701" lon="14.2252292"><ele>158.0</ele><time>2026-05-01T08:11:37.627Z</time></trkpt><trkpt lat="42.396518" lon="14.225322"><ele>158.0</ele><time>2026-05-01T08:11:39.63Z</time></trkpt><trkpt lat="42.3963537" lon="14.2252717"><ele>158.0</ele><time>2026-05-01T08:11:43.634Z</time></trkpt><trkpt lat="42.3962454" lon="14.2252156"><ele>158.0</ele><time>2026-05-01T08:11:45.615Z</time></trkpt><trkpt lat="42.3961559" lon="14.2251585"><ele>158.0</ele><time>2026-05-01T08:11:47.618Z</time></trkpt><trkpt lat="42.3960632" lon="14.2251202"><ele>153.0</ele><time>2026-05-01T08:11:49.638Z</time></trkpt><trkpt lat="42.3959724" lon="14.2250805"><ele>148.0</ele><time>2026-05-01T08:11:51.632Z</time></trkpt><trkpt lat="42.395881" lon="14.2250425"><ele>143.0</ele><time>2026-05-01T08:11:53.622Z</time></trkpt><trkpt lat="42.395773" lon="14.2249905"><ele>138.0</ele><time>2026-05-01T08:11:55.622Z</time></trkpt><trkpt lat="42.395675" lon="14.2249447"><ele>133.0</ele><time>2026-05-01T08:11:57.631Z</time></trkpt><trkpt lat="42.3955787" lon="14.2248929"><ele>130.0</ele><time>2026-05-01T08:11:59.635Z</time></trkpt><trkpt lat="42.3954824" lon="14.2248404"><ele>127.00000000000001</ele><time>2026-05-01T08:12:01.634Z</time></trkpt><trkpt lat="42.3953942" lon="14.2248052"><ele>124.00000000000001</ele><time>2026-05-01T08:12:03.631Z</time></trkpt><trkpt lat="42.3953055" lon="14.224774"><ele>121.0</ele><time>2026-05-01T08:12:05.633Z</time></trkpt><trkpt lat="42.3952046" lon="14.2247478"><ele>118.0</ele><time>2026-05-01T08:12:07.635Z</time></trkpt><trkpt lat="42.3950888" lon="14.2247325"><ele>118.0</ele><time>2026-05-01T08:12:09.638Z</time></trkpt><trkpt lat="42.3949766" lon="14.2247284"><ele>118.0</ele><time>2026-05-01T08:12:11.638Z</time></trkpt><trkpt lat="42.3948403" lon="14.2246986"><ele>118.0</ele><time>2026-05-01T08:12:13.625Z</time></trkpt><trkpt lat="42.3947278" lon="14.2246694"><ele>118.0</ele><time>2026-05-01T08:12:15.625Z</time></trkpt><trkpt lat="42.3946006" lon="14.2246197"><ele>113.75</ele><time>2026-05-01T08:12:17.626Z</time></trkpt><trkpt lat="42.3944894" lon="14.224547"><ele>109.5</ele><time>2026-05-01T08:12:19.629Z</time></trkpt><trkpt lat="42.3943835" lon="14.2244331"><ele>105.25</ele><time>2026-05-01T08:12:21.612Z</time></trkpt><trkpt lat="42.3942867" lon="14.224297"><ele>101.0</ele><time>2026-05-01T08:12:23.612Z</time></trkpt><trkpt lat="42.3942061" lon="14.2241537"><ele>101.0</ele><time>2026-05-01T08:12:25.617Z</time></trkpt><trkpt lat="42.394114" lon="14.2240213"><ele>101.0</ele><time>2026-05-01T08:12:27.607Z</time></trkpt><trkpt lat="42.3939953" lon="14.2238732"><ele>101.0</ele><time>2026-05-01T08:12:29.604Z</time></trkpt><trkpt lat="42.3938151" lon="14.2236893"><ele>101.5</ele><time>2026-05-01T08:12:31.609Z</time></trkpt><trkpt lat="42.3939087" lon="14.2238391"><ele>102.0</ele><time>2026-05-01T08:12:33.537Z</time></trkpt><trkpt lat="42.3938533" lon="14.2239057"><ele>102.5</ele><time>2026-05-01T08:12:35.533Z</time></trkpt><trkpt lat="42.3937543" lon="14.2239344"><ele>103.0</ele><time>2026-05-01T08:12:37.532Z</time></trkpt><trkpt lat="42.3936107" lon="14.2239473"><ele>103.0</ele><time>2026-05-01T08:12:39.541Z</time></trkpt><trkpt lat="42.3935466" lon="14.2239693"><ele>103.0</ele><time>2026-05-01T08:12:43.536Z</time></trkpt><trkpt lat="42.3935926" lon="14.2240976"><ele>103.0</ele><time>2026-05-01T08:12:45.54Z</time></trkpt><trkpt lat="42.3936545" lon="14.2242906"><ele>103.0</ele><time>2026-05-01T08:12:47.547Z</time></trkpt><trkpt lat="42.393687" lon="14.224403"><ele>103.0</ele><time>2026-05-01T08:12:49.541Z</time></trkpt><trkpt lat="42.3937105" lon="14.2245369"><ele>104.0</ele><time>2026-05-01T08:13:15.552Z</time></trkpt><trkpt lat="42.3937404" lon="14.2246949"><ele>105.0</ele><time>2026-05-01T08:13:17.556Z</time></trkpt><trkpt lat="42.3937803" lon="14.2248629"><ele>106.0</ele><time>2026-05-01T08:13:19.546Z</time></trkpt><trkpt lat="42.3938354" lon="14.2250713"><ele>107.0</ele><time>2026-05-01T08:13:21.547Z</time></trkpt><trkpt lat="42.3939073" lon="14.2252917"><ele>103.66666666666666</ele><time>2026-05-01T08:13:23.552Z</time></trkpt><trkpt lat="42.3939686" lon="14.2255471"><ele>100.33333333333334</ele><time>2026-05-01T08:13:25.545Z</time></trkpt><trkpt lat="42.3940511" lon="14.2258297"><ele>97.0</ele><time>2026-05-01T08:13:27.533Z</time></trkpt><trkpt lat="42.3941587" lon="14.2261362"><ele>97.0</ele><time>2026-05-01T08:13:29.534Z</time></trkpt><trkpt lat="42.3942665" lon="14.2264531"><ele>97.0</ele><time>2026-05-01T08:13:31.538Z</time></trkpt><trkpt lat="42.3943587" lon="14.2267226"><ele>97.0</ele><time>2026-05-01T08:13:33.556Z</time></trkpt><trkpt lat="42.3944369" lon="14.2269721"><ele>97.0</ele><time>2026-05-01T08:13:35.548Z</time></trkpt><trkpt lat="42.3945392" lon="14.2272435"><ele>97.0</ele><time>2026-05-01T08:13:37.552Z</time></trkpt><trkpt lat="42.3946336" lon="14.2275405"><ele>94.5</ele><time>2026-05-01T08:13:39.549Z</time></trkpt><trkpt lat="42.3947166" lon="14.2278572"><ele>92.0</ele><time>2026-05-01T08:13:41.548Z</time></trkpt><trkpt lat="42.3947946" lon="14.2281654"><ele>91.0</ele><time>2026-05-01T08:13:43.548Z</time></trkpt><trkpt lat="42.3948987" lon="14.2284593"><ele>90.0</ele><time>2026-05-01T08:13:45.554Z</time></trkpt><trkpt lat="42.3950241" lon="14.2287703"><ele>92.0</ele><time>2026-05-01T08:13:47.547Z</time></trkpt><trkpt lat="42.3951507" lon="14.2291152"><ele>94.0</ele><time>2026-05-01T08:13:49.55Z</time></trkpt><trkpt lat="42.3952729" lon="14.2293834"><ele>94.0</ele><time>2026-05-01T08:13:51.55Z</time></trkpt><trkpt lat="42.3953657" lon="14.2296556"><ele>94.0</ele><time>2026-05-01T08:13:53.556Z</time></trkpt><trkpt lat="42.3954641" lon="14.2299503"><ele>88.5</ele><time>2026-05-01T08:13:55.548Z</time></trkpt><trkpt lat="42.3955792" lon="14.2302849"><ele>83.0</ele><time>2026-05-01T08:13:57.547Z</time></trkpt><trkpt lat="42.3956971" lon="14.2306372"><ele>82.0</ele><time>2026-05-01T08:13:59.555Z</time></trkpt><trkpt lat="42.3958033" lon="14.230949"><ele>81.0</ele><time>2026-05-01T08:14:01.554Z</time></trkpt><trkpt lat="42.3959122" lon="14.2312893"><ele>81.5</ele><time>2026-05-01T08:14:03.551Z</time></trkpt><trkpt lat="42.3960214" lon="14.2316417"><ele>82.0</ele><time>2026-05-01T08:14:05.546Z</time></trkpt><trkpt lat="42.3961202" lon="14.2319502"><ele>82.0</ele><time>2026-05-01T08:14:07.548Z</time></trkpt><trkpt lat="42.396199" lon="14.2322233"><ele>82.0</ele><time>2026-05-01T08:14:09.551Z</time></trkpt><trkpt lat="42.3962421" lon="14.2324968"><ele>82.0</ele><time>2026-05-01T08:14:11.548Z</time></trkpt><trkpt lat="42.3962499" lon="14.2328317"><ele>81.33333333333333</ele><time>2026-05-01T08:14:13.554Z</time></trkpt><trkpt lat="42.3962249" lon="14.2331524"><ele>80.66666666666667</ele><time>2026-05-01T08:14:15.548Z</time></trkpt><trkpt lat="42.3961952" lon="14.2334157"><ele>80.0</ele><time>2026-05-01T08:14:17.55Z</time></trkpt><trkpt lat="42.3961877" lon="14.233679"><ele>80.0</ele><time>2026-05-01T08:14:19.546Z</time></trkpt><trkpt lat="42.396167" lon="14.2339544"><ele>80.0</ele><time>2026-05-01T08:14:21.541Z</time></trkpt><trkpt lat="42.3961448" lon="14.2342176"><ele>80.0</ele><time>2026-05-01T08:14:23.548Z</time></trkpt><trkpt lat="42.3961357" lon="14.234412"><ele>80.0</ele><time>2026-05-01T08:14:25.545Z</time></trkpt><trkpt lat="42.3961799" lon="14.2345344"><ele>80.0</ele><time>2026-05-01T08:14:31.555Z</time></trkpt><trkpt lat="42.3962181" lon="14.2346306"><ele>80.0</ele><time>2026-05-01T08:14:35.564Z</time></trkpt><trkpt lat="42.3962407" lon="14.2347406"><ele>80.0</ele><time>2026-05-01T08:15:21.551Z</time></trkpt><trkpt lat="42.3962815" lon="14.2348742"><ele>80.0</ele><time>2026-05-01T08:15:41.563Z</time></trkpt><trkpt lat="42.3963459" lon="14.2350851"><ele>76.33333333333334</ele><time>2026-05-01T08:15:43.568Z</time></trkpt><trkpt lat="42.3963955" lon="14.2353552"><ele>72.66666666666667</ele><time>2026-05-01T08:15:45.62Z</time></trkpt><trkpt lat="42.3964015" lon="14.2356365"><ele>69.0</ele><time>2026-05-01T08:15:47.616Z</time></trkpt><trkpt lat="42.3963396" lon="14.2359569"><ele>70.66666666666667</ele><time>2026-05-01T08:15:49.602Z</time></trkpt><trkpt lat="42.3962436" lon="14.2362743"><ele>72.33333333333334</ele><time>2026-05-01T08:15:51.614Z</time></trkpt><trkpt lat="42.3962018" lon="14.2364627"><ele>74.0</ele><time>2026-05-01T08:15:53.617Z</time></trkpt><trkpt lat="42.3961782" lon="14.2368224"><ele>74.0</ele><time>2026-05-01T08:15:55.611Z</time></trkpt><trkpt lat="42.3961044" lon="14.2371662"><ele>74.0</ele><time>2026-05-01T08:15:57.619Z</time></trkpt><trkpt lat="42.3961498" lon="14.237434"><ele>73.0</ele><time>2026-05-01T08:15:59.624Z</time></trkpt><trkpt lat="42.3962311" lon="14.2376872"><ele>72.0</ele><time>2026-05-01T08:16:01.628Z</time></trkpt><trkpt lat="42.3962911" lon="14.2379576"><ele>71.0</ele><time>2026-05-01T08:16:03.628Z</time></trkpt><trkpt lat="42.3963257" lon="14.2382205"><ele>69.33333333333334</ele><time>2026-05-01T08:16:05.615Z</time></trkpt><trkpt lat="42.3963808" lon="14.2384537"><ele>67.66666666666667</ele><time>2026-05-01T08:16:07.611Z</time></trkpt><trkpt lat="42.39643" lon="14.2386817"><ele>66.0</ele><time>2026-05-01T08:16:09.633Z</time></trkpt><trkpt lat="42.3964583" lon="14.238929"><ele>65.0</ele><time>2026-05-01T08:16:11.624Z</time></trkpt><trkpt lat="42.3964601" lon="14.239227"><ele>64.0</ele><time>2026-05-01T08:16:13.605Z</time></trkpt><trkpt lat="42.3964307" lon="14.2395813"><ele>63.0</ele><time>2026-05-01T08:16:15.61Z</time></trkpt><trkpt lat="42.3963722" lon="14.2399399"><ele>62.0</ele><time>2026-05-01T08:16:17.627Z</time></trkpt><trkpt lat="42.3963163" lon="14.2402873"><ele>61.0</ele><time>2026-05-01T08:16:19.633Z</time></trkpt><trkpt lat="42.3962647" lon="14.2405856"><ele>60.0</ele><time>2026-05-01T08:16:21.631Z</time></trkpt><trkpt lat="42.3962025" lon="14.2408617"><ele>59.0</ele><time>2026-05-01T08:16:23.616Z</time></trkpt><trkpt lat="42.3961354" lon="14.2411706"><ele>58.0</ele><time>2026-05-01T08:16:25.611Z</time></trkpt><trkpt lat="42.3960825" lon="14.2414247"><ele>57.0</ele><time>2026-05-01T08:16:27.635Z</time></trkpt><trkpt lat="42.3959873" lon="14.2416635"><ele>56.0</ele><time>2026-05-01T08:16:29.546Z</time></trkpt><trkpt lat="42.3959097" lon="14.2418911"><ele>55.0</ele><time>2026-05-01T08:16:31.537Z</time></trkpt><trkpt lat="42.3958022" lon="14.2421245"><ele>54.0</ele><time>2026-05-01T08:16:33.551Z</time></trkpt><trkpt lat="42.3956976" lon="14.2422993"><ele>53.0</ele><time>2026-05-01T08:16:35.542Z</time></trkpt><trkpt lat="42.3956357" lon="14.2425266"><ele>51.5</ele><time>2026-05-01T08:16:37.538Z</time></trkpt><trkpt lat="42.3956317" lon="14.2428664"><ele>50.0</ele><time>2026-05-01T08:16:39.559Z</time></trkpt><trkpt lat="42.3956293" lon="14.243227"><ele>50.0</ele><time>2026-05-01T08:16:41.548Z</time></trkpt><trkpt lat="42.3956185" lon="14.2435461"><ele>50.0</ele><time>2026-05-01T08:16:43.55Z</time></trkpt><trkpt lat="42.3956215" lon="14.2438779"><ele>49.5</ele><time>2026-05-01T08:16:45.551Z</time></trkpt><trkpt lat="42.3956162" lon="14.2441808"><ele>49.0</ele><time>2026-05-01T08:16:47.549Z</time></trkpt><trkpt lat="42.395613" lon="14.2444907"><ele>49.0</ele><time>2026-05-01T08:16:49.544Z</time></trkpt><trkpt lat="42.3955943" lon="14.2447389"><ele>49.0</ele><time>2026-05-01T08:16:51.551Z</time></trkpt><trkpt lat="42.3955899" lon="14.244968"><ele>49.0</ele><time>2026-05-01T08:16:53.549Z</time></trkpt><trkpt lat="42.3955903" lon="14.2452319"><ele>48.666666666666664</ele><time>2026-05-01T08:16:55.544Z</time></trkpt><trkpt lat="42.3955919" lon="14.2455093"><ele>48.33333333333333</ele><time>2026-05-01T08:16:57.539Z</time></trkpt><trkpt lat="42.3955925" lon="14.2457684"><ele>48.0</ele><time>2026-05-01T08:16:59.54Z</time></trkpt><trkpt lat="42.3955575" lon="14.2460466"><ele>47.666666666666664</ele><time>2026-05-01T08:17:01.538Z</time></trkpt><trkpt lat="42.3955124" lon="14.2462847"><ele>47.33333333333333</ele><time>2026-05-01T08:17:03.546Z</time></trkpt><trkpt lat="42.3954193" lon="14.2465066"><ele>47.0</ele><time>2026-05-01T08:17:05.543Z</time></trkpt><trkpt lat="42.3953336" lon="14.2467393"><ele>47.0</ele><time>2026-05-01T08:17:07.543Z</time></trkpt><trkpt lat="42.3952946" lon="14.2470166"><ele>47.0</ele><time>2026-05-01T08:17:09.547Z</time></trkpt><trkpt lat="42.3952673" lon="14.24728"><ele>47.0</ele><time>2026-05-01T08:17:11.537Z</time></trkpt><trkpt lat="42.3952112" lon="14.2475505"><ele>46.0</ele><time>2026-05-01T08:17:13.541Z</time></trkpt><trkpt lat="42.3951807" lon="14.2478414"><ele>45.0</ele><time>2026-05-01T08:17:15.538Z</time></trkpt><trkpt lat="42.3951793" lon="14.2480822"><ele>44.0</ele><time>2026-05-01T08:17:17.541Z</time></trkpt><trkpt lat="42.3952201" lon="14.2483591"><ele>43.0</ele><time>2026-05-01T08:17:19.548Z</time></trkpt><trkpt lat="42.3952359" lon="14.2486237"><ele>42.0</ele><time>2026-05-01T08:17:21.543Z</time></trkpt><trkpt lat="42.3951892" lon="14.2489124"><ele>41.0</ele><time>2026-05-01T08:17:23.546Z</time></trkpt><trkpt lat="42.3951251" lon="14.2492161"><ele>41.0</ele><time>2026-05-01T08:17:25.548Z</time></trkpt><trkpt lat="42.3950677" lon="14.2495026"><ele>41.0</ele><time>2026-05-01T08:17:27.548Z</time></trkpt><trkpt lat="42.3949686" lon="14.2498096"><ele>39.5</ele><time>2026-05-01T08:17:29.548Z</time></trkpt><trkpt lat="42.3948688" lon="14.2501444"><ele>38.0</ele><time>2026-05-01T08:17:31.55Z</time></trkpt><trkpt lat="42.3947718" lon="14.2504521"><ele>37.0</ele><time>2026-05-01T08:17:33.545Z</time></trkpt><trkpt lat="42.3946835" lon="14.2507428"><ele>36.0</ele><time>2026-05-01T08:17:35.547Z</time></trkpt><trkpt lat="42.394575" lon="14.2510186"><ele>37.0</ele><time>2026-05-01T08:17:37.546Z</time></trkpt><trkpt lat="42.3945" lon="14.2512391"><ele>38.0</ele><time>2026-05-01T08:17:39.552Z</time></trkpt><trkpt lat="42.394428" lon="14.2514528"><ele>39.0</ele><time>2026-05-01T08:17:41.563Z</time></trkpt><trkpt lat="42.3943809" lon="14.2516364"><ele>39.0</ele><time>2026-05-01T08:17:43.559Z</time></trkpt><trkpt lat="42.3943276" lon="14.2518114"><ele>39.0</ele><time>2026-05-01T08:17:45.558Z</time></trkpt><trkpt lat="42.3942831" lon="14.2519368"><ele>39.0</ele><time>2026-05-01T08:17:47.545Z</time></trkpt><trkpt lat="42.3942493" lon="14.2520249"><ele>39.0</ele><time>2026-05-01T08:18:09.568Z</time></trkpt><trkpt lat="42.3942287" lon="14.2521077"><ele>39.0</ele><time>2026-05-01T08:18:11.562Z</time></trkpt><trkpt lat="42.3941941" lon="14.2522052"><ele>38.4</ele><time>2026-05-01T08:18:13.559Z</time></trkpt><trkpt lat="42.3941835" lon="14.2523411"><ele>37.8</ele><time>2026-05-01T08:18:15.548Z</time></trkpt><trkpt lat="42.3942062" lon="14.252538"><ele>37.2</ele><time>2026-05-01T08:18:17.564Z</time></trkpt><trkpt lat="42.3942018" lon="14.2527068"><ele>36.6</ele><time>2026-05-01T08:18:19.551Z</time></trkpt><trkpt lat="42.3941829" lon="14.2528022"><ele>36.0</ele><time>2026-05-01T08:18:21.552Z</time></trkpt><trkpt lat="42.3940259" lon="14.252741"><ele>35.0</ele><time>2026-05-01T08:18:25.554Z</time></trkpt><trkpt lat="42.3938328" lon="14.2525767"><ele>34.0</ele><time>2026-05-01T08:18:27.553Z</time></trkpt><trkpt lat="42.3935993" lon="14.2523805"><ele>37.5</ele><time>2026-05-01T08:18:29.554Z</time></trkpt><trkpt lat="42.3933461" lon="14.2521731"><ele>41.0</ele><time>2026-05-01T08:18:31.564Z</time></trkpt><trkpt lat="42.3930873" lon="14.2519601"><ele>38.5</ele><time>2026-05-01T08:18:33.563Z</time></trkpt><trkpt lat="42.3928719" lon="14.2517813"><ele>36.0</ele><time>2026-05-01T08:18:35.562Z</time></trkpt><trkpt lat="42.3926426" lon="14.2515735"><ele>35.5</ele><time>2026-05-01T08:18:37.558Z</time></trkpt><trkpt lat="42.3924015" lon="14.2513674"><ele>35.0</ele><time>2026-05-01T08:18:39.643Z</time></trkpt><trkpt lat="42.3921643" lon="14.251153"><ele>35.0</ele><time>2026-05-01T08:18:41.645Z</time></trkpt><trkpt lat="42.391926" lon="14.2509492"><ele>35.0</ele><time>2026-05-01T08:18:43.646Z</time></trkpt><trkpt lat="42.3916902" lon="14.2507459"><ele>36.0</ele><time>2026-05-01T08:18:45.647Z</time></trkpt><trkpt lat="42.3914338" lon="14.2505354"><ele>37.0</ele><time>2026-05-01T08:18:47.643Z</time></trkpt><trkpt lat="42.3911891" lon="14.2503292"><ele>37.0</ele><time>2026-05-01T08:18:49.642Z</time></trkpt><trkpt lat="42.3909535" lon="14.2501247"><ele>37.0</ele><time>2026-05-01T08:18:51.637Z</time></trkpt><trkpt lat="42.390736" lon="14.2499334"><ele>38.5</ele><time>2026-05-01T08:18:53.641Z</time></trkpt><trkpt lat="42.3905281" lon="14.2497718"><ele>40.0</ele><time>2026-05-01T08:18:55.635Z</time></trkpt><trkpt lat="42.3903124" lon="14.2496239"><ele>40.0</ele><time>2026-05-01T08:18:57.633Z</time></trkpt><trkpt lat="42.3900767" lon="14.2494814"><ele>40.0</ele><time>2026-05-01T08:18:59.628Z</time></trkpt><trkpt lat="42.3898191" lon="14.2493331"><ele>37.5</ele><time>2026-05-01T08:19:01.632Z</time></trkpt><trkpt lat="42.3895488" lon="14.2491695"><ele>35.0</ele><time>2026-05-01T08:19:03.639Z</time></trkpt><trkpt lat="42.3892941" lon="14.2490072"><ele>36.5</ele><time>2026-05-01T08:19:05.644Z</time></trkpt><trkpt lat="42.389047" lon="14.2488323"><ele>38.0</ele><time>2026-05-01T08:19:07.641Z</time></trkpt><trkpt lat="42.3887967" lon="14.2486154"><ele>38.0</ele><time>2026-05-01T08:19:09.636Z</time></trkpt><trkpt lat="42.3885703" lon="14.2483835"><ele>38.0</ele><time>2026-05-01T08:19:11.636Z</time></trkpt><trkpt lat="42.3883676" lon="14.2481403"><ele>37.0</ele><time>2026-05-01T08:19:13.631Z</time></trkpt><trkpt lat="42.3881817" lon="14.2478758"><ele>36.0</ele><time>2026-05-01T08:19:15.627Z</time></trkpt><trkpt lat="42.3879972" lon="14.2476124"><ele>36.0</ele><time>2026-05-01T08:19:17.629Z</time></trkpt><trkpt lat="42.3878187" lon="14.2473674"><ele>36.0</ele><time>2026-05-01T08:19:19.626Z</time></trkpt><trkpt lat="42.3876458" lon="14.2471302"><ele>38.333333333333336</ele><time>2026-05-01T08:19:21.626Z</time></trkpt><trkpt lat="42.3874993" lon="14.2469313"><ele>40.66666666666667</ele><time>2026-05-01T08:19:23.63Z</time></trkpt><trkpt lat="42.387398" lon="14.2467828"><ele>43.0</ele><time>2026-05-01T08:19:25.62Z</time></trkpt><trkpt lat="42.3873339" lon="14.2466918"><ele>43.0</ele><time>2026-05-01T08:19:27.625Z</time></trkpt><trkpt lat="42.3872747" lon="14.2465836"><ele>43.0</ele><time>2026-05-01T08:19:31.643Z</time></trkpt><trkpt lat="42.3872335" lon="14.2465118"><ele>43.0</ele><time>2026-05-01T08:19:35.641Z</time></trkpt><trkpt lat="42.3871608" lon="14.2464107"><ele>43.0</ele><time>2026-05-01T08:20:05.658Z</time></trkpt><trkpt lat="42.3871327" lon="14.2462624"><ele>43.0</ele><time>2026-05-01T08:20:07.56Z</time></trkpt><trkpt lat="42.387075" lon="14.2460664"><ele>42.66666666666667</ele><time>2026-05-01T08:20:09.558Z</time></trkpt><trkpt lat="42.3869394" lon="14.2458461"><ele>42.333333333333336</ele><time>2026-05-01T08:20:11.552Z</time></trkpt><trkpt lat="42.3868056" lon="14.2456371"><ele>42.0</ele><time>2026-05-01T08:20:13.552Z</time></trkpt><trkpt lat="42.3866728" lon="14.2454599"><ele>42.0</ele><time>2026-05-01T08:20:15.565Z</time></trkpt><trkpt lat="42.3865231" lon="14.245287"><ele>42.0</ele><time>2026-05-01T08:20:17.557Z</time></trkpt><trkpt lat="42.3863669" lon="14.2451138"><ele>42.0</ele><time>2026-05-01T08:20:19.549Z</time></trkpt><trkpt lat="42.3861905" lon="14.2449434"><ele>42.0</ele><time>2026-05-01T08:20:21.547Z</time></trkpt><trkpt lat="42.3860269" lon="14.2447986"><ele>42.0</ele><time>2026-05-01T08:20:23.555Z</time></trkpt><trkpt lat="42.3858626" lon="14.2446508"><ele>42.0</ele><time>2026-05-01T08:20:25.543Z</time></trkpt><trkpt lat="42.3857127" lon="14.2445041"><ele>42.333333333333336</ele><time>2026-05-01T08:20:27.545Z</time></trkpt><trkpt lat="42.3855624" lon="14.2443803"><ele>42.66666666666667</ele><time>2026-05-01T08:20:29.534Z</time></trkpt><trkpt lat="42.3853821" lon="14.2442238"><ele>43.0</ele><time>2026-05-01T08:20:31.539Z</time></trkpt><trkpt lat="42.385194" lon="14.2440744"><ele>44.66666666666667</ele><time>2026-05-01T08:20:33.539Z</time></trkpt><trkpt lat="42.3850338" lon="14.2439146"><ele>46.333333333333336</ele><time>2026-05-01T08:20:35.547Z</time></trkpt><trkpt lat="42.384912" lon="14.243711"><ele>48.0</ele><time>2026-05-01T08:20:37.541Z</time></trkpt><trkpt lat="42.3848251" lon="14.2435124"><ele>48.0</ele><time>2026-05-01T08:20:39.547Z</time></trkpt><trkpt lat="42.3846821" lon="14.2433817"><ele>48.0</ele><time>2026-05-01T08:20:41.545Z</time></trkpt><trkpt lat="42.3844699" lon="14.2432707"><ele>48.0</ele><time>2026-05-01T08:20:43.557Z</time></trkpt><trkpt lat="42.3842483" lon="14.2431787"><ele>47.5</ele><time>2026-05-01T08:20:45.562Z</time></trkpt><trkpt lat="42.3840423" lon="14.2430369"><ele>47.0</ele><time>2026-05-01T08:20:47.554Z</time></trkpt><trkpt lat="42.3838222" lon="14.2428402"><ele>45.0</ele><time>2026-05-01T08:20:49.555Z</time></trkpt><trkpt lat="42.3836096" lon="14.2426354"><ele>43.0</ele><time>2026-05-01T08:20:51.551Z</time></trkpt><trkpt lat="42.3834222" lon="14.2424437"><ele>44.0</ele><time>2026-05-01T08:20:53.565Z</time></trkpt><trkpt lat="42.3832314" lon="14.2422753"><ele>45.0</ele><time>2026-05-01T08:20:55.556Z</time></trkpt><trkpt lat="42.3830721" lon="14.2421377"><ele>46.0</ele><time>2026-05-01T08:20:57.556Z</time></trkpt><trkpt lat="42.3829447" lon="14.2420072"><ele>46.0</ele><time>2026-05-01T08:20:59.574Z</time></trkpt><trkpt lat="42.3828447" lon="14.241893"><ele>46.0</ele><time>2026-05-01T08:21:01.564Z</time></trkpt><trkpt lat="42.3827582" lon="14.2418037"><ele>46.0</ele><time>2026-05-01T08:21:03.56Z</time></trkpt><trkpt lat="42.3826623" lon="14.2417241"><ele>46.0</ele><time>2026-05-01T08:21:05.561Z</time></trkpt><trkpt lat="42.3825243" lon="14.2415865"><ele>47.0</ele><time>2026-05-01T08:21:07.549Z</time></trkpt><trkpt lat="42.382333" lon="14.2414317"><ele>48.0</ele><time>2026-05-01T08:21:09.555Z</time></trkpt><trkpt lat="42.3821291" lon="14.2412479"><ele>48.0</ele><time>2026-05-01T08:21:11.558Z</time></trkpt><trkpt lat="42.381949" lon="14.2410787"><ele>48.0</ele><time>2026-05-01T08:21:13.551Z</time></trkpt><trkpt lat="42.3817931" lon="14.2409118"><ele>48.0</ele><time>2026-05-01T08:21:15.564Z</time></trkpt><trkpt lat="42.3816193" lon="14.2407431"><ele>49.33333333333333</ele><time>2026-05-01T08:21:17.567Z</time></trkpt><trkpt lat="42.3814429" lon="14.2405969"><ele>50.666666666666664</ele><time>2026-05-01T08:21:19.567Z</time></trkpt><trkpt lat="42.3812472" lon="14.2404262"><ele>52.0</ele><time>2026-05-01T08:21:21.567Z</time></trkpt><trkpt lat="42.3810349" lon="14.2402385"><ele>53.0</ele><time>2026-05-01T08:21:23.565Z</time></trkpt><trkpt lat="42.3808398" lon="14.240062"><ele>54.0</ele><time>2026-05-01T08:21:25.56Z</time></trkpt><trkpt lat="42.380701" lon="14.2399251"><ele>55.0</ele><time>2026-05-01T08:21:27.563Z</time></trkpt><trkpt lat="42.3805355" lon="14.2397815"><ele>55.666666666666664</ele><time>2026-05-01T08:21:29.568Z</time></trkpt><trkpt lat="42.3803935" lon="14.2395907"><ele>56.33333333333333</ele><time>2026-05-01T08:21:31.559Z</time></trkpt><trkpt lat="42.3802868" lon="14.2394"><ele>57.0</ele><time>2026-05-01T08:21:33.565Z</time></trkpt><trkpt lat="42.3801828" lon="14.2392508"><ele>57.0</ele><time>2026-05-01T08:21:35.551Z</time></trkpt><trkpt lat="42.3801044" lon="14.239158"><ele>57.0</ele><time>2026-05-01T08:21:37.551Z</time></trkpt><trkpt lat="42.3800682" lon="14.2390615"><ele>57.0</ele><time>2026-05-01T08:21:39.542Z</time></trkpt><trkpt lat="42.3800727" lon="14.2389505"><ele>57.0</ele><time>2026-05-01T08:21:45.559Z</time></trkpt><trkpt lat="42.3799943" lon="14.2390712"><ele>57.0</ele><time>2026-05-01T08:22:09.554Z</time></trkpt><trkpt lat="42.3799285" lon="14.2392151"><ele>57.0</ele><time>2026-05-01T08:22:11.553Z</time></trkpt><trkpt lat="42.3798095" lon="14.2393463"><ele>57.0</ele><time>2026-05-01T08:22:13.543Z</time></trkpt><trkpt lat="42.379704" lon="14.2394403"><ele>57.0</ele><time>2026-05-01T08:22:15.547Z</time></trkpt><trkpt lat="42.3795917" lon="14.2395185"><ele>57.0</ele><time>2026-05-01T08:22:17.549Z</time></trkpt><trkpt lat="42.3794585" lon="14.2396007"><ele>55.66666666666667</ele><time>2026-05-01T08:22:19.561Z</time></trkpt><trkpt lat="42.3793052" lon="14.2396443"><ele>54.333333333333336</ele><time>2026-05-01T08:22:21.553Z</time></trkpt><trkpt lat="42.3791288" lon="14.2397112"><ele>53.0</ele><time>2026-05-01T08:22:23.558Z</time></trkpt><trkpt lat="42.3789911" lon="14.2398547"><ele>51.8</ele><time>2026-05-01T08:22:25.556Z</time></trkpt><trkpt lat="42.3788856" lon="14.2400134"><ele>50.599999999999994</ele><time>2026-05-01T08:22:27.556Z</time></trkpt><trkpt lat="42.3787915" lon="14.240056"><ele>49.400000000000006</ele><time>2026-05-01T08:22:29.548Z</time></trkpt><trkpt lat="42.3787302" lon="14.2401017"><ele>48.2</ele><time>2026-05-01T08:22:49.564Z</time></trkpt><trkpt lat="42.3788439" lon="14.2401379"><ele>47.0</ele><time>2026-05-01T08:22:53.576Z</time></trkpt><trkpt lat="42.378948" lon="14.2400397"><ele>47.0</ele><time>2026-05-01T08:22:55.572Z</time></trkpt><trkpt lat="42.3790119" lon="14.2399504"><ele>47.0</ele><time>2026-05-01T08:22:57.564Z</time></trkpt><trkpt lat="42.3790377" lon="14.2398324"><ele>47.0</ele><time>2026-05-01T08:23:19.571Z</time></trkpt><trkpt lat="42.3790563" lon="14.2397157"><ele>47.0</ele><time>2026-05-01T08:28:27.578Z</time></trkpt><trkpt lat="42.3791503" lon="14.2397152"><ele>47.0</ele><time>2026-05-01T08:28:31.572Z</time></trkpt><trkpt lat="42.3792217" lon="14.2396886"><ele>47.0</ele><time>2026-05-01T08:28:33.578Z</time></trkpt><trkpt lat="42.3793019" lon="14.2396798"><ele>47.0</ele><time>2026-05-01T08:28:37.571Z</time></trkpt><trkpt lat="42.3792336" lon="14.2396393"><ele>47.0</ele><time>2026-05-01T08:28:41.581Z</time></trkpt><trkpt lat="42.3791753" lon="14.2396797"><ele>47.0</ele><time>2026-05-01T08:28:43.584Z</time></trkpt><trkpt lat="42.3790926" lon="14.239767"><ele>47.0</ele><time>2026-05-01T08:28:47.586Z</time></trkpt><trkpt lat="42.3790451" lon="14.2398508"><ele>47.0</ele><time>2026-05-01T08:28:57.578Z</time></trkpt><trkpt lat="42.378999" lon="14.2399139"><ele>47.0</ele><time>2026-05-01T08:31:27.57Z</time></trkpt><trkpt lat="42.3789304" lon="14.2400054"><ele>47.0</ele><time>2026-05-01T08:31:31.576Z</time></trkpt><trkpt lat="42.3788306" lon="14.2400206"><ele>47.0</ele><time>2026-05-01T08:31:57.57Z</time></trkpt><trkpt lat="42.3786953" lon="14.2400229"><ele>47.0</ele><time>2026-05-01T08:31:59.561Z</time></trkpt><trkpt lat="42.3785517" lon="14.2399851"><ele>47.0</ele><time>2026-05-01T08:32:01.559Z</time></trkpt><trkpt lat="42.3784183" lon="14.2399575"><ele>47.0</ele><time>2026-05-01T08:32:03.562Z</time></trkpt><trkpt lat="42.3782847" lon="14.2399089"><ele>47.0</ele><time>2026-05-01T08:32:05.566Z</time></trkpt><trkpt lat="42.3781555" lon="14.2398148"><ele>47.0</ele><time>2026-05-01T08:32:07.562Z</time></trkpt><trkpt lat="42.378018" lon="14.2397131"><ele>47.0</ele><time>2026-05-01T08:32:09.559Z</time></trkpt><trkpt lat="42.3778698" lon="14.2396225"><ele>47.0</ele><time>2026-05-01T08:32:11.561Z</time></trkpt><trkpt lat="42.3777073" lon="14.2395112"><ele>47.0</ele><time>2026-05-01T08:32:13.563Z</time></trkpt><trkpt lat="42.377524" lon="14.2393781"><ele>47.0</ele><time>2026-05-01T08:32:15.574Z</time></trkpt><trkpt lat="42.3773408" lon="14.2392285"><ele>46.666666666666664</ele><time>2026-05-01T08:32:17.563Z</time></trkpt><trkpt lat="42.3771666" lon="14.2390715"><ele>46.333333333333336</ele><time>2026-05-01T08:32:19.562Z</time></trkpt><trkpt lat="42.3769854" lon="14.2389201"><ele>46.0</ele><time>2026-05-01T08:32:21.564Z</time></trkpt><trkpt lat="42.376813" lon="14.2387815"><ele>46.333333333333336</ele><time>2026-05-01T08:32:23.56Z</time></trkpt><trkpt lat="42.376652" lon="14.2386434"><ele>46.666666666666664</ele><time>2026-05-01T08:32:25.572Z</time></trkpt><trkpt lat="42.3764968" lon="14.2385008"><ele>47.0</ele><time>2026-05-01T08:32:27.559Z</time></trkpt><trkpt lat="42.3763461" lon="14.2383716"><ele>47.0</ele><time>2026-05-01T08:32:29.552Z</time></trkpt><trkpt lat="42.3761853" lon="14.2382474"><ele>47.0</ele><time>2026-05-01T08:32:31.553Z</time></trkpt><trkpt lat="42.3760188" lon="14.238122"><ele>47.0</ele><time>2026-05-01T08:32:33.557Z</time></trkpt><trkpt lat="42.3758443" lon="14.2379817"><ele>47.5</ele><time>2026-05-01T08:32:35.563Z</time></trkpt><trkpt lat="42.3757172" lon="14.2378572"><ele>48.0</ele><time>2026-05-01T08:32:37.558Z</time></trkpt><trkpt lat="42.3756021" lon="14.2377475"><ele>48.5</ele><time>2026-05-01T08:32:39.561Z</time></trkpt><trkpt lat="42.3754988" lon="14.2376675"><ele>49.0</ele><time>2026-05-01T08:32:41.562Z</time></trkpt><trkpt lat="42.3754057" lon="14.2376096"><ele>49.0</ele><time>2026-05-01T08:32:43.575Z</time></trkpt><trkpt lat="42.3752784" lon="14.2374893"><ele>49.0</ele><time>2026-05-01T08:32:45.568Z</time></trkpt><trkpt lat="42.375074" lon="14.2373506"><ele>49.0</ele><time>2026-05-01T08:32:47.639Z</time></trkpt><trkpt lat="42.3748507" lon="14.2371961"><ele>51.5</ele><time>2026-05-01T08:32:49.65Z</time></trkpt><trkpt lat="42.3746273" lon="14.237041"><ele>54.0</ele><time>2026-05-01T08:32:51.648Z</time></trkpt><trkpt lat="42.3744075" lon="14.2368743"><ele>54.0</ele><time>2026-05-01T08:32:53.644Z</time></trkpt><trkpt lat="42.3741673" lon="14.2366753"><ele>54.0</ele><time>2026-05-01T08:32:55.647Z</time></trkpt><trkpt lat="42.3739183" lon="14.236482"><ele>58.0</ele><time>2026-05-01T08:32:57.648Z</time></trkpt><trkpt lat="42.3736857" lon="14.2363104"><ele>62.0</ele><time>2026-05-01T08:32:59.646Z</time></trkpt><trkpt lat="42.3734653" lon="14.2361423"><ele>62.0</ele><time>2026-05-01T08:33:01.638Z</time></trkpt><trkpt lat="42.3732286" lon="14.2359811"><ele>62.0</ele><time>2026-05-01T08:33:03.637Z</time></trkpt><trkpt lat="42.372989" lon="14.2358283"><ele>61.5</ele><time>2026-05-01T08:33:05.643Z</time></trkpt><trkpt lat="42.3727521" lon="14.2356882"><ele>61.0</ele><time>2026-05-01T08:33:07.641Z</time></trkpt><trkpt lat="42.3725451" lon="14.2355473"><ele>61.0</ele><time>2026-05-01T08:33:09.638Z</time></trkpt><trkpt lat="42.3723557" lon="14.2353811"><ele>61.0</ele><time>2026-05-01T08:33:11.645Z</time></trkpt><trkpt lat="42.3722444" lon="14.2352131"><ele>61.0</ele><time>2026-05-01T08:33:13.627Z</time></trkpt><trkpt lat="42.3722607" lon="14.2350795"><ele>61.0</ele><time>2026-05-01T08:33:15.626Z</time></trkpt><trkpt lat="42.3723898" lon="14.2349963"><ele>60.99999999999999</ele><time>2026-05-01T08:33:17.541Z</time></trkpt><trkpt lat="42.3725094" lon="14.2350264"><ele>60.99999999999999</ele><time>2026-05-01T08:33:19.555Z</time></trkpt><trkpt lat="42.3726083" lon="14.2350372"><ele>61.0</ele><time>2026-05-01T08:33:21.551Z</time></trkpt><trkpt lat="42.3726717" lon="14.2349978"><ele>61.0</ele><time>2026-05-01T08:33:25.558Z</time></trkpt><trkpt lat="42.3726518" lon="14.2349062"><ele>61.0</ele><time>2026-05-01T08:33:29.564Z</time></trkpt><trkpt lat="42.3725992" lon="14.2348588"><ele>61.0</ele><time>2026-05-01T08:33:31.56Z</time></trkpt><trkpt lat="42.372492" lon="14.2348136"><ele>61.0</ele><time>2026-05-01T08:33:33.555Z</time></trkpt><trkpt lat="42.3723462" lon="14.2347945"><ele>61.0</ele><time>2026-05-01T08:33:35.545Z</time></trkpt><trkpt lat="42.3721475" lon="14.2348023"><ele>58.5</ele><time>2026-05-01T08:33:37.555Z</time></trkpt><trkpt lat="42.3719292" lon="14.2347994"><ele>56.0</ele><time>2026-05-01T08:33:39.55Z</time></trkpt><trkpt lat="42.3716972" lon="14.2347047"><ele>56.0</ele><time>2026-05-01T08:33:41.551Z</time></trkpt><trkpt lat="42.371478" lon="14.2345263"><ele>56.0</ele><time>2026-05-01T08:33:43.551Z</time></trkpt><trkpt lat="42.3712652" lon="14.2343004"><ele>53.5</ele><time>2026-05-01T08:33:45.559Z</time></trkpt><trkpt lat="42.3710401" lon="14.234165"><ele>51.0</ele><time>2026-05-01T08:33:47.558Z</time></trkpt><trkpt lat="42.370786" lon="14.2341414"><ele>51.0</ele><time>2026-05-01T08:33:49.549Z</time></trkpt><trkpt lat="42.3705789" lon="14.2341823"><ele>51.0</ele><time>2026-05-01T08:33:51.557Z</time></trkpt><trkpt lat="42.3703684" lon="14.2342011"><ele>51.0</ele><time>2026-05-01T08:33:53.552Z</time></trkpt><trkpt lat="42.3701442" lon="14.2342215"><ele>50.66666666666667</ele><time>2026-05-01T08:33:55.56Z</time></trkpt><trkpt lat="42.3699296" lon="14.2342588"><ele>50.333333333333336</ele><time>2026-05-01T08:33:57.555Z</time></trkpt><trkpt lat="42.3697182" lon="14.2342783"><ele>50.0</ele><time>2026-05-01T08:33:59.557Z</time></trkpt><trkpt lat="42.3695252" lon="14.2343038"><ele>50.0</ele><time>2026-05-01T08:34:01.555Z</time></trkpt><trkpt lat="42.3693454" lon="14.2343363"><ele>50.0</ele><time>2026-05-01T08:34:03.546Z</time></trkpt><trkpt lat="42.3691891" lon="14.2343554"><ele>50.0</ele><time>2026-05-01T08:34:05.533Z</time></trkpt><trkpt lat="42.3690835" lon="14.2343777"><ele>50.0</ele><time>2026-05-01T08:34:07.555Z</time></trkpt><trkpt lat="42.3689975" lon="14.2344096"><ele>50.0</ele><time>2026-05-01T08:34:09.554Z</time></trkpt><trkpt lat="42.3690294" lon="14.2345401"><ele>50.0</ele><time>2026-05-01T08:34:13.562Z</time></trkpt><trkpt lat="42.3691296" lon="14.23459"><ele>50.0</ele><time>2026-05-01T08:34:15.55Z</time></trkpt><trkpt lat="42.3693214" lon="14.2346365"><ele>50.0</ele><time>2026-05-01T08:34:17.553Z</time></trkpt><trkpt lat="42.3695396" lon="14.2346683"><ele>48.66666666666667</ele><time>2026-05-01T08:34:19.549Z</time></trkpt><trkpt lat="42.3697551" lon="14.234703"><ele>47.333333333333336</ele><time>2026-05-01T08:34:21.544Z</time></trkpt><trkpt lat="42.3699083" lon="14.2347094"><ele>46.0</ele><time>2026-05-01T08:34:23.544Z</time></trkpt><trkpt lat="42.3700121" lon="14.2347438"><ele>44.66666666666667</ele><time>2026-05-01T08:34:25.535Z</time></trkpt><trkpt lat="42.3700472" lon="14.23491"><ele>43.333333333333336</ele><time>2026-05-01T08:34:27.531Z</time></trkpt><trkpt lat="42.3700403" lon="14.2351458"><ele>42.0</ele><time>2026-05-01T08:34:29.539Z</time></trkpt><trkpt lat="42.3700517" lon="14.2353993"><ele>42.0</ele><time>2026-05-01T08:34:31.546Z</time></trkpt><trkpt lat="42.370084" lon="14.2356143"><ele>42.0</ele><time>2026-05-01T08:34:33.54Z</time></trkpt><trkpt lat="42.3701174" lon="14.2358235"><ele>42.0</ele><time>2026-05-01T08:34:35.542Z</time></trkpt><trkpt lat="42.3700889" lon="14.2360163"><ele>42.0</ele><time>2026-05-01T08:34:37.55Z</time></trkpt><trkpt lat="42.3700379" lon="14.2362632"><ele>42.0</ele><time>2026-05-01T08:34:39.544Z</time></trkpt><trkpt lat="42.3699626" lon="14.2365478"><ele>42.0</ele><time>2026-05-01T08:34:41.549Z</time></trkpt><trkpt lat="42.3699132" lon="14.236807"><ele>42.0</ele><time>2026-05-01T08:34:43.536Z</time></trkpt><trkpt lat="42.3699349" lon="14.2370455"><ele>42.0</ele><time>2026-05-01T08:34:45.535Z</time></trkpt><trkpt lat="42.3699999" lon="14.237215"><ele>42.0</ele><time>2026-05-01T08:34:47.549Z</time></trkpt><trkpt lat="42.3701268" lon="14.2373727"><ele>42.0</ele><time>2026-05-01T08:34:49.549Z</time></trkpt><trkpt lat="42.3703125" lon="14.2375144"><ele>42.0</ele><time>2026-05-01T08:34:51.55Z</time></trkpt><trkpt lat="42.3705248" lon="14.2376563"><ele>42.0</ele><time>2026-05-01T08:34:53.558Z</time></trkpt><trkpt lat="42.3707186" lon="14.2378021"><ele>42.0</ele><time>2026-05-01T08:34:55.554Z</time></trkpt><trkpt lat="42.37088" lon="14.2379273"><ele>42.0</ele><time>2026-05-01T08:34:57.551Z</time></trkpt><trkpt lat="42.3710061" lon="14.2380115"><ele>42.0</ele><time>2026-05-01T08:34:59.554Z</time></trkpt><trkpt lat="42.3711393" lon="14.2381301"><ele>42.0</ele><time>2026-05-01T08:35:01.556Z</time></trkpt><trkpt lat="42.3712924" lon="14.2382733"><ele>42.0</ele><time>2026-05-01T08:35:03.548Z</time></trkpt><trkpt lat="42.3714249" lon="14.2383836"><ele>42.333333333333336</ele><time>2026-05-01T08:35:05.542Z</time></trkpt><trkpt lat="42.3715643" lon="14.2385091"><ele>42.66666666666667</ele><time>2026-05-01T08:35:07.547Z</time></trkpt><trkpt lat="42.3717152" lon="14.2386514"><ele>43.0</ele><time>2026-05-01T08:35:09.547Z</time></trkpt><trkpt lat="42.3718357" lon="14.238824"><ele>42.333333333333336</ele><time>2026-05-01T08:35:11.55Z</time></trkpt><trkpt lat="42.371935" lon="14.2389728"><ele>41.666666666666664</ele><time>2026-05-01T08:35:13.55Z</time></trkpt><trkpt lat="42.3720652" lon="14.239162"><ele>41.0</ele><time>2026-05-01T08:35:15.549Z</time></trkpt><trkpt lat="42.3721916" lon="14.2393527"><ele>41.0</ele><time>2026-05-01T08:35:17.555Z</time></trkpt><trkpt lat="42.3723051" lon="14.2395051"><ele>41.0</ele><time>2026-05-01T08:35:19.556Z</time></trkpt><trkpt lat="42.3724126" lon="14.2396132"><ele>41.0</ele><time>2026-05-01T08:35:21.554Z</time></trkpt><trkpt lat="42.3724957" lon="14.2396823"><ele>41.0</ele><time>2026-05-01T08:35:23.551Z</time></trkpt><trkpt lat="42.3725892" lon="14.2397695"><ele>41.25</ele><time>2026-05-01T08:35:25.545Z</time></trkpt><trkpt lat="42.3726856" lon="14.2398535"><ele>41.5</ele><time>2026-05-01T08:35:27.548Z</time></trkpt><trkpt lat="42.3727658" lon="14.2399309"><ele>41.75</ele><time>2026-05-01T08:35:29.544Z</time></trkpt><trkpt lat="42.3728562" lon="14.2400107"><ele>42.0</ele><time>2026-05-01T08:35:31.556Z</time></trkpt><trkpt lat="42.3729693" lon="14.2401221"><ele>41.0</ele><time>2026-05-01T08:35:33.551Z</time></trkpt><trkpt lat="42.3730675" lon="14.2402032"><ele>40.0</ele><time>2026-05-01T08:35:35.556Z</time></trkpt><trkpt lat="42.373203" lon="14.2402974"><ele>39.0</ele><time>2026-05-01T08:35:37.554Z</time></trkpt><trkpt lat="42.3733207" lon="14.2403709"><ele>38.0</ele><time>2026-05-01T08:35:39.564Z</time></trkpt><trkpt lat="42.3734578" lon="14.2404961"><ele>37.33333333333333</ele><time>2026-05-01T08:35:41.562Z</time></trkpt><trkpt lat="42.3736001" lon="14.2406636"><ele>36.666666666666664</ele><time>2026-05-01T08:35:43.639Z</time></trkpt><trkpt lat="42.3737596" lon="14.2408414"><ele>36.0</ele><time>2026-05-01T08:35:45.643Z</time></trkpt><trkpt lat="42.3739196" lon="14.2410304"><ele>36.0</ele><time>2026-05-01T08:35:47.644Z</time></trkpt><trkpt lat="42.374085" lon="14.2411861"><ele>36.0</ele><time>2026-05-01T08:35:49.646Z</time></trkpt><trkpt lat="42.3742895" lon="14.2413264"><ele>36.0</ele><time>2026-05-01T08:35:51.635Z</time></trkpt><trkpt lat="42.374511" lon="14.2415074"><ele>35.0</ele><time>2026-05-01T08:35:53.643Z</time></trkpt><trkpt lat="42.3747216" lon="14.2417153"><ele>34.0</ele><time>2026-05-01T08:35:55.616Z</time></trkpt><trkpt lat="42.3748818" lon="14.2419154"><ele>34.0</ele><time>2026-05-01T08:35:57.621Z</time></trkpt><trkpt lat="42.3750286" lon="14.2420922"><ele>34.0</ele><time>2026-05-01T08:35:59.641Z</time></trkpt><trkpt lat="42.3751512" lon="14.2422449"><ele>34.0</ele><time>2026-05-01T08:36:01.553Z</time></trkpt><trkpt lat="42.3752279" lon="14.2423963"><ele>35.66666666666667</ele><time>2026-05-01T08:36:03.556Z</time></trkpt><trkpt lat="42.3752796" lon="14.2425705"><ele>37.333333333333336</ele><time>2026-05-01T08:36:05.545Z</time></trkpt><trkpt lat="42.3752649" lon="14.2428064"><ele>39.0</ele><time>2026-05-01T08:36:07.545Z</time></trkpt><trkpt lat="42.3751816" lon="14.2430745"><ele>42.0</ele><time>2026-05-01T08:36:09.554Z</time></trkpt><trkpt lat="42.3750806" lon="14.2433716"><ele>45.0</ele><time>2026-05-01T08:36:11.552Z</time></trkpt><trkpt lat="42.3749831" lon="14.2436738"><ele>48.0</ele><time>2026-05-01T08:36:13.555Z</time></trkpt><trkpt lat="42.3748718" lon="14.2439762"><ele>51.0</ele><time>2026-05-01T08:36:15.55Z</time></trkpt><trkpt lat="42.3747665" lon="14.2442914"><ele>57.5</ele><time>2026-05-01T08:36:17.551Z</time></trkpt><trkpt lat="42.3746448" lon="14.2446124"><ele>64.0</ele><time>2026-05-01T08:36:19.55Z</time></trkpt><trkpt lat="42.3745572" lon="14.2449193"><ele>65.5</ele><time>2026-05-01T08:36:21.546Z</time></trkpt><trkpt lat="42.3744915" lon="14.2452347"><ele>67.0</ele><time>2026-05-01T08:36:23.544Z</time></trkpt><trkpt lat="42.374429" lon="14.2455713"><ele>70.0</ele><time>2026-05-01T08:36:25.547Z</time></trkpt><trkpt lat="42.3743582" lon="14.2458789"><ele>73.0</ele><time>2026-05-01T08:36:27.548Z</time></trkpt><trkpt lat="42.3742924" lon="14.2461705"><ele>73.0</ele><time>2026-05-01T08:36:29.555Z</time></trkpt><trkpt lat="42.374207" lon="14.2464272"><ele>73.0</ele><time>2026-05-01T08:36:31.54Z</time></trkpt><trkpt lat="42.3740732" lon="14.2466663"><ele>73.0</ele><time>2026-05-01T08:36:33.539Z</time></trkpt><trkpt lat="42.3739763" lon="14.2468458"><ele>73.66666666666666</ele><time>2026-05-01T08:36:35.536Z</time></trkpt><trkpt lat="42.3739679" lon="14.2470637"><ele>74.33333333333333</ele><time>2026-05-01T08:36:37.53Z</time></trkpt><trkpt lat="42.3739877" lon="14.2473377"><ele>75.0</ele><time>2026-05-01T08:36:39.532Z</time></trkpt><trkpt lat="42.3739148" lon="14.24762"><ele>82.0</ele><time>2026-05-01T08:36:41.536Z</time></trkpt><trkpt lat="42.3738413" lon="14.2478402"><ele>89.0</ele><time>2026-05-01T08:36:43.534Z</time></trkpt><trkpt lat="42.3738183" lon="14.2480276"><ele>96.0</ele><time>2026-05-01T08:36:45.54Z</time></trkpt><trkpt lat="42.373826" lon="14.2483034"><ele>98.5</ele><time>2026-05-01T08:36:47.542Z</time></trkpt><trkpt lat="42.3738213" lon="14.2486413"><ele>101.0</ele><time>2026-05-01T08:36:49.546Z</time></trkpt><trkpt lat="42.3738019" lon="14.2489448"><ele>103.0</ele><time>2026-05-01T08:36:51.546Z</time></trkpt><trkpt lat="42.3737444" lon="14.2491699"><ele>105.0</ele><time>2026-05-01T08:36:53.541Z</time></trkpt><trkpt lat="42.3737001" lon="14.2493469"><ele>107.0</ele><time>2026-05-01T08:36:55.542Z</time></trkpt><trkpt lat="42.3736455" lon="14.2496311"><ele>108.5</ele><time>2026-05-01T08:36:57.543Z</time></trkpt><trkpt lat="42.3735868" lon="14.249956"><ele>110.0</ele><time>2026-05-01T08:36:59.548Z</time></trkpt><trkpt lat="42.3735074" lon="14.2502093"><ele>110.0</ele><time>2026-05-01T08:37:01.538Z</time></trkpt><trkpt lat="42.3735338" lon="14.2503687"><ele>110.0</ele><time>2026-05-01T08:37:03.531Z</time></trkpt><trkpt lat="42.3736929" lon="14.2504767"><ele>110.0</ele><time>2026-05-01T08:37:05.541Z</time></trkpt><trkpt lat="42.3738656" lon="14.2505997"><ele>110.0</ele><time>2026-05-01T08:37:07.537Z</time></trkpt><trkpt lat="42.3739714" lon="14.2507625"><ele>110.0</ele><time>2026-05-01T08:37:09.543Z</time></trkpt><trkpt lat="42.3740748" lon="14.2509783"><ele>110.0</ele><time>2026-05-01T08:37:11.543Z</time></trkpt><trkpt lat="42.3741236" lon="14.2512396"><ele>114.5</ele><time>2026-05-01T08:37:13.537Z</time></trkpt><trkpt lat="42.3740892" lon="14.2515501"><ele>119.0</ele><time>2026-05-01T08:37:15.531Z</time></trkpt><trkpt lat="42.3740104" lon="14.2518889"><ele>119.0</ele><time>2026-05-01T08:37:17.536Z</time></trkpt><trkpt lat="42.3739033" lon="14.2522314"><ele>119.0</ele><time>2026-05-01T08:37:19.535Z</time></trkpt><trkpt lat="42.3738341" lon="14.2525246"><ele>127.0</ele><time>2026-05-01T08:37:21.527Z</time></trkpt><trkpt lat="42.3737859" lon="14.2528157"><ele>135.0</ele><time>2026-05-01T08:37:23.537Z</time></trkpt><trkpt lat="42.3737759" lon="14.2531188"><ele>143.0</ele><time>2026-05-01T08:37:25.532Z</time></trkpt><trkpt lat="42.3737848" lon="14.2534363"><ele>152.0</ele><time>2026-05-01T08:37:27.54Z</time></trkpt><trkpt lat="42.3738017" lon="14.253785"><ele>161.0</ele><time>2026-05-01T08:37:29.534Z</time></trkpt><trkpt lat="42.373832" lon="14.2540891"><ele>162.0</ele><time>2026-05-01T08:37:31.53Z</time></trkpt><trkpt lat="42.3738823" lon="14.2543594"><ele>163.0</ele><time>2026-05-01T08:37:33.536Z</time></trkpt><trkpt lat="42.373971" lon="14.254647"><ele>164.0</ele><time>2026-05-01T08:37:35.534Z</time></trkpt><trkpt lat="42.3741257" lon="14.2549359"><ele>164.0</ele><time>2026-05-01T08:37:37.536Z</time></trkpt><trkpt lat="42.3742656" lon="14.255204"><ele>164.0</ele><time>2026-05-01T08:37:39.544Z</time></trkpt><trkpt lat="42.3743504" lon="14.255487"><ele>164.5</ele><time>2026-05-01T08:37:41.541Z</time></trkpt><trkpt lat="42.374391" lon="14.2557026"><ele>165.0</ele><time>2026-05-01T08:37:43.535Z</time></trkpt><trkpt lat="42.37441" lon="14.2558435"><ele>165.5</ele><time>2026-05-01T08:37:45.549Z</time></trkpt><trkpt lat="42.3743698" lon="14.2559825"><ele>166.0</ele><time>2026-05-01T08:37:49.568Z</time></trkpt><trkpt lat="42.3744668" lon="14.2561785"><ele>166.0</ele><time>2026-05-01T08:37:53.572Z</time></trkpt><trkpt lat="42.3746678" lon="14.2563469"><ele>166.0</ele><time>2026-05-01T08:37:55.547Z</time></trkpt><trkpt lat="42.3749137" lon="14.2565999"><ele>167.0</ele><time>2026-05-01T08:37:57.547Z</time></trkpt><trkpt lat="42.3751678" lon="14.2568529"><ele>168.0</ele><time>2026-05-01T08:37:59.547Z</time></trkpt><trkpt lat="42.3753823" lon="14.2571316"><ele>169.0</ele><time>2026-05-01T08:38:01.55Z</time></trkpt><trkpt lat="42.37557" lon="14.2574482"><ele>170.0</ele><time>2026-05-01T08:38:03.553Z</time></trkpt><trkpt lat="42.3757539" lon="14.2577762"><ele>170.0</ele><time>2026-05-01T08:38:05.555Z</time></trkpt><trkpt lat="42.3759481" lon="14.2580926"><ele>170.0</ele><time>2026-05-01T08:38:07.566Z</time></trkpt><trkpt lat="42.3761537" lon="14.2584193"><ele>172.0</ele><time>2026-05-01T08:38:09.558Z</time></trkpt><trkpt lat="42.3763458" lon="14.2587196"><ele>174.0</ele><time>2026-05-01T08:38:11.551Z</time></trkpt><trkpt lat="42.3765093" lon="14.2589872"><ele>174.0</ele><time>2026-05-01T08:38:13.554Z</time></trkpt><trkpt lat="42.3766425" lon="14.2591903"><ele>174.0</ele><time>2026-05-01T08:38:15.553Z</time></trkpt><trkpt lat="42.3767515" lon="14.2593552"><ele>174.0</ele><time>2026-05-01T08:38:17.564Z</time></trkpt><trkpt lat="42.3768065" lon="14.259493"><ele>174.0</ele><time>2026-05-01T08:38:19.561Z</time></trkpt><trkpt lat="42.3767783" lon="14.2596365"><ele>174.0</ele><time>2026-05-01T08:38:21.562Z</time></trkpt><trkpt lat="42.376761" lon="14.2598212"><ele>174.0</ele><time>2026-05-01T08:38:23.56Z</time></trkpt><trkpt lat="42.3767785" lon="14.2600478"><ele>174.0</ele><time>2026-05-01T08:38:25.569Z</time></trkpt><trkpt lat="42.3767783" lon="14.2602735"><ele>172.33333333333334</ele><time>2026-05-01T08:38:27.568Z</time></trkpt><trkpt lat="42.3767842" lon="14.2605086"><ele>170.66666666666669</ele><time>2026-05-01T08:38:29.568Z</time></trkpt><trkpt lat="42.3767759" lon="14.2607693"><ele>169.0</ele><time>2026-05-01T08:38:31.63Z</time></trkpt><trkpt lat="42.3767433" lon="14.2610294"><ele>167.33333333333334</ele><time>2026-05-01T08:38:33.615Z</time></trkpt><trkpt lat="42.376702" lon="14.261307"><ele>165.66666666666666</ele><time>2026-05-01T08:38:35.623Z</time></trkpt><trkpt lat="42.3766776" lon="14.2615917"><ele>164.0</ele><time>2026-05-01T08:38:37.639Z</time></trkpt><trkpt lat="42.3767018" lon="14.2618762"><ele>162.0</ele><time>2026-05-01T08:38:39.627Z</time></trkpt><trkpt lat="42.376742" lon="14.2622013"><ele>160.0</ele><time>2026-05-01T08:38:41.624Z</time></trkpt><trkpt lat="42.3767877" lon="14.262543"><ele>155.0</ele><time>2026-05-01T08:38:43.638Z</time></trkpt><trkpt lat="42.3768397" lon="14.2628871"><ele>150.0</ele><time>2026-05-01T08:38:45.639Z</time></trkpt><trkpt lat="42.3769382" lon="14.2632231"><ele>145.0</ele><time>2026-05-01T08:38:47.64Z</time></trkpt><trkpt lat="42.3770557" lon="14.2635575"><ele>140.0</ele><time>2026-05-01T08:38:49.627Z</time></trkpt><trkpt lat="42.3771789" lon="14.2639212"><ele>141.5</ele><time>2026-05-01T08:38:51.63Z</time></trkpt><trkpt lat="42.3773186" lon="14.2642853"><ele>143.0</ele><time>2026-05-01T08:38:53.644Z</time></trkpt><trkpt lat="42.3774692" lon="14.2646122"><ele>139.0</ele><time>2026-05-01T08:38:55.643Z</time></trkpt><trkpt lat="42.3775953" lon="14.2649057"><ele>135.0</ele><time>2026-05-01T08:38:57.637Z</time></trkpt><trkpt lat="42.3776559" lon="14.2651958"><ele>135.0</ele><time>2026-05-01T08:38:59.619Z</time></trkpt><trkpt lat="42.3776574" lon="14.2654745"><ele>135.0</ele><time>2026-05-01T08:39:01.623Z</time></trkpt><trkpt lat="42.3776564" lon="14.265765"><ele>135.0</ele><time>2026-05-01T08:39:03.641Z</time></trkpt><trkpt lat="42.3776705" lon="14.2660518"><ele>133.0</ele><time>2026-05-01T08:39:05.636Z</time></trkpt><trkpt lat="42.377673" lon="14.2663396"><ele>131.0</ele><time>2026-05-01T08:39:07.635Z</time></trkpt><trkpt lat="42.3776655" lon="14.2666058"><ele>129.0</ele><time>2026-05-01T08:39:09.639Z</time></trkpt><trkpt lat="42.3776694" lon="14.2668169"><ele>127.4</ele><time>2026-05-01T08:39:11.637Z</time></trkpt><trkpt lat="42.3776814" lon="14.2669952"><ele>125.80000000000001</ele><time>2026-05-01T08:39:13.635Z</time></trkpt><trkpt lat="42.3776979" lon="14.2671007"><ele>124.19999999999999</ele><time>2026-05-01T08:39:15.637Z</time></trkpt><trkpt lat="42.3776941" lon="14.2671963"><ele>122.6</ele><time>2026-05-01T08:39:17.639Z</time></trkpt><trkpt lat="42.3775574" lon="14.2672617"><ele>121.0</ele><time>2026-05-01T08:39:21.647Z</time></trkpt><trkpt lat="42.3774318" lon="14.2672911"><ele>120.0</ele><time>2026-05-01T08:39:23.641Z</time></trkpt><trkpt lat="42.3772958" lon="14.2673339"><ele>119.0</ele><time>2026-05-01T08:39:25.64Z</time></trkpt><trkpt lat="42.3771573" lon="14.267363"><ele>118.0</ele><time>2026-05-01T08:39:27.646Z</time></trkpt><trkpt lat="42.3770262" lon="14.267387"><ele>117.0</ele><time>2026-05-01T08:39:29.641Z</time></trkpt><trkpt lat="42.3768583" lon="14.2674113"><ele>114.66666666666666</ele><time>2026-05-01T08:39:31.645Z</time></trkpt><trkpt lat="42.3766855" lon="14.2674307"><ele>112.33333333333333</ele><time>2026-05-01T08:39:33.642Z</time></trkpt><trkpt lat="42.3765399" lon="14.2674665"><ele>110.0</ele><time>2026-05-01T08:39:35.642Z</time></trkpt><trkpt lat="42.3764136" lon="14.2675526"><ele>116.33333333333333</ele><time>2026-05-01T08:39:37.614Z</time></trkpt><trkpt lat="42.3763269" lon="14.267715"><ele>122.66666666666666</ele><time>2026-05-01T08:39:39.623Z</time></trkpt><trkpt lat="42.3762371" lon="14.2679538"><ele>129.0</ele><time>2026-05-01T08:39:41.63Z</time></trkpt><trkpt lat="42.3761495" lon="14.2682548"><ele>129.0</ele><time>2026-05-01T08:39:43.54Z</time></trkpt><trkpt lat="42.3760727" lon="14.268571"><ele>129.0</ele><time>2026-05-01T08:39:45.534Z</time></trkpt><trkpt lat="42.3759977" lon="14.2688446"><ele>127.5</ele><time>2026-05-01T08:39:47.541Z</time></trkpt><trkpt lat="42.375917" lon="14.2691283"><ele>126.0</ele><time>2026-05-01T08:39:49.539Z</time></trkpt><trkpt lat="42.3758352" lon="14.2694579"><ele>126.0</ele><time>2026-05-01T08:39:51.537Z</time></trkpt><trkpt lat="42.3757333" lon="14.2697493"><ele>126.0</ele><time>2026-05-01T08:39:53.539Z</time></trkpt><trkpt lat="42.3756402" lon="14.2699798"><ele>126.0</ele><time>2026-05-01T08:39:55.54Z</time></trkpt><trkpt lat="42.37553" lon="14.2702379"><ele>132.0</ele><time>2026-05-01T08:39:57.544Z</time></trkpt><trkpt lat="42.3754395" lon="14.2705004"><ele>138.0</ele><time>2026-05-01T08:39:59.539Z</time></trkpt><trkpt lat="42.3753138" lon="14.2707356"><ele>144.0</ele><time>2026-05-01T08:40:01.535Z</time></trkpt><trkpt lat="42.3751875" lon="14.2709029"><ele>144.0</ele><time>2026-05-01T08:40:03.542Z</time></trkpt><trkpt lat="42.3750788" lon="14.2709734"><ele>144.0</ele><time>2026-05-01T08:40:05.542Z</time></trkpt><trkpt lat="42.3749467" lon="14.2710011"><ele>144.0</ele><time>2026-05-01T08:40:07.543Z</time></trkpt><trkpt lat="42.3747563" lon="14.2709686"><ele>144.0</ele><time>2026-05-01T08:40:09.537Z</time></trkpt><trkpt lat="42.3745441" lon="14.2708996"><ele>146.5</ele><time>2026-05-01T08:40:11.543Z</time></trkpt><trkpt lat="42.3743849" lon="14.270879"><ele>149.0</ele><time>2026-05-01T08:40:13.538Z</time></trkpt><trkpt lat="42.374265" lon="14.2709081"><ele>151.5</ele><time>2026-05-01T08:40:17.542Z</time></trkpt><trkpt lat="42.3741505" lon="14.2710053"><ele>154.0</ele><time>2026-05-01T08:40:19.556Z</time></trkpt><trkpt lat="42.3740585" lon="14.2711518"><ele>154.0</ele><time>2026-05-01T08:40:21.546Z</time></trkpt><trkpt lat="42.3740238" lon="14.2713009"><ele>154.0</ele><time>2026-05-01T08:40:23.554Z</time></trkpt><trkpt lat="42.3739971" lon="14.2714319"><ele>154.0</ele><time>2026-05-01T08:40:25.55Z</time></trkpt><trkpt lat="42.3739134" lon="14.2715781"><ele>154.0</ele><time>2026-05-01T08:40:27.558Z</time></trkpt><trkpt lat="42.3737873" lon="14.2716872"><ele>148.0</ele><time>2026-05-01T08:40:29.543Z</time></trkpt><trkpt lat="42.373633" lon="14.2718003"><ele>142.0</ele><time>2026-05-01T08:40:31.554Z</time></trkpt><trkpt lat="42.3734733" lon="14.2718951"><ele>136.0</ele><time>2026-05-01T08:40:33.551Z</time></trkpt><trkpt lat="42.3733121" lon="14.2719648"><ele>136.0</ele><time>2026-05-01T08:40:35.554Z</time></trkpt><trkpt lat="42.3731439" lon="14.2719807"><ele>136.0</ele><time>2026-05-01T08:40:37.558Z</time></trkpt><trkpt lat="42.372914" lon="14.2719875"><ele>136.0</ele><time>2026-05-01T08:40:39.559Z</time></trkpt><trkpt lat="42.3726706" lon="14.2719772"><ele>132.66666666666669</ele><time>2026-05-01T08:40:41.564Z</time></trkpt><trkpt lat="42.3724373" lon="14.2719901"><ele>129.33333333333334</ele><time>2026-05-01T08:40:43.56Z</time></trkpt><trkpt lat="42.3722301" lon="14.2719944"><ele>126.0</ele><time>2026-05-01T08:40:45.547Z</time></trkpt><trkpt lat="42.3720761" lon="14.2720336"><ele>120.0</ele><time>2026-05-01T08:40:47.561Z</time></trkpt><trkpt lat="42.3719403" lon="14.2722063"><ele>114.0</ele><time>2026-05-01T08:40:49.553Z</time></trkpt><trkpt lat="42.3718207" lon="14.2724514"><ele>108.0</ele><time>2026-05-01T08:40:51.548Z</time></trkpt><trkpt lat="42.3717327" lon="14.2727047"><ele>107.33333333333334</ele><time>2026-05-01T08:40:53.56Z</time></trkpt><trkpt lat="42.3716477" lon="14.2729462"><ele>106.66666666666667</ele><time>2026-05-01T08:40:55.553Z</time></trkpt><trkpt lat="42.3715604" lon="14.2732583"><ele>106.0</ele><time>2026-05-01T08:40:57.555Z</time></trkpt><trkpt lat="42.3714454" lon="14.2735781"><ele>97.5</ele><time>2026-05-01T08:40:59.555Z</time></trkpt><trkpt lat="42.3713451" lon="14.273896"><ele>89.0</ele><time>2026-05-01T08:41:01.555Z</time></trkpt><trkpt lat="42.3712701" lon="14.2742489"><ele>85.5</ele><time>2026-05-01T08:41:03.552Z</time></trkpt><trkpt lat="42.3712621" lon="14.2745897"><ele>82.0</ele><time>2026-05-01T08:41:05.548Z</time></trkpt><trkpt lat="42.3712846" lon="14.2749306"><ele>81.0</ele><time>2026-05-01T08:41:07.554Z</time></trkpt><trkpt lat="42.3712718" lon="14.2752476"><ele>80.0</ele><time>2026-05-01T08:41:09.553Z</time></trkpt><trkpt lat="42.371249" lon="14.2755272"><ele>79.0</ele><time>2026-05-01T08:41:11.554Z</time></trkpt><trkpt lat="42.3711929" lon="14.2758058"><ele>79.0</ele><time>2026-05-01T08:41:13.554Z</time></trkpt><trkpt lat="42.371123" lon="14.2760981"><ele>79.0</ele><time>2026-05-01T08:41:15.552Z</time></trkpt><trkpt lat="42.3710624" lon="14.27638"><ele>79.0</ele><time>2026-05-01T08:41:17.551Z</time></trkpt><trkpt lat="42.3709918" lon="14.2766974"><ele>78.0</ele><time>2026-05-01T08:41:19.554Z</time></trkpt><trkpt lat="42.3709055" lon="14.2770409"><ele>77.0</ele><time>2026-05-01T08:41:21.553Z</time></trkpt><trkpt lat="42.3708306" lon="14.2773367"><ele>77.0</ele><time>2026-05-01T08:41:23.551Z</time></trkpt><trkpt lat="42.3707693" lon="14.2776287"><ele>77.0</ele><time>2026-05-01T08:41:25.557Z</time></trkpt><trkpt lat="42.3706933" lon="14.2779191"><ele>75.5</ele><time>2026-05-01T08:41:27.553Z</time></trkpt><trkpt lat="42.3705844" lon="14.2782383"><ele>74.0</ele><time>2026-05-01T08:41:29.556Z</time></trkpt><trkpt lat="42.3704319" lon="14.2785736"><ele>71.5</ele><time>2026-05-01T08:41:31.547Z</time></trkpt><trkpt lat="42.3702336" lon="14.2788427"><ele>69.0</ele><time>2026-05-01T08:41:33.551Z</time></trkpt><trkpt lat="42.3700188" lon="14.279043"><ele>68.33333333333333</ele><time>2026-05-01T08:41:35.55Z</time></trkpt><trkpt lat="42.369809" lon="14.2791999"><ele>67.66666666666666</ele><time>2026-05-01T08:41:37.571Z</time></trkpt><trkpt lat="42.3697095" lon="14.2793276"><ele>67.0</ele><time>2026-05-01T08:41:39.63Z</time></trkpt><trkpt lat="42.3696796" lon="14.2794435"><ele>66.66666666666666</ele><time>2026-05-01T08:41:41.621Z</time></trkpt><trkpt lat="42.3696789" lon="14.279653"><ele>66.33333333333333</ele><time>2026-05-01T08:41:43.62Z</time></trkpt><trkpt lat="42.3696773" lon="14.2798964"><ele>66.0</ele><time>2026-05-01T08:41:45.633Z</time></trkpt><trkpt lat="42.3696894" lon="14.2807764"><ele>64.5</ele><time>2026-05-01T08:41:47.646Z</time></trkpt><trkpt lat="42.3697001" lon="14.2812092"><ele>63.0</ele><time>2026-05-01T08:41:49.639Z</time></trkpt><trkpt lat="42.369703" lon="14.2816041"><ele>62.0</ele><time>2026-05-01T08:41:51.635Z</time></trkpt><trkpt lat="42.3697054" lon="14.2819756"><ele>61.0</ele><time>2026-05-01T08:41:53.639Z</time></trkpt><trkpt lat="42.3696976" lon="14.2821469"><ele>60.0</ele><time>2026-05-01T08:41:55.631Z</time></trkpt><trkpt lat="42.3696386" lon="14.2822767"><ele>60.5</ele><time>2026-05-01T08:41:57.626Z</time></trkpt><trkpt lat="42.369571" lon="14.2822537"><ele>61.0</ele><time>2026-05-01T08:41:59.532Z</time></trkpt><trkpt lat="42.3695062" lon="14.2821617"><ele>61.5</ele><time>2026-05-01T08:42:01.538Z</time></trkpt><trkpt lat="42.3694268" lon="14.2819877"><ele>62.0</ele><time>2026-05-01T08:42:03.544Z</time></trkpt><trkpt lat="42.3693073" lon="14.2817576"><ele>62.0</ele><time>2026-05-01T08:42:05.545Z</time></trkpt><trkpt lat="42.3691423" lon="14.2814838"><ele>62.0</ele><time>2026-05-01T08:42:07.553Z</time></trkpt><trkpt lat="42.3689859" lon="14.2812058"><ele>62.5</ele><time>2026-05-01T08:42:09.557Z</time></trkpt><trkpt lat="42.3688103" lon="14.2809252"><ele>63.0</ele><time>2026-05-01T08:42:11.554Z</time></trkpt><trkpt lat="42.3686707" lon="14.2806517"><ele>62.33333333333333</ele><time>2026-05-01T08:42:13.555Z</time></trkpt><trkpt lat="42.368537" lon="14.2804225"><ele>61.666666666666664</ele><time>2026-05-01T08:42:15.553Z</time></trkpt><trkpt lat="42.3684406" lon="14.2802464"><ele>61.0</ele><time>2026-05-01T08:42:17.554Z</time></trkpt><trkpt lat="42.3683369" lon="14.2801404"><ele>61.0</ele><time>2026-05-01T08:42:19.555Z</time></trkpt><trkpt lat="42.3681865" lon="14.2801186"><ele>61.0</ele><time>2026-05-01T08:42:21.564Z</time></trkpt><trkpt lat="42.3680258" lon="14.2802376"><ele>61.0</ele><time>2026-05-01T08:42:23.554Z</time></trkpt><trkpt lat="42.3678203" lon="14.2803882"><ele>58.0</ele><time>2026-05-01T08:42:25.552Z</time></trkpt><trkpt lat="42.3675705" lon="14.2805417"><ele>55.0</ele><time>2026-05-01T08:42:27.55Z</time></trkpt><trkpt lat="42.367284" lon="14.2806906"><ele>52.0</ele><time>2026-05-01T08:42:29.546Z</time></trkpt><trkpt lat="42.366977" lon="14.2807629"><ele>49.0</ele><time>2026-05-01T08:42:31.552Z</time></trkpt><trkpt lat="42.3666954" lon="14.2808215"><ele>49.0</ele><time>2026-05-01T08:42:33.558Z</time></trkpt><trkpt lat="42.3664084" lon="14.280874"><ele>49.0</ele><time>2026-05-01T08:42:35.559Z</time></trkpt><trkpt lat="42.3661313" lon="14.280933"><ele>47.0</ele><time>2026-05-01T08:42:37.559Z</time></trkpt><trkpt lat="42.3658653" lon="14.2809957"><ele>45.0</ele><time>2026-05-01T08:42:39.56Z</time></trkpt><trkpt lat="42.365666" lon="14.2810423"><ele>45.0</ele><time>2026-05-01T08:42:41.555Z</time></trkpt><trkpt lat="42.3655372" lon="14.2810616"><ele>45.0</ele><time>2026-05-01T08:42:43.55Z</time></trkpt><trkpt lat="42.3654502" lon="14.2810003"><ele>45.0</ele><time>2026-05-01T08:42:45.567Z</time></trkpt><trkpt lat="42.3653597" lon="14.2808108"><ele>45.0</ele><time>2026-05-01T08:42:47.55Z</time></trkpt><trkpt lat="42.365234" lon="14.2805493"><ele>45.0</ele><time>2026-05-01T08:42:49.556Z</time></trkpt><trkpt lat="42.3650748" lon="14.280227"><ele>45.0</ele><time>2026-05-01T08:42:51.559Z</time></trkpt><trkpt lat="42.3648958" lon="14.2798844"><ele>45.5</ele><time>2026-05-01T08:42:53.558Z</time></trkpt><trkpt lat="42.3647485" lon="14.2796041"><ele>46.0</ele><time>2026-05-01T08:42:55.56Z</time></trkpt><trkpt lat="42.3646232" lon="14.279333"><ele>46.0</ele><time>2026-05-01T08:42:57.559Z</time></trkpt><trkpt lat="42.3644763" lon="14.2790602"><ele>46.0</ele><time>2026-05-01T08:42:59.563Z</time></trkpt><trkpt lat="42.3642743" lon="14.2787868"><ele>46.5</ele><time>2026-05-01T08:43:01.556Z</time></trkpt><trkpt lat="42.3640285" lon="14.2785634"><ele>47.0</ele><time>2026-05-01T08:43:03.565Z</time></trkpt><trkpt lat="42.3637854" lon="14.2783643"><ele>47.0</ele><time>2026-05-01T08:43:05.56Z</time></trkpt><trkpt lat="42.3635289" lon="14.2781482"><ele>47.0</ele><time>2026-05-01T08:43:07.554Z</time></trkpt><trkpt lat="42.3632883" lon="14.2779459"><ele>48.5</ele><time>2026-05-01T08:43:09.556Z</time></trkpt><trkpt lat="42.3630604" lon="14.277789"><ele>50.0</ele><time>2026-05-01T08:43:11.554Z</time></trkpt><trkpt lat="42.3627909" lon="14.2777018"><ele>50.0</ele><time>2026-05-01T08:43:13.557Z</time></trkpt><trkpt lat="42.3624822" lon="14.2776846"><ele>50.0</ele><time>2026-05-01T08:43:15.564Z</time></trkpt><trkpt lat="42.3621952" lon="14.2777084"><ele>50.0</ele><time>2026-05-01T08:43:17.559Z</time></trkpt><trkpt lat="42.3619131" lon="14.2777305"><ele>50.0</ele><time>2026-05-01T08:43:19.563Z</time></trkpt><trkpt lat="42.3616209" lon="14.2777557"><ele>50.0</ele><time>2026-05-01T08:43:21.562Z</time></trkpt><trkpt lat="42.3613281" lon="14.2777943"><ele>50.0</ele><time>2026-05-01T08:43:23.564Z</time></trkpt><trkpt lat="42.3610577" lon="14.277823"><ele>50.0</ele><time>2026-05-01T08:43:25.556Z</time></trkpt><trkpt lat="42.3607915" lon="14.2778361"><ele>50.0</ele><time>2026-05-01T08:43:27.558Z</time></trkpt><trkpt lat="42.3605085" lon="14.2778613"><ele>50.5</ele><time>2026-05-01T08:43:29.554Z</time></trkpt><trkpt lat="42.3602511" lon="14.2778564"><ele>51.0</ele><time>2026-05-01T08:43:31.643Z</time></trkpt><trkpt lat="42.3600252" lon="14.2777668"><ele>51.0</ele><time>2026-05-01T08:43:33.64Z</time></trkpt><trkpt lat="42.3598695" lon="14.277556"><ele>51.0</ele><time>2026-05-01T08:43:35.621Z</time></trkpt><trkpt lat="42.3597817" lon="14.2772831"><ele>51.0</ele><time>2026-05-01T08:43:37.621Z</time></trkpt><trkpt lat="42.359729" lon="14.2770644"><ele>50.75</ele><time>2026-05-01T08:43:39.632Z</time></trkpt><trkpt lat="42.3596692" lon="14.27695"><ele>50.5</ele><time>2026-05-01T08:43:41.642Z</time></trkpt><trkpt lat="42.3595761" lon="14.2769307"><ele>50.25</ele><time>2026-05-01T08:43:43.646Z</time></trkpt><trkpt lat="42.3595008" lon="14.2770628"><ele>50.0</ele><time>2026-05-01T08:43:45.559Z</time></trkpt><trkpt lat="42.3594763" lon="14.2773562"><ele>50.0</ele><time>2026-05-01T08:43:47.542Z</time></trkpt><trkpt lat="42.3595157" lon="14.2777516"><ele>50.0</ele><time>2026-05-01T08:43:49.548Z</time></trkpt><trkpt lat="42.3596021" lon="14.2781486"><ele>48.0</ele><time>2026-05-01T08:43:51.553Z</time></trkpt><trkpt lat="42.3596327" lon="14.2784804"><ele>46.0</ele><time>2026-05-01T08:43:53.546Z</time></trkpt><trkpt lat="42.3595698" lon="14.2788256"><ele>45.0</ele><time>2026-05-01T08:43:55.55Z</time></trkpt><trkpt lat="42.3594414" lon="14.2791876"><ele>44.0</ele><time>2026-05-01T08:43:57.553Z</time></trkpt><trkpt lat="42.3593138" lon="14.2795139"><ele>43.0</ele><time>2026-05-01T08:43:59.557Z</time></trkpt><trkpt lat="42.3591942" lon="14.2798124"><ele>42.0</ele><time>2026-05-01T08:44:01.555Z</time></trkpt><trkpt lat="42.3590518" lon="14.2801156"><ele>42.0</ele><time>2026-05-01T08:44:03.558Z</time></trkpt><trkpt lat="42.3588918" lon="14.2803733"><ele>42.0</ele><time>2026-05-01T08:44:05.55Z</time></trkpt><trkpt lat="42.3587164" lon="14.2805494"><ele>41.75</ele><time>2026-05-01T08:44:07.558Z</time></trkpt><trkpt lat="42.3585445" lon="14.2807093"><ele>41.5</ele><time>2026-05-01T08:44:09.547Z</time></trkpt><trkpt lat="42.3584233" lon="14.2808239"><ele>41.25</ele><time>2026-05-01T08:44:11.539Z</time></trkpt><trkpt lat="42.358364" lon="14.2808897"><ele>41.0</ele><time>2026-05-01T08:44:13.549Z</time></trkpt><trkpt lat="42.358456" lon="14.2809296"><ele>41.0</ele><time>2026-05-01T08:44:17.553Z</time></trkpt><trkpt lat="42.3586107" lon="14.2808378"><ele>41.0</ele><time>2026-05-01T08:44:19.548Z</time></trkpt><trkpt lat="42.3588301" lon="14.2806605"><ele>41.0</ele><time>2026-05-01T08:44:21.543Z</time></trkpt><trkpt lat="42.3590342" lon="14.2804624"><ele>41.33333333333333</ele><time>2026-05-01T08:44:23.544Z</time></trkpt><trkpt lat="42.3591897" lon="14.2802744"><ele>41.666666666666664</ele><time>2026-05-01T08:44:25.541Z</time></trkpt><trkpt lat="42.3592836" lon="14.2800983"><ele>42.0</ele><time>2026-05-01T08:44:27.547Z</time></trkpt><trkpt lat="42.3593587" lon="14.279941"><ele>42.0</ele><time>2026-05-01T08:44:29.545Z</time></trkpt><trkpt lat="42.3594358" lon="14.2798405"><ele>42.0</ele><time>2026-05-01T08:44:31.549Z</time></trkpt><trkpt lat="42.3595753" lon="14.2798524"><ele>42.0</ele><time>2026-05-01T08:44:33.545Z</time></trkpt><trkpt lat="42.3597672" lon="14.2798452"><ele>42.0</ele><time>2026-05-01T08:44:35.547Z</time></trkpt><trkpt lat="42.3600023" lon="14.2798973"><ele>41.5</ele><time>2026-05-01T08:44:37.545Z</time></trkpt><trkpt lat="42.360252" lon="14.2799906"><ele>41.0</ele><time>2026-05-01T08:44:39.549Z</time></trkpt><trkpt lat="42.3605182" lon="14.2800522"><ele>41.666666666666664</ele><time>2026-05-01T08:44:41.558Z</time></trkpt><trkpt lat="42.3607249" lon="14.2800891"><ele>42.333333333333336</ele><time>2026-05-01T08:44:43.559Z</time></trkpt><trkpt lat="42.3608888" lon="14.280116"><ele>43.0</ele><time>2026-05-01T08:44:45.554Z</time></trkpt><trkpt lat="42.3610427" lon="14.2801587"><ele>43.0</ele><time>2026-05-01T08:44:47.551Z</time></trkpt><trkpt lat="42.3611836" lon="14.2800795"><ele>43.0</ele><time>2026-05-01T08:44:49.551Z</time></trkpt><trkpt lat="42.3613309" lon="14.2799171"><ele>43.0</ele><time>2026-05-01T08:44:51.552Z</time></trkpt><trkpt lat="42.361446" lon="14.2797979"><ele>43.0</ele><time>2026-05-01T08:44:53.555Z</time></trkpt><trkpt lat="42.3615922" lon="14.2797351"><ele>43.0</ele><time>2026-05-01T08:44:55.543Z</time></trkpt><trkpt lat="42.3617908" lon="14.2796618"><ele>43.0</ele><time>2026-05-01T08:44:57.538Z</time></trkpt><trkpt lat="42.3619434" lon="14.2795869"><ele>43.0</ele><time>2026-05-01T08:44:59.547Z</time></trkpt><trkpt lat="42.3621307" lon="14.2794958"><ele>43.0</ele><time>2026-05-01T08:45:01.547Z</time></trkpt><trkpt lat="42.362293" lon="14.2794628"><ele>43.0</ele><time>2026-05-01T08:45:03.547Z</time></trkpt><trkpt lat="42.3624325" lon="14.2794996"><ele>43.0</ele><time>2026-05-01T08:45:05.545Z</time></trkpt><trkpt lat="42.3625495" lon="14.2796012"><ele>43.0</ele><time>2026-05-01T08:45:07.548Z</time></trkpt><trkpt lat="42.3626973" lon="14.2797386"><ele>43.0</ele><time>2026-05-01T08:45:09.546Z</time></trkpt><trkpt lat="42.3628996" lon="14.2799044"><ele>42.5</ele><time>2026-05-01T08:45:11.557Z</time></trkpt><trkpt lat="42.3631287" lon="14.2800425"><ele>42.0</ele><time>2026-05-01T08:45:13.554Z</time></trkpt><trkpt lat="42.3633666" lon="14.2801667"><ele>42.0</ele><time>2026-05-01T08:45:15.548Z</time></trkpt><trkpt lat="42.3635808" lon="14.280263"><ele>42.0</ele><time>2026-05-01T08:45:17.559Z</time></trkpt><trkpt lat="42.3638004" lon="14.280392"><ele>42.0</ele><time>2026-05-01T08:45:19.56Z</time></trkpt><trkpt lat="42.3639711" lon="14.2805706"><ele>42.0</ele><time>2026-05-01T08:45:21.544Z</time></trkpt><trkpt lat="42.3641036" lon="14.2808514"><ele>40.666666666666664</ele><time>2026-05-01T08:45:23.546Z</time></trkpt><trkpt lat="42.3642279" lon="14.2811307"><ele>39.33333333333333</ele><time>2026-05-01T08:45:25.553Z</time></trkpt><trkpt lat="42.3643207" lon="14.2813474"><ele>38.0</ele><time>2026-05-01T08:45:27.551Z</time></trkpt><trkpt lat="42.3643503" lon="14.2815351"><ele>37.5</ele><time>2026-05-01T08:45:29.551Z</time></trkpt><trkpt lat="42.3643456" lon="14.2817447"><ele>37.0</ele><time>2026-05-01T08:45:31.549Z</time></trkpt><trkpt lat="42.3642977" lon="14.2819167"><ele>36.5</ele><time>2026-05-01T08:45:33.551Z</time></trkpt><trkpt lat="42.3642147" lon="14.2820922"><ele>36.0</ele><time>2026-05-01T08:45:35.553Z</time></trkpt><trkpt lat="42.3641484" lon="14.2822551"><ele>36.0</ele><time>2026-05-01T08:45:37.551Z</time></trkpt><trkpt lat="42.3641008" lon="14.2824144"><ele>36.0</ele><time>2026-05-01T08:45:39.539Z</time></trkpt><trkpt lat="42.3640961" lon="14.2826044"><ele>36.0</ele><time>2026-05-01T08:45:41.55Z</time></trkpt><trkpt lat="42.3641236" lon="14.2828031"><ele>36.0</ele><time>2026-05-01T08:45:43.546Z</time></trkpt><trkpt lat="42.3641516" lon="14.2829386"><ele>36.0</ele><time>2026-05-01T08:45:45.546Z</time></trkpt><trkpt lat="42.3641868" lon="14.2830614"><ele>36.0</ele><time>2026-05-01T08:45:47.552Z</time></trkpt><trkpt lat="42.3642373" lon="14.2832101"><ele>36.0</ele><time>2026-05-01T08:45:49.553Z</time></trkpt><trkpt lat="42.3642565" lon="14.2833869"><ele>36.0</ele><time>2026-05-01T08:45:51.546Z</time></trkpt><trkpt lat="42.3642819" lon="14.2836018"><ele>35.666666666666664</ele><time>2026-05-01T08:45:53.552Z</time></trkpt><trkpt lat="42.3642998" lon="14.2838363"><ele>35.33333333333333</ele><time>2026-05-01T08:45:55.547Z</time></trkpt><trkpt lat="42.3642663" lon="14.2841317"><ele>35.0</ele><time>2026-05-01T08:45:57.556Z</time></trkpt><trkpt lat="42.3642457" lon="14.2844482"><ele>34.5</ele><time>2026-05-01T08:45:59.552Z</time></trkpt><trkpt lat="42.364235" lon="14.2846832"><ele>34.0</ele><time>2026-05-01T08:46:01.55Z</time></trkpt><trkpt lat="42.3642138" lon="14.2848225"><ele>33.5</ele><time>2026-05-01T08:46:03.548Z</time></trkpt><trkpt lat="42.3642" lon="14.2849794"><ele>33.0</ele><time>2026-05-01T08:46:05.552Z</time></trkpt><trkpt lat="42.3641857" lon="14.2851392"><ele>33.0</ele><time>2026-05-01T08:46:07.546Z</time></trkpt><trkpt lat="42.3641832" lon="14.2853447"><ele>33.0</ele><time>2026-05-01T08:46:09.545Z</time></trkpt><trkpt lat="42.3642228" lon="14.2855924"><ele>33.0</ele><time>2026-05-01T08:46:11.544Z</time></trkpt><trkpt lat="42.3642641" lon="14.2858637"><ele>33.333333333333336</ele><time>2026-05-01T08:46:13.541Z</time></trkpt><trkpt lat="42.3643308" lon="14.2861366"><ele>33.66666666666667</ele><time>2026-05-01T08:46:15.551Z</time></trkpt><trkpt lat="42.3644477" lon="14.2863889"><ele>34.0</ele><time>2026-05-01T08:46:17.548Z</time></trkpt><trkpt lat="42.3646091" lon="14.286586"><ele>34.333333333333336</ele><time>2026-05-01T08:46:19.548Z</time></trkpt><trkpt lat="42.3647958" lon="14.2867574"><ele>34.666666666666664</ele><time>2026-05-01T08:46:21.555Z</time></trkpt><trkpt lat="42.3649771" lon="14.2868987"><ele>35.0</ele><time>2026-05-01T08:46:23.551Z</time></trkpt><trkpt lat="42.365123" lon="14.2870295"><ele>35.0</ele><time>2026-05-01T08:46:25.551Z</time></trkpt><trkpt lat="42.3652671" lon="14.2871699"><ele>35.0</ele><time>2026-05-01T08:46:27.552Z</time></trkpt><trkpt lat="42.3653875" lon="14.2873093"><ele>35.0</ele><time>2026-05-01T08:46:29.551Z</time></trkpt><trkpt lat="42.3655378" lon="14.2874055"><ele>34.33333333333333</ele><time>2026-05-01T08:46:31.544Z</time></trkpt><trkpt lat="42.36573" lon="14.2874584"><ele>33.666666666666664</ele><time>2026-05-01T08:46:33.545Z</time></trkpt><trkpt lat="42.3658656" lon="14.2874692"><ele>33.0</ele><time>2026-05-01T08:46:35.555Z</time></trkpt><trkpt lat="42.3659804" lon="14.2873995"><ele>33.0</ele><time>2026-05-01T08:46:39.562Z</time></trkpt><trkpt lat="42.3661157" lon="14.2873527"><ele>33.0</ele><time>2026-05-01T08:46:41.556Z</time></trkpt><trkpt lat="42.3662779" lon="14.2872822"><ele>33.0</ele><time>2026-05-01T08:46:43.557Z</time></trkpt><trkpt lat="42.3664317" lon="14.2872165"><ele>33.5</ele><time>2026-05-01T08:46:45.543Z</time></trkpt><trkpt lat="42.3665495" lon="14.2872771"><ele>34.0</ele><time>2026-05-01T08:46:47.547Z</time></trkpt><trkpt lat="42.3666225" lon="14.2874349"><ele>34.5</ele><time>2026-05-01T08:46:49.539Z</time></trkpt><trkpt lat="42.3666523" lon="14.2876552"><ele>35.0</ele><time>2026-05-01T08:46:51.546Z</time></trkpt><trkpt lat="42.3666958" lon="14.2879752"><ele>34.666666666666664</ele><time>2026-05-01T08:46:53.55Z</time></trkpt><trkpt lat="42.3667475" lon="14.2882854"><ele>34.333333333333336</ele><time>2026-05-01T08:46:55.557Z</time></trkpt><trkpt lat="42.3668072" lon="14.2885504"><ele>34.0</ele><time>2026-05-01T08:46:57.555Z</time></trkpt><trkpt lat="42.3668826" lon="14.2887878"><ele>33.333333333333336</ele><time>2026-05-01T08:46:59.547Z</time></trkpt><trkpt lat="42.3669054" lon="14.2890234"><ele>32.666666666666664</ele><time>2026-05-01T08:47:01.551Z</time></trkpt><trkpt lat="42.3669268" lon="14.2892473"><ele>32.0</ele><time>2026-05-01T08:47:03.545Z</time></trkpt><trkpt lat="42.3669386" lon="14.2894993"><ele>32.33333333333333</ele><time>2026-05-01T08:47:05.55Z</time></trkpt><trkpt lat="42.3669625" lon="14.2897857"><ele>32.666666666666664</ele><time>2026-05-01T08:47:07.544Z</time></trkpt><trkpt lat="42.3669713" lon="14.2900539"><ele>33.0</ele><time>2026-05-01T08:47:09.55Z</time></trkpt><trkpt lat="42.367009" lon="14.2902823"><ele>33.0</ele><time>2026-05-01T08:47:11.552Z</time></trkpt><trkpt lat="42.3670695" lon="14.2904888"><ele>33.0</ele><time>2026-05-01T08:47:13.548Z</time></trkpt><trkpt lat="42.3671618" lon="14.2906858"><ele>33.0</ele><time>2026-05-01T08:47:15.54Z</time></trkpt><trkpt lat="42.3672677" lon="14.2908578"><ele>34.0</ele><time>2026-05-01T08:47:17.548Z</time></trkpt><trkpt lat="42.3676737" lon="14.2914154"><ele>32.66666666666667</ele><time>2026-05-01T08:47:23.554Z</time></trkpt><trkpt lat="42.3678054" lon="14.2916679"><ele>31.333333333333336</ele><time>2026-05-01T08:47:25.551Z</time></trkpt><trkpt lat="42.3679243" lon="14.291908"><ele>30.0</ele><time>2026-05-01T08:47:27.554Z</time></trkpt><trkpt lat="42.3680277" lon="14.2921686"><ele>30.0</ele><time>2026-05-01T08:47:29.557Z</time></trkpt><trkpt lat="42.3681067" lon="14.2924883"><ele>30.0</ele><time>2026-05-01T08:47:31.557Z</time></trkpt><trkpt lat="42.3681862" lon="14.292847"><ele>30.0</ele><time>2026-05-01T08:47:33.551Z</time></trkpt><trkpt lat="42.368242" lon="14.2931885"><ele>30.0</ele><time>2026-05-01T08:47:35.557Z</time></trkpt><trkpt lat="42.368336" lon="14.2935133"><ele>30.0</ele><time>2026-05-01T08:47:37.55Z</time></trkpt><trkpt lat="42.3683805" lon="14.2937303"><ele>30.0</ele><time>2026-05-01T08:47:39.554Z</time></trkpt><trkpt lat="42.3684504" lon="14.2939563"><ele>30.0</ele><time>2026-05-01T08:47:41.558Z</time></trkpt><trkpt lat="42.3685028" lon="14.2942022"><ele>29.666666666666664</ele><time>2026-05-01T08:47:43.55Z</time></trkpt><trkpt lat="42.3685206" lon="14.294469"><ele>29.333333333333332</ele><time>2026-05-01T08:47:45.548Z</time></trkpt><trkpt lat="42.36855" lon="14.2946979"><ele>29.0</ele><time>2026-05-01T08:47:47.552Z</time></trkpt><trkpt lat="42.3685453" lon="14.2948749"><ele>29.0</ele><time>2026-05-01T08:47:49.549Z</time></trkpt><trkpt lat="42.3685314" lon="14.2950029"><ele>29.0</ele><time>2026-05-01T08:47:51.544Z</time></trkpt><trkpt lat="42.3685047" lon="14.2951033"><ele>29.0</ele><time>2026-05-01T08:47:53.552Z</time></trkpt><trkpt lat="42.3685237" lon="14.2952021"><ele>29.0</ele><time>2026-05-01T08:48:17.565Z</time></trkpt><trkpt lat="42.3685651" lon="14.2953281"><ele>29.0</ele><time>2026-05-01T08:48:19.576Z</time></trkpt><trkpt lat="42.3686692" lon="14.2955758"><ele>29.0</ele><time>2026-05-01T08:48:21.552Z</time></trkpt><trkpt lat="42.3687753" lon="14.295875"><ele>29.0</ele><time>2026-05-01T08:48:23.564Z</time></trkpt><trkpt lat="42.3688798" lon="14.2961341"><ele>28.666666666666664</ele><time>2026-05-01T08:48:25.569Z</time></trkpt><trkpt lat="42.368983" lon="14.2963464"><ele>28.333333333333336</ele><time>2026-05-01T08:48:27.557Z</time></trkpt><trkpt lat="42.3690892" lon="14.2965556"><ele>28.0</ele><time>2026-05-01T08:48:29.561Z</time></trkpt><trkpt lat="42.3691634" lon="14.2967233"><ele>28.5</ele><time>2026-05-01T08:48:31.555Z</time></trkpt><trkpt lat="42.369231" lon="14.2968666"><ele>29.0</ele><time>2026-05-01T08:48:33.556Z</time></trkpt><trkpt lat="42.3692786" lon="14.2970143"><ele>29.5</ele><time>2026-05-01T08:48:35.559Z</time></trkpt><trkpt lat="42.3693464" lon="14.2971189"><ele>30.0</ele><time>2026-05-01T08:48:37.556Z</time></trkpt><trkpt lat="42.3694281" lon="14.2972797"><ele>30.0</ele><time>2026-05-01T08:48:39.556Z</time></trkpt><trkpt lat="42.3695048" lon="14.2974635"><ele>30.0</ele><time>2026-05-01T08:48:41.554Z</time></trkpt><trkpt lat="42.3695875" lon="14.2976449"><ele>30.0</ele><time>2026-05-01T08:48:43.558Z</time></trkpt><trkpt lat="42.3696653" lon="14.2978065"><ele>29.666666666666664</ele><time>2026-05-01T08:48:45.555Z</time></trkpt><trkpt lat="42.3697651" lon="14.2980244"><ele>29.333333333333332</ele><time>2026-05-01T08:48:47.548Z</time></trkpt><trkpt lat="42.3698751" lon="14.2982346"><ele>29.0</ele><time>2026-05-01T08:48:49.547Z</time></trkpt><trkpt lat="42.3699751" lon="14.2983968"><ele>29.0</ele><time>2026-05-01T08:48:51.543Z</time></trkpt><trkpt lat="42.3700771" lon="14.2985326"><ele>29.0</ele><time>2026-05-01T08:48:53.557Z</time></trkpt><trkpt lat="42.3702122" lon="14.2986891"><ele>29.0</ele><time>2026-05-01T08:48:55.543Z</time></trkpt><trkpt lat="42.3704032" lon="14.2988442"><ele>28.0</ele><time>2026-05-01T08:48:57.547Z</time></trkpt><trkpt lat="42.3705991" lon="14.2990291"><ele>27.0</ele><time>2026-05-01T08:48:59.547Z</time></trkpt><trkpt lat="42.3707915" lon="14.2992195"><ele>27.0</ele><time>2026-05-01T08:49:01.544Z</time></trkpt><trkpt lat="42.3709547" lon="14.2993648"><ele>27.0</ele><time>2026-05-01T08:49:03.546Z</time></trkpt><trkpt lat="42.3710951" lon="14.2994684"><ele>27.0</ele><time>2026-05-01T08:49:05.544Z</time></trkpt><trkpt lat="42.3712118" lon="14.2995125"><ele>27.0</ele><time>2026-05-01T08:49:07.551Z</time></trkpt><trkpt lat="42.3713314" lon="14.2994998"><ele>27.0</ele><time>2026-05-01T08:49:09.554Z</time></trkpt><trkpt lat="42.3714823" lon="14.2995005"><ele>27.0</ele><time>2026-05-01T08:49:11.548Z</time></trkpt><trkpt lat="42.371659" lon="14.2994776"><ele>27.0</ele><time>2026-05-01T08:49:13.557Z</time></trkpt><trkpt lat="42.3718471" lon="14.2994719"><ele>27.0</ele><time>2026-05-01T08:49:15.548Z</time></trkpt><trkpt lat="42.372013" lon="14.2995316"><ele>27.0</ele><time>2026-05-01T08:49:17.54Z</time></trkpt><trkpt lat="42.3721184" lon="14.2996138"><ele>27.0</ele><time>2026-05-01T08:49:19.536Z</time></trkpt><trkpt lat="42.372218" lon="14.2997435"><ele>27.0</ele><time>2026-05-01T08:49:21.547Z</time></trkpt><trkpt lat="42.3723213" lon="14.2999377"><ele>26.333333333333336</ele><time>2026-05-01T08:49:23.553Z</time></trkpt><trkpt lat="42.3724169" lon="14.3001863"><ele>25.666666666666668</ele><time>2026-05-01T08:49:25.551Z</time></trkpt><trkpt lat="42.3725043" lon="14.3004328"><ele>25.0</ele><time>2026-05-01T08:49:27.552Z</time></trkpt><trkpt lat="42.3725932" lon="14.3006409"><ele>24.333333333333336</ele><time>2026-05-01T08:49:29.546Z</time></trkpt><trkpt lat="42.3726939" lon="14.3008386"><ele>23.666666666666668</ele><time>2026-05-01T08:49:31.552Z</time></trkpt><trkpt lat="42.3728242" lon="14.3009593"><ele>23.0</ele><time>2026-05-01T08:49:33.549Z</time></trkpt><trkpt lat="42.3729723" lon="14.3010436"><ele>23.0</ele><time>2026-05-01T08:49:35.547Z</time></trkpt><trkpt lat="42.3731128" lon="14.3010746"><ele>23.0</ele><time>2026-05-01T08:49:37.551Z</time></trkpt><trkpt lat="42.3732746" lon="14.3010676"><ele>23.0</ele><time>2026-05-01T08:49:39.555Z</time></trkpt><trkpt lat="42.3734638" lon="14.3009914"><ele>23.0</ele><time>2026-05-01T08:49:41.554Z</time></trkpt><trkpt lat="42.3736568" lon="14.3008802"><ele>23.0</ele><time>2026-05-01T08:49:43.551Z</time></trkpt><trkpt lat="42.3738144" lon="14.300811"><ele>23.0</ele><time>2026-05-01T08:49:45.553Z</time></trkpt><trkpt lat="42.3739734" lon="14.3007268"><ele>23.0</ele><time>2026-05-01T08:49:47.556Z</time></trkpt><trkpt lat="42.3741654" lon="14.3006289"><ele>23.0</ele><time>2026-05-01T08:49:49.558Z</time></trkpt><trkpt lat="42.3743674" lon="14.300534"><ele>23.0</ele><time>2026-05-01T08:49:51.559Z</time></trkpt><trkpt lat="42.3745623" lon="14.3004715"><ele>23.0</ele><time>2026-05-01T08:49:53.553Z</time></trkpt><trkpt lat="42.3747345" lon="14.3005466"><ele>23.0</ele><time>2026-05-01T08:49:55.555Z</time></trkpt><trkpt lat="42.3748783" lon="14.3007399"><ele>23.0</ele><time>2026-05-01T08:49:57.551Z</time></trkpt><trkpt lat="42.3749594" lon="14.3009666"><ele>23.0</ele><time>2026-05-01T08:49:59.539Z</time></trkpt><trkpt lat="42.3749607" lon="14.3012393"><ele>23.0</ele><time>2026-05-01T08:50:01.547Z</time></trkpt><trkpt lat="42.3749433" lon="14.3015392"><ele>23.0</ele><time>2026-05-01T08:50:03.555Z</time></trkpt><trkpt lat="42.3749242" lon="14.3018056"><ele>23.333333333333336</ele><time>2026-05-01T08:50:05.55Z</time></trkpt><trkpt lat="42.3749232" lon="14.3020626"><ele>23.666666666666668</ele><time>2026-05-01T08:50:07.558Z</time></trkpt><trkpt lat="42.37495" lon="14.3023095"><ele>24.0</ele><time>2026-05-01T08:50:09.555Z</time></trkpt><trkpt lat="42.3750173" lon="14.3024986"><ele>24.0</ele><time>2026-05-01T08:50:11.551Z</time></trkpt><trkpt lat="42.3751122" lon="14.3026704"><ele>24.0</ele><time>2026-05-01T08:50:13.546Z</time></trkpt><trkpt lat="42.3752599" lon="14.3028267"><ele>24.0</ele><time>2026-05-01T08:50:15.546Z</time></trkpt><trkpt lat="42.3754393" lon="14.3029392"><ele>23.333333333333332</ele><time>2026-05-01T08:50:17.542Z</time></trkpt><trkpt lat="42.3756333" lon="14.3030493"><ele>22.666666666666664</ele><time>2026-05-01T08:50:19.547Z</time></trkpt><trkpt lat="42.375836" lon="14.3031792"><ele>22.0</ele><time>2026-05-01T08:50:21.546Z</time></trkpt><trkpt lat="42.3760206" lon="14.3033178"><ele>22.0</ele><time>2026-05-01T08:50:23.551Z</time></trkpt><trkpt lat="42.3761669" lon="14.3034398"><ele>22.0</ele><time>2026-05-01T08:50:25.55Z</time></trkpt><trkpt lat="42.3762832" lon="14.3033916"><ele>22.0</ele><time>2026-05-01T08:50:27.545Z</time></trkpt><trkpt lat="42.3763334" lon="14.3032319"><ele>22.0</ele><time>2026-05-01T08:50:29.551Z</time></trkpt><trkpt lat="42.3763452" lon="14.3029987"><ele>22.25</ele><time>2026-05-01T08:50:31.547Z</time></trkpt><trkpt lat="42.3763577" lon="14.3028164"><ele>22.5</ele><time>2026-05-01T08:50:33.547Z</time></trkpt><trkpt lat="42.3763055" lon="14.3026675"><ele>22.75</ele><time>2026-05-01T08:50:35.538Z</time></trkpt><trkpt lat="42.3761527" lon="14.3026146"><ele>23.0</ele><time>2026-05-01T08:50:37.546Z</time></trkpt><trkpt lat="42.3759635" lon="14.3026585"><ele>22.5</ele><time>2026-05-01T08:50:39.539Z</time></trkpt><trkpt lat="42.3758553" lon="14.3026596"><ele>22.0</ele><time>2026-05-01T08:50:41.536Z</time></trkpt><trkpt lat="42.3758382" lon="14.302494"><ele>21.5</ele><time>2026-05-01T08:50:45.549Z</time></trkpt><trkpt lat="42.3758847" lon="14.3022947"><ele>21.0</ele><time>2026-05-01T08:50:47.557Z</time></trkpt><trkpt lat="42.3759332" lon="14.3020604"><ele>22.333333333333336</ele><time>2026-05-01T08:50:49.543Z</time></trkpt><trkpt lat="42.37597" lon="14.3018594"><ele>23.666666666666668</ele><time>2026-05-01T08:50:51.546Z</time></trkpt><trkpt lat="42.3760308" lon="14.3016368"><ele>25.0</ele><time>2026-05-01T08:50:53.544Z</time></trkpt><trkpt lat="42.3761135" lon="14.3013998"><ele>26.333333333333336</ele><time>2026-05-01T08:50:55.562Z</time></trkpt><trkpt lat="42.3762104" lon="14.3011509"><ele>27.666666666666664</ele><time>2026-05-01T08:50:57.624Z</time></trkpt><trkpt lat="42.3763089" lon="14.3009191"><ele>29.0</ele><time>2026-05-01T08:50:59.624Z</time></trkpt><trkpt lat="42.3763896" lon="14.3007201"><ele>29.5</ele><time>2026-05-01T08:51:01.626Z</time></trkpt><trkpt lat="42.3764639" lon="14.3005275"><ele>30.0</ele><time>2026-05-01T08:51:03.618Z</time></trkpt><trkpt lat="42.3765222" lon="14.3003963"><ele>30.5</ele><time>2026-05-01T08:51:05.617Z</time></trkpt><trkpt lat="42.3766531" lon="14.3004363"><ele>31.0</ele><time>2026-05-01T08:51:09.543Z</time></trkpt><trkpt lat="42.3768131" lon="14.3006549"><ele>31.0</ele><time>2026-05-01T08:51:11.534Z</time></trkpt><trkpt lat="42.3770345" lon="14.3008841"><ele>31.0</ele><time>2026-05-01T08:51:13.537Z</time></trkpt><trkpt lat="42.3772946" lon="14.3010671"><ele>30.5</ele><time>2026-05-01T08:51:15.541Z</time></trkpt><trkpt lat="42.3776048" lon="14.3011846"><ele>30.0</ele><time>2026-05-01T08:51:17.539Z</time></trkpt><trkpt lat="42.3779327" lon="14.3012578"><ele>30.0</ele><time>2026-05-01T08:51:19.541Z</time></trkpt><trkpt lat="42.3782482" lon="14.301366"><ele>30.0</ele><time>2026-05-01T08:51:21.546Z</time></trkpt><trkpt lat="42.3785204" lon="14.3014432"><ele>28.5</ele><time>2026-05-01T08:51:23.545Z</time></trkpt><trkpt lat="42.3788129" lon="14.3015295"><ele>27.0</ele><time>2026-05-01T08:51:25.549Z</time></trkpt><trkpt lat="42.3791232" lon="14.3016186"><ele>26.5</ele><time>2026-05-01T08:51:27.544Z</time></trkpt><trkpt lat="42.3794232" lon="14.3016985"><ele>26.0</ele><time>2026-05-01T08:51:29.553Z</time></trkpt><trkpt lat="42.3797145" lon="14.3017841"><ele>26.0</ele><time>2026-05-01T08:51:31.553Z</time></trkpt><trkpt lat="42.3799915" lon="14.3018644"><ele>26.0</ele><time>2026-05-01T08:51:33.547Z</time></trkpt><trkpt lat="42.3802741" lon="14.3019509"><ele>25.5</ele><time>2026-05-01T08:51:35.548Z</time></trkpt><trkpt lat="42.3805625" lon="14.3020406"><ele>25.0</ele><time>2026-05-01T08:51:37.547Z</time></trkpt><trkpt lat="42.3808499" lon="14.3021397"><ele>25.0</ele><time>2026-05-01T08:51:39.551Z</time></trkpt><trkpt lat="42.3811366" lon="14.3022261"><ele>25.0</ele><time>2026-05-01T08:51:41.551Z</time></trkpt><trkpt lat="42.3814286" lon="14.3023314"><ele>23.5</ele><time>2026-05-01T08:51:43.55Z</time></trkpt><trkpt lat="42.381692" lon="14.3024713"><ele>22.0</ele><time>2026-05-01T08:51:45.547Z</time></trkpt><trkpt lat="42.3819424" lon="14.3026098"><ele>22.0</ele><time>2026-05-01T08:51:47.545Z</time></trkpt><trkpt lat="42.3821705" lon="14.3027456"><ele>22.0</ele><time>2026-05-01T08:51:49.55Z</time></trkpt><trkpt lat="42.3823487" lon="14.3028854"><ele>22.0</ele><time>2026-05-01T08:51:51.551Z</time></trkpt><trkpt lat="42.3824988" lon="14.3030096"><ele>22.0</ele><time>2026-05-01T08:51:53.549Z</time></trkpt><trkpt lat="42.3825586" lon="14.3032099"><ele>22.0</ele><time>2026-05-01T08:51:55.542Z</time></trkpt><trkpt lat="42.3825386" lon="14.3034789"><ele>22.0</ele><time>2026-05-01T08:51:57.536Z</time></trkpt><trkpt lat="42.3824613" lon="14.3038434"><ele>22.0</ele><time>2026-05-01T08:51:59.54Z</time></trkpt><trkpt lat="42.3823835" lon="14.3042231"><ele>21.5</ele><time>2026-05-01T08:52:01.535Z</time></trkpt><trkpt lat="42.3823493" lon="14.304592"><ele>21.0</ele><time>2026-05-01T08:52:03.54Z</time></trkpt><trkpt lat="42.3822931" lon="14.3049841"><ele>20.0</ele><time>2026-05-01T08:52:05.532Z</time></trkpt><trkpt lat="42.3822791" lon="14.3053422"><ele>19.0</ele><time>2026-05-01T08:52:07.538Z</time></trkpt><trkpt lat="42.3822258" lon="14.3056467"><ele>18.333333333333332</ele><time>2026-05-01T08:52:09.536Z</time></trkpt><trkpt lat="42.3821737" lon="14.3059207"><ele>17.666666666666668</ele><time>2026-05-01T08:52:11.541Z</time></trkpt><trkpt lat="42.3821105" lon="14.306166"><ele>17.0</ele><time>2026-05-01T08:52:13.536Z</time></trkpt><trkpt lat="42.382055" lon="14.3063452"><ele>17.0</ele><time>2026-05-01T08:52:15.531Z</time></trkpt><trkpt lat="42.3820489" lon="14.3065009"><ele>17.0</ele><time>2026-05-01T08:52:17.546Z</time></trkpt><trkpt lat="42.3821818" lon="14.3067258"><ele>17.0</ele><time>2026-05-01T08:52:19.541Z</time></trkpt><trkpt lat="42.3823597" lon="14.3070178"><ele>16.5</ele><time>2026-05-01T08:52:21.539Z</time></trkpt><trkpt lat="42.3825287" lon="14.3073793"><ele>16.0</ele><time>2026-05-01T08:52:23.547Z</time></trkpt><trkpt lat="42.3826949" lon="14.3077231"><ele>16.0</ele><time>2026-05-01T08:52:25.543Z</time></trkpt><trkpt lat="42.3828502" lon="14.3080614"><ele>16.0</ele><time>2026-05-01T08:52:27.546Z</time></trkpt><trkpt lat="42.3830158" lon="14.3084132"><ele>16.0</ele><time>2026-05-01T08:52:29.548Z</time></trkpt><trkpt lat="42.3831896" lon="14.308786"><ele>16.0</ele><time>2026-05-01T08:52:31.546Z</time></trkpt><trkpt lat="42.3833543" lon="14.3091405"><ele>15.0</ele><time>2026-05-01T08:52:33.546Z</time></trkpt><trkpt lat="42.3835127" lon="14.3094889"><ele>14.0</ele><time>2026-05-01T08:52:35.54Z</time></trkpt><trkpt lat="42.3836679" lon="14.3098244"><ele>14.0</ele><time>2026-05-01T08:52:37.545Z</time></trkpt><trkpt lat="42.3838246" lon="14.3101763"><ele>14.0</ele><time>2026-05-01T08:52:39.546Z</time></trkpt><trkpt lat="42.3839884" lon="14.3104929"><ele>14.5</ele><time>2026-05-01T08:52:41.543Z</time></trkpt><trkpt lat="42.3842042" lon="14.3107642"><ele>15.0</ele><time>2026-05-01T08:52:43.538Z</time></trkpt><trkpt lat="42.3844913" lon="14.3109314"><ele>14.5</ele><time>2026-05-01T08:52:45.543Z</time></trkpt><trkpt lat="42.3847639" lon="14.3110657"><ele>14.0</ele><time>2026-05-01T08:52:47.548Z</time></trkpt><trkpt lat="42.3850429" lon="14.3112058"><ele>14.0</ele><time>2026-05-01T08:52:49.572Z</time></trkpt><trkpt lat="42.3853025" lon="14.3113382"><ele>14.0</ele><time>2026-05-01T08:52:51.644Z</time></trkpt><trkpt lat="42.3855579" lon="14.3114746"><ele>14.0</ele><time>2026-05-01T08:52:53.639Z</time></trkpt><trkpt lat="42.3857777" lon="14.3115917"><ele>14.0</ele><time>2026-05-01T08:52:55.635Z</time></trkpt><trkpt lat="42.3859522" lon="14.3116879"><ele>14.0</ele><time>2026-05-01T08:52:57.633Z</time></trkpt><trkpt lat="42.3860838" lon="14.3117585"><ele>14.0</ele><time>2026-05-01T08:52:59.632Z</time></trkpt><trkpt lat="42.3861717" lon="14.311812"><ele>13.999999999999998</ele><time>2026-05-01T08:53:01.632Z</time></trkpt><trkpt lat="42.3862827" lon="14.3118618"><ele>13.999999999999998</ele><time>2026-05-01T08:53:03.626Z</time></trkpt><trkpt lat="42.3863948" lon="14.3119152"><ele>14.0</ele><time>2026-05-01T08:53:05.62Z</time></trkpt><trkpt lat="42.3864424" lon="14.3120528"><ele>14.0</ele><time>2026-05-01T08:53:09.64Z</time></trkpt><trkpt lat="42.3864047" lon="14.3121873"><ele>14.0</ele><time>2026-05-01T08:53:11.632Z</time></trkpt><trkpt lat="42.3863705" lon="14.3123633"><ele>14.0</ele><time>2026-05-01T08:53:13.623Z</time></trkpt><trkpt lat="42.3863319" lon="14.3125843"><ele>14.0</ele><time>2026-05-01T08:53:15.631Z</time></trkpt><trkpt lat="42.3862849" lon="14.3128398"><ele>13.666666666666668</ele><time>2026-05-01T08:53:17.628Z</time></trkpt><trkpt lat="42.3862274" lon="14.3130828"><ele>13.333333333333332</ele><time>2026-05-01T08:53:19.63Z</time></trkpt><trkpt lat="42.386169" lon="14.3133098"><ele>13.0</ele><time>2026-05-01T08:53:21.63Z</time></trkpt><trkpt lat="42.3861108" lon="14.3135461"><ele>13.0</ele><time>2026-05-01T08:53:23.633Z</time></trkpt><trkpt lat="42.386045" lon="14.3138105"><ele>13.0</ele><time>2026-05-01T08:53:25.635Z</time></trkpt><trkpt lat="42.3859784" lon="14.3140832"><ele>13.0</ele><time>2026-05-01T08:53:27.627Z</time></trkpt><trkpt lat="42.3859115" lon="14.3143373"><ele>13.0</ele><time>2026-05-01T08:53:29.63Z</time></trkpt><trkpt lat="42.385855" lon="14.3145598"><ele>13.0</ele><time>2026-05-01T08:53:31.629Z</time></trkpt><trkpt lat="42.3858022" lon="14.3147687"><ele>13.0</ele><time>2026-05-01T08:53:33.627Z</time></trkpt><trkpt lat="42.38573" lon="14.3150135"><ele>12.0</ele><time>2026-05-01T08:53:35.634Z</time></trkpt><trkpt lat="42.3856754" lon="14.3152501"><ele>11.0</ele><time>2026-05-01T08:53:37.623Z</time></trkpt><trkpt lat="42.3856357" lon="14.3154138"><ele>10.0</ele><time>2026-05-01T08:53:39.631Z</time></trkpt><trkpt lat="42.3855859" lon="14.3156175"><ele>9.666666666666668</ele><time>2026-05-01T08:53:41.636Z</time></trkpt><trkpt lat="42.3855495" lon="14.3157753"><ele>9.333333333333334</ele><time>2026-05-01T08:53:43.634Z</time></trkpt><trkpt lat="42.3855541" lon="14.315899"><ele>9.0</ele><time>2026-05-01T08:53:45.628Z</time></trkpt><trkpt lat="42.3856038" lon="14.3159531"><ele>8.666666666666666</ele><time>2026-05-01T08:53:47.627Z</time></trkpt><trkpt lat="42.3856699" lon="14.3160293"><ele>8.333333333333332</ele><time>2026-05-01T08:53:49.645Z</time></trkpt><trkpt lat="42.3857397" lon="14.3160467"><ele>8.0</ele><time>2026-05-01T08:53:51.638Z</time></trkpt><trkpt lat="42.3858041" lon="14.316095"><ele>8.0</ele><time>2026-05-01T08:53:55.651Z</time></trkpt><trkpt lat="42.3858076" lon="14.3161922"><ele>8.0</ele><time>2026-05-01T08:54:01.562Z</time></trkpt><trkpt lat="42.3859146" lon="14.3163008"><ele>8.0</ele><time>2026-05-01T08:54:27.559Z</time></trkpt><trkpt lat="42.3859661" lon="14.3163684"><ele>8.0</ele><time>2026-05-01T08:54:29.55Z</time></trkpt><trkpt lat="42.3859338" lon="14.316454"><ele>8.0</ele><time>2026-05-01T08:54:31.555Z</time></trkpt><trkpt lat="42.3858813" lon="14.3166031"><ele>7.666666666666666</ele><time>2026-05-01T08:54:33.556Z</time></trkpt><trkpt lat="42.3858159" lon="14.3168128"><ele>7.333333333333334</ele><time>2026-05-01T08:54:35.552Z</time></trkpt><trkpt lat="42.3857379" lon="14.3170473"><ele>7.0</ele><time>2026-05-01T08:54:37.552Z</time></trkpt><trkpt lat="42.3856521" lon="14.3173001"><ele>7.333333333333334</ele><time>2026-05-01T08:54:39.551Z</time></trkpt><trkpt lat="42.3855638" lon="14.3174973"><ele>7.666666666666666</ele><time>2026-05-01T08:54:41.544Z</time></trkpt><trkpt lat="42.3855118" lon="14.3176662"><ele>8.0</ele><time>2026-05-01T08:54:43.551Z</time></trkpt><trkpt lat="42.3854396" lon="14.3178677"><ele>8.0</ele><time>2026-05-01T08:54:45.551Z</time></trkpt><trkpt lat="42.38537" lon="14.3180317"><ele>8.0</ele><time>2026-05-01T08:54:47.547Z</time></trkpt><trkpt lat="42.3853355" lon="14.3181919"><ele>8.0</ele><time>2026-05-01T08:54:49.544Z</time></trkpt><trkpt lat="42.3852927" lon="14.318326"><ele>8.0</ele><time>2026-05-01T08:54:51.55Z</time></trkpt><trkpt lat="42.3853952" lon="14.3184173"><ele>9.0</ele><time>2026-05-01T08:54:55.564Z</time></trkpt><trkpt lat="42.3855375" lon="14.3184011"><ele>10.0</ele><time>2026-05-01T08:54:57.556Z</time></trkpt><trkpt lat="42.3857553" lon="14.3182827"><ele>11.0</ele><time>2026-05-01T08:54:59.542Z</time></trkpt><trkpt lat="42.3860458" lon="14.3181561"><ele>10.5</ele><time>2026-05-01T08:55:01.546Z</time></trkpt><trkpt lat="42.3863732" lon="14.3181075"><ele>10.0</ele><time>2026-05-01T08:55:03.538Z</time></trkpt><trkpt lat="42.3866028" lon="14.3180221"><ele>10.0</ele><time>2026-05-01T08:55:05.545Z</time></trkpt><trkpt lat="42.3867699" lon="14.3179656"><ele>10.0</ele><time>2026-05-01T08:55:07.552Z</time></trkpt><trkpt lat="42.3868741" lon="14.3180161"><ele>10.0</ele><time>2026-05-01T08:55:09.547Z</time></trkpt><trkpt lat="42.3869014" lon="14.3181226"><ele>10.0</ele><time>2026-05-01T08:55:11.546Z</time></trkpt><trkpt lat="42.3868717" lon="14.3182548"><ele>10.0</ele><time>2026-05-01T08:55:13.557Z</time></trkpt><trkpt lat="42.3868102" lon="14.3183963"><ele>10.0</ele><time>2026-05-01T08:55:15.552Z</time></trkpt><trkpt lat="42.3867816" lon="14.3185375"><ele>10.0</ele><time>2026-05-01T08:55:17.549Z</time></trkpt><trkpt lat="42.386761" lon="14.3186786"><ele>10.0</ele><time>2026-05-01T08:55:19.557Z</time></trkpt><trkpt lat="42.38673" lon="14.3187686"><ele>10.0</ele><time>2026-05-01T08:55:21.559Z</time></trkpt><trkpt lat="42.3867125" lon="14.3188783"><ele>9.5</ele><time>2026-05-01T08:55:27.564Z</time></trkpt><trkpt lat="42.3866926" lon="14.3190419"><ele>9.0</ele><time>2026-05-01T08:55:31.572Z</time></trkpt><trkpt lat="42.3866674" lon="14.3191533"><ele>8.5</ele><time>2026-05-01T08:55:33.562Z</time></trkpt><trkpt lat="42.3864957" lon="14.3191227"><ele>8.0</ele><time>2026-05-01T08:55:37.572Z</time></trkpt><trkpt lat="42.3863711" lon="14.3190701"><ele>8.25</ele><time>2026-05-01T08:55:39.563Z</time></trkpt><trkpt lat="42.3862543" lon="14.3190367"><ele>8.5</ele><time>2026-05-01T08:55:41.557Z</time></trkpt><trkpt lat="42.3860941" lon="14.3190342"><ele>8.75</ele><time>2026-05-01T08:55:43.557Z</time></trkpt><trkpt lat="42.3859336" lon="14.3190613"><ele>9.0</ele><time>2026-05-01T08:55:45.561Z</time></trkpt><trkpt lat="42.3857717" lon="14.3191078"><ele>9.0</ele><time>2026-05-01T08:55:47.553Z</time></trkpt><trkpt lat="42.3855568" lon="14.3191699"><ele>9.0</ele><time>2026-05-01T08:55:49.562Z</time></trkpt><trkpt lat="42.385336" lon="14.3191924"><ele>9.0</ele><time>2026-05-01T08:55:51.556Z</time></trkpt><trkpt lat="42.3851549" lon="14.3191842"><ele>9.333333333333334</ele><time>2026-05-01T08:55:53.564Z</time></trkpt><trkpt lat="42.3849712" lon="14.3191268"><ele>9.666666666666668</ele><time>2026-05-01T08:55:55.564Z</time></trkpt><trkpt lat="42.3847922" lon="14.3190423"><ele>10.0</ele><time>2026-05-01T08:55:57.563Z</time></trkpt><trkpt lat="42.3846124" lon="14.3189433"><ele>10.0</ele><time>2026-05-01T08:55:59.563Z</time></trkpt><trkpt lat="42.3844477" lon="14.318821"><ele>10.0</ele><time>2026-05-01T08:56:01.557Z</time></trkpt><trkpt lat="42.3843115" lon="14.3186329"><ele>10.0</ele><time>2026-05-01T08:56:03.557Z</time></trkpt><trkpt lat="42.3842161" lon="14.3183961"><ele>10.0</ele><time>2026-05-01T08:56:05.555Z</time></trkpt><trkpt lat="42.384102" lon="14.3181092"><ele>10.0</ele><time>2026-05-01T08:56:07.642Z</time></trkpt><trkpt lat="42.38401" lon="14.3178386"><ele>10.0</ele><time>2026-05-01T08:56:09.653Z</time></trkpt><trkpt lat="42.38396" lon="14.3175742"><ele>10.0</ele><time>2026-05-01T08:56:11.642Z</time></trkpt><trkpt lat="42.3839628" lon="14.3172808"><ele>10.0</ele><time>2026-05-01T08:56:13.626Z</time></trkpt><trkpt lat="42.383974" lon="14.3169687"><ele>10.0</ele><time>2026-05-01T08:56:15.628Z</time></trkpt><trkpt lat="42.3839866" lon="14.316686"><ele>10.0</ele><time>2026-05-01T08:56:17.647Z</time></trkpt><trkpt lat="42.3839357" lon="14.3164557"><ele>10.0</ele><time>2026-05-01T08:56:19.56Z</time></trkpt><trkpt lat="42.3838968" lon="14.3162362"><ele>10.0</ele><time>2026-05-01T08:56:21.554Z</time></trkpt><trkpt lat="42.3838163" lon="14.3159993"><ele>10.0</ele><time>2026-05-01T08:56:23.552Z</time></trkpt><trkpt lat="42.3837029" lon="14.3157794"><ele>10.0</ele><time>2026-05-01T08:56:25.554Z</time></trkpt><trkpt lat="42.3835722" lon="14.3156025"><ele>10.0</ele><time>2026-05-01T08:56:27.559Z</time></trkpt><trkpt lat="42.3834329" lon="14.3154214"><ele>10.0</ele><time>2026-05-01T08:56:29.56Z</time></trkpt><trkpt lat="42.3832733" lon="14.315201"><ele>10.0</ele><time>2026-05-01T08:56:31.56Z</time></trkpt><trkpt lat="42.3831142" lon="14.3149787"><ele>10.0</ele><time>2026-05-01T08:56:33.56Z</time></trkpt><trkpt lat="42.3829724" lon="14.3147939"><ele>10.0</ele><time>2026-05-01T08:56:35.56Z</time></trkpt><trkpt lat="42.3828581" lon="14.3145944"><ele>10.0</ele><time>2026-05-01T08:56:37.56Z</time></trkpt><trkpt lat="42.3827667" lon="14.3143308"><ele>10.0</ele><time>2026-05-01T08:56:39.554Z</time></trkpt><trkpt lat="42.3827094" lon="14.3140138"><ele>10.0</ele><time>2026-05-01T08:56:41.565Z</time></trkpt><trkpt lat="42.3827077" lon="14.3136638"><ele>10.5</ele><time>2026-05-01T08:56:43.567Z</time></trkpt><trkpt lat="42.3827245" lon="14.3133223"><ele>11.0</ele><time>2026-05-01T08:56:45.568Z</time></trkpt><trkpt lat="42.382713" lon="14.3130138"><ele>11.0</ele><time>2026-05-01T08:56:47.564Z</time></trkpt><trkpt lat="42.3827108" lon="14.3126808"><ele>11.0</ele><time>2026-05-01T08:56:49.569Z</time></trkpt><trkpt lat="42.3827064" lon="14.3123593"><ele>11.333333333333332</ele><time>2026-05-01T08:56:51.561Z</time></trkpt><trkpt lat="42.3827054" lon="14.3120943"><ele>11.666666666666666</ele><time>2026-05-01T08:56:53.561Z</time></trkpt><trkpt lat="42.3827149" lon="14.3118849"><ele>12.0</ele><time>2026-05-01T08:56:55.573Z</time></trkpt><trkpt lat="42.382669" lon="14.3116733"><ele>12.0</ele><time>2026-05-01T08:56:57.554Z</time></trkpt><trkpt lat="42.3825502" lon="14.3115229"><ele>12.0</ele><time>2026-05-01T08:56:59.563Z</time></trkpt><trkpt lat="42.3824186" lon="14.3114757"><ele>12.0</ele><time>2026-05-01T08:57:01.555Z</time></trkpt><trkpt lat="42.3822607" lon="14.3115192"><ele>12.333333333333332</ele><time>2026-05-01T08:57:03.564Z</time></trkpt><trkpt lat="42.3821451" lon="14.3115693"><ele>12.666666666666666</ele><time>2026-05-01T08:57:05.558Z</time></trkpt><trkpt lat="42.3820548" lon="14.311743"><ele>13.0</ele><time>2026-05-01T08:57:07.562Z</time></trkpt><trkpt lat="42.3819397" lon="14.3119814"><ele>13.0</ele><time>2026-05-01T08:57:09.563Z</time></trkpt><trkpt lat="42.3818009" lon="14.3121918"><ele>13.0</ele><time>2026-05-01T08:57:11.556Z</time></trkpt><trkpt lat="42.3816745" lon="14.3123126"><ele>13.0</ele><time>2026-05-01T08:57:13.566Z</time></trkpt><trkpt lat="42.3815989" lon="14.3124004"><ele>12.75</ele><time>2026-05-01T08:57:15.569Z</time></trkpt><trkpt lat="42.3815205" lon="14.3124437"><ele>12.5</ele><time>2026-05-01T08:57:17.566Z</time></trkpt><trkpt lat="42.3814014" lon="14.3124211"><ele>12.25</ele><time>2026-05-01T08:57:19.559Z</time></trkpt><trkpt lat="42.3812736" lon="14.3123116"><ele>12.0</ele><time>2026-05-01T08:57:21.563Z</time></trkpt><trkpt lat="42.3811356" lon="14.3122815"><ele>12.666666666666668</ele><time>2026-05-01T08:57:23.558Z</time></trkpt><trkpt lat="42.3809343" lon="14.3121987"><ele>13.333333333333334</ele><time>2026-05-01T08:57:25.552Z</time></trkpt><trkpt lat="42.3807133" lon="14.3121441"><ele>14.0</ele><time>2026-05-01T08:57:27.556Z</time></trkpt><trkpt lat="42.3805742" lon="14.3121284"><ele>14.0</ele><time>2026-05-01T08:57:29.566Z</time></trkpt><trkpt lat="42.380497" lon="14.3120969"><ele>13.999999999999998</ele><time>2026-05-01T08:57:31.556Z</time></trkpt><trkpt lat="42.3803767" lon="14.3120399"><ele>13.999999999999998</ele><time>2026-05-01T08:57:33.556Z</time></trkpt><trkpt lat="42.3802599" lon="14.3119453"><ele>14.0</ele><time>2026-05-01T08:57:35.567Z</time></trkpt><trkpt lat="42.3801949" lon="14.3118574"><ele>14.0</ele><time>2026-05-01T08:57:37.565Z</time></trkpt><trkpt lat="42.380111" lon="14.3118133"><ele>14.0</ele><time>2026-05-01T08:57:39.56Z</time></trkpt><trkpt lat="42.3800296" lon="14.311753"><ele>14.0</ele><time>2026-05-01T08:57:49.56Z</time></trkpt><trkpt lat="42.3799564" lon="14.3116547"><ele>14.0</ele><time>2026-05-01T08:57:51.557Z</time></trkpt><trkpt lat="42.3798286" lon="14.3115794"><ele>14.0</ele><time>2026-05-01T08:57:53.569Z</time></trkpt><trkpt lat="42.3796741" lon="14.311511"><ele>14.0</ele><time>2026-05-01T08:57:55.55Z</time></trkpt><trkpt lat="42.3795553" lon="14.3114736"><ele>14.0</ele><time>2026-05-01T08:57:57.558Z</time></trkpt><trkpt lat="42.3793933" lon="14.3115113"><ele>14.0</ele><time>2026-05-01T08:57:59.561Z</time></trkpt><trkpt lat="42.3792026" lon="14.3115087"><ele>14.0</ele><time>2026-05-01T08:58:01.561Z</time></trkpt><trkpt lat="42.3789915" lon="14.3114873"><ele>14.0</ele><time>2026-05-01T08:58:03.568Z</time></trkpt><trkpt lat="42.3788046" lon="14.311506"><ele>14.0</ele><time>2026-05-01T08:58:05.566Z</time></trkpt><trkpt lat="42.378619" lon="14.3115289"><ele>14.333333333333334</ele><time>2026-05-01T08:58:07.558Z</time></trkpt><trkpt lat="42.3784603" lon="14.3114501"><ele>14.666666666666668</ele><time>2026-05-01T08:58:09.571Z</time></trkpt><trkpt lat="42.3782479" lon="14.3113149"><ele>15.0</ele><time>2026-05-01T08:58:11.658Z</time></trkpt><trkpt lat="42.3780242" lon="14.3112081"><ele>15.333333333333332</ele><time>2026-05-01T08:58:13.655Z</time></trkpt><trkpt lat="42.3778265" lon="14.3110978"><ele>15.666666666666666</ele><time>2026-05-01T08:58:15.665Z</time></trkpt><trkpt lat="42.3776277" lon="14.3109468"><ele>16.0</ele><time>2026-05-01T08:58:17.657Z</time></trkpt><trkpt lat="42.3774524" lon="14.3108216"><ele>16.0</ele><time>2026-05-01T08:58:19.655Z</time></trkpt><trkpt lat="42.3773313" lon="14.3107792"><ele>16.0</ele><time>2026-05-01T08:58:21.649Z</time></trkpt><trkpt lat="42.3771904" lon="14.3107509"><ele>16.0</ele><time>2026-05-01T08:58:23.636Z</time></trkpt><trkpt lat="42.3770261" lon="14.3107144"><ele>16.0</ele><time>2026-05-01T08:58:25.639Z</time></trkpt><trkpt lat="42.3768747" lon="14.3106848"><ele>16.5</ele><time>2026-05-01T08:58:27.651Z</time></trkpt><trkpt lat="42.3767339" lon="14.3106947"><ele>17.0</ele><time>2026-05-01T08:58:29.637Z</time></trkpt><trkpt lat="42.3766009" lon="14.310701"><ele>17.5</ele><time>2026-05-01T08:58:31.623Z</time></trkpt><trkpt lat="42.3764686" lon="14.310694"><ele>18.0</ele><time>2026-05-01T08:58:33.642Z</time></trkpt><trkpt lat="42.3763229" lon="14.3106847"><ele>19.0</ele><time>2026-05-01T08:58:35.546Z</time></trkpt><trkpt lat="42.3761835" lon="14.3106521"><ele>20.0</ele><time>2026-05-01T08:58:37.547Z</time></trkpt><trkpt lat="42.376037" lon="14.3106157"><ele>21.0</ele><time>2026-05-01T08:58:39.558Z</time></trkpt><trkpt lat="42.3758926" lon="14.3106026"><ele>22.0</ele><time>2026-05-01T08:58:41.55Z</time></trkpt><trkpt lat="42.3757161" lon="14.3105765"><ele>21.666666666666664</ele><time>2026-05-01T08:58:43.567Z</time></trkpt><trkpt lat="42.3755477" lon="14.3104944"><ele>21.333333333333332</ele><time>2026-05-01T08:58:45.566Z</time></trkpt><trkpt lat="42.3754063" lon="14.3104083"><ele>21.0</ele><time>2026-05-01T08:58:47.563Z</time></trkpt><trkpt lat="42.3752515" lon="14.3102958"><ele>21.0</ele><time>2026-05-01T08:58:49.551Z</time></trkpt><trkpt lat="42.3751063" lon="14.3101694"><ele>21.0</ele><time>2026-05-01T08:58:51.55Z</time></trkpt><trkpt lat="42.3749565" lon="14.3100486"><ele>21.0</ele><time>2026-05-01T08:58:53.552Z</time></trkpt><trkpt lat="42.3748727" lon="14.309967"><ele>21.0</ele><time>2026-05-01T08:58:55.558Z</time></trkpt><trkpt lat="42.3748039" lon="14.3099246"><ele>21.0</ele><time>2026-05-01T08:59:03.56Z</time></trkpt><trkpt lat="42.3747097" lon="14.3099631"><ele>21.0</ele><time>2026-05-01T08:59:05.574Z</time></trkpt><trkpt lat="42.3746009" lon="14.3100523"><ele>21.0</ele><time>2026-05-01T08:59:07.568Z</time></trkpt><trkpt lat="42.374476" lon="14.3101256"><ele>21.0</ele><time>2026-05-01T08:59:09.558Z</time></trkpt><trkpt lat="42.3743668" lon="14.3101434"><ele>21.333333333333332</ele><time>2026-05-01T08:59:11.55Z</time></trkpt><trkpt lat="42.3742281" lon="14.310078"><ele>21.666666666666664</ele><time>2026-05-01T08:59:13.549Z</time></trkpt><trkpt lat="42.374065" lon="14.3099324"><ele>22.0</ele><time>2026-05-01T08:59:15.547Z</time></trkpt><trkpt lat="42.3739096" lon="14.3097768"><ele>25.0</ele><time>2026-05-01T08:59:17.553Z</time></trkpt><trkpt lat="42.3737695" lon="14.3096149"><ele>28.0</ele><time>2026-05-01T08:59:19.552Z</time></trkpt><trkpt lat="42.3735819" lon="14.3094642"><ele>31.0</ele><time>2026-05-01T08:59:21.561Z</time></trkpt><trkpt lat="42.373373" lon="14.3093111"><ele>31.0</ele><time>2026-05-01T08:59:23.568Z</time></trkpt><trkpt lat="42.3731793" lon="14.3091908"><ele>31.0</ele><time>2026-05-01T08:59:25.559Z</time></trkpt><trkpt lat="42.3730297" lon="14.3090875"><ele>31.0</ele><time>2026-05-01T08:59:27.553Z</time></trkpt><trkpt lat="42.3728764" lon="14.3090205"><ele>32.0</ele><time>2026-05-01T08:59:29.543Z</time></trkpt><trkpt lat="42.3726692" lon="14.3089811"><ele>33.0</ele><time>2026-05-01T08:59:31.551Z</time></trkpt><trkpt lat="42.372445" lon="14.3089004"><ele>34.0</ele><time>2026-05-01T08:59:33.548Z</time></trkpt><trkpt lat="42.3722069" lon="14.308731"><ele>33.0</ele><time>2026-05-01T08:59:35.55Z</time></trkpt><trkpt lat="42.3719901" lon="14.3085536"><ele>32.0</ele><time>2026-05-01T08:59:37.556Z</time></trkpt><trkpt lat="42.3718068" lon="14.3084094"><ele>32.0</ele><time>2026-05-01T08:59:39.549Z</time></trkpt><trkpt lat="42.3716045" lon="14.308255"><ele>32.0</ele><time>2026-05-01T08:59:41.552Z</time></trkpt><trkpt lat="42.3713902" lon="14.3080785"><ele>31.0</ele><time>2026-05-01T08:59:43.553Z</time></trkpt><trkpt lat="42.3711656" lon="14.3078904"><ele>30.0</ele><time>2026-05-01T08:59:45.56Z</time></trkpt><trkpt lat="42.3709762" lon="14.3077329"><ele>30.0</ele><time>2026-05-01T08:59:47.553Z</time></trkpt><trkpt lat="42.3707867" lon="14.3075956"><ele>30.0</ele><time>2026-05-01T08:59:49.553Z</time></trkpt><trkpt lat="42.3705595" lon="14.3074371"><ele>29.0</ele><time>2026-05-01T08:59:51.551Z</time></trkpt><trkpt lat="42.3703024" lon="14.3072654"><ele>28.0</ele><time>2026-05-01T08:59:53.548Z</time></trkpt><trkpt lat="42.3700853" lon="14.3071333"><ele>28.0</ele><time>2026-05-01T08:59:55.567Z</time></trkpt><trkpt lat="42.3698599" lon="14.3069991"><ele>28.0</ele><time>2026-05-01T08:59:57.633Z</time></trkpt><trkpt lat="42.3696582" lon="14.3068755"><ele>27.75</ele><time>2026-05-01T08:59:59.638Z</time></trkpt><trkpt lat="42.3694916" lon="14.3067615"><ele>27.5</ele><time>2026-05-01T09:00:01.629Z</time></trkpt><trkpt lat="42.3694125" lon="14.3065803"><ele>27.25</ele><time>2026-05-01T09:00:03.615Z</time></trkpt><trkpt lat="42.3693825" lon="14.3064499"><ele>27.0</ele><time>2026-05-01T09:00:07.627Z</time></trkpt><trkpt lat="42.3692983" lon="14.3063451"><ele>27.0</ele><time>2026-05-01T09:00:11.632Z</time></trkpt><trkpt lat="42.3691962" lon="14.3062604"><ele>27.0</ele><time>2026-05-01T09:00:13.635Z</time></trkpt><trkpt lat="42.3690614" lon="14.3061333"><ele>27.0</ele><time>2026-05-01T09:00:15.629Z</time></trkpt><trkpt lat="42.368895" lon="14.3059696"><ele>27.333333333333336</ele><time>2026-05-01T09:00:17.636Z</time></trkpt><trkpt lat="42.3687388" lon="14.3058117"><ele>27.666666666666668</ele><time>2026-05-01T09:00:19.636Z</time></trkpt><trkpt lat="42.3685974" lon="14.305678"><ele>28.0</ele><time>2026-05-01T09:00:21.634Z</time></trkpt><trkpt lat="42.3684731" lon="14.3055428"><ele>28.0</ele><time>2026-05-01T09:00:23.631Z</time></trkpt><trkpt lat="42.3683778" lon="14.3054608"><ele>27.999999999999996</ele><time>2026-05-01T09:00:25.62Z</time></trkpt><trkpt lat="42.3683154" lon="14.3054784"><ele>27.999999999999996</ele><time>2026-05-01T09:00:27.624Z</time></trkpt><trkpt lat="42.3682504" lon="14.3055536"><ele>28.0</ele><time>2026-05-01T09:00:29.544Z</time></trkpt><trkpt lat="42.3681498" lon="14.305719"><ele>28.0</ele><time>2026-05-01T09:00:31.542Z</time></trkpt><trkpt lat="42.3680004" lon="14.3059311"><ele>28.333333333333336</ele><time>2026-05-01T09:00:33.542Z</time></trkpt><trkpt lat="42.3678536" lon="14.306069"><ele>28.666666666666664</ele><time>2026-05-01T09:00:35.543Z</time></trkpt><trkpt lat="42.3676759" lon="14.3061274"><ele>29.0</ele><time>2026-05-01T09:00:37.534Z</time></trkpt><trkpt lat="42.3674761" lon="14.3061335"><ele>29.0</ele><time>2026-05-01T09:00:39.528Z</time></trkpt><trkpt lat="42.3672665" lon="14.3061247"><ele>29.0</ele><time>2026-05-01T09:00:41.526Z</time></trkpt><trkpt lat="42.3671" lon="14.3060685"><ele>29.0</ele><time>2026-05-01T09:00:43.526Z</time></trkpt><trkpt lat="42.3669279" lon="14.3059637"><ele>31.666666666666664</ele><time>2026-05-01T09:00:45.53Z</time></trkpt><trkpt lat="42.3667644" lon="14.3059253"><ele>34.333333333333336</ele><time>2026-05-01T09:00:47.528Z</time></trkpt><trkpt lat="42.366573" lon="14.3059904"><ele>37.0</ele><time>2026-05-01T09:00:49.536Z</time></trkpt><trkpt lat="42.3664068" lon="14.3060239"><ele>37.0</ele><time>2026-05-01T09:00:51.534Z</time></trkpt><trkpt lat="42.3662569" lon="14.3060514"><ele>37.0</ele><time>2026-05-01T09:00:53.527Z</time></trkpt><trkpt lat="42.3661089" lon="14.3061463"><ele>37.0</ele><time>2026-05-01T09:00:55.527Z</time></trkpt><trkpt lat="42.3659844" lon="14.306246"><ele>37.0</ele><time>2026-05-01T09:00:57.519Z</time></trkpt><trkpt lat="42.3658503" lon="14.3062725"><ele>37.0</ele><time>2026-05-01T09:00:59.525Z</time></trkpt><trkpt lat="42.3657022" lon="14.3062597"><ele>37.0</ele><time>2026-05-01T09:01:01.532Z</time></trkpt><trkpt lat="42.3655967" lon="14.3062455"><ele>37.0</ele><time>2026-05-01T09:01:03.533Z</time></trkpt><trkpt lat="42.365478" lon="14.3062203"><ele>37.5</ele><time>2026-05-01T09:01:05.531Z</time></trkpt><trkpt lat="42.3653399" lon="14.3062324"><ele>38.0</ele><time>2026-05-01T09:01:07.526Z</time></trkpt><trkpt lat="42.3652166" lon="14.306174"><ele>38.5</ele><time>2026-05-01T09:01:09.535Z</time></trkpt><trkpt lat="42.3650919" lon="14.3061426"><ele>39.0</ele><time>2026-05-01T09:01:11.54Z</time></trkpt><trkpt lat="42.36498" lon="14.3061463"><ele>39.0</ele><time>2026-05-01T09:01:13.54Z</time></trkpt><trkpt lat="42.3648447" lon="14.3061756"><ele>39.0</ele><time>2026-05-01T09:01:15.537Z</time></trkpt><trkpt lat="42.3646952" lon="14.3062385"><ele>39.0</ele><time>2026-05-01T09:01:17.541Z</time></trkpt><trkpt lat="42.36455" lon="14.3063179"><ele>40.333333333333336</ele><time>2026-05-01T09:01:19.548Z</time></trkpt><trkpt lat="42.364416" lon="14.3064149"><ele>41.66666666666667</ele><time>2026-05-01T09:01:21.55Z</time></trkpt><trkpt lat="42.3642783" lon="14.306554"><ele>43.0</ele><time>2026-05-01T09:01:23.542Z</time></trkpt><trkpt lat="42.3641471" lon="14.3066659"><ele>43.0</ele><time>2026-05-01T09:01:25.541Z</time></trkpt><trkpt lat="42.3640344" lon="14.3067852"><ele>43.0</ele><time>2026-05-01T09:01:27.54Z</time></trkpt><trkpt lat="42.3639286" lon="14.3068766"><ele>43.0</ele><time>2026-05-01T09:01:29.536Z</time></trkpt><trkpt lat="42.3638111" lon="14.3069523"><ele>43.0</ele><time>2026-05-01T09:01:31.541Z</time></trkpt><trkpt lat="42.3636746" lon="14.3069939"><ele>41.66666666666667</ele><time>2026-05-01T09:01:33.538Z</time></trkpt><trkpt lat="42.3635183" lon="14.3070214"><ele>40.333333333333336</ele><time>2026-05-01T09:01:35.541Z</time></trkpt><trkpt lat="42.3633204" lon="14.3070457"><ele>39.0</ele><time>2026-05-01T09:01:37.551Z</time></trkpt><trkpt lat="42.363134" lon="14.3070445"><ele>38.666666666666664</ele><time>2026-05-01T09:01:39.546Z</time></trkpt><trkpt lat="42.3629865" lon="14.3070417"><ele>38.33333333333333</ele><time>2026-05-01T09:01:41.539Z</time></trkpt><trkpt lat="42.3627842" lon="14.3069902"><ele>38.0</ele><time>2026-05-01T09:01:43.542Z</time></trkpt><trkpt lat="42.3625805" lon="14.3069542"><ele>38.0</ele><time>2026-05-01T09:01:45.544Z</time></trkpt><trkpt lat="42.3623919" lon="14.3069277"><ele>38.0</ele><time>2026-05-01T09:01:47.541Z</time></trkpt><trkpt lat="42.3622092" lon="14.3069147"><ele>38.0</ele><time>2026-05-01T09:01:49.541Z</time></trkpt><trkpt lat="42.3620305" lon="14.3069104"><ele>37.75</ele><time>2026-05-01T09:01:51.537Z</time></trkpt><trkpt lat="42.3618785" lon="14.306901"><ele>37.5</ele><time>2026-05-01T09:01:53.534Z</time></trkpt><trkpt lat="42.3617417" lon="14.3069042"><ele>37.25</ele><time>2026-05-01T09:01:55.535Z</time></trkpt><trkpt lat="42.3615993" lon="14.3068962"><ele>37.0</ele><time>2026-05-01T09:01:57.53Z</time></trkpt><trkpt lat="42.3614667" lon="14.3068198"><ele>37.0</ele><time>2026-05-01T09:01:59.536Z</time></trkpt><trkpt lat="42.3613306" lon="14.3066782"><ele>37.0</ele><time>2026-05-01T09:02:01.544Z</time></trkpt><trkpt lat="42.3612101" lon="14.3065382"><ele>37.0</ele><time>2026-05-01T09:02:03.536Z</time></trkpt><trkpt lat="42.3610789" lon="14.3064704"><ele>37.0</ele><time>2026-05-01T09:02:05.53Z</time></trkpt><trkpt lat="42.3608785" lon="14.3064146"><ele>37.0</ele><time>2026-05-01T09:02:07.548Z</time></trkpt><trkpt lat="42.3606403" lon="14.3063645"><ele>37.0</ele><time>2026-05-01T09:02:09.548Z</time></trkpt><trkpt lat="42.3604166" lon="14.3062644"><ele>33.66666666666667</ele><time>2026-05-01T09:02:11.554Z</time></trkpt><trkpt lat="42.3602469" lon="14.3061491"><ele>30.333333333333336</ele><time>2026-05-01T09:02:13.555Z</time></trkpt><trkpt lat="42.3600825" lon="14.3061091"><ele>27.0</ele><time>2026-05-01T09:02:15.559Z</time></trkpt><trkpt lat="42.3599182" lon="14.3061266"><ele>27.0</ele><time>2026-05-01T09:02:17.548Z</time></trkpt><trkpt lat="42.3597722" lon="14.3062056"><ele>27.0</ele><time>2026-05-01T09:02:19.545Z</time></trkpt><trkpt lat="42.3595768" lon="14.3062827"><ele>27.0</ele><time>2026-05-01T09:02:21.546Z</time></trkpt><trkpt lat="42.3593422" lon="14.3063486"><ele>29.0</ele><time>2026-05-01T09:02:23.548Z</time></trkpt><trkpt lat="42.3591631" lon="14.3064245"><ele>31.0</ele><time>2026-05-01T09:02:25.546Z</time></trkpt><trkpt lat="42.3590568" lon="14.3065328"><ele>33.0</ele><time>2026-05-01T09:02:27.56Z</time></trkpt><trkpt lat="42.3589562" lon="14.3067178"><ele>32.333333333333336</ele><time>2026-05-01T09:02:29.553Z</time></trkpt><trkpt lat="42.3588392" lon="14.306916"><ele>31.666666666666668</ele><time>2026-05-01T09:02:31.627Z</time></trkpt><trkpt lat="42.3587097" lon="14.3070693"><ele>31.0</ele><time>2026-05-01T09:02:33.629Z</time></trkpt><trkpt lat="42.358584" lon="14.3071299"><ele>31.0</ele><time>2026-05-01T09:02:35.613Z</time></trkpt><trkpt lat="42.3584327" lon="14.307134"><ele>31.0</ele><time>2026-05-01T09:02:37.609Z</time></trkpt><trkpt lat="42.3582392" lon="14.3070505"><ele>31.0</ele><time>2026-05-01T09:02:39.615Z</time></trkpt><trkpt lat="42.3579846" lon="14.3069336"><ele>31.5</ele><time>2026-05-01T09:02:41.619Z</time></trkpt><trkpt lat="42.3577223" lon="14.3067808"><ele>32.0</ele><time>2026-05-01T09:02:43.62Z</time></trkpt><trkpt lat="42.3575072" lon="14.3066793"><ele>32.0</ele><time>2026-05-01T09:02:45.634Z</time></trkpt><trkpt lat="42.3572824" lon="14.3065712"><ele>32.0</ele><time>2026-05-01T09:02:47.638Z</time></trkpt><trkpt lat="42.3571063" lon="14.3064917"><ele>32.0</ele><time>2026-05-01T09:02:49.644Z</time></trkpt><trkpt lat="42.3569449" lon="14.3064197"><ele>31.666666666666664</ele><time>2026-05-01T09:02:51.64Z</time></trkpt><trkpt lat="42.356758" lon="14.3063614"><ele>31.333333333333336</ele><time>2026-05-01T09:02:53.649Z</time></trkpt><trkpt lat="42.3565752" lon="14.3063462"><ele>31.0</ele><time>2026-05-01T09:02:55.64Z</time></trkpt><trkpt lat="42.3564151" lon="14.3063468"><ele>31.666666666666668</ele><time>2026-05-01T09:02:57.646Z</time></trkpt><trkpt lat="42.3562442" lon="14.3063766"><ele>32.333333333333336</ele><time>2026-05-01T09:02:59.644Z</time></trkpt><trkpt lat="42.356033" lon="14.3064328"><ele>33.0</ele><time>2026-05-01T09:03:01.545Z</time></trkpt><trkpt lat="42.3558217" lon="14.3065033"><ele>34.0</ele><time>2026-05-01T09:03:03.537Z</time></trkpt><trkpt lat="42.3555982" lon="14.3065572"><ele>35.0</ele><time>2026-05-01T09:03:05.553Z</time></trkpt><trkpt lat="42.3553828" lon="14.3066561"><ele>35.0</ele><time>2026-05-01T09:03:07.551Z</time></trkpt><trkpt lat="42.3551908" lon="14.3067602"><ele>35.0</ele><time>2026-05-01T09:03:09.549Z</time></trkpt><trkpt lat="42.3550028" lon="14.3068421"><ele>35.0</ele><time>2026-05-01T09:03:11.551Z</time></trkpt><trkpt lat="42.3548122" lon="14.3069182"><ele>35.0</ele><time>2026-05-01T09:03:13.555Z</time></trkpt><trkpt lat="42.3546161" lon="14.3069898"><ele>35.0</ele><time>2026-05-01T09:03:15.55Z</time></trkpt><trkpt lat="42.3544567" lon="14.307056"><ele>35.0</ele><time>2026-05-01T09:03:17.547Z</time></trkpt><trkpt lat="42.3543563" lon="14.3071061"><ele>35.0</ele><time>2026-05-01T09:03:19.559Z</time></trkpt><trkpt lat="42.3542669" lon="14.3071568"><ele>35.0</ele><time>2026-05-01T09:03:21.557Z</time></trkpt><trkpt lat="42.3541838" lon="14.3071879"><ele>35.0</ele><time>2026-05-01T09:03:23.557Z</time></trkpt><trkpt lat="42.3541139" lon="14.3072365"><ele>35.0</ele><time>2026-05-01T09:03:25.56Z</time></trkpt><trkpt lat="42.3540184" lon="14.3072948"><ele>35.0</ele><time>2026-05-01T09:03:27.553Z</time></trkpt><trkpt lat="42.3539149" lon="14.3073831"><ele>36.666666666666664</ele><time>2026-05-01T09:03:29.555Z</time></trkpt><trkpt lat="42.3537719" lon="14.3074561"><ele>38.333333333333336</ele><time>2026-05-01T09:03:31.547Z</time></trkpt><trkpt lat="42.3536086" lon="14.3074523"><ele>40.0</ele><time>2026-05-01T09:03:33.549Z</time></trkpt><trkpt lat="42.3534428" lon="14.3074122"><ele>40.0</ele><time>2026-05-01T09:03:35.548Z</time></trkpt><trkpt lat="42.3533137" lon="14.3074674"><ele>40.0</ele><time>2026-05-01T09:03:37.536Z</time></trkpt><trkpt lat="42.3531835" lon="14.3076191"><ele>40.0</ele><time>2026-05-01T09:03:39.554Z</time></trkpt><trkpt lat="42.3530447" lon="14.3077251"><ele>39.333333333333336</ele><time>2026-05-01T09:03:41.546Z</time></trkpt><trkpt lat="42.352901" lon="14.3077929"><ele>38.666666666666664</ele><time>2026-05-01T09:03:43.542Z</time></trkpt><trkpt lat="42.3527411" lon="14.3077649"><ele>38.0</ele><time>2026-05-01T09:03:45.541Z</time></trkpt><trkpt lat="42.352567" lon="14.30766"><ele>38.0</ele><time>2026-05-01T09:03:47.554Z</time></trkpt><trkpt lat="42.3523887" lon="14.3075971"><ele>38.0</ele><time>2026-05-01T09:03:49.547Z</time></trkpt><trkpt lat="42.352145" lon="14.3076246"><ele>38.0</ele><time>2026-05-01T09:03:51.54Z</time></trkpt><trkpt lat="42.351858" lon="14.3076769"><ele>38.5</ele><time>2026-05-01T09:03:53.558Z</time></trkpt><trkpt lat="42.3515955" lon="14.3077121"><ele>39.0</ele><time>2026-05-01T09:03:55.562Z</time></trkpt><trkpt lat="42.3513253" lon="14.307774"><ele>41.0</ele><time>2026-05-01T09:03:57.566Z</time></trkpt><trkpt lat="42.3510759" lon="14.3078144"><ele>43.0</ele><time>2026-05-01T09:03:59.565Z</time></trkpt><trkpt lat="42.350868" lon="14.3078406"><ele>43.0</ele><time>2026-05-01T09:04:01.562Z</time></trkpt><trkpt lat="42.3506667" lon="14.3078628"><ele>43.0</ele><time>2026-05-01T09:04:03.56Z</time></trkpt><trkpt lat="42.3504438" lon="14.3078799"><ele>43.0</ele><time>2026-05-01T09:04:05.551Z</time></trkpt><trkpt lat="42.3501788" lon="14.307969"><ele>43.0</ele><time>2026-05-01T09:04:07.552Z</time></trkpt><trkpt lat="42.3498925" lon="14.3081154"><ele>43.0</ele><time>2026-05-01T09:04:09.552Z</time></trkpt><trkpt lat="42.3496686" lon="14.3082365"><ele>43.0</ele><time>2026-05-01T09:04:11.552Z</time></trkpt><trkpt lat="42.3494781" lon="14.3083419"><ele>43.0</ele><time>2026-05-01T09:04:13.559Z</time></trkpt><trkpt lat="42.3493291" lon="14.3083605"><ele>43.0</ele><time>2026-05-01T09:04:15.55Z</time></trkpt><trkpt lat="42.3492263" lon="14.3082779"><ele>43.0</ele><time>2026-05-01T09:04:17.551Z</time></trkpt><trkpt lat="42.3491884" lon="14.3080927"><ele>43.0</ele><time>2026-05-01T09:04:19.553Z</time></trkpt><trkpt lat="42.3491589" lon="14.3078893"><ele>43.0</ele><time>2026-05-01T09:04:21.551Z</time></trkpt><trkpt lat="42.3490689" lon="14.3078201"><ele>43.0</ele><time>2026-05-01T09:04:23.562Z</time></trkpt><trkpt lat="42.348952" lon="14.3078392"><ele>42.66666666666667</ele><time>2026-05-01T09:04:25.554Z</time></trkpt><trkpt lat="42.3488681" lon="14.3077068"><ele>42.333333333333336</ele><time>2026-05-01T09:04:27.551Z</time></trkpt><trkpt lat="42.3488341" lon="14.3074228"><ele>42.0</ele><time>2026-05-01T09:04:29.555Z</time></trkpt><trkpt lat="42.3487804" lon="14.3071295"><ele>42.0</ele><time>2026-05-01T09:04:31.561Z</time></trkpt><trkpt lat="42.3487224" lon="14.3068628"><ele>42.0</ele><time>2026-05-01T09:04:33.556Z</time></trkpt><trkpt lat="42.3486323" lon="14.306627"><ele>42.0</ele><time>2026-05-01T09:04:35.559Z</time></trkpt><trkpt lat="42.3485787" lon="14.3064484"><ele>44.0</ele><time>2026-05-01T09:04:37.564Z</time></trkpt><trkpt lat="42.3486112" lon="14.3062829"><ele>46.0</ele><time>2026-05-01T09:04:39.558Z</time></trkpt><trkpt lat="42.3487071" lon="14.306111"><ele>48.0</ele><time>2026-05-01T09:04:41.556Z</time></trkpt><trkpt lat="42.3488488" lon="14.3059211"><ele>48.0</ele><time>2026-05-01T09:04:43.551Z</time></trkpt><trkpt lat="42.3489069" lon="14.3057394"><ele>48.0</ele><time>2026-05-01T09:04:45.54Z</time></trkpt><trkpt lat="42.3488698" lon="14.305589"><ele>48.0</ele><time>2026-05-01T09:04:47.54Z</time></trkpt><trkpt lat="42.3487541" lon="14.3054633"><ele>48.0</ele><time>2026-05-01T09:04:49.547Z</time></trkpt><trkpt lat="42.3486181" lon="14.3053876"><ele>48.0</ele><time>2026-05-01T09:04:51.551Z</time></trkpt><trkpt lat="42.3485317" lon="14.3053808"><ele>48.0</ele><time>2026-05-01T09:04:53.555Z</time></trkpt><trkpt lat="42.348469" lon="14.3054058"><ele>48.0</ele><time>2026-05-01T09:04:55.551Z</time></trkpt><trkpt lat="42.3483496" lon="14.3055234"><ele>48.0</ele><time>2026-05-01T09:04:57.548Z</time></trkpt><trkpt lat="42.3481565" lon="14.3057219"><ele>51.5</ele><time>2026-05-01T09:04:59.547Z</time></trkpt><trkpt lat="42.3479737" lon="14.3059222"><ele>55.0</ele><time>2026-05-01T09:05:01.55Z</time></trkpt><trkpt lat="42.3477952" lon="14.306096"><ele>55.0</ele><time>2026-05-01T09:05:03.546Z</time></trkpt><trkpt lat="42.3475908" lon="14.3063001"><ele>55.0</ele><time>2026-05-01T09:05:05.549Z</time></trkpt><trkpt lat="42.3473933" lon="14.3064644"><ele>53.5</ele><time>2026-05-01T09:05:07.545Z</time></trkpt><trkpt lat="42.3471437" lon="14.3066206"><ele>52.0</ele><time>2026-05-01T09:05:09.547Z</time></trkpt><trkpt lat="42.3468588" lon="14.3067724"><ele>52.0</ele><time>2026-05-01T09:05:11.547Z</time></trkpt><trkpt lat="42.3465483" lon="14.3069096"><ele>52.0</ele><time>2026-05-01T09:05:13.546Z</time></trkpt><trkpt lat="42.3462811" lon="14.3070451"><ele>52.5</ele><time>2026-05-01T09:05:15.547Z</time></trkpt><trkpt lat="42.3460337" lon="14.3071724"><ele>53.0</ele><time>2026-05-01T09:05:17.548Z</time></trkpt><trkpt lat="42.3457751" lon="14.3073053"><ele>50.5</ele><time>2026-05-01T09:05:19.547Z</time></trkpt><trkpt lat="42.3454831" lon="14.307452"><ele>48.0</ele><time>2026-05-01T09:05:21.542Z</time></trkpt><trkpt lat="42.3452149" lon="14.3076361"><ele>48.0</ele><time>2026-05-01T09:05:23.548Z</time></trkpt><trkpt lat="42.3449625" lon="14.3077951"><ele>48.0</ele><time>2026-05-01T09:05:25.548Z</time></trkpt><trkpt lat="42.344721" lon="14.3079512"><ele>45.5</ele><time>2026-05-01T09:05:27.544Z</time></trkpt><trkpt lat="42.3444991" lon="14.3080952"><ele>43.0</ele><time>2026-05-01T09:05:29.636Z</time></trkpt><trkpt lat="42.3443023" lon="14.3082184"><ele>43.0</ele><time>2026-05-01T09:05:31.633Z</time></trkpt><trkpt lat="42.3441095" lon="14.3083394"><ele>43.0</ele><time>2026-05-01T09:05:33.635Z</time></trkpt><trkpt lat="42.3439316" lon="14.3084449"><ele>43.0</ele><time>2026-05-01T09:05:35.616Z</time></trkpt><trkpt lat="42.3438272" lon="14.3084815"><ele>43.0</ele><time>2026-05-01T09:05:37.621Z</time></trkpt><trkpt lat="42.3437584" lon="14.3084895"><ele>43.0</ele><time>2026-05-01T09:05:39.622Z</time></trkpt><trkpt lat="42.3436954" lon="14.3084955"><ele>43.0</ele><time>2026-05-01T09:05:41.64Z</time></trkpt><trkpt lat="42.3436057" lon="14.3085285"><ele>43.0</ele><time>2026-05-01T09:05:43.641Z</time></trkpt><trkpt lat="42.3435233" lon="14.3085399"><ele>43.0</ele><time>2026-05-01T09:05:45.643Z</time></trkpt><trkpt lat="42.3434078" lon="14.3085551"><ele>43.0</ele><time>2026-05-01T09:05:47.628Z</time></trkpt><trkpt lat="42.3432833" lon="14.3085182"><ele>43.0</ele><time>2026-05-01T09:05:49.612Z</time></trkpt><trkpt lat="42.3431661" lon="14.3084311"><ele>43.0</ele><time>2026-05-01T09:05:51.613Z</time></trkpt><trkpt lat="42.3430516" lon="14.3083252"><ele>43.0</ele><time>2026-05-01T09:05:53.632Z</time></trkpt><trkpt lat="42.3429343" lon="14.3082105"><ele>43.0</ele><time>2026-05-01T09:05:55.625Z</time></trkpt><trkpt lat="42.342844" lon="14.3081175"><ele>43.833333333333336</ele><time>2026-05-01T09:05:57.629Z</time></trkpt><trkpt lat="42.3427734" lon="14.3080279"><ele>44.66666666666667</ele><time>2026-05-01T09:05:59.626Z</time></trkpt><trkpt lat="42.3427148" lon="14.3079671"><ele>45.5</ele><time>2026-05-01T09:06:01.628Z</time></trkpt><trkpt lat="42.3426509" lon="14.3079155"><ele>46.333333333333336</ele><time>2026-05-01T09:06:03.636Z</time></trkpt><trkpt lat="42.3425715" lon="14.3078625"><ele>47.166666666666664</ele><time>2026-05-01T09:06:05.634Z</time></trkpt><trkpt lat="42.3424878" lon="14.3078283"><ele>48.0</ele><time>2026-05-01T09:06:07.628Z</time></trkpt><trkpt lat="42.3423809" lon="14.3078233"><ele>48.0</ele><time>2026-05-01T09:06:09.63Z</time></trkpt><trkpt lat="42.3422408" lon="14.3078507"><ele>48.0</ele><time>2026-05-01T09:06:11.608Z</time></trkpt><trkpt lat="42.3420603" lon="14.3079266"><ele>48.0</ele><time>2026-05-01T09:06:13.612Z</time></trkpt><trkpt lat="42.3419132" lon="14.3080146"><ele>47.5</ele><time>2026-05-01T09:06:15.627Z</time></trkpt><trkpt lat="42.3418077" lon="14.3080865"><ele>47.0</ele><time>2026-05-01T09:06:17.635Z</time></trkpt><trkpt lat="42.3416846" lon="14.3081615"><ele>46.5</ele><time>2026-05-01T09:06:19.628Z</time></trkpt><trkpt lat="42.341513" lon="14.3082562"><ele>46.0</ele><time>2026-05-01T09:06:21.628Z</time></trkpt><trkpt lat="42.3413499" lon="14.3083367"><ele>45.333333333333336</ele><time>2026-05-01T09:06:23.62Z</time></trkpt><trkpt lat="42.3411464" lon="14.3084293"><ele>44.666666666666664</ele><time>2026-05-01T09:06:25.613Z</time></trkpt><trkpt lat="42.3409973" lon="14.308468"><ele>44.0</ele><time>2026-05-01T09:06:27.63Z</time></trkpt><trkpt lat="42.3408938" lon="14.3085009"><ele>44.0</ele><time>2026-05-01T09:06:29.628Z</time></trkpt><trkpt lat="42.3407835" lon="14.3085436"><ele>44.0</ele><time>2026-05-01T09:06:31.615Z</time></trkpt><trkpt lat="42.3406945" lon="14.3085763"><ele>44.0</ele><time>2026-05-01T09:06:33.612Z</time></trkpt><trkpt lat="42.3406082" lon="14.3086068"><ele>44.0</ele><time>2026-05-01T09:06:37.629Z</time></trkpt><trkpt lat="42.3405465" lon="14.3085727"><ele>44.0</ele><time>2026-05-01T09:08:13.639Z</time></trkpt><trkpt lat="42.3404645" lon="14.3085721"><ele>44.0</ele><time>2026-05-01T09:09:09.637Z</time></trkpt><trkpt lat="42.3404018" lon="14.3085401"><ele>44.400000000000006</ele><time>2026-05-01T09:09:47.65Z</time></trkpt><trkpt lat="42.3402996" lon="14.3085434"><ele>44.8</ele><time>2026-05-01T09:09:51.639Z</time></trkpt><trkpt lat="42.3402132" lon="14.3085669"><ele>45.2</ele><time>2026-05-01T09:09:53.644Z</time></trkpt><trkpt lat="42.3401167" lon="14.308571"><ele>45.599999999999994</ele><time>2026-05-01T09:09:57.64Z</time></trkpt><trkpt lat="42.3400505" lon="14.3085725"><ele>46.0</ele><time>2026-05-01T09:09:59.639Z</time></trkpt><trkpt lat="42.3399498" lon="14.3085902"><ele>46.0</ele><time>2026-05-01T09:10:01.643Z</time></trkpt><trkpt lat="42.339883" lon="14.3085721"><ele>46.0</ele><time>2026-05-01T09:10:03.64Z</time></trkpt><trkpt lat="42.3398169" lon="14.3085367"><ele>46.0</ele><time>2026-05-01T09:10:05.639Z</time></trkpt><trkpt lat="42.3397389" lon="14.3084959"><ele>46.0</ele><time>2026-05-01T09:10:07.635Z</time></trkpt><trkpt lat="42.3396497" lon="14.308451"><ele>46.0</ele><time>2026-05-01T09:10:09.639Z</time></trkpt><trkpt lat="42.3395319" lon="14.3083928"><ele>46.0</ele><time>2026-05-01T09:10:11.63Z</time></trkpt><trkpt lat="42.3394411" lon="14.3083291"><ele>45.8</ele><time>2026-05-01T09:10:13.631Z</time></trkpt><trkpt lat="42.3393805" lon="14.3082866"><ele>45.599999999999994</ele><time>2026-05-01T09:10:15.628Z</time></trkpt><trkpt lat="42.3393195" lon="14.3082484"><ele>45.4</ele><time>2026-05-01T09:10:17.64Z</time></trkpt><trkpt lat="42.3392495" lon="14.3081964"><ele>45.2</ele><time>2026-05-01T09:10:19.639Z</time></trkpt><trkpt lat="42.3391742" lon="14.3080647"><ele>45.0</ele><time>2026-05-01T09:10:23.64Z</time></trkpt><trkpt lat="42.3390871" lon="14.3079161"><ele>45.666666666666664</ele><time>2026-05-01T09:12:05.548Z</time></trkpt><trkpt lat="42.3389834" lon="14.3077593"><ele>46.33333333333333</ele><time>2026-05-01T09:12:07.547Z</time></trkpt><trkpt lat="42.3388774" lon="14.3075756"><ele>47.0</ele><time>2026-05-01T09:12:09.542Z</time></trkpt><trkpt lat="42.3387794" lon="14.3074223"><ele>47.0</ele><time>2026-05-01T09:12:11.539Z</time></trkpt><trkpt lat="42.3387249" lon="14.3073341"><ele>47.0</ele><time>2026-05-01T09:12:13.543Z</time></trkpt><trkpt lat="42.338599" lon="14.3072043"><ele>47.0</ele><time>2026-05-01T09:12:17.556Z</time></trkpt><trkpt lat="42.3385103" lon="14.3070982"><ele>47.0</ele><time>2026-05-01T09:12:19.542Z</time></trkpt><trkpt lat="42.3383914" lon="14.3069948"><ele>47.5</ele><time>2026-05-01T09:12:21.551Z</time></trkpt><trkpt lat="42.3382541" lon="14.3068815"><ele>48.0</ele><time>2026-05-01T09:12:23.544Z</time></trkpt><trkpt lat="42.3381309" lon="14.3067576"><ele>48.5</ele><time>2026-05-01T09:12:25.549Z</time></trkpt><trkpt lat="42.3380496" lon="14.3066677"><ele>49.0</ele><time>2026-05-01T09:12:27.553Z</time></trkpt><trkpt lat="42.3379596" lon="14.3066115"><ele>48.99999999999999</ele><time>2026-05-01T09:12:29.542Z</time></trkpt><trkpt lat="42.3378449" lon="14.306619"><ele>49.0</ele><time>2026-05-01T09:13:01.55Z</time></trkpt><trkpt lat="42.337765" lon="14.3066277"><ele>49.0</ele><time>2026-05-01T09:13:03.545Z</time></trkpt><trkpt lat="42.3376878" lon="14.3066531"><ele>49.0</ele><time>2026-05-01T09:13:05.551Z</time></trkpt><trkpt lat="42.3376073" lon="14.3066705"><ele>48.99999999999999</ele><time>2026-05-01T09:13:07.548Z</time></trkpt><trkpt lat="42.3375321" lon="14.3066835"><ele>49.0</ele><time>2026-05-01T09:13:09.546Z</time></trkpt><trkpt lat="42.337455" lon="14.3067029"><ele>49.0</ele><time>2026-05-01T09:13:11.553Z</time></trkpt><trkpt lat="42.337364" lon="14.3067162"><ele>49.0</ele><time>2026-05-01T09:13:13.544Z</time></trkpt><trkpt lat="42.3372433" lon="14.3067263"><ele>49.0</ele><time>2026-05-01T09:13:15.545Z</time></trkpt><trkpt lat="42.3371438" lon="14.3067213"><ele>49.0</ele><time>2026-05-01T09:13:17.544Z</time></trkpt><trkpt lat="42.3370678" lon="14.3067147"><ele>49.0</ele><time>2026-05-01T09:13:19.542Z</time></trkpt><trkpt lat="42.3369809" lon="14.3066682"><ele>49.5</ele><time>2026-05-01T09:13:21.557Z</time></trkpt><trkpt lat="42.3368428" lon="14.3066136"><ele>50.0</ele><time>2026-05-01T09:13:23.548Z</time></trkpt><trkpt lat="42.3367424" lon="14.3065944"><ele>50.5</ele><time>2026-05-01T09:13:25.548Z</time></trkpt><trkpt lat="42.3366367" lon="14.3065678"><ele>51.0</ele><time>2026-05-01T09:13:27.561Z</time></trkpt><trkpt lat="42.3365332" lon="14.3065492"><ele>51.0</ele><time>2026-05-01T09:13:29.546Z</time></trkpt><trkpt lat="42.3364442" lon="14.3065206"><ele>51.0</ele><time>2026-05-01T09:13:31.544Z</time></trkpt><trkpt lat="42.3363666" lon="14.3064994"><ele>51.0</ele><time>2026-05-01T09:13:33.543Z</time></trkpt><trkpt lat="42.3362779" lon="14.3064785"><ele>51.0</ele><time>2026-05-01T09:13:35.554Z</time></trkpt><trkpt lat="42.3362123" lon="14.3064354"><ele>51.0</ele><time>2026-05-01T09:13:37.561Z</time></trkpt><trkpt lat="42.3361573" lon="14.3063901"><ele>51.0</ele><time>2026-05-01T09:13:41.555Z</time></trkpt><trkpt lat="42.3360768" lon="14.306327"><ele>52.0</ele><time>2026-05-01T09:13:47.557Z</time></trkpt><trkpt lat="42.3360026" lon="14.3062399"><ele>53.0</ele><time>2026-05-01T09:13:51.56Z</time></trkpt><trkpt lat="42.3359" lon="14.3060969"><ele>53.99999999999999</ele><time>2026-05-01T09:13:55.551Z</time></trkpt><trkpt lat="42.335833" lon="14.3059961"><ele>55.0</ele><time>2026-05-01T09:13:57.555Z</time></trkpt><trkpt lat="42.3357758" lon="14.305894"><ele>56.0</ele><time>2026-05-01T09:13:59.543Z</time></trkpt><trkpt lat="42.3356527" lon="14.3058315"><ele>56.0</ele><time>2026-05-01T09:14:03.554Z</time></trkpt><trkpt lat="42.3355758" lon="14.3057577"><ele>56.0</ele><time>2026-05-01T09:14:21.559Z</time></trkpt><trkpt lat="42.3356342" lon="14.3055946"><ele>56.0</ele><time>2026-05-01T09:14:25.557Z</time></trkpt><trkpt lat="42.3357067" lon="14.3054225"><ele>56.0</ele><time>2026-05-01T09:14:27.577Z</time></trkpt><trkpt lat="42.3357825" lon="14.3052425"><ele>57.75</ele><time>2026-05-01T09:14:29.56Z</time></trkpt><trkpt lat="42.3358406" lon="14.3050869"><ele>59.5</ele><time>2026-05-01T09:14:31.557Z</time></trkpt><trkpt lat="42.3358584" lon="14.3049579"><ele>61.25</ele><time>2026-05-01T09:14:33.551Z</time></trkpt><trkpt lat="42.3358289" lon="14.3047744"><ele>63.0</ele><time>2026-05-01T09:14:35.551Z</time></trkpt><trkpt lat="42.3357503" lon="14.3045866"><ele>64.75</ele><time>2026-05-01T09:14:37.561Z</time></trkpt><trkpt lat="42.3356525" lon="14.3044274"><ele>66.5</ele><time>2026-05-01T09:14:39.55Z</time></trkpt><trkpt lat="42.3355278" lon="14.3042979"><ele>68.25</ele><time>2026-05-01T09:14:41.554Z</time></trkpt><trkpt lat="42.3354178" lon="14.304202"><ele>70.0</ele><time>2026-05-01T09:14:43.549Z</time></trkpt><trkpt lat="42.3353619" lon="14.304121"><ele>70.0</ele><time>2026-05-01T09:14:45.549Z</time></trkpt><trkpt lat="42.3353457" lon="14.303943"><ele>70.0</ele><time>2026-05-01T09:14:47.559Z</time></trkpt><trkpt lat="42.3352905" lon="14.3037978"><ele>70.0</ele><time>2026-05-01T09:14:49.55Z</time></trkpt><trkpt lat="42.3352282" lon="14.3037405"><ele>70.0</ele><time>2026-05-01T09:14:51.554Z</time></trkpt><trkpt lat="42.3352356" lon="14.3036184"><ele>70.0</ele><time>2026-05-01T09:14:55.561Z</time></trkpt><trkpt lat="42.3350626" lon="14.3035607"><ele>69.66666666666666</ele><time>2026-05-01T09:14:59.555Z</time></trkpt><trkpt lat="42.3348632" lon="14.3034928"><ele>69.33333333333333</ele><time>2026-05-01T09:15:01.554Z</time></trkpt><trkpt lat="42.3346905" lon="14.3033655"><ele>69.0</ele><time>2026-05-01T09:15:03.629Z</time></trkpt><trkpt lat="42.3345217" lon="14.3032137"><ele>70.8</ele><time>2026-05-01T09:15:05.63Z</time></trkpt><trkpt lat="42.3343982" lon="14.3030406"><ele>72.60000000000001</ele><time>2026-05-01T09:15:07.62Z</time></trkpt><trkpt lat="42.3343597" lon="14.3029533"><ele>74.4</ele><time>2026-05-01T09:15:09.609Z</time></trkpt><trkpt lat="42.3343154" lon="14.3028887"><ele>76.2</ele><time>2026-05-01T09:15:21.628Z</time></trkpt><trkpt lat="42.3342496" lon="14.3027419"><ele>78.0</ele><time>2026-05-01T09:15:23.629Z</time></trkpt><trkpt lat="42.3341504" lon="14.3025408"><ele>78.0</ele><time>2026-05-01T09:15:25.622Z</time></trkpt><trkpt lat="42.3340246" lon="14.3023702"><ele>78.0</ele><time>2026-05-01T09:15:27.622Z</time></trkpt><trkpt lat="42.3338906" lon="14.3021902"><ele>78.0</ele><time>2026-05-01T09:15:29.609Z</time></trkpt><trkpt lat="42.3337643" lon="14.3019869"><ele>75.66666666666667</ele><time>2026-05-01T09:15:31.628Z</time></trkpt><trkpt lat="42.3336381" lon="14.3017731"><ele>73.33333333333334</ele><time>2026-05-01T09:15:33.61Z</time></trkpt><trkpt lat="42.3334977" lon="14.3015776"><ele>71.0</ele><time>2026-05-01T09:15:35.611Z</time></trkpt><trkpt lat="42.3333525" lon="14.3015013"><ele>71.0</ele><time>2026-05-01T09:15:37.604Z</time></trkpt><trkpt lat="42.3332192" lon="14.3015686"><ele>71.0</ele><time>2026-05-01T09:15:39.598Z</time></trkpt><trkpt lat="42.3330471" lon="14.301689"><ele>71.0</ele><time>2026-05-01T09:15:41.62Z</time></trkpt><trkpt lat="42.3328716" lon="14.3017913"><ele>69.66666666666667</ele><time>2026-05-01T09:15:43.622Z</time></trkpt><trkpt lat="42.3326724" lon="14.3017809"><ele>68.33333333333333</ele><time>2026-05-01T09:15:45.606Z</time></trkpt><trkpt lat="42.3324531" lon="14.3016936"><ele>67.0</ele><time>2026-05-01T09:15:47.62Z</time></trkpt><trkpt lat="42.3322046" lon="14.3015899"><ele>62.5</ele><time>2026-05-01T09:15:49.634Z</time></trkpt><trkpt lat="42.3319584" lon="14.3014611"><ele>58.0</ele><time>2026-05-01T09:15:51.63Z</time></trkpt><trkpt lat="42.3317219" lon="14.3013349"><ele>61.5</ele><time>2026-05-01T09:15:53.632Z</time></trkpt><trkpt lat="42.3314918" lon="14.3012014"><ele>65.0</ele><time>2026-05-01T09:15:55.627Z</time></trkpt><trkpt lat="42.3312465" lon="14.301062"><ele>65.0</ele><time>2026-05-01T09:15:57.636Z</time></trkpt><trkpt lat="42.330995" lon="14.3008994"><ele>65.0</ele><time>2026-05-01T09:15:59.633Z</time></trkpt><trkpt lat="42.3307551" lon="14.3007311"><ele>64.5</ele><time>2026-05-01T09:16:01.627Z</time></trkpt><trkpt lat="42.3305198" lon="14.3005914"><ele>64.0</ele><time>2026-05-01T09:16:03.625Z</time></trkpt><trkpt lat="42.3302535" lon="14.3004983"><ele>64.0</ele><time>2026-05-01T09:16:05.612Z</time></trkpt><trkpt lat="42.3299644" lon="14.300431"><ele>64.0</ele><time>2026-05-01T09:16:07.626Z</time></trkpt><trkpt lat="42.3296647" lon="14.3003581"><ele>64.0</ele><time>2026-05-01T09:16:09.628Z</time></trkpt><trkpt lat="42.3293722" lon="14.3002787"><ele>64.0</ele><time>2026-05-01T09:16:11.627Z</time></trkpt><trkpt lat="42.3290895" lon="14.300203"><ele>63.0</ele><time>2026-05-01T09:16:13.636Z</time></trkpt><trkpt lat="42.3288068" lon="14.3001166"><ele>62.0</ele><time>2026-05-01T09:16:15.629Z</time></trkpt><trkpt lat="42.328546" lon="14.3000373"><ele>62.0</ele><time>2026-05-01T09:16:17.638Z</time></trkpt><trkpt lat="42.3282972" lon="14.2999302"><ele>62.0</ele><time>2026-05-01T09:16:19.628Z</time></trkpt><trkpt lat="42.3280326" lon="14.299787"><ele>64.5</ele><time>2026-05-01T09:16:21.62Z</time></trkpt><trkpt lat="42.3277397" lon="14.2996321"><ele>67.0</ele><time>2026-05-01T09:16:23.609Z</time></trkpt><trkpt lat="42.3274223" lon="14.2994476"><ele>66.0</ele><time>2026-05-01T09:16:25.625Z</time></trkpt><trkpt lat="42.327105" lon="14.2992666"><ele>65.0</ele><time>2026-05-01T09:16:27.542Z</time></trkpt><trkpt lat="42.3268247" lon="14.2991011"><ele>65.0</ele><time>2026-05-01T09:16:29.542Z</time></trkpt><trkpt lat="42.3265552" lon="14.2989203"><ele>65.0</ele><time>2026-05-01T09:16:31.541Z</time></trkpt><trkpt lat="42.3263108" lon="14.2987589"><ele>67.0</ele><time>2026-05-01T09:16:33.544Z</time></trkpt><trkpt lat="42.3261187" lon="14.2986054"><ele>69.0</ele><time>2026-05-01T09:16:35.538Z</time></trkpt><trkpt lat="42.3260159" lon="14.2984004"><ele>71.0</ele><time>2026-05-01T09:16:37.541Z</time></trkpt><trkpt lat="42.3259604" lon="14.2981548"><ele>75.0</ele><time>2026-05-01T09:16:39.534Z</time></trkpt><trkpt lat="42.325842" lon="14.2979666"><ele>79.0</ele><time>2026-05-01T09:16:41.538Z</time></trkpt><trkpt lat="42.3256743" lon="14.2979493"><ele>83.0</ele><time>2026-05-01T09:16:43.527Z</time></trkpt><trkpt lat="42.3254628" lon="14.2980438"><ele>79.5</ele><time>2026-05-01T09:16:45.532Z</time></trkpt><trkpt lat="42.3252274" lon="14.2981818"><ele>76.0</ele><time>2026-05-01T09:16:47.531Z</time></trkpt><trkpt lat="42.3249586" lon="14.2983355"><ele>76.0</ele><time>2026-05-01T09:16:49.535Z</time></trkpt><trkpt lat="42.3247392" lon="14.2984142"><ele>76.0</ele><time>2026-05-01T09:16:51.539Z</time></trkpt><trkpt lat="42.3245269" lon="14.2983333"><ele>76.0</ele><time>2026-05-01T09:16:53.54Z</time></trkpt><trkpt lat="42.3243309" lon="14.298168"><ele>82.0</ele><time>2026-05-01T09:16:55.535Z</time></trkpt><trkpt lat="42.3241018" lon="14.2979837"><ele>88.0</ele><time>2026-05-01T09:16:57.54Z</time></trkpt><trkpt lat="42.3238593" lon="14.2977423"><ele>88.0</ele><time>2026-05-01T09:16:59.539Z</time></trkpt><trkpt lat="42.3235896" lon="14.2975096"><ele>88.0</ele><time>2026-05-01T09:17:01.535Z</time></trkpt><trkpt lat="42.3233273" lon="14.2973578"><ele>95.5</ele><time>2026-05-01T09:17:03.544Z</time></trkpt><trkpt lat="42.3230628" lon="14.2972102"><ele>103.0</ele><time>2026-05-01T09:17:05.533Z</time></trkpt><trkpt lat="42.3228269" lon="14.2970903"><ele>103.0</ele><time>2026-05-01T09:17:07.536Z</time></trkpt><trkpt lat="42.3225654" lon="14.2969742"><ele>103.0</ele><time>2026-05-01T09:17:09.539Z</time></trkpt><trkpt lat="42.3222793" lon="14.2968729"><ele>101.5</ele><time>2026-05-01T09:17:11.539Z</time></trkpt><trkpt lat="42.3219943" lon="14.2967784"><ele>100.0</ele><time>2026-05-01T09:17:13.544Z</time></trkpt><trkpt lat="42.321745" lon="14.2966887"><ele>100.0</ele><time>2026-05-01T09:17:15.54Z</time></trkpt><trkpt lat="42.3215004" lon="14.2965513"><ele>100.0</ele><time>2026-05-01T09:17:17.538Z</time></trkpt><trkpt lat="42.3212892" lon="14.2963691"><ele>101.0</ele><time>2026-05-01T09:17:19.525Z</time></trkpt><trkpt lat="42.3211074" lon="14.2961138"><ele>102.0</ele><time>2026-05-01T09:17:21.537Z</time></trkpt><trkpt lat="42.320907" lon="14.2958686"><ele>102.0</ele><time>2026-05-01T09:17:23.534Z</time></trkpt><trkpt lat="42.3206247" lon="14.2957178"><ele>102.0</ele><time>2026-05-01T09:17:25.536Z</time></trkpt><trkpt lat="42.3203326" lon="14.2955866"><ele>106.0</ele><time>2026-05-01T09:17:27.539Z</time></trkpt><trkpt lat="42.32008" lon="14.2954664"><ele>110.0</ele><time>2026-05-01T09:17:29.537Z</time></trkpt><trkpt lat="42.3198797" lon="14.2953379"><ele>110.0</ele><time>2026-05-01T09:17:31.544Z</time></trkpt><trkpt lat="42.3197841" lon="14.2952096"><ele>110.0</ele><time>2026-05-01T09:17:33.542Z</time></trkpt><trkpt lat="42.3198186" lon="14.2950031"><ele>110.0</ele><time>2026-05-01T09:17:35.537Z</time></trkpt><trkpt lat="42.3198209" lon="14.2948013"><ele>110.0</ele><time>2026-05-01T09:17:37.534Z</time></trkpt><trkpt lat="42.3197512" lon="14.2947071"><ele>107.0</ele><time>2026-05-01T09:17:39.54Z</time></trkpt><trkpt lat="42.3196155" lon="14.2947879"><ele>104.0</ele><time>2026-05-01T09:17:41.543Z</time></trkpt><trkpt lat="42.3194782" lon="14.2949106"><ele>101.0</ele><time>2026-05-01T09:17:43.532Z</time></trkpt><trkpt lat="42.3193531" lon="14.2948316"><ele>104.0</ele><time>2026-05-01T09:17:45.536Z</time></trkpt><trkpt lat="42.3192133" lon="14.2946138"><ele>107.0</ele><time>2026-05-01T09:17:47.54Z</time></trkpt><trkpt lat="42.3190918" lon="14.2944044"><ele>110.0</ele><time>2026-05-01T09:17:49.536Z</time></trkpt><trkpt lat="42.3189554" lon="14.2942581"><ele>109.0</ele><time>2026-05-01T09:17:51.541Z</time></trkpt><trkpt lat="42.3188168" lon="14.2940305"><ele>108.0</ele><time>2026-05-01T09:17:53.535Z</time></trkpt><trkpt lat="42.3186817" lon="14.2937625"><ele>108.0</ele><time>2026-05-01T09:17:55.534Z</time></trkpt><trkpt lat="42.3185708" lon="14.2935187"><ele>108.0</ele><time>2026-05-01T09:17:57.54Z</time></trkpt><trkpt lat="42.3184627" lon="14.2932896"><ele>108.0</ele><time>2026-05-01T09:17:59.531Z</time></trkpt><trkpt lat="42.3182907" lon="14.2931248"><ele>109.0</ele><time>2026-05-01T09:18:01.531Z</time></trkpt><trkpt lat="42.3180491" lon="14.2930016"><ele>110.0</ele><time>2026-05-01T09:18:03.53Z</time></trkpt><trkpt lat="42.3177983" lon="14.2928617"><ele>110.0</ele><time>2026-05-01T09:18:05.536Z</time></trkpt><trkpt lat="42.3175918" lon="14.2927585"><ele>110.0</ele><time>2026-05-01T09:18:07.537Z</time></trkpt><trkpt lat="42.3174366" lon="14.2926621"><ele>110.0</ele><time>2026-05-01T09:18:09.539Z</time></trkpt><trkpt lat="42.3173124" lon="14.2925745"><ele>106.66666666666666</ele><time>2026-05-01T09:18:11.529Z</time></trkpt><trkpt lat="42.3171316" lon="14.2925505"><ele>103.33333333333334</ele><time>2026-05-01T09:18:13.533Z</time></trkpt><trkpt lat="42.3168932" lon="14.2926261"><ele>100.0</ele><time>2026-05-01T09:18:15.524Z</time></trkpt><trkpt lat="42.3166301" lon="14.2926369"><ele>95.5</ele><time>2026-05-01T09:18:17.536Z</time></trkpt><trkpt lat="42.3163903" lon="14.292592"><ele>91.0</ele><time>2026-05-01T09:18:19.54Z</time></trkpt><trkpt lat="42.3161747" lon="14.2924613"><ele>96.5</ele><time>2026-05-01T09:18:21.535Z</time></trkpt><trkpt lat="42.3159692" lon="14.2922552"><ele>102.0</ele><time>2026-05-01T09:18:23.538Z</time></trkpt><trkpt lat="42.3157571" lon="14.2920974"><ele>95.0</ele><time>2026-05-01T09:18:25.535Z</time></trkpt><trkpt lat="42.3155333" lon="14.2920192"><ele>88.0</ele><time>2026-05-01T09:18:27.543Z</time></trkpt><trkpt lat="42.3152868" lon="14.2919527"><ele>88.0</ele><time>2026-05-01T09:18:29.54Z</time></trkpt><trkpt lat="42.3150073" lon="14.2918974"><ele>88.0</ele><time>2026-05-01T09:18:31.543Z</time></trkpt><trkpt lat="42.3147263" lon="14.2918134"><ele>86.5</ele><time>2026-05-01T09:18:33.545Z</time></trkpt><trkpt lat="42.3144196" lon="14.2917551"><ele>85.0</ele><time>2026-05-01T09:18:35.545Z</time></trkpt><trkpt lat="42.3141476" lon="14.2917174"><ele>85.0</ele><time>2026-05-01T09:18:37.546Z</time></trkpt><trkpt lat="42.3139426" lon="14.2917012"><ele>85.0</ele><time>2026-05-01T09:18:39.624Z</time></trkpt><trkpt lat="42.3138542" lon="14.2916996"><ele>85.0</ele><time>2026-05-01T09:18:41.623Z</time></trkpt><trkpt lat="42.3137915" lon="14.2916858"><ele>85.0</ele><time>2026-05-01T09:18:43.621Z</time></trkpt><trkpt lat="42.3137222" lon="14.2917382"><ele>85.0</ele><time>2026-05-01T09:18:51.631Z</time></trkpt><trkpt lat="42.3135698" lon="14.2917902"><ele>85.5</ele><time>2026-05-01T09:19:09.55Z</time></trkpt><trkpt lat="42.3134017" lon="14.2917815"><ele>86.0</ele><time>2026-05-01T09:19:11.538Z</time></trkpt><trkpt lat="42.3132647" lon="14.2917658"><ele>86.5</ele><time>2026-05-01T09:19:13.537Z</time></trkpt><trkpt lat="42.3131323" lon="14.291785"><ele>87.0</ele><time>2026-05-01T09:19:15.545Z</time></trkpt><trkpt lat="42.3130445" lon="14.2918023"><ele>87.25</ele><time>2026-05-01T09:19:17.563Z</time></trkpt><trkpt lat="42.3129425" lon="14.291771"><ele>87.5</ele><time>2026-05-01T09:19:19.542Z</time></trkpt><trkpt lat="42.312863" lon="14.2916872"><ele>87.75</ele><time>2026-05-01T09:19:21.56Z</time></trkpt><trkpt lat="42.31283" lon="14.2915233"><ele>88.0</ele><time>2026-05-01T09:19:23.56Z</time></trkpt><trkpt lat="42.3128033" lon="14.2913342"><ele>89.5</ele><time>2026-05-01T09:19:25.559Z</time></trkpt><trkpt lat="42.3127498" lon="14.2911948"><ele>91.0</ele><time>2026-05-01T09:19:27.558Z</time></trkpt><trkpt lat="42.3126552" lon="14.2910841"><ele>92.5</ele><time>2026-05-01T09:19:29.563Z</time></trkpt><trkpt lat="42.3125564" lon="14.2910055"><ele>94.0</ele><time>2026-05-01T09:19:31.539Z</time></trkpt><trkpt lat="42.3124543" lon="14.2909855"><ele>94.0</ele><time>2026-05-01T09:19:33.533Z</time></trkpt><trkpt lat="42.3123378" lon="14.2910211"><ele>94.0</ele><time>2026-05-01T09:19:35.56Z</time></trkpt><trkpt lat="42.3121952" lon="14.2910899"><ele>94.0</ele><time>2026-05-01T09:19:37.559Z</time></trkpt><trkpt lat="42.3121072" lon="14.2911229"><ele>94.0</ele><time>2026-05-01T09:19:39.556Z</time></trkpt><trkpt lat="42.3120354" lon="14.2911959"><ele>94.16666666666666</ele><time>2026-05-01T09:19:45.537Z</time></trkpt><trkpt lat="42.3119558" lon="14.2912287"><ele>94.33333333333333</ele><time>2026-05-01T09:19:47.544Z</time></trkpt><trkpt lat="42.3118669" lon="14.2912422"><ele>94.5</ele><time>2026-05-01T09:19:49.541Z</time></trkpt><trkpt lat="42.3117659" lon="14.2912353"><ele>94.66666666666667</ele><time>2026-05-01T09:19:51.544Z</time></trkpt><trkpt lat="42.3116897" lon="14.2912191"><ele>94.83333333333334</ele><time>2026-05-01T09:19:53.54Z</time></trkpt><trkpt lat="42.3116277" lon="14.2912444"><ele>95.0</ele><time>2026-05-01T09:19:55.544Z</time></trkpt><trkpt lat="42.3115639" lon="14.2913159"><ele>95.0</ele><time>2026-05-01T09:19:57.541Z</time></trkpt><trkpt lat="42.3114385" lon="14.2913998"><ele>95.0</ele><time>2026-05-01T09:19:59.547Z</time></trkpt><trkpt lat="42.3112904" lon="14.2914459"><ele>95.0</ele><time>2026-05-01T09:20:01.536Z</time></trkpt><trkpt lat="42.3111314" lon="14.2913943"><ele>96.0</ele><time>2026-05-01T09:20:03.531Z</time></trkpt><trkpt lat="42.3109636" lon="14.2912112"><ele>97.0</ele><time>2026-05-01T09:20:05.529Z</time></trkpt><trkpt lat="42.3108364" lon="14.2909725"><ele>98.0</ele><time>2026-05-01T09:20:07.528Z</time></trkpt><trkpt lat="42.31066" lon="14.2908015"><ele>101.33333333333333</ele><time>2026-05-01T09:20:09.527Z</time></trkpt><trkpt lat="42.3104182" lon="14.2906981"><ele>104.66666666666666</ele><time>2026-05-01T09:20:11.531Z</time></trkpt><trkpt lat="42.3102283" lon="14.2906717"><ele>108.0</ele><time>2026-05-01T09:20:13.549Z</time></trkpt><trkpt lat="42.3100107" lon="14.2906865"><ele>108.0</ele><time>2026-05-01T09:20:15.522Z</time></trkpt><trkpt lat="42.3098467" lon="14.2906795"><ele>108.0</ele><time>2026-05-01T09:20:17.533Z</time></trkpt><trkpt lat="42.309717" lon="14.2906318"><ele>108.0</ele><time>2026-05-01T09:20:19.536Z</time></trkpt><trkpt lat="42.3096193" lon="14.2905665"><ele>108.0</ele><time>2026-05-01T09:20:21.538Z</time></trkpt><trkpt lat="42.3095408" lon="14.2906143"><ele>109.75</ele><time>2026-05-01T09:20:25.538Z</time></trkpt><trkpt lat="42.3094871" lon="14.2907136"><ele>111.5</ele><time>2026-05-01T09:20:27.548Z</time></trkpt><trkpt lat="42.3094119" lon="14.2908377"><ele>113.25</ele><time>2026-05-01T09:20:29.546Z</time></trkpt><trkpt lat="42.3093165" lon="14.2909557"><ele>115.0</ele><time>2026-05-01T09:20:31.537Z</time></trkpt><trkpt lat="42.3091914" lon="14.2910766"><ele>115.0</ele><time>2026-05-01T09:20:33.537Z</time></trkpt><trkpt lat="42.3090396" lon="14.2912012"><ele>115.0</ele><time>2026-05-01T09:20:35.539Z</time></trkpt><trkpt lat="42.3088694" lon="14.2912866"><ele>115.0</ele><time>2026-05-01T09:20:37.537Z</time></trkpt><trkpt lat="42.3087214" lon="14.2913199"><ele>114.33333333333334</ele><time>2026-05-01T09:20:39.538Z</time></trkpt><trkpt lat="42.3085988" lon="14.2913971"><ele>113.66666666666666</ele><time>2026-05-01T09:20:41.547Z</time></trkpt><trkpt lat="42.3084933" lon="14.2915088"><ele>113.0</ele><time>2026-05-01T09:20:43.564Z</time></trkpt><trkpt lat="42.3083408" lon="14.2916925"><ele>113.0</ele><time>2026-05-01T09:20:45.558Z</time></trkpt><trkpt lat="42.3081682" lon="14.2919134"><ele>113.0</ele><time>2026-05-01T09:20:47.559Z</time></trkpt><trkpt lat="42.3079914" lon="14.2920338"><ele>113.0</ele><time>2026-05-01T09:20:49.541Z</time></trkpt><trkpt lat="42.3077921" lon="14.2921036"><ele>112.66666666666666</ele><time>2026-05-01T09:20:51.546Z</time></trkpt><trkpt lat="42.307587" lon="14.2921772"><ele>112.33333333333334</ele><time>2026-05-01T09:20:53.544Z</time></trkpt><trkpt lat="42.307367" lon="14.2922842"><ele>112.0</ele><time>2026-05-01T09:20:55.539Z</time></trkpt><trkpt lat="42.307149" lon="14.2923532"><ele>113.0</ele><time>2026-05-01T09:20:57.534Z</time></trkpt><trkpt lat="42.3069143" lon="14.2923926"><ele>114.0</ele><time>2026-05-01T09:20:59.533Z</time></trkpt><trkpt lat="42.306704" lon="14.2924193"><ele>115.0</ele><time>2026-05-01T09:21:01.539Z</time></trkpt><trkpt lat="42.3064795" lon="14.292518"><ele>116.33333333333334</ele><time>2026-05-01T09:21:03.539Z</time></trkpt><trkpt lat="42.306277" lon="14.2926103"><ele>117.66666666666666</ele><time>2026-05-01T09:21:05.56Z</time></trkpt><trkpt lat="42.3060592" lon="14.2926175"><ele>119.0</ele><time>2026-05-01T09:21:07.538Z</time></trkpt><trkpt lat="42.3058154" lon="14.2925852"><ele>119.0</ele><time>2026-05-01T09:21:09.543Z</time></trkpt><trkpt lat="42.3055958" lon="14.2925558"><ele>119.0</ele><time>2026-05-01T09:21:11.54Z</time></trkpt><trkpt lat="42.305392" lon="14.2925355"><ele>119.0</ele><time>2026-05-01T09:21:13.538Z</time></trkpt><trkpt lat="42.3052129" lon="14.2925017"><ele>119.5</ele><time>2026-05-01T09:21:15.543Z</time></trkpt><trkpt lat="42.3050635" lon="14.2924786"><ele>120.0</ele><time>2026-05-01T09:21:17.546Z</time></trkpt><trkpt lat="42.3049269" lon="14.2925026"><ele>120.5</ele><time>2026-05-01T09:21:19.539Z</time></trkpt><trkpt lat="42.3048206" lon="14.292596"><ele>121.0</ele><time>2026-05-01T09:21:21.534Z</time></trkpt><trkpt lat="42.304688" lon="14.292732"><ele>121.0</ele><time>2026-05-01T09:21:23.527Z</time></trkpt><trkpt lat="42.304493" lon="14.2928786"><ele>121.0</ele><time>2026-05-01T09:21:25.53Z</time></trkpt><trkpt lat="42.3042929" lon="14.2929625"><ele>121.0</ele><time>2026-05-01T09:21:27.644Z</time></trkpt><trkpt lat="42.3041072" lon="14.2930158"><ele>118.5</ele><time>2026-05-01T09:21:29.623Z</time></trkpt><trkpt lat="42.3038943" lon="14.2930446"><ele>116.0</ele><time>2026-05-01T09:21:31.644Z</time></trkpt><trkpt lat="42.3036564" lon="14.2930412"><ele>116.0</ele><time>2026-05-01T09:21:33.651Z</time></trkpt><trkpt lat="42.3034273" lon="14.2930221"><ele>116.0</ele><time>2026-05-01T09:21:35.632Z</time></trkpt><trkpt lat="42.303193" lon="14.2929948"><ele>116.0</ele><time>2026-05-01T09:21:37.652Z</time></trkpt><trkpt lat="42.3029552" lon="14.2929508"><ele>116.0</ele><time>2026-05-01T09:21:39.65Z</time></trkpt><trkpt lat="42.3027064" lon="14.2929057"><ele>116.0</ele><time>2026-05-01T09:21:41.63Z</time></trkpt><trkpt lat="42.30244" lon="14.2928744"><ele>116.0</ele><time>2026-05-01T09:21:43.567Z</time></trkpt><trkpt lat="42.3021617" lon="14.2928171"><ele>116.5</ele><time>2026-05-01T09:21:45.544Z</time></trkpt><trkpt lat="42.3018719" lon="14.292784"><ele>117.0</ele><time>2026-05-01T09:21:47.536Z</time></trkpt><trkpt lat="42.3016295" lon="14.2927535"><ele>118.5</ele><time>2026-05-01T09:21:49.543Z</time></trkpt><trkpt lat="42.3013338" lon="14.2926855"><ele>120.0</ele><time>2026-05-01T09:21:51.54Z</time></trkpt><trkpt lat="42.301044" lon="14.2926216"><ele>120.0</ele><time>2026-05-01T09:21:53.54Z</time></trkpt><trkpt lat="42.3008194" lon="14.2925557"><ele>120.0</ele><time>2026-05-01T09:21:55.56Z</time></trkpt><trkpt lat="42.3005689" lon="14.2925504"><ele>120.33333333333334</ele><time>2026-05-01T09:21:57.563Z</time></trkpt><trkpt lat="42.3003508" lon="14.2925461"><ele>120.66666666666667</ele><time>2026-05-01T09:21:59.534Z</time></trkpt><trkpt lat="42.3001656" lon="14.2924511"><ele>121.0</ele><time>2026-05-01T09:22:01.561Z</time></trkpt><trkpt lat="42.3000032" lon="14.2922788"><ele>123.75</ele><time>2026-05-01T09:22:03.558Z</time></trkpt><trkpt lat="42.2998952" lon="14.292164"><ele>126.5</ele><time>2026-05-01T09:22:05.541Z</time></trkpt><trkpt lat="42.2998267" lon="14.2920902"><ele>129.25</ele><time>2026-05-01T09:22:07.564Z</time></trkpt><trkpt lat="42.2997043" lon="14.2921187"><ele>132.0</ele><time>2026-05-01T09:22:15.543Z</time></trkpt><trkpt lat="42.2995738" lon="14.29215"><ele>132.33333333333334</ele><time>2026-05-01T09:22:17.543Z</time></trkpt><trkpt lat="42.2993989" lon="14.2921771"><ele>132.66666666666669</ele><time>2026-05-01T09:22:19.535Z</time></trkpt><trkpt lat="42.2991929" lon="14.2921499"><ele>133.0</ele><time>2026-05-01T09:22:21.538Z</time></trkpt><trkpt lat="42.2989678" lon="14.2921209"><ele>133.5</ele><time>2026-05-01T09:22:23.539Z</time></trkpt><trkpt lat="42.2987298" lon="14.2921341"><ele>134.0</ele><time>2026-05-01T09:22:25.538Z</time></trkpt><trkpt lat="42.2985127" lon="14.2921484"><ele>134.0</ele><time>2026-05-01T09:22:27.535Z</time></trkpt><trkpt lat="42.2982983" lon="14.2921753"><ele>134.0</ele><time>2026-05-01T09:22:29.533Z</time></trkpt><trkpt lat="42.2981205" lon="14.2921785"><ele>134.0</ele><time>2026-05-01T09:22:31.532Z</time></trkpt><trkpt lat="42.2979951" lon="14.2922023"><ele>130.5</ele><time>2026-05-01T09:22:33.532Z</time></trkpt><trkpt lat="42.2979316" lon="14.2923317"><ele>127.0</ele><time>2026-05-01T09:22:35.53Z</time></trkpt><trkpt lat="42.2979256" lon="14.2925103"><ele>123.5</ele><time>2026-05-01T09:22:37.533Z</time></trkpt><trkpt lat="42.2979187" lon="14.2927306"><ele>120.0</ele><time>2026-05-01T09:22:39.541Z</time></trkpt><trkpt lat="42.2979151" lon="14.2929112"><ele>120.0</ele><time>2026-05-01T09:22:41.545Z</time></trkpt><trkpt lat="42.2979118" lon="14.2930235"><ele>120.0</ele><time>2026-05-01T09:22:47.571Z</time></trkpt><trkpt lat="42.2978127" lon="14.2930107"><ele>120.0</ele><time>2026-05-01T09:22:51.555Z</time></trkpt><trkpt lat="42.2977426" lon="14.292911"><ele>120.0</ele><time>2026-05-01T09:22:53.576Z</time></trkpt><trkpt lat="42.2976476" lon="14.2927911"><ele>120.0</ele><time>2026-05-01T09:22:55.553Z</time></trkpt><trkpt lat="42.2975317" lon="14.2926707"><ele>120.0</ele><time>2026-05-01T09:22:57.542Z</time></trkpt><trkpt lat="42.297398" lon="14.2925493"><ele>120.0</ele><time>2026-05-01T09:22:59.547Z</time></trkpt><trkpt lat="42.2972408" lon="14.2924017"><ele>120.0</ele><time>2026-05-01T09:23:01.544Z</time></trkpt><trkpt lat="42.2971121" lon="14.2922868"><ele>125.0</ele><time>2026-05-01T09:23:03.544Z</time></trkpt><trkpt lat="42.2970097" lon="14.2921839"><ele>130.0</ele><time>2026-05-01T09:23:05.543Z</time></trkpt><trkpt lat="42.2968531" lon="14.2920332"><ele>135.0</ele><time>2026-05-01T09:23:07.54Z</time></trkpt><trkpt lat="42.2966808" lon="14.2918947"><ele>135.0</ele><time>2026-05-01T09:23:09.54Z</time></trkpt><trkpt lat="42.2965203" lon="14.2917956"><ele>135.0</ele><time>2026-05-01T09:23:11.541Z</time></trkpt><trkpt lat="42.2963921" lon="14.2917088"><ele>135.0</ele><time>2026-05-01T09:23:13.542Z</time></trkpt><trkpt lat="42.2962955" lon="14.2916535"><ele>135.0</ele><time>2026-05-01T09:23:15.538Z</time></trkpt><trkpt lat="42.2962325" lon="14.2916139"><ele>134.5</ele><time>2026-05-01T09:23:17.533Z</time></trkpt><trkpt lat="42.296218" lon="14.2915096"><ele>134.0</ele><time>2026-05-01T09:23:27.57Z</time></trkpt><trkpt lat="42.2962577" lon="14.2913772"><ele>133.5</ele><time>2026-05-01T09:23:29.572Z</time></trkpt><trkpt lat="42.2963282" lon="14.2911808"><ele>133.0</ele><time>2026-05-01T09:23:31.567Z</time></trkpt><trkpt lat="42.2963766" lon="14.2909905"><ele>139.33333333333334</ele><time>2026-05-01T09:23:33.537Z</time></trkpt><trkpt lat="42.2964443" lon="14.2907713"><ele>145.66666666666666</ele><time>2026-05-01T09:23:35.546Z</time></trkpt><trkpt lat="42.2965455" lon="14.2905352"><ele>152.0</ele><time>2026-05-01T09:23:37.639Z</time></trkpt><trkpt lat="42.2967168" lon="14.2902297"><ele>155.66666666666666</ele><time>2026-05-01T09:23:39.599Z</time></trkpt><trkpt lat="42.2968342" lon="14.289919"><ele>159.33333333333334</ele><time>2026-05-01T09:23:41.604Z</time></trkpt><trkpt lat="42.2969122" lon="14.2897225"><ele>163.0</ele><time>2026-05-01T09:23:45.532Z</time></trkpt><trkpt lat="42.2970121" lon="14.2895625"><ele>166.25</ele><time>2026-05-01T09:23:47.528Z</time></trkpt><trkpt lat="42.2971094" lon="14.2893913"><ele>169.5</ele><time>2026-05-01T09:23:49.531Z</time></trkpt><trkpt lat="42.2971883" lon="14.2892029"><ele>172.75</ele><time>2026-05-01T09:23:51.527Z</time></trkpt><trkpt lat="42.2972211" lon="14.2891108"><ele>176.0</ele><time>2026-05-01T09:23:53.526Z</time></trkpt><trkpt lat="42.2973224" lon="14.2890549"><ele>177.60000000000002</ele><time>2026-05-01T09:24:11.542Z</time></trkpt><trkpt lat="42.2974215" lon="14.2890934"><ele>179.2</ele><time>2026-05-01T09:24:13.549Z</time></trkpt><trkpt lat="42.2974952" lon="14.2891235"><ele>180.8</ele><time>2026-05-01T09:24:17.547Z</time></trkpt><trkpt lat="42.2974736" lon="14.2890296"><ele>182.39999999999998</ele><time>2026-05-01T09:24:19.551Z</time></trkpt><trkpt lat="42.2973314" lon="14.2889706"><ele>184.0</ele><time>2026-05-01T09:24:21.55Z</time></trkpt><trkpt lat="42.2971932" lon="14.2888822"><ele>185.25</ele><time>2026-05-01T09:24:23.539Z</time></trkpt><trkpt lat="42.29704" lon="14.2887985"><ele>186.5</ele><time>2026-05-01T09:24:25.534Z</time></trkpt><trkpt lat="42.296883" lon="14.2887524"><ele>187.75</ele><time>2026-05-01T09:24:27.527Z</time></trkpt><trkpt lat="42.296796" lon="14.2887454"><ele>189.0</ele><time>2026-05-01T09:24:29.536Z</time></trkpt><trkpt lat="42.2967333" lon="14.2887221"><ele>189.0</ele><time>2026-05-01T09:24:31.532Z</time></trkpt><trkpt lat="42.2966527" lon="14.2886996"><ele>189.0</ele><time>2026-05-01T09:24:33.551Z</time></trkpt><trkpt lat="42.2965574" lon="14.2886672"><ele>189.0</ele><time>2026-05-01T09:24:35.546Z</time></trkpt><trkpt lat="42.2964721" lon="14.2886419"><ele>189.0</ele><time>2026-05-01T09:24:37.55Z</time></trkpt><trkpt lat="42.2963753" lon="14.2886311"><ele>189.0</ele><time>2026-05-01T09:24:39.543Z</time></trkpt><trkpt lat="42.2962383" lon="14.2886155"><ele>184.25</ele><time>2026-05-01T09:24:41.542Z</time></trkpt><trkpt lat="42.2961185" lon="14.288599"><ele>179.5</ele><time>2026-05-01T09:24:43.537Z</time></trkpt><trkpt lat="42.2960198" lon="14.2885264"><ele>174.75</ele><time>2026-05-01T09:24:45.536Z</time></trkpt><trkpt lat="42.2958907" lon="14.2884091"><ele>170.0</ele><time>2026-05-01T09:24:47.532Z</time></trkpt><trkpt lat="42.2957686" lon="14.2882301"><ele>173.66666666666666</ele><time>2026-05-01T09:24:49.531Z</time></trkpt><trkpt lat="42.2956708" lon="14.2880022"><ele>177.33333333333334</ele><time>2026-05-01T09:24:51.529Z</time></trkpt><trkpt lat="42.2955882" lon="14.2878231"><ele>181.0</ele><time>2026-05-01T09:24:53.532Z</time></trkpt><trkpt lat="42.2954675" lon="14.2877331"><ele>172.0</ele><time>2026-05-01T09:24:55.525Z</time></trkpt><trkpt lat="42.29534" lon="14.2876696"><ele>163.0</ele><time>2026-05-01T09:24:57.524Z</time></trkpt><trkpt lat="42.2952364" lon="14.2875305"><ele>154.0</ele><time>2026-05-01T09:24:59.531Z</time></trkpt><trkpt lat="42.2951126" lon="14.2873659"><ele>157.33333333333334</ele><time>2026-05-01T09:25:01.534Z</time></trkpt><trkpt lat="42.2949812" lon="14.287211"><ele>160.66666666666666</ele><time>2026-05-01T09:25:03.53Z</time></trkpt><trkpt lat="42.2948768" lon="14.2870132"><ele>164.0</ele><time>2026-05-01T09:25:05.554Z</time></trkpt><trkpt lat="42.2947961" lon="14.2867716"><ele>159.0</ele><time>2026-05-01T09:25:07.531Z</time></trkpt><trkpt lat="42.2947123" lon="14.2865361"><ele>154.0</ele><time>2026-05-01T09:25:09.53Z</time></trkpt><trkpt lat="42.2945967" lon="14.2863272"><ele>149.0</ele><time>2026-05-01T09:25:11.533Z</time></trkpt><trkpt lat="42.2944941" lon="14.2861469"><ele>149.0</ele><time>2026-05-01T09:25:13.534Z</time></trkpt><trkpt lat="42.2943678" lon="14.2860203"><ele>149.0</ele><time>2026-05-01T09:25:15.528Z</time></trkpt><trkpt lat="42.294231" lon="14.2859011"><ele>149.0</ele><time>2026-05-01T09:25:17.53Z</time></trkpt><trkpt lat="42.2940892" lon="14.285798"><ele>149.0</ele><time>2026-05-01T09:25:19.524Z</time></trkpt><trkpt lat="42.2939912" lon="14.2857264"><ele>149.0</ele><time>2026-05-01T09:25:21.531Z</time></trkpt><trkpt lat="42.2938981" lon="14.2856661"><ele>149.0</ele><time>2026-05-01T09:25:23.533Z</time></trkpt><trkpt lat="42.2937654" lon="14.2855656"><ele>149.0</ele><time>2026-05-01T09:25:25.53Z</time></trkpt><trkpt lat="42.2936456" lon="14.2854603"><ele>147.5</ele><time>2026-05-01T09:25:27.527Z</time></trkpt><trkpt lat="42.2935327" lon="14.2853442"><ele>146.0</ele><time>2026-05-01T09:25:29.524Z</time></trkpt><trkpt lat="42.2934211" lon="14.285227"><ele>144.5</ele><time>2026-05-01T09:25:31.528Z</time></trkpt><trkpt lat="42.2933389" lon="14.285132"><ele>143.0</ele><time>2026-05-01T09:25:33.525Z</time></trkpt><trkpt lat="42.2932462" lon="14.2850311"><ele>143.0</ele><time>2026-05-01T09:25:35.527Z</time></trkpt><trkpt lat="42.2931119" lon="14.2849247"><ele>143.0</ele><time>2026-05-01T09:25:37.525Z</time></trkpt><trkpt lat="42.2929209" lon="14.2848259"><ele>143.0</ele><time>2026-05-01T09:25:39.524Z</time></trkpt><trkpt lat="42.2927652" lon="14.2847143"><ele>140.33333333333331</ele><time>2026-05-01T09:25:41.53Z</time></trkpt><trkpt lat="42.2926319" lon="14.2846034"><ele>137.66666666666666</ele><time>2026-05-01T09:25:43.525Z</time></trkpt><trkpt lat="42.2924903" lon="14.2844448"><ele>135.0</ele><time>2026-05-01T09:25:45.528Z</time></trkpt><trkpt lat="42.2923549" lon="14.2842789"><ele>134.33333333333334</ele><time>2026-05-01T09:25:47.527Z</time></trkpt><trkpt lat="42.2922351" lon="14.2841042"><ele>133.66666666666669</ele><time>2026-05-01T09:25:49.523Z</time></trkpt><trkpt lat="42.2921192" lon="14.2839171"><ele>133.0</ele><time>2026-05-01T09:25:51.534Z</time></trkpt><trkpt lat="42.2920137" lon="14.28375"><ele>137.33333333333334</ele><time>2026-05-01T09:25:53.541Z</time></trkpt><trkpt lat="42.2918536" lon="14.2836224"><ele>141.66666666666666</ele><time>2026-05-01T09:25:55.542Z</time></trkpt><trkpt lat="42.2916892" lon="14.2834721"><ele>146.0</ele><time>2026-05-01T09:25:57.615Z</time></trkpt><trkpt lat="42.2915061" lon="14.2833"><ele>144.66666666666666</ele><time>2026-05-01T09:25:59.615Z</time></trkpt><trkpt lat="42.2913211" lon="14.2831322"><ele>143.33333333333334</ele><time>2026-05-01T09:26:01.613Z</time></trkpt><trkpt lat="42.2911927" lon="14.2829237"><ele>142.0</ele><time>2026-05-01T09:26:03.594Z</time></trkpt><trkpt lat="42.2911387" lon="14.282691"><ele>144.66666666666669</ele><time>2026-05-01T09:26:05.598Z</time></trkpt><trkpt lat="42.291138" lon="14.2824536"><ele>147.33333333333334</ele><time>2026-05-01T09:26:07.608Z</time></trkpt><trkpt lat="42.2910645" lon="14.2822302"><ele>150.0</ele><time>2026-05-01T09:26:09.599Z</time></trkpt><trkpt lat="42.2909585" lon="14.2820408"><ele>155.33333333333334</ele><time>2026-05-01T09:26:11.6Z</time></trkpt><trkpt lat="42.2908558" lon="14.2818448"><ele>160.66666666666669</ele><time>2026-05-01T09:26:13.527Z</time></trkpt><trkpt lat="42.2908031" lon="14.2816553"><ele>166.0</ele><time>2026-05-01T09:26:15.523Z</time></trkpt><trkpt lat="42.2907938" lon="14.2814433"><ele>170.33333333333334</ele><time>2026-05-01T09:26:17.524Z</time></trkpt><trkpt lat="42.2908129" lon="14.2812076"><ele>174.66666666666666</ele><time>2026-05-01T09:26:19.524Z</time></trkpt><trkpt lat="42.2908247" lon="14.280932"><ele>179.0</ele><time>2026-05-01T09:26:21.527Z</time></trkpt><trkpt lat="42.2908112" lon="14.2806149"><ele>177.33333333333331</ele><time>2026-05-01T09:26:23.527Z</time></trkpt><trkpt lat="42.2907689" lon="14.280347"><ele>175.66666666666666</ele><time>2026-05-01T09:26:25.521Z</time></trkpt><trkpt lat="42.2906823" lon="14.2801665"><ele>174.0</ele><time>2026-05-01T09:26:27.531Z</time></trkpt><trkpt lat="42.2905723" lon="14.2799616"><ele>180.33333333333331</ele><time>2026-05-01T09:26:29.531Z</time></trkpt><trkpt lat="42.2904867" lon="14.2797236"><ele>186.66666666666666</ele><time>2026-05-01T09:26:31.533Z</time></trkpt><trkpt lat="42.2904383" lon="14.2794632"><ele>193.0</ele><time>2026-05-01T09:26:33.522Z</time></trkpt><trkpt lat="42.2904002" lon="14.2792743"><ele>193.0</ele><time>2026-05-01T09:26:35.521Z</time></trkpt><trkpt lat="42.2903056" lon="14.2791286"><ele>193.0</ele><time>2026-05-01T09:26:37.52Z</time></trkpt><trkpt lat="42.2901289" lon="14.2790068"><ele>193.0</ele><time>2026-05-01T09:26:39.525Z</time></trkpt><trkpt lat="42.2899626" lon="14.2788771"><ele>195.66666666666666</ele><time>2026-05-01T09:26:41.517Z</time></trkpt><trkpt lat="42.2898636" lon="14.2786443"><ele>198.33333333333331</ele><time>2026-05-01T09:26:43.522Z</time></trkpt><trkpt lat="42.2898014" lon="14.2783311"><ele>201.0</ele><time>2026-05-01T09:26:45.527Z</time></trkpt><trkpt lat="42.2897604" lon="14.2779915"><ele>200.5</ele><time>2026-05-01T09:26:47.53Z</time></trkpt><trkpt lat="42.2897063" lon="14.2777517"><ele>200.0</ele><time>2026-05-01T09:26:49.52Z</time></trkpt><trkpt lat="42.2896553" lon="14.2776153"><ele>199.5</ele><time>2026-05-01T09:26:51.516Z</time></trkpt><trkpt lat="42.2895757" lon="14.2775601"><ele>199.0</ele><time>2026-05-01T09:27:03.537Z</time></trkpt><trkpt lat="42.2896077" lon="14.277658"><ele>199.0</ele><time>2026-05-01T09:27:07.533Z</time></trkpt><trkpt lat="42.2896419" lon="14.2775725"><ele>199.0</ele><time>2026-05-01T09:27:19.526Z</time></trkpt><trkpt lat="42.2896374" lon="14.277455"><ele>199.0</ele><time>2026-05-01T09:27:21.537Z</time></trkpt><trkpt lat="42.2896021" lon="14.2772486"><ele>199.0</ele><time>2026-05-01T09:27:23.542Z</time></trkpt><trkpt lat="42.2895607" lon="14.2770077"><ele>202.0</ele><time>2026-05-01T09:27:25.534Z</time></trkpt><trkpt lat="42.2895614" lon="14.2767609"><ele>205.0</ele><time>2026-05-01T09:27:27.534Z</time></trkpt><trkpt lat="42.2895426" lon="14.2764949"><ele>208.0</ele><time>2026-05-01T09:27:29.535Z</time></trkpt><trkpt lat="42.2894945" lon="14.2762479"><ele>209.5</ele><time>2026-05-01T09:27:31.523Z</time></trkpt><trkpt lat="42.2894733" lon="14.2760368"><ele>211.0</ele><time>2026-05-01T09:27:33.526Z</time></trkpt><trkpt lat="42.2894743" lon="14.2759008"><ele>212.5</ele><time>2026-05-01T09:27:35.526Z</time></trkpt><trkpt lat="42.2893793" lon="14.2758662"><ele>214.0</ele><time>2026-05-01T09:27:37.532Z</time></trkpt><trkpt lat="42.2892213" lon="14.2759033"><ele>214.0</ele><time>2026-05-01T09:27:39.527Z</time></trkpt><trkpt lat="42.2890735" lon="14.2758927"><ele>213.99999999999997</ele><time>2026-05-01T09:27:41.527Z</time></trkpt><trkpt lat="42.2889704" lon="14.2759035"><ele>213.99999999999997</ele><time>2026-05-01T09:27:43.526Z</time></trkpt><trkpt lat="42.2889053" lon="14.2758289"><ele>214.0</ele><time>2026-05-01T09:28:03.538Z</time></trkpt><trkpt lat="42.2888504" lon="14.2757749"><ele>214.0</ele><time>2026-05-01T09:28:07.549Z</time></trkpt><trkpt lat="42.2887147" lon="14.2757273"><ele>214.66666666666666</ele><time>2026-05-01T09:29:09.546Z</time></trkpt><trkpt lat="42.2885537" lon="14.2756281"><ele>215.33333333333331</ele><time>2026-05-01T09:29:11.544Z</time></trkpt><trkpt lat="42.2884357" lon="14.2754955"><ele>216.0</ele><time>2026-05-01T09:29:13.542Z</time></trkpt><trkpt lat="42.28833" lon="14.2754097"><ele>216.0</ele><time>2026-05-01T09:29:15.54Z</time></trkpt><trkpt lat="42.2882186" lon="14.2753967"><ele>216.0</ele><time>2026-05-01T09:29:17.546Z</time></trkpt><trkpt lat="42.2881016" lon="14.2754303"><ele>216.0</ele><time>2026-05-01T09:29:19.543Z</time></trkpt><trkpt lat="42.2879758" lon="14.2754583"><ele>216.0</ele><time>2026-05-01T09:29:21.547Z</time></trkpt><trkpt lat="42.2878608" lon="14.275493"><ele>213.0</ele><time>2026-05-01T09:29:23.552Z</time></trkpt><trkpt lat="42.2877231" lon="14.2755175"><ele>210.0</ele><time>2026-05-01T09:29:25.55Z</time></trkpt><trkpt lat="42.2876055" lon="14.275491"><ele>207.0</ele><time>2026-05-01T09:29:27.545Z</time></trkpt><trkpt lat="42.2875249" lon="14.2753896"><ele>204.0</ele><time>2026-05-01T09:29:29.545Z</time></trkpt><trkpt lat="42.2874471" lon="14.2752586"><ele>204.0</ele><time>2026-05-01T09:29:31.535Z</time></trkpt><trkpt lat="42.2873743" lon="14.2750451"><ele>204.0</ele><time>2026-05-01T09:29:33.534Z</time></trkpt><trkpt lat="42.2872966" lon="14.2748088"><ele>204.0</ele><time>2026-05-01T09:29:35.538Z</time></trkpt><trkpt lat="42.2872396" lon="14.2746597"><ele>204.25</ele><time>2026-05-01T09:29:37.537Z</time></trkpt><trkpt lat="42.2871657" lon="14.2746212"><ele>204.5</ele><time>2026-05-01T09:29:39.533Z</time></trkpt><trkpt lat="42.2870507" lon="14.27467"><ele>204.75</ele><time>2026-05-01T09:29:41.538Z</time></trkpt><trkpt lat="42.2869058" lon="14.2747311"><ele>205.0</ele><time>2026-05-01T09:29:43.544Z</time></trkpt><trkpt lat="42.2867658" lon="14.2747668"><ele>204.2</ele><time>2026-05-01T09:29:45.537Z</time></trkpt><trkpt lat="42.2866519" lon="14.2748082"><ele>203.4</ele><time>2026-05-01T09:29:47.543Z</time></trkpt><trkpt lat="42.2865636" lon="14.2748344"><ele>202.60000000000002</ele><time>2026-05-01T09:29:49.539Z</time></trkpt><trkpt lat="42.2864758" lon="14.2748248"><ele>201.8</ele><time>2026-05-01T09:29:51.538Z</time></trkpt><trkpt lat="42.2863923" lon="14.2747556"><ele>201.0</ele><time>2026-05-01T09:29:53.546Z</time></trkpt><trkpt lat="42.2862797" lon="14.2746305"><ele>201.0</ele><time>2026-05-01T09:29:55.54Z</time></trkpt><trkpt lat="42.2861826" lon="14.2744956"><ele>201.0</ele><time>2026-05-01T09:29:57.532Z</time></trkpt><trkpt lat="42.2860971" lon="14.2743293"><ele>201.0</ele><time>2026-05-01T09:29:59.544Z</time></trkpt><trkpt lat="42.2860476" lon="14.274154"><ele>201.0</ele><time>2026-05-01T09:30:01.54Z</time></trkpt><trkpt lat="42.2860849" lon="14.2739493"><ele>204.25</ele><time>2026-05-01T09:30:03.543Z</time></trkpt><trkpt lat="42.2861584" lon="14.2737654"><ele>207.5</ele><time>2026-05-01T09:30:05.544Z</time></trkpt><trkpt lat="42.286186" lon="14.2736235"><ele>210.75</ele><time>2026-05-01T09:30:07.537Z</time></trkpt><trkpt lat="42.2861622" lon="14.2734523"><ele>214.0</ele><time>2026-05-01T09:30:09.546Z</time></trkpt><trkpt lat="42.2860963" lon="14.2733092"><ele>214.0</ele><time>2026-05-01T09:30:11.537Z</time></trkpt><trkpt lat="42.2859538" lon="14.2731323"><ele>214.0</ele><time>2026-05-01T09:30:13.543Z</time></trkpt><trkpt lat="42.2858126" lon="14.2729574"><ele>214.0</ele><time>2026-05-01T09:30:15.538Z</time></trkpt><trkpt lat="42.2856845" lon="14.2727902"><ele>213.0</ele><time>2026-05-01T09:30:17.542Z</time></trkpt><trkpt lat="42.2855473" lon="14.2726286"><ele>212.0</ele><time>2026-05-01T09:30:19.545Z</time></trkpt><trkpt lat="42.2854363" lon="14.2724653"><ele>211.0</ele><time>2026-05-01T09:30:21.547Z</time></trkpt><trkpt lat="42.2853809" lon="14.2722534"><ele>215.0</ele><time>2026-05-01T09:30:23.549Z</time></trkpt><trkpt lat="42.2853347" lon="14.2720005"><ele>219.0</ele><time>2026-05-01T09:30:25.535Z</time></trkpt><trkpt lat="42.2853109" lon="14.2717349"><ele>223.0</ele><time>2026-05-01T09:30:27.527Z</time></trkpt><trkpt lat="42.2853172" lon="14.2714863"><ele>226.66666666666666</ele><time>2026-05-01T09:30:29.537Z</time></trkpt><trkpt lat="42.2853227" lon="14.2712215"><ele>230.33333333333331</ele><time>2026-05-01T09:30:31.535Z</time></trkpt><trkpt lat="42.2853127" lon="14.2709556"><ele>234.0</ele><time>2026-05-01T09:30:33.524Z</time></trkpt><trkpt lat="42.2853215" lon="14.2707086"><ele>237.0</ele><time>2026-05-01T09:30:35.535Z</time></trkpt><trkpt lat="42.2853405" lon="14.2704309"><ele>240.0</ele><time>2026-05-01T09:30:37.523Z</time></trkpt><trkpt lat="42.2853489" lon="14.2701092"><ele>243.0</ele><time>2026-05-01T09:30:39.515Z</time></trkpt><trkpt lat="42.2853838" lon="14.269781"><ele>245.0</ele><time>2026-05-01T09:30:41.511Z</time></trkpt><trkpt lat="42.2854302" lon="14.2695265"><ele>247.0</ele><time>2026-05-01T09:30:43.517Z</time></trkpt><trkpt lat="42.2854609" lon="14.269358"><ele>249.0</ele><time>2026-05-01T09:30:45.516Z</time></trkpt><trkpt lat="42.2854951" lon="14.2692444"><ele>251.0</ele><time>2026-05-01T09:30:53.53Z</time></trkpt><trkpt lat="42.2855174" lon="14.2691559"><ele>251.0</ele><time>2026-05-01T09:30:55.521Z</time></trkpt><trkpt lat="42.2855568" lon="14.2689746"><ele>251.0</ele><time>2026-05-01T09:30:57.52Z</time></trkpt><trkpt lat="42.2855904" lon="14.2687003"><ele>251.0</ele><time>2026-05-01T09:30:59.52Z</time></trkpt><trkpt lat="42.2856054" lon="14.2684387"><ele>256.6</ele><time>2026-05-01T09:31:01.526Z</time></trkpt><trkpt lat="42.2856383" lon="14.2682279"><ele>262.20000000000005</ele><time>2026-05-01T09:31:03.522Z</time></trkpt><trkpt lat="42.2856523" lon="14.2680787"><ele>267.79999999999995</ele><time>2026-05-01T09:31:05.529Z</time></trkpt><trkpt lat="42.2856413" lon="14.2679726"><ele>273.4</ele><time>2026-05-01T09:31:07.53Z</time></trkpt><trkpt lat="42.285601" lon="14.2678706"><ele>279.0</ele><time>2026-05-01T09:31:39.532Z</time></trkpt><trkpt lat="42.2855566" lon="14.2677694"><ele>279.0</ele><time>2026-05-01T09:31:57.53Z</time></trkpt><trkpt lat="42.2854839" lon="14.2676552"><ele>279.0</ele><time>2026-05-01T09:31:59.529Z</time></trkpt><trkpt lat="42.285401" lon="14.2675171"><ele>279.0</ele><time>2026-05-01T09:32:01.53Z</time></trkpt><trkpt lat="42.2853077" lon="14.2673601"><ele>279.0</ele><time>2026-05-01T09:32:03.532Z</time></trkpt><trkpt lat="42.2852107" lon="14.2671946"><ele>280.5</ele><time>2026-05-01T09:32:05.521Z</time></trkpt><trkpt lat="42.2851047" lon="14.2670297"><ele>282.0</ele><time>2026-05-01T09:32:07.531Z</time></trkpt><trkpt lat="42.2849759" lon="14.2669237"><ele>283.5</ele><time>2026-05-01T09:32:09.527Z</time></trkpt><trkpt lat="42.2848898" lon="14.2668742"><ele>285.0</ele><time>2026-05-01T09:32:11.526Z</time></trkpt><trkpt lat="42.2847998" lon="14.266791"><ele>285.0</ele><time>2026-05-01T09:32:15.535Z</time></trkpt><trkpt lat="42.2847545" lon="14.2666983"><ele>285.0</ele><time>2026-05-01T09:32:17.535Z</time></trkpt><trkpt lat="42.2847181" lon="14.2666218"><ele>285.0</ele><time>2026-05-01T09:32:19.533Z</time></trkpt><trkpt lat="42.2847298" lon="14.2665154"><ele>285.0</ele><time>2026-05-01T09:32:21.533Z</time></trkpt><trkpt lat="42.2847822" lon="14.2664465"><ele>285.0</ele><time>2026-05-01T09:32:23.534Z</time></trkpt><trkpt lat="42.2848609" lon="14.266288"><ele>285.0</ele><time>2026-05-01T09:32:25.534Z</time></trkpt><trkpt lat="42.2849453" lon="14.2661484"><ele>284.8</ele><time>2026-05-01T09:32:27.527Z</time></trkpt><trkpt lat="42.2850164" lon="14.2660167"><ele>284.6</ele><time>2026-05-01T09:32:29.528Z</time></trkpt><trkpt lat="42.2850847" lon="14.265903"><ele>284.4</ele><time>2026-05-01T09:32:31.528Z</time></trkpt><trkpt lat="42.2851359" lon="14.2657956"><ele>284.2</ele><time>2026-05-01T09:32:33.516Z</time></trkpt><trkpt lat="42.2851882" lon="14.2656886"><ele>284.0</ele><time>2026-05-01T09:32:35.536Z</time></trkpt><trkpt lat="42.2852447" lon="14.2655755"><ele>282.0</ele><time>2026-05-01T09:32:37.535Z</time></trkpt><trkpt lat="42.2853111" lon="14.2654714"><ele>280.0</ele><time>2026-05-01T09:32:39.546Z</time></trkpt><trkpt lat="42.2853775" lon="14.2653323"><ele>278.0</ele><time>2026-05-01T09:32:41.537Z</time></trkpt><trkpt lat="42.2854887" lon="14.2651796"><ele>276.0</ele><time>2026-05-01T09:32:43.523Z</time></trkpt><trkpt lat="42.2856196" lon="14.2650997"><ele>273.75</ele><time>2026-05-01T09:32:45.533Z</time></trkpt><trkpt lat="42.2857618" lon="14.2650268"><ele>271.5</ele><time>2026-05-01T09:32:47.532Z</time></trkpt><trkpt lat="42.2858104" lon="14.264918"><ele>269.25</ele><time>2026-05-01T09:32:49.531Z</time></trkpt><trkpt lat="42.2857459" lon="14.2647427"><ele>267.0</ele><time>2026-05-01T09:32:51.524Z</time></trkpt><trkpt lat="42.2856268" lon="14.2644621"><ele>264.0</ele><time>2026-05-01T09:32:53.528Z</time></trkpt><trkpt lat="42.2854571" lon="14.2641229"><ele>261.0</ele><time>2026-05-01T09:32:55.536Z</time></trkpt><trkpt lat="42.285286" lon="14.2637566"><ele>260.0</ele><time>2026-05-01T09:32:57.54Z</time></trkpt><trkpt lat="42.2852025" lon="14.2634264"><ele>259.0</ele><time>2026-05-01T09:32:59.531Z</time></trkpt><trkpt lat="42.2852331" lon="14.2631018"><ele>257.66666666666663</ele><time>2026-05-01T09:33:01.534Z</time></trkpt><trkpt lat="42.285305" lon="14.26285"><ele>256.3333333333333</ele><time>2026-05-01T09:33:03.534Z</time></trkpt><trkpt lat="42.2852589" lon="14.2625884"><ele>255.0</ele><time>2026-05-01T09:33:05.529Z</time></trkpt><trkpt lat="42.2851051" lon="14.262298"><ele>258.5</ele><time>2026-05-01T09:33:07.521Z</time></trkpt><trkpt lat="42.2849128" lon="14.2619395"><ele>262.0</ele><time>2026-05-01T09:33:09.534Z</time></trkpt><trkpt lat="42.284721" lon="14.2615632"><ele>256.0</ele><time>2026-05-01T09:33:11.525Z</time></trkpt><trkpt lat="42.284564" lon="14.2612642"><ele>250.0</ele><time>2026-05-01T09:33:13.528Z</time></trkpt><trkpt lat="42.2844956" lon="14.2609549"><ele>250.0</ele><time>2026-05-01T09:33:15.526Z</time></trkpt><trkpt lat="42.2845676" lon="14.2607394"><ele>250.0</ele><time>2026-05-01T09:33:17.53Z</time></trkpt><trkpt lat="42.2847419" lon="14.2606354"><ele>250.0</ele><time>2026-05-01T09:33:19.528Z</time></trkpt><trkpt lat="42.2849909" lon="14.2605811"><ele>247.5</ele><time>2026-05-01T09:33:21.535Z</time></trkpt><trkpt lat="42.2853202" lon="14.260586"><ele>245.0</ele><time>2026-05-01T09:33:23.535Z</time></trkpt><trkpt lat="42.285637" lon="14.2605518"><ele>244.5</ele><time>2026-05-01T09:33:25.535Z</time></trkpt><trkpt lat="42.2859092" lon="14.2606011"><ele>244.0</ele><time>2026-05-01T09:33:27.532Z</time></trkpt><trkpt lat="42.2861728" lon="14.2607105"><ele>246.0</ele><time>2026-05-01T09:33:29.533Z</time></trkpt><trkpt lat="42.2864492" lon="14.2607896"><ele>248.0</ele><time>2026-05-01T09:33:31.532Z</time></trkpt><trkpt lat="42.286688" lon="14.2607247"><ele>253.0</ele><time>2026-05-01T09:33:33.536Z</time></trkpt><trkpt lat="42.2868556" lon="14.2605876"><ele>258.0</ele><time>2026-05-01T09:33:35.534Z</time></trkpt><trkpt lat="42.2869171" lon="14.2603454"><ele>263.0</ele><time>2026-05-01T09:33:37.529Z</time></trkpt><trkpt lat="42.286868" lon="14.2600732"><ele>263.0</ele><time>2026-05-01T09:33:39.531Z</time></trkpt><trkpt lat="42.2867467" lon="14.2598077"><ele>263.0</ele><time>2026-05-01T09:33:41.534Z</time></trkpt><trkpt lat="42.2865446" lon="14.2595698"><ele>265.5</ele><time>2026-05-01T09:33:43.526Z</time></trkpt><trkpt lat="42.2862884" lon="14.2593726"><ele>268.0</ele><time>2026-05-01T09:33:45.536Z</time></trkpt><trkpt lat="42.2860078" lon="14.2592045"><ele>268.0</ele><time>2026-05-01T09:33:47.531Z</time></trkpt><trkpt lat="42.2857794" lon="14.2589697"><ele>268.0</ele><time>2026-05-01T09:33:49.534Z</time></trkpt><trkpt lat="42.2856609" lon="14.2587014"><ele>273.3333333333333</ele><time>2026-05-01T09:33:51.541Z</time></trkpt><trkpt lat="42.2856644" lon="14.2584904"><ele>278.6666666666667</ele><time>2026-05-01T09:33:53.549Z</time></trkpt><trkpt lat="42.2857932" lon="14.2583558"><ele>284.0</ele><time>2026-05-01T09:33:55.54Z</time></trkpt><trkpt lat="42.2860036" lon="14.2583532"><ele>284.0</ele><time>2026-05-01T09:33:57.546Z</time></trkpt><trkpt lat="42.2862119" lon="14.2585001"><ele>284.0</ele><time>2026-05-01T09:33:59.546Z</time></trkpt><trkpt lat="42.2864496" lon="14.2587009"><ele>286.0</ele><time>2026-05-01T09:34:01.627Z</time></trkpt><trkpt lat="42.2867202" lon="14.2589037"><ele>288.0</ele><time>2026-05-01T09:34:03.628Z</time></trkpt><trkpt lat="42.2869973" lon="14.2590917"><ele>287.5</ele><time>2026-05-01T09:34:05.631Z</time></trkpt><trkpt lat="42.2872498" lon="14.2592492"><ele>287.0</ele><time>2026-05-01T09:34:07.631Z</time></trkpt><trkpt lat="42.2874834" lon="14.2593741"><ele>287.0</ele><time>2026-05-01T09:34:09.621Z</time></trkpt><trkpt lat="42.2877421" lon="14.2593885"><ele>287.0</ele><time>2026-05-01T09:34:11.598Z</time></trkpt><trkpt lat="42.2880119" lon="14.2592849"><ele>289.5</ele><time>2026-05-01T09:34:13.605Z</time></trkpt><trkpt lat="42.288269" lon="14.259109"><ele>292.0</ele><time>2026-05-01T09:34:15.615Z</time></trkpt><trkpt lat="42.2884638" lon="14.2589043"><ele>295.5</ele><time>2026-05-01T09:34:17.621Z</time></trkpt><trkpt lat="42.2886647" lon="14.258683"><ele>299.0</ele><time>2026-05-01T09:34:19.602Z</time></trkpt><trkpt lat="42.2888335" lon="14.2584824"><ele>298.5</ele><time>2026-05-01T09:34:21.603Z</time></trkpt><trkpt lat="42.2889613" lon="14.2582923"><ele>298.0</ele><time>2026-05-01T09:34:23.605Z</time></trkpt><trkpt lat="42.289047" lon="14.258101"><ele>297.5</ele><time>2026-05-01T09:34:25.523Z</time></trkpt><trkpt lat="42.2891073" lon="14.2580035"><ele>297.0</ele><time>2026-05-01T09:34:27.523Z</time></trkpt><trkpt lat="42.289103" lon="14.2579082"><ele>296.6666666666667</ele><time>2026-05-01T09:34:31.543Z</time></trkpt><trkpt lat="42.2890198" lon="14.2578056"><ele>296.33333333333337</ele><time>2026-05-01T09:34:33.54Z</time></trkpt><trkpt lat="42.2888752" lon="14.2576551"><ele>296.0</ele><time>2026-05-01T09:34:35.527Z</time></trkpt><trkpt lat="42.2886968" lon="14.2574491"><ele>299.0</ele><time>2026-05-01T09:34:37.525Z</time></trkpt><trkpt lat="42.2885176" lon="14.257232"><ele>302.0</ele><time>2026-05-01T09:34:39.526Z</time></trkpt><trkpt lat="42.288323" lon="14.2570456"><ele>303.5</ele><time>2026-05-01T09:34:41.53Z</time></trkpt><trkpt lat="42.2880894" lon="14.2569242"><ele>305.0</ele><time>2026-05-01T09:34:43.529Z</time></trkpt><trkpt lat="42.2878254" lon="14.25684"><ele>305.0</ele><time>2026-05-01T09:34:45.532Z</time></trkpt><trkpt lat="42.2875777" lon="14.2567176"><ele>305.0</ele><time>2026-05-01T09:34:47.539Z</time></trkpt><trkpt lat="42.2873307" lon="14.2565923"><ele>307.5</ele><time>2026-05-01T09:34:49.532Z</time></trkpt><trkpt lat="42.2871081" lon="14.2563899"><ele>310.0</ele><time>2026-05-01T09:34:51.538Z</time></trkpt><trkpt lat="42.2869061" lon="14.2561461"><ele>310.0</ele><time>2026-05-01T09:34:53.535Z</time></trkpt><trkpt lat="42.2866953" lon="14.2558985"><ele>310.0</ele><time>2026-05-01T09:34:55.529Z</time></trkpt><trkpt lat="42.2864494" lon="14.2556606"><ele>311.5</ele><time>2026-05-01T09:34:57.54Z</time></trkpt><trkpt lat="42.2861928" lon="14.2554281"><ele>313.0</ele><time>2026-05-01T09:34:59.536Z</time></trkpt><trkpt lat="42.285932" lon="14.2552054"><ele>313.0</ele><time>2026-05-01T09:35:01.533Z</time></trkpt><trkpt lat="42.2856797" lon="14.2550256"><ele>313.0</ele><time>2026-05-01T09:35:03.533Z</time></trkpt><trkpt lat="42.2854262" lon="14.2548344"><ele>313.5</ele><time>2026-05-01T09:35:05.529Z</time></trkpt><trkpt lat="42.2851751" lon="14.2546579"><ele>314.0</ele><time>2026-05-01T09:35:07.537Z</time></trkpt><trkpt lat="42.2849396" lon="14.2545013"><ele>314.0</ele><time>2026-05-01T09:35:09.529Z</time></trkpt><trkpt lat="42.2846835" lon="14.2543415"><ele>314.0</ele><time>2026-05-01T09:35:11.531Z</time></trkpt><trkpt lat="42.284472" lon="14.2541984"><ele>314.0</ele><time>2026-05-01T09:35:13.532Z</time></trkpt><trkpt lat="42.2842178" lon="14.2540654"><ele>314.0</ele><time>2026-05-01T09:35:15.533Z</time></trkpt><trkpt lat="42.2839769" lon="14.2539657"><ele>314.0</ele><time>2026-05-01T09:35:17.533Z</time></trkpt><trkpt lat="42.283729" lon="14.2538554"><ele>314.0</ele><time>2026-05-01T09:35:19.524Z</time></trkpt><trkpt lat="42.2834703" lon="14.2536758"><ele>314.0</ele><time>2026-05-01T09:35:21.534Z</time></trkpt><trkpt lat="42.2831838" lon="14.2534937"><ele>314.0</ele><time>2026-05-01T09:35:23.535Z</time></trkpt><trkpt lat="42.2828658" lon="14.2533124"><ele>313.5</ele><time>2026-05-01T09:35:25.532Z</time></trkpt><trkpt lat="42.2825388" lon="14.2531514"><ele>313.0</ele><time>2026-05-01T09:35:27.538Z</time></trkpt><trkpt lat="42.2822264" lon="14.2529883"><ele>313.0</ele><time>2026-05-01T09:35:29.535Z</time></trkpt><trkpt lat="42.281951" lon="14.252863"><ele>313.0</ele><time>2026-05-01T09:35:31.531Z</time></trkpt><trkpt lat="42.2816857" lon="14.2527711"><ele>314.5</ele><time>2026-05-01T09:35:33.533Z</time></trkpt><trkpt lat="42.2814117" lon="14.2526417"><ele>316.0</ele><time>2026-05-01T09:35:35.535Z</time></trkpt><trkpt lat="42.2811344" lon="14.2525272"><ele>316.0</ele><time>2026-05-01T09:35:37.535Z</time></trkpt><trkpt lat="42.2808398" lon="14.2524017"><ele>316.0</ele><time>2026-05-01T09:35:39.538Z</time></trkpt><trkpt lat="42.2805253" lon="14.2522762"><ele>316.0</ele><time>2026-05-01T09:35:41.538Z</time></trkpt><trkpt lat="42.2802088" lon="14.252128"><ele>316.0</ele><time>2026-05-01T09:35:43.539Z</time></trkpt><trkpt lat="42.2798969" lon="14.2519948"><ele>317.5</ele><time>2026-05-01T09:35:45.542Z</time></trkpt><trkpt lat="42.2796003" lon="14.2518483"><ele>319.0</ele><time>2026-05-01T09:35:47.534Z</time></trkpt><trkpt lat="42.2793033" lon="14.2516744"><ele>319.0</ele><time>2026-05-01T09:35:49.535Z</time></trkpt><trkpt lat="42.2789935" lon="14.2515226"><ele>319.0</ele><time>2026-05-01T09:35:51.535Z</time></trkpt><trkpt lat="42.2786943" lon="14.2513935"><ele>321.0</ele><time>2026-05-01T09:35:53.546Z</time></trkpt><trkpt lat="42.278388" lon="14.2512765"><ele>323.0</ele><time>2026-05-01T09:35:55.541Z</time></trkpt><trkpt lat="42.278108" lon="14.2511616"><ele>325.0</ele><time>2026-05-01T09:35:57.539Z</time></trkpt><trkpt lat="42.2778386" lon="14.2510487"><ele>327.0</ele><time>2026-05-01T09:35:59.539Z</time></trkpt><trkpt lat="42.2776083" lon="14.2509728"><ele>327.0</ele><time>2026-05-01T09:36:01.541Z</time></trkpt><trkpt lat="42.2773756" lon="14.2509178"><ele>327.0</ele><time>2026-05-01T09:36:03.542Z</time></trkpt><trkpt lat="42.2771036" lon="14.2508522"><ele>328.3333333333333</ele><time>2026-05-01T09:36:05.537Z</time></trkpt><trkpt lat="42.2768997" lon="14.2508402"><ele>329.66666666666663</ele><time>2026-05-01T09:36:07.535Z</time></trkpt><trkpt lat="42.2767366" lon="14.2507681"><ele>331.0</ele><time>2026-05-01T09:36:09.532Z</time></trkpt><trkpt lat="42.2765977" lon="14.2506143"><ele>330.0</ele><time>2026-05-01T09:36:11.536Z</time></trkpt><trkpt lat="42.2764103" lon="14.2503914"><ele>329.0</ele><time>2026-05-01T09:36:13.54Z</time></trkpt><trkpt lat="42.276254" lon="14.2501777"><ele>329.0</ele><time>2026-05-01T09:36:15.528Z</time></trkpt><trkpt lat="42.276129" lon="14.2499074"><ele>329.0</ele><time>2026-05-01T09:36:17.531Z</time></trkpt><trkpt lat="42.2759925" lon="14.249704"><ele>329.0</ele><time>2026-05-01T09:36:19.522Z</time></trkpt><trkpt lat="42.2758058" lon="14.2495893"><ele>326.33333333333337</ele><time>2026-05-01T09:36:21.533Z</time></trkpt><trkpt lat="42.2755977" lon="14.2494878"><ele>323.6666666666667</ele><time>2026-05-01T09:36:23.53Z</time></trkpt><trkpt lat="42.2754103" lon="14.2493788"><ele>321.0</ele><time>2026-05-01T09:36:25.531Z</time></trkpt><trkpt lat="42.2752374" lon="14.2492153"><ele>321.0</ele><time>2026-05-01T09:36:27.523Z</time></trkpt><trkpt lat="42.2750413" lon="14.2490513"><ele>321.0</ele><time>2026-05-01T09:36:29.518Z</time></trkpt><trkpt lat="42.274811" lon="14.2489074"><ele>308.5</ele><time>2026-05-01T09:36:31.529Z</time></trkpt><trkpt lat="42.2745464" lon="14.2487988"><ele>296.0</ele><time>2026-05-01T09:36:33.519Z</time></trkpt><trkpt lat="42.274266" lon="14.2486925"><ele>296.0</ele><time>2026-05-01T09:36:35.521Z</time></trkpt><trkpt lat="42.2739651" lon="14.248554"><ele>296.0</ele><time>2026-05-01T09:36:37.521Z</time></trkpt><trkpt lat="42.2736851" lon="14.2483373"><ele>302.0</ele><time>2026-05-01T09:36:39.519Z</time></trkpt><trkpt lat="42.2734656" lon="14.2481719"><ele>308.0</ele><time>2026-05-01T09:36:41.515Z</time></trkpt><trkpt lat="42.2732568" lon="14.247971"><ele>306.5</ele><time>2026-05-01T09:36:43.521Z</time></trkpt><trkpt lat="42.2731067" lon="14.2476817"><ele>305.0</ele><time>2026-05-01T09:36:45.521Z</time></trkpt><trkpt lat="42.2730067" lon="14.2473441"><ele>294.0</ele><time>2026-05-01T09:36:47.519Z</time></trkpt><trkpt lat="42.2729621" lon="14.2470036"><ele>283.0</ele><time>2026-05-01T09:36:49.53Z</time></trkpt><trkpt lat="42.2729206" lon="14.2466753"><ele>278.5</ele><time>2026-05-01T09:36:51.535Z</time></trkpt><trkpt lat="42.2728804" lon="14.2463191"><ele>274.0</ele><time>2026-05-01T09:36:53.532Z</time></trkpt><trkpt lat="42.2728422" lon="14.2460156"><ele>274.0</ele><time>2026-05-01T09:36:55.526Z</time></trkpt><trkpt lat="42.272754" lon="14.2457484"><ele>274.0</ele><time>2026-05-01T09:36:57.531Z</time></trkpt><trkpt lat="42.2725888" lon="14.2455014"><ele>274.5</ele><time>2026-05-01T09:36:59.53Z</time></trkpt><trkpt lat="42.2723587" lon="14.2451732"><ele>275.0</ele><time>2026-05-01T09:37:01.536Z</time></trkpt><trkpt lat="42.272192" lon="14.244791"><ele>280.0</ele><time>2026-05-01T09:37:03.615Z</time></trkpt><trkpt lat="42.2720038" lon="14.2444991"><ele>285.0</ele><time>2026-05-01T09:37:05.614Z</time></trkpt><trkpt lat="42.2718082" lon="14.2443392"><ele>285.0</ele><time>2026-05-01T09:37:07.599Z</time></trkpt><trkpt lat="42.2715953" lon="14.2442753"><ele>285.0</ele><time>2026-05-01T09:37:09.594Z</time></trkpt><trkpt lat="42.2713439" lon="14.2442133"><ele>283.0</ele><time>2026-05-01T09:37:11.611Z</time></trkpt><trkpt lat="42.2711247" lon="14.244052"><ele>281.0</ele><time>2026-05-01T09:37:13.606Z</time></trkpt><trkpt lat="42.2708891" lon="14.2439078"><ele>284.5</ele><time>2026-05-01T09:37:15.61Z</time></trkpt><trkpt lat="42.2706357" lon="14.2437077"><ele>288.0</ele><time>2026-05-01T09:37:17.604Z</time></trkpt><trkpt lat="42.270415" lon="14.2434728"><ele>288.0</ele><time>2026-05-01T09:37:19.615Z</time></trkpt><trkpt lat="42.2702195" lon="14.2432032"><ele>288.0</ele><time>2026-05-01T09:37:21.604Z</time></trkpt><trkpt lat="42.269997" lon="14.2429503"><ele>290.5</ele><time>2026-05-01T09:37:23.613Z</time></trkpt><trkpt lat="42.2697617" lon="14.2427184"><ele>293.0</ele><time>2026-05-01T09:37:25.625Z</time></trkpt><trkpt lat="42.2695163" lon="14.2424938"><ele>293.0</ele><time>2026-05-01T09:37:27.622Z</time></trkpt><trkpt lat="42.2692985" lon="14.2423288"><ele>293.0</ele><time>2026-05-01T09:37:29.624Z</time></trkpt><trkpt lat="42.2691348" lon="14.2421242"><ele>295.6666666666667</ele><time>2026-05-01T09:37:31.609Z</time></trkpt><trkpt lat="42.2690145" lon="14.2418802"><ele>298.3333333333333</ele><time>2026-05-01T09:37:33.604Z</time></trkpt><trkpt lat="42.2689142" lon="14.2416851"><ele>301.0</ele><time>2026-05-01T09:37:35.611Z</time></trkpt><trkpt lat="42.2688326" lon="14.2415659"><ele>301.25</ele><time>2026-05-01T09:37:37.622Z</time></trkpt><trkpt lat="42.2687372" lon="14.2415143"><ele>301.5</ele><time>2026-05-01T09:37:39.624Z</time></trkpt><trkpt lat="42.2685968" lon="14.2414587"><ele>301.75</ele><time>2026-05-01T09:37:41.609Z</time></trkpt><trkpt lat="42.268417" lon="14.2413969"><ele>302.0</ele><time>2026-05-01T09:37:43.603Z</time></trkpt><trkpt lat="42.2682522" lon="14.2413313"><ele>304.6666666666667</ele><time>2026-05-01T09:37:45.619Z</time></trkpt><trkpt lat="42.268091" lon="14.2412485"><ele>307.3333333333333</ele><time>2026-05-01T09:37:47.625Z</time></trkpt><trkpt lat="42.2679445" lon="14.2411414"><ele>310.0</ele><time>2026-05-01T09:37:49.606Z</time></trkpt><trkpt lat="42.2678462" lon="14.2410434"><ele>310.0</ele><time>2026-05-01T09:37:51.606Z</time></trkpt><trkpt lat="42.2677577" lon="14.2409255"><ele>310.0</ele><time>2026-05-01T09:37:53.619Z</time></trkpt><trkpt lat="42.267648" lon="14.2407852"><ele>310.0</ele><time>2026-05-01T09:37:55.522Z</time></trkpt><trkpt lat="42.2675589" lon="14.2406276"><ele>310.0</ele><time>2026-05-01T09:37:57.521Z</time></trkpt><trkpt lat="42.2675162" lon="14.2404844"><ele>311.25</ele><time>2026-05-01T09:37:59.533Z</time></trkpt><trkpt lat="42.2674576" lon="14.2402948"><ele>312.5</ele><time>2026-05-01T09:38:01.534Z</time></trkpt><trkpt lat="42.2673715" lon="14.2401298"><ele>313.75</ele><time>2026-05-01T09:38:03.525Z</time></trkpt><trkpt lat="42.2672727" lon="14.2400088"><ele>315.0</ele><time>2026-05-01T09:38:05.522Z</time></trkpt><trkpt lat="42.2672255" lon="14.2398683"><ele>318.2</ele><time>2026-05-01T09:38:07.527Z</time></trkpt><trkpt lat="42.26724" lon="14.2397636"><ele>321.4</ele><time>2026-05-01T09:38:13.538Z</time></trkpt><trkpt lat="42.2672365" lon="14.2396135"><ele>324.6</ele><time>2026-05-01T09:38:23.535Z</time></trkpt><trkpt lat="42.2672126" lon="14.239493"><ele>327.8</ele><time>2026-05-01T09:38:25.53Z</time></trkpt><trkpt lat="42.2671789" lon="14.239393"><ele>331.0</ele><time>2026-05-01T09:38:27.536Z</time></trkpt><trkpt lat="42.2671397" lon="14.2392729"><ele>331.0</ele><time>2026-05-01T09:38:30.54Z</time></trkpt><trkpt lat="42.2671313" lon="14.2391819"><ele>331.0</ele><time>2026-05-01T09:39:47.542Z</time></trkpt><trkpt lat="42.2671" lon="14.239085"><ele>331.0</ele><time>2026-05-01T09:42:09.532Z</time></trkpt><trkpt lat="42.267049" lon="14.2390049"><ele>331.0</ele><time>2026-05-01T09:42:12.536Z</time></trkpt><trkpt lat="42.2670032" lon="14.2389431"><ele>331.0</ele><time>2026-05-01T09:42:15.532Z</time></trkpt><trkpt lat="42.2669511" lon="14.2388929"><ele>331.0</ele><time>2026-05-01T09:42:17.535Z</time></trkpt><trkpt lat="42.2668759" lon="14.2388286"><ele>331.0</ele><time>2026-05-01T09:42:19.526Z</time></trkpt><trkpt lat="42.2667678" lon="14.2387543"><ele>331.16666666666663</ele><time>2026-05-01T09:42:21.536Z</time></trkpt><trkpt lat="42.2667167" lon="14.2386818"><ele>331.3333333333333</ele><time>2026-05-01T09:42:25.547Z</time></trkpt><trkpt lat="42.2666783" lon="14.238604"><ele>331.5</ele><time>2026-05-01T09:42:36.535Z</time></trkpt><trkpt lat="42.2666191" lon="14.2385324"><ele>331.6666666666667</ele><time>2026-05-01T09:42:39.529Z</time></trkpt><trkpt lat="42.2665563" lon="14.2384779"><ele>331.83333333333337</ele><time>2026-05-01T09:42:43.534Z</time></trkpt><trkpt lat="42.2664771" lon="14.2383944"><ele>332.0</ele><time>2026-05-01T09:42:47.526Z</time></trkpt><trkpt lat="42.2664295" lon="14.2383135"><ele>332.83333333333337</ele><time>2026-05-01T09:42:55.533Z</time></trkpt><trkpt lat="42.266388" lon="14.2382303"><ele>333.6666666666667</ele><time>2026-05-01T09:42:59.536Z</time></trkpt><trkpt lat="42.2663231" lon="14.2381258"><ele>334.5</ele><time>2026-05-01T09:43:02.535Z</time></trkpt><trkpt lat="42.2662604" lon="14.2380416"><ele>335.3333333333333</ele><time>2026-05-01T09:43:04.529Z</time></trkpt><trkpt lat="42.26618" lon="14.2379663"><ele>336.16666666666663</ele><time>2026-05-01T09:43:06.529Z</time></trkpt><trkpt lat="42.2661152" lon="14.2379151"><ele>337.0</ele><time>2026-05-01T09:43:08.527Z</time></trkpt><trkpt lat="42.266053" lon="14.237843"><ele>337.0</ele><time>2026-05-01T09:43:14.516Z</time></trkpt><trkpt lat="42.2659707" lon="14.2377939"><ele>337.0</ele><time>2026-05-01T09:43:17.535Z</time></trkpt><trkpt lat="42.2659039" lon="14.2377663"><ele>337.0</ele><time>2026-05-01T09:43:20.546Z</time></trkpt><trkpt lat="42.2658369" lon="14.2377268"><ele>337.0</ele><time>2026-05-01T09:43:22.541Z</time></trkpt><trkpt lat="42.2657616" lon="14.2376583"><ele>337.0</ele><time>2026-05-01T09:43:25.544Z</time></trkpt><trkpt lat="42.2656801" lon="14.2375843"><ele>337.0</ele><time>2026-05-01T09:43:27.545Z</time></trkpt><trkpt lat="42.2656015" lon="14.2375061"><ele>339.0</ele><time>2026-05-01T09:43:29.533Z</time></trkpt><trkpt lat="42.2655402" lon="14.2373843"><ele>341.0</ele><time>2026-05-01T09:43:31.539Z</time></trkpt><trkpt lat="42.2654729" lon="14.2372457"><ele>343.0</ele><time>2026-05-01T09:43:33.537Z</time></trkpt><trkpt lat="42.2654359" lon="14.2371688"><ele>345.0</ele><time>2026-05-01T09:43:34.54Z</time></trkpt><trkpt lat="42.2654054" lon="14.2370901"><ele>347.0</ele><time>2026-05-01T09:43:35.541Z</time></trkpt><trkpt lat="42.2653444" lon="14.2369522"><ele>347.0</ele><time>2026-05-01T09:43:37.542Z</time></trkpt><trkpt lat="42.2652853" lon="14.2368614"><ele>347.0</ele><time>2026-05-01T09:43:39.548Z</time></trkpt><trkpt lat="42.2652424" lon="14.2367452"><ele>347.0</ele><time>2026-05-01T09:43:41.547Z</time></trkpt><trkpt lat="42.2652093" lon="14.2366151"><ele>347.0</ele><time>2026-05-01T09:43:43.544Z</time></trkpt><trkpt lat="42.2651404" lon="14.2365111"><ele>347.0</ele><time>2026-05-01T09:43:45.549Z</time></trkpt><trkpt lat="42.2650824" lon="14.2363958"><ele>346.20000000000005</ele><time>2026-05-01T09:43:47.556Z</time></trkpt><trkpt lat="42.2650422" lon="14.23629"><ele>345.4</ele><time>2026-05-01T09:43:49.544Z</time></trkpt><trkpt lat="42.2649837" lon="14.2361797"><ele>344.6</ele><time>2026-05-01T09:43:51.547Z</time></trkpt><trkpt lat="42.2649035" lon="14.236086"><ele>343.79999999999995</ele><time>2026-05-01T09:43:53.546Z</time></trkpt><trkpt lat="42.2648245" lon="14.2360583"><ele>343.0</ele><time>2026-05-01T09:43:55.555Z</time></trkpt><trkpt lat="42.2647409" lon="14.2360335"><ele>340.8333333333333</ele><time>2026-05-01T09:43:58.554Z</time></trkpt><trkpt lat="42.2646729" lon="14.2360468"><ele>338.66666666666663</ele><time>2026-05-01T09:44:03.554Z</time></trkpt><trkpt lat="42.2646076" lon="14.2361171"><ele>336.5</ele><time>2026-05-01T09:45:10.543Z</time></trkpt><trkpt lat="42.2645554" lon="14.2361711"><ele>334.3333333333333</ele><time>2026-05-01T09:45:11.551Z</time></trkpt><trkpt lat="42.2644922" lon="14.2362358"><ele>332.1666666666667</ele><time>2026-05-01T09:45:12.542Z</time></trkpt><trkpt lat="42.2644326" lon="14.2363192"><ele>330.0</ele><time>2026-05-01T09:45:13.533Z</time></trkpt><trkpt lat="42.264348" lon="14.2363853"><ele>330.0</ele><time>2026-05-01T09:45:14.537Z</time></trkpt><trkpt lat="42.2642613" lon="14.2364437"><ele>330.0</ele><time>2026-05-01T09:45:15.535Z</time></trkpt><trkpt lat="42.2641633" lon="14.2364949"><ele>330.0</ele><time>2026-05-01T09:45:16.539Z</time></trkpt><trkpt lat="42.264063" lon="14.2365485"><ele>330.0</ele><time>2026-05-01T09:45:17.533Z</time></trkpt><trkpt lat="42.2639643" lon="14.2366193"><ele>330.0</ele><time>2026-05-01T09:45:18.544Z</time></trkpt><trkpt lat="42.2638695" lon="14.2366952"><ele>333.0</ele><time>2026-05-01T09:45:19.551Z</time></trkpt><trkpt lat="42.2637944" lon="14.2367642"><ele>336.0</ele><time>2026-05-01T09:45:20.619Z</time></trkpt><trkpt lat="42.2636696" lon="14.2367597"><ele>339.0</ele><time>2026-05-01T09:45:22.615Z</time></trkpt><trkpt lat="42.2635647" lon="14.236793"><ele>342.0</ele><time>2026-05-01T09:45:23.515Z</time></trkpt><trkpt lat="42.2634603" lon="14.2367395"><ele>345.0</ele><time>2026-05-01T09:45:24.526Z</time></trkpt><trkpt lat="42.2633508" lon="14.236706"><ele>345.0</ele><time>2026-05-01T09:45:25.514Z</time></trkpt><trkpt lat="42.2632558" lon="14.2367431"><ele>345.0</ele><time>2026-05-01T09:45:26.521Z</time></trkpt><trkpt lat="42.2631521" lon="14.2368002"><ele>345.0</ele><time>2026-05-01T09:45:27.522Z</time></trkpt><trkpt lat="42.263023" lon="14.2368802"><ele>345.0</ele><time>2026-05-01T09:45:28.532Z</time></trkpt><trkpt lat="42.262878" lon="14.2369599"><ele>344.5</ele><time>2026-05-01T09:45:29.533Z</time></trkpt><trkpt lat="42.2627199" lon="14.2370277"><ele>344.0</ele><time>2026-05-01T09:45:30.54Z</time></trkpt><trkpt lat="42.2625816" lon="14.2370742"><ele>343.5</ele><time>2026-05-01T09:45:31.534Z</time></trkpt><trkpt lat="42.262469" lon="14.237119"><ele>343.0</ele><time>2026-05-01T09:45:32.535Z</time></trkpt><trkpt lat="42.262384" lon="14.2371382"><ele>343.0</ele><time>2026-05-01T09:45:33.527Z</time></trkpt><trkpt lat="42.2623132" lon="14.2371576"><ele>343.0</ele><time>2026-05-01T09:45:34.537Z</time></trkpt><trkpt lat="42.2622257" lon="14.237169"><ele>343.0</ele><time>2026-05-01T09:45:35.537Z</time></trkpt><trkpt lat="42.2621568" lon="14.2371774"><ele>343.0</ele><time>2026-05-01T09:45:36.536Z</time></trkpt><trkpt lat="42.2620832" lon="14.2371859"><ele>343.0</ele><time>2026-05-01T09:45:37.535Z</time></trkpt><trkpt lat="42.2620015" lon="14.2371899"><ele>343.0</ele><time>2026-05-01T09:45:38.531Z</time></trkpt><trkpt lat="42.2619252" lon="14.2371916"><ele>344.0</ele><time>2026-05-01T09:45:39.533Z</time></trkpt><trkpt lat="42.2618453" lon="14.2371997"><ele>345.0</ele><time>2026-05-01T09:45:40.532Z</time></trkpt><trkpt lat="42.2617734" lon="14.2372135"><ele>346.0</ele><time>2026-05-01T09:45:41.53Z</time></trkpt><trkpt lat="42.2617045" lon="14.2372368"><ele>347.0</ele><time>2026-05-01T09:45:42.532Z</time></trkpt><trkpt lat="42.2616124" lon="14.2372928"><ele>348.0</ele><time>2026-05-01T09:45:44.533Z</time></trkpt><trkpt lat="42.2615166" lon="14.2373311"><ele>349.0</ele><time>2026-05-01T09:45:46.531Z</time></trkpt><trkpt lat="42.2614066" lon="14.2374238"><ele>349.0</ele><time>2026-05-01T09:45:48.531Z</time></trkpt><trkpt lat="42.2613399" lon="14.2374757"><ele>349.0</ele><time>2026-05-01T09:45:49.528Z</time></trkpt><trkpt lat="42.2612718" lon="14.2375167"><ele>349.0</ele><time>2026-05-01T09:45:50.531Z</time></trkpt><trkpt lat="42.2612067" lon="14.2375262"><ele>349.0</ele><time>2026-05-01T09:45:51.526Z</time></trkpt><trkpt lat="42.2611122" lon="14.2375635"><ele>349.0</ele><time>2026-05-01T09:45:53.527Z</time></trkpt><trkpt lat="42.2610614" lon="14.2376147"><ele>349.0</ele><time>2026-05-01T09:45:54.516Z</time></trkpt><trkpt lat="42.2610048" lon="14.2377001"><ele>349.0</ele><time>2026-05-01T09:45:55.526Z</time></trkpt><trkpt lat="42.2609483" lon="14.2378078"><ele>349.0</ele><time>2026-05-01T09:45:56.526Z</time></trkpt><trkpt lat="42.2608836" lon="14.2379208"><ele>349.0</ele><time>2026-05-01T09:45:57.526Z</time></trkpt><trkpt lat="42.2608242" lon="14.2380252"><ele>349.0</ele><time>2026-05-01T09:45:58.526Z</time></trkpt><trkpt lat="42.2607805" lon="14.2381228"><ele>349.0</ele><time>2026-05-01T09:45:59.531Z</time></trkpt><trkpt lat="42.260744" lon="14.2382094"><ele>349.16666666666663</ele><time>2026-05-01T09:46:00.528Z</time></trkpt><trkpt lat="42.2606983" lon="14.238293"><ele>349.3333333333333</ele><time>2026-05-01T09:46:01.543Z</time></trkpt><trkpt lat="42.2606629" lon="14.2383712"><ele>349.5</ele><time>2026-05-01T09:46:02.536Z</time></trkpt><trkpt lat="42.2606069" lon="14.2385264"><ele>349.6666666666667</ele><time>2026-05-01T09:46:04.53Z</time></trkpt><trkpt lat="42.2605814" lon="14.2386196"><ele>349.83333333333337</ele><time>2026-05-01T09:46:05.529Z</time></trkpt><trkpt lat="42.2605425" lon="14.2387241"><ele>350.0</ele><time>2026-05-01T09:46:06.531Z</time></trkpt><trkpt lat="42.2605036" lon="14.2388251"><ele>350.0</ele><time>2026-05-01T09:46:07.53Z</time></trkpt><trkpt lat="42.2604631" lon="14.2389173"><ele>350.0</ele><time>2026-05-01T09:46:08.536Z</time></trkpt><trkpt lat="42.260412" lon="14.2389813"><ele>350.0</ele><time>2026-05-01T09:46:09.524Z</time></trkpt><trkpt lat="42.2603487" lon="14.2390283"><ele>350.0</ele><time>2026-05-01T09:46:10.524Z</time></trkpt><trkpt lat="42.2602766" lon="14.2390856"><ele>350.0</ele><time>2026-05-01T09:46:11.517Z</time></trkpt><trkpt lat="42.2601934" lon="14.2391406"><ele>350.0</ele><time>2026-05-01T09:46:12.516Z</time></trkpt><trkpt lat="42.2601117" lon="14.2392062"><ele>350.85714285714283</ele><time>2026-05-01T09:46:13.515Z</time></trkpt><trkpt lat="42.2600339" lon="14.2392519"><ele>351.7142857142857</ele><time>2026-05-01T09:46:14.497Z</time></trkpt><trkpt lat="42.259964" lon="14.2392684"><ele>352.57142857142856</ele><time>2026-05-01T09:46:15.504Z</time></trkpt><trkpt lat="42.2598955" lon="14.2392448"><ele>353.42857142857144</ele><time>2026-05-01T09:46:16.51Z</time></trkpt><trkpt lat="42.2598282" lon="14.2392072"><ele>354.2857142857143</ele><time>2026-05-01T09:46:17.518Z</time></trkpt><trkpt lat="42.2597608" lon="14.2391604"><ele>355.1428571428571</ele><time>2026-05-01T09:46:18.527Z</time></trkpt><trkpt lat="42.2596951" lon="14.2391242"><ele>356.0</ele><time>2026-05-01T09:46:19.521Z</time></trkpt><trkpt lat="42.2596188" lon="14.2390928"><ele>356.83333333333337</ele><time>2026-05-01T09:46:20.527Z</time></trkpt><trkpt lat="42.2595366" lon="14.2390628"><ele>357.6666666666667</ele><time>2026-05-01T09:46:21.519Z</time></trkpt><trkpt lat="42.2594493" lon="14.239039"><ele>358.5</ele><time>2026-05-01T09:46:22.517Z</time></trkpt><trkpt lat="42.2593722" lon="14.2390249"><ele>359.3333333333333</ele><time>2026-05-01T09:46:23.516Z</time></trkpt><trkpt lat="42.2592878" lon="14.2390191"><ele>360.16666666666663</ele><time>2026-05-01T09:46:24.522Z</time></trkpt><trkpt lat="42.2592173" lon="14.2390418"><ele>361.0</ele><time>2026-05-01T09:46:25.512Z</time></trkpt><trkpt lat="42.2591641" lon="14.2390922"><ele>361.0</ele><time>2026-05-01T09:46:26.527Z</time></trkpt><trkpt lat="42.259107" lon="14.2391358"><ele>361.0</ele><time>2026-05-01T09:46:27.518Z</time></trkpt><trkpt lat="42.2590385" lon="14.2391511"><ele>361.0</ele><time>2026-05-01T09:46:28.523Z</time></trkpt><trkpt lat="42.2589651" lon="14.2391528"><ele>361.0</ele><time>2026-05-01T09:46:29.525Z</time></trkpt><trkpt lat="42.2588725" lon="14.2391482"><ele>361.0</ele><time>2026-05-01T09:46:30.525Z</time></trkpt><trkpt lat="42.2587731" lon="14.2391201"><ele>361.0</ele><time>2026-05-01T09:46:31.53Z</time></trkpt><trkpt lat="42.2586958" lon="14.239098"><ele>362.6</ele><time>2026-05-01T09:46:32.521Z</time></trkpt><trkpt lat="42.2585625" lon="14.2391178"><ele>364.20000000000005</ele><time>2026-05-01T09:46:34.524Z</time></trkpt><trkpt lat="42.2584966" lon="14.2391615"><ele>365.79999999999995</ele><time>2026-05-01T09:46:35.527Z</time></trkpt><trkpt lat="42.2584229" lon="14.2392205"><ele>367.4</ele><time>2026-05-01T09:46:36.53Z</time></trkpt><trkpt lat="42.2583394" lon="14.2392819"><ele>369.0</ele><time>2026-05-01T09:46:37.521Z</time></trkpt><trkpt lat="42.2582526" lon="14.2393465"><ele>369.0</ele><time>2026-05-01T09:46:38.533Z</time></trkpt><trkpt lat="42.2581674" lon="14.239413"><ele>369.0</ele><time>2026-05-01T09:46:39.531Z</time></trkpt><trkpt lat="42.2580845" lon="14.239486"><ele>369.0</ele><time>2026-05-01T09:46:40.531Z</time></trkpt><trkpt lat="42.2580068" lon="14.2395722"><ele>369.0</ele><time>2026-05-01T09:46:41.53Z</time></trkpt><trkpt lat="42.2579309" lon="14.2396668"><ele>369.0</ele><time>2026-05-01T09:46:42.528Z</time></trkpt><trkpt lat="42.2578492" lon="14.2397632"><ele>367.6</ele><time>2026-05-01T09:46:43.523Z</time></trkpt><trkpt lat="42.2577725" lon="14.239864"><ele>366.2</ele><time>2026-05-01T09:46:44.535Z</time></trkpt><trkpt lat="42.2576994" lon="14.2399469"><ele>364.8</ele><time>2026-05-01T09:46:45.532Z</time></trkpt><trkpt lat="42.2576132" lon="14.2400193"><ele>363.40000000000003</ele><time>2026-05-01T09:46:46.528Z</time></trkpt><trkpt lat="42.2575274" lon="14.2400608"><ele>362.0</ele><time>2026-05-01T09:46:47.535Z</time></trkpt><trkpt lat="42.2574355" lon="14.2400727"><ele>362.0</ele><time>2026-05-01T09:46:48.528Z</time></trkpt><trkpt lat="42.2573549" lon="14.2400521"><ele>362.0</ele><time>2026-05-01T09:46:49.525Z</time></trkpt><trkpt lat="42.2572661" lon="14.240014"><ele>362.0</ele><time>2026-05-01T09:46:50.54Z</time></trkpt><trkpt lat="42.2571819" lon="14.2399563"><ele>362.0</ele><time>2026-05-01T09:46:51.529Z</time></trkpt><trkpt lat="42.2571019" lon="14.2398824"><ele>362.0</ele><time>2026-05-01T09:46:52.53Z</time></trkpt><trkpt lat="42.2570344" lon="14.2397975"><ele>361.2857142857143</ele><time>2026-05-01T09:46:53.525Z</time></trkpt><trkpt lat="42.2569749" lon="14.239714"><ele>360.57142857142856</ele><time>2026-05-01T09:46:54.538Z</time></trkpt><trkpt lat="42.2569152" lon="14.2396484"><ele>359.8571428571429</ele><time>2026-05-01T09:46:55.534Z</time></trkpt><trkpt lat="42.2568568" lon="14.2395958"><ele>359.1428571428571</ele><time>2026-05-01T09:46:56.53Z</time></trkpt><trkpt lat="42.2567949" lon="14.2395468"><ele>358.42857142857144</ele><time>2026-05-01T09:46:57.535Z</time></trkpt><trkpt lat="42.2567282" lon="14.2395122"><ele>357.7142857142857</ele><time>2026-05-01T09:46:58.527Z</time></trkpt><trkpt lat="42.2566596" lon="14.2395202"><ele>357.0</ele><time>2026-05-01T09:46:59.533Z</time></trkpt><trkpt lat="42.2565943" lon="14.2395083"><ele>357.0</ele><time>2026-05-01T09:47:00.525Z</time></trkpt><trkpt lat="42.2565193" lon="14.2394183"><ele>357.0</ele><time>2026-05-01T09:47:02.529Z</time></trkpt><trkpt lat="42.2564631" lon="14.2393593"><ele>357.0</ele><time>2026-05-01T09:47:03.521Z</time></trkpt><trkpt lat="42.2563961" lon="14.2393143"><ele>357.0</ele><time>2026-05-01T09:47:04.523Z</time></trkpt><trkpt lat="42.2563247" lon="14.2392566"><ele>357.0</ele><time>2026-05-01T09:47:05.527Z</time></trkpt><trkpt lat="42.2562483" lon="14.2391891"><ele>357.0</ele><time>2026-05-01T09:47:06.526Z</time></trkpt><trkpt lat="42.2561752" lon="14.2391402"><ele>355.0</ele><time>2026-05-01T09:47:07.528Z</time></trkpt><trkpt lat="42.2560994" lon="14.2390753"><ele>353.0</ele><time>2026-05-01T09:47:08.525Z</time></trkpt><trkpt lat="42.2560274" lon="14.2390064"><ele>351.0</ele><time>2026-05-01T09:47:09.528Z</time></trkpt><trkpt lat="42.2559567" lon="14.2389474"><ele>349.0</ele><time>2026-05-01T09:47:10.526Z</time></trkpt><trkpt lat="42.2558856" lon="14.2388883"><ele>347.0</ele><time>2026-05-01T09:47:11.524Z</time></trkpt><trkpt lat="42.2558234" lon="14.2388279"><ele>345.0</ele><time>2026-05-01T09:47:12.526Z</time></trkpt><trkpt lat="42.2557612" lon="14.2387587"><ele>345.0</ele><time>2026-05-01T09:47:13.523Z</time></trkpt><trkpt lat="42.2556978" lon="14.2386917"><ele>345.0</ele><time>2026-05-01T09:47:14.522Z</time></trkpt><trkpt lat="42.2556364" lon="14.23865"><ele>345.0</ele><time>2026-05-01T09:47:15.524Z</time></trkpt><trkpt lat="42.2555189" lon="14.238627"><ele>345.0</ele><time>2026-05-01T09:47:17.532Z</time></trkpt><trkpt lat="42.2554656" lon="14.2385253"><ele>345.0</ele><time>2026-05-01T09:47:19.533Z</time></trkpt><trkpt lat="42.2554633" lon="14.238431"><ele>345.0</ele><time>2026-05-01T09:47:20.538Z</time></trkpt><trkpt lat="42.255436" lon="14.2383174"><ele>345.0</ele><time>2026-05-01T09:47:21.524Z</time></trkpt><trkpt lat="42.2553724" lon="14.2382111"><ele>345.0</ele><time>2026-05-01T09:47:22.549Z</time></trkpt><trkpt lat="42.2552803" lon="14.2381301"><ele>345.0</ele><time>2026-05-01T09:47:23.537Z</time></trkpt><trkpt lat="42.2551715" lon="14.2380783"><ele>345.0</ele><time>2026-05-01T09:47:24.538Z</time></trkpt><trkpt lat="42.2550514" lon="14.2380457"><ele>345.0</ele><time>2026-05-01T09:47:25.536Z</time></trkpt><trkpt lat="42.2549103" lon="14.2380412"><ele>340.5</ele><time>2026-05-01T09:47:26.534Z</time></trkpt><trkpt lat="42.2547668" lon="14.2380296"><ele>336.0</ele><time>2026-05-01T09:47:27.532Z</time></trkpt><trkpt lat="42.2546161" lon="14.2380152"><ele>331.5</ele><time>2026-05-01T09:47:28.531Z</time></trkpt><trkpt lat="42.2544709" lon="14.2380048"><ele>327.0</ele><time>2026-05-01T09:47:29.525Z</time></trkpt><trkpt lat="42.2543272" lon="14.2379778"><ele>327.0</ele><time>2026-05-01T09:47:30.518Z</time></trkpt><trkpt lat="42.254198" lon="14.2379232"><ele>327.0</ele><time>2026-05-01T09:47:31.527Z</time></trkpt><trkpt lat="42.2540807" lon="14.2378162"><ele>327.0</ele><time>2026-05-01T09:47:32.528Z</time></trkpt><trkpt lat="42.2539659" lon="14.2377009"><ele>327.0</ele><time>2026-05-01T09:47:33.528Z</time></trkpt><trkpt lat="42.253853" lon="14.2375655"><ele>327.75</ele><time>2026-05-01T09:47:34.521Z</time></trkpt><trkpt lat="42.2537388" lon="14.2374651"><ele>328.5</ele><time>2026-05-01T09:47:35.521Z</time></trkpt><trkpt lat="42.2536319" lon="14.2373227"><ele>329.25</ele><time>2026-05-01T09:47:36.522Z</time></trkpt><trkpt lat="42.2535276" lon="14.2371702"><ele>330.0</ele><time>2026-05-01T09:47:37.519Z</time></trkpt><trkpt lat="42.2534623" lon="14.2370062"><ele>330.0</ele><time>2026-05-01T09:47:38.526Z</time></trkpt><trkpt lat="42.2533909" lon="14.2368026"><ele>330.0</ele><time>2026-05-01T09:47:39.526Z</time></trkpt><trkpt lat="42.2533312" lon="14.2366304"><ele>330.0</ele><time>2026-05-01T09:47:40.526Z</time></trkpt><trkpt lat="42.2532725" lon="14.2364614"><ele>330.0</ele><time>2026-05-01T09:47:41.528Z</time></trkpt><trkpt lat="42.2532296" lon="14.2363035"><ele>330.5</ele><time>2026-05-01T09:47:42.528Z</time></trkpt><trkpt lat="42.253186" lon="14.2361565"><ele>331.0</ele><time>2026-05-01T09:47:43.533Z</time></trkpt><trkpt lat="42.2531405" lon="14.2359993"><ele>331.5</ele><time>2026-05-01T09:47:44.535Z</time></trkpt><trkpt lat="42.2531037" lon="14.235865"><ele>332.0</ele><time>2026-05-01T09:47:45.529Z</time></trkpt><trkpt lat="42.2530619" lon="14.2357357"><ele>328.40000000000003</ele><time>2026-05-01T09:47:46.535Z</time></trkpt><trkpt lat="42.2530173" lon="14.2356001"><ele>324.8</ele><time>2026-05-01T09:47:47.608Z</time></trkpt><trkpt lat="42.2529665" lon="14.2354674"><ele>321.2</ele><time>2026-05-01T09:47:48.609Z</time></trkpt><trkpt lat="42.2528982" lon="14.2353514"><ele>317.6</ele><time>2026-05-01T09:47:49.602Z</time></trkpt><trkpt lat="42.252808" lon="14.2352543"><ele>314.0</ele><time>2026-05-01T09:47:50.607Z</time></trkpt><trkpt lat="42.2526996" lon="14.2351728"><ele>314.0</ele><time>2026-05-01T09:47:51.592Z</time></trkpt><trkpt lat="42.2525929" lon="14.235116"><ele>314.0</ele><time>2026-05-01T09:47:52.596Z</time></trkpt><trkpt lat="42.2524782" lon="14.2350558"><ele>314.0</ele><time>2026-05-01T09:47:53.513Z</time></trkpt><trkpt lat="42.2523747" lon="14.2349813"><ele>314.0</ele><time>2026-05-01T09:47:54.511Z</time></trkpt><trkpt lat="42.252277" lon="14.2348852"><ele>315.0</ele><time>2026-05-01T09:47:55.519Z</time></trkpt><trkpt lat="42.2521812" lon="14.2347776"><ele>316.0</ele><time>2026-05-01T09:47:56.526Z</time></trkpt><trkpt lat="42.2520885" lon="14.2346435"><ele>317.0</ele><time>2026-05-01T09:47:57.519Z</time></trkpt><trkpt lat="42.2520127" lon="14.2345066"><ele>318.0</ele><time>2026-05-01T09:47:58.517Z</time></trkpt><trkpt lat="42.2519313" lon="14.2343557"><ele>318.0</ele><time>2026-05-01T09:47:59.521Z</time></trkpt><trkpt lat="42.2518542" lon="14.2342036"><ele>318.0</ele><time>2026-05-01T09:48:00.519Z</time></trkpt><trkpt lat="42.2517866" lon="14.2340568"><ele>318.0</ele><time>2026-05-01T09:48:01.514Z</time></trkpt><trkpt lat="42.2517363" lon="14.2339094"><ele>318.0</ele><time>2026-05-01T09:48:02.513Z</time></trkpt><trkpt lat="42.2517238" lon="14.2337585"><ele>314.6</ele><time>2026-05-01T09:48:03.508Z</time></trkpt><trkpt lat="42.2517392" lon="14.2336264"><ele>311.20000000000005</ele><time>2026-05-01T09:48:04.517Z</time></trkpt><trkpt lat="42.2517773" lon="14.2335144"><ele>307.8</ele><time>2026-05-01T09:48:05.515Z</time></trkpt><trkpt lat="42.2518348" lon="14.2334569"><ele>304.40000000000003</ele><time>2026-05-01T09:48:06.512Z</time></trkpt><trkpt lat="42.2519695" lon="14.2335052"><ele>301.0</ele><time>2026-05-01T09:48:08.516Z</time></trkpt><trkpt lat="42.2520377" lon="14.2336141"><ele>301.0</ele><time>2026-05-01T09:48:09.511Z</time></trkpt><trkpt lat="42.2520992" lon="14.2337493"><ele>301.0</ele><time>2026-05-01T09:48:10.51Z</time></trkpt><trkpt lat="42.2521579" lon="14.2338932"><ele>301.0</ele><time>2026-05-01T09:48:11.51Z</time></trkpt><trkpt lat="42.2522278" lon="14.2340445"><ele>301.0</ele><time>2026-05-01T09:48:12.511Z</time></trkpt><trkpt lat="42.2523117" lon="14.2341715"><ele>299.75</ele><time>2026-05-01T09:48:13.513Z</time></trkpt><trkpt lat="42.2524186" lon="14.2342771"><ele>298.5</ele><time>2026-05-01T09:48:14.511Z</time></trkpt><trkpt lat="42.252543" lon="14.2343657"><ele>297.25</ele><time>2026-05-01T09:48:15.513Z</time></trkpt><trkpt lat="42.2526797" lon="14.2344023"><ele>296.0</ele><time>2026-05-01T09:48:16.514Z</time></trkpt><trkpt lat="42.2528199" lon="14.2344359"><ele>296.0</ele><time>2026-05-01T09:48:17.515Z</time></trkpt><trkpt lat="42.2529663" lon="14.2344471"><ele>296.0</ele><time>2026-05-01T09:48:18.516Z</time></trkpt><trkpt lat="42.2531069" lon="14.2344532"><ele>296.0</ele><time>2026-05-01T09:48:19.511Z</time></trkpt><trkpt lat="42.2532606" lon="14.2344534"><ele>296.0</ele><time>2026-05-01T09:48:20.519Z</time></trkpt><trkpt lat="42.2534196" lon="14.2344501"><ele>294.25</ele><time>2026-05-01T09:48:21.518Z</time></trkpt><trkpt lat="42.2535683" lon="14.2344646"><ele>292.5</ele><time>2026-05-01T09:48:22.514Z</time></trkpt><trkpt lat="42.2537063" lon="14.2345092"><ele>290.75</ele><time>2026-05-01T09:48:23.515Z</time></trkpt><trkpt lat="42.2538347" lon="14.2345795"><ele>289.0</ele><time>2026-05-01T09:48:24.513Z</time></trkpt><trkpt lat="42.2539517" lon="14.2346523"><ele>290.0</ele><time>2026-05-01T09:48:25.516Z</time></trkpt><trkpt lat="42.2540573" lon="14.2347254"><ele>291.0</ele><time>2026-05-01T09:48:26.525Z</time></trkpt><trkpt lat="42.254168" lon="14.2348086"><ele>292.0</ele><time>2026-05-01T09:48:27.515Z</time></trkpt><trkpt lat="42.2542904" lon="14.2348899"><ele>293.0</ele><time>2026-05-01T09:48:28.522Z</time></trkpt><trkpt lat="42.2544162" lon="14.2349622"><ele>293.0</ele><time>2026-05-01T09:48:29.52Z</time></trkpt><trkpt lat="42.2545549" lon="14.2350493"><ele>293.0</ele><time>2026-05-01T09:48:30.522Z</time></trkpt><trkpt lat="42.2546864" lon="14.2351291"><ele>293.0</ele><time>2026-05-01T09:48:31.52Z</time></trkpt><trkpt lat="42.2548225" lon="14.235202"><ele>293.0</ele><time>2026-05-01T09:48:32.526Z</time></trkpt><trkpt lat="42.2549664" lon="14.2352699"><ele>290.0</ele><time>2026-05-01T09:48:33.516Z</time></trkpt><trkpt lat="42.2551081" lon="14.2353041"><ele>287.0</ele><time>2026-05-01T09:48:34.517Z</time></trkpt><trkpt lat="42.255275" lon="14.2353034"><ele>284.0</ele><time>2026-05-01T09:48:35.511Z</time></trkpt><trkpt lat="42.255433" lon="14.2353132"><ele>284.0</ele><time>2026-05-01T09:48:36.517Z</time></trkpt><trkpt lat="42.2555755" lon="14.2353262"><ele>284.0</ele><time>2026-05-01T09:48:37.519Z</time></trkpt><trkpt lat="42.2557247" lon="14.2353399"><ele>284.0</ele><time>2026-05-01T09:48:38.514Z</time></trkpt><trkpt lat="42.255871" lon="14.2353383"><ele>284.0</ele><time>2026-05-01T09:48:39.508Z</time></trkpt><trkpt lat="42.2560182" lon="14.2352878"><ele>282.0</ele><time>2026-05-01T09:48:40.51Z</time></trkpt><trkpt lat="42.2561479" lon="14.2352079"><ele>280.0</ele><time>2026-05-01T09:48:41.504Z</time></trkpt><trkpt lat="42.2562681" lon="14.2351165"><ele>278.0</ele><time>2026-05-01T09:48:42.507Z</time></trkpt><trkpt lat="42.2563611" lon="14.2350111"><ele>276.0</ele><time>2026-05-01T09:48:43.513Z</time></trkpt><trkpt lat="42.2564511" lon="14.2349021"><ele>276.2</ele><time>2026-05-01T09:48:44.514Z</time></trkpt><trkpt lat="42.2565319" lon="14.2348087"><ele>276.40000000000003</ele><time>2026-05-01T09:48:45.515Z</time></trkpt><trkpt lat="42.2566217" lon="14.234718"><ele>276.6</ele><time>2026-05-01T09:48:46.516Z</time></trkpt><trkpt lat="42.2567109" lon="14.2346328"><ele>276.8</ele><time>2026-05-01T09:48:47.512Z</time></trkpt><trkpt lat="42.2567944" lon="14.2345488"><ele>277.0</ele><time>2026-05-01T09:48:48.523Z</time></trkpt><trkpt lat="42.2568726" lon="14.2344687"><ele>274.8</ele><time>2026-05-01T09:48:49.512Z</time></trkpt><trkpt lat="42.2569392" lon="14.2343993"><ele>272.6</ele><time>2026-05-01T09:48:50.516Z</time></trkpt><trkpt lat="42.2569929" lon="14.234309"><ele>270.40000000000003</ele><time>2026-05-01T09:48:52.519Z</time></trkpt><trkpt lat="42.2569206" lon="14.2342471"><ele>268.2</ele><time>2026-05-01T09:48:55.52Z</time></trkpt><trkpt lat="42.2568458" lon="14.2342446"><ele>266.0</ele><time>2026-05-01T09:48:57.523Z</time></trkpt><trkpt lat="42.2567067" lon="14.2342539"><ele>266.0</ele><time>2026-05-01T09:48:59.519Z</time></trkpt><trkpt lat="42.2565934" lon="14.2342681"><ele>266.0</ele><time>2026-05-01T09:49:00.511Z</time></trkpt><trkpt lat="42.2564716" lon="14.2342804"><ele>266.0</ele><time>2026-05-01T09:49:01.523Z</time></trkpt><trkpt lat="42.2563504" lon="14.2342907"><ele>266.0</ele><time>2026-05-01T09:49:02.519Z</time></trkpt><trkpt lat="42.2562308" lon="14.2343093"><ele>266.0</ele><time>2026-05-01T09:49:03.513Z</time></trkpt><trkpt lat="42.2561164" lon="14.2343254"><ele>266.0</ele><time>2026-05-01T09:49:04.512Z</time></trkpt><trkpt lat="42.2559977" lon="14.2343266"><ele>266.0</ele><time>2026-05-01T09:49:05.508Z</time></trkpt><trkpt lat="42.2558785" lon="14.2342945"><ele>266.0</ele><time>2026-05-01T09:49:06.506Z</time></trkpt><trkpt lat="42.2557867" lon="14.2342389"><ele>266.0</ele><time>2026-05-01T09:49:07.514Z</time></trkpt><trkpt lat="42.2557085" lon="14.2341426"><ele>266.0</ele><time>2026-05-01T09:49:08.519Z</time></trkpt><trkpt lat="42.2556427" lon="14.2340057"><ele>266.0</ele><time>2026-05-01T09:49:09.512Z</time></trkpt><trkpt lat="42.255599" lon="14.2338526"><ele>266.0</ele><time>2026-05-01T09:49:10.516Z</time></trkpt><trkpt lat="42.2555676" lon="14.2336681"><ele>263.5</ele><time>2026-05-01T09:49:11.515Z</time></trkpt><trkpt lat="42.2555484" lon="14.2334823"><ele>261.0</ele><time>2026-05-01T09:49:12.52Z</time></trkpt><trkpt lat="42.2555374" lon="14.2332921"><ele>258.5</ele><time>2026-05-01T09:49:13.52Z</time></trkpt><trkpt lat="42.2555352" lon="14.2331221"><ele>256.0</ele><time>2026-05-01T09:49:14.512Z</time></trkpt><trkpt lat="42.2555538" lon="14.2329778"><ele>254.75</ele><time>2026-05-01T09:49:15.514Z</time></trkpt><trkpt lat="42.2555907" lon="14.232842"><ele>253.5</ele><time>2026-05-01T09:49:16.519Z</time></trkpt><trkpt lat="42.255654" lon="14.2327098"><ele>252.25</ele><time>2026-05-01T09:49:17.516Z</time></trkpt><trkpt lat="42.2557435" lon="14.2326004"><ele>251.0</ele><time>2026-05-01T09:49:18.519Z</time></trkpt><trkpt lat="42.2558567" lon="14.2325172"><ele>251.0</ele><time>2026-05-01T09:49:19.525Z</time></trkpt><trkpt lat="42.255973" lon="14.2324626"><ele>251.0</ele><time>2026-05-01T09:49:20.52Z</time></trkpt><trkpt lat="42.2560996" lon="14.2324163"><ele>251.0</ele><time>2026-05-01T09:49:21.521Z</time></trkpt><trkpt lat="42.2562134" lon="14.2323653"><ele>251.0</ele><time>2026-05-01T09:49:22.519Z</time></trkpt><trkpt lat="42.2563222" lon="14.232313"><ele>250.25</ele><time>2026-05-01T09:49:23.526Z</time></trkpt><trkpt lat="42.2564288" lon="14.2322716"><ele>249.5</ele><time>2026-05-01T09:49:24.522Z</time></trkpt><trkpt lat="42.2565451" lon="14.2322398"><ele>248.75</ele><time>2026-05-01T09:49:25.515Z</time></trkpt><trkpt lat="42.2566612" lon="14.2322244"><ele>248.0</ele><time>2026-05-01T09:49:26.521Z</time></trkpt><trkpt lat="42.2567845" lon="14.2322185"><ele>247.0</ele><time>2026-05-01T09:49:27.519Z</time></trkpt><trkpt lat="42.2569099" lon="14.2322193"><ele>246.0</ele><time>2026-05-01T09:49:28.521Z</time></trkpt><trkpt lat="42.257022" lon="14.2321982"><ele>245.0</ele><time>2026-05-01T09:49:29.516Z</time></trkpt><trkpt lat="42.2571241" lon="14.2321419"><ele>244.0</ele><time>2026-05-01T09:49:30.517Z</time></trkpt><trkpt lat="42.2572092" lon="14.2320639"><ele>244.0</ele><time>2026-05-01T09:49:31.514Z</time></trkpt><trkpt lat="42.257282" lon="14.2319695"><ele>244.0</ele><time>2026-05-01T09:49:32.516Z</time></trkpt><trkpt lat="42.2573544" lon="14.2318492"><ele>244.0</ele><time>2026-05-01T09:49:33.507Z</time></trkpt><trkpt lat="42.257454" lon="14.2317178"><ele>244.0</ele><time>2026-05-01T09:49:34.511Z</time></trkpt><trkpt lat="42.2575554" lon="14.2315592"><ele>241.5</ele><time>2026-05-01T09:49:35.521Z</time></trkpt><trkpt lat="42.2576527" lon="14.2313952"><ele>239.0</ele><time>2026-05-01T09:49:36.518Z</time></trkpt><trkpt lat="42.2577476" lon="14.2312596"><ele>236.5</ele><time>2026-05-01T09:49:37.519Z</time></trkpt><trkpt lat="42.2578467" lon="14.2311205"><ele>234.0</ele><time>2026-05-01T09:49:38.519Z</time></trkpt><trkpt lat="42.2579528" lon="14.2310133"><ele>234.0</ele><time>2026-05-01T09:49:39.521Z</time></trkpt><trkpt lat="42.2580646" lon="14.2308925"><ele>234.0</ele><time>2026-05-01T09:49:40.521Z</time></trkpt><trkpt lat="42.2581633" lon="14.2307613"><ele>234.0</ele><time>2026-05-01T09:49:41.515Z</time></trkpt><trkpt lat="42.2582222" lon="14.2305799"><ele>234.0</ele><time>2026-05-01T09:49:42.516Z</time></trkpt><trkpt lat="42.2582827" lon="14.2303853"><ele>230.75</ele><time>2026-05-01T09:49:43.513Z</time></trkpt><trkpt lat="42.25833" lon="14.2301903"><ele>227.5</ele><time>2026-05-01T09:49:44.512Z</time></trkpt><trkpt lat="42.2583491" lon="14.2299889"><ele>224.25</ele><time>2026-05-01T09:49:45.515Z</time></trkpt><trkpt lat="42.2583653" lon="14.2298036"><ele>221.0</ele><time>2026-05-01T09:49:46.518Z</time></trkpt><trkpt lat="42.2584008" lon="14.229613"><ele>220.25</ele><time>2026-05-01T09:49:47.524Z</time></trkpt><trkpt lat="42.2584271" lon="14.229439"><ele>219.5</ele><time>2026-05-01T09:49:48.528Z</time></trkpt><trkpt lat="42.2584486" lon="14.229293"><ele>218.75</ele><time>2026-05-01T09:49:49.511Z</time></trkpt><trkpt lat="42.2584276" lon="14.2291506"><ele>218.0</ele><time>2026-05-01T09:49:50.518Z</time></trkpt><trkpt lat="42.2583781" lon="14.2290055"><ele>215.75</ele><time>2026-05-01T09:49:51.51Z</time></trkpt><trkpt lat="42.2582809" lon="14.2289137"><ele>213.5</ele><time>2026-05-01T09:49:52.509Z</time></trkpt><trkpt lat="42.2581753" lon="14.2288464"><ele>211.25</ele><time>2026-05-01T09:49:53.511Z</time></trkpt><trkpt lat="42.2580617" lon="14.2288105"><ele>209.0</ele><time>2026-05-01T09:49:54.519Z</time></trkpt><trkpt lat="42.2579429" lon="14.2288297"><ele>209.5</ele><time>2026-05-01T09:49:55.507Z</time></trkpt><trkpt lat="42.2578164" lon="14.2288956"><ele>210.0</ele><time>2026-05-01T09:49:56.511Z</time></trkpt><trkpt lat="42.2576925" lon="14.228986"><ele>210.5</ele><time>2026-05-01T09:49:57.508Z</time></trkpt><trkpt lat="42.2575635" lon="14.2291118"><ele>211.0</ele><time>2026-05-01T09:49:58.516Z</time></trkpt><trkpt lat="42.2574257" lon="14.229215"><ele>211.0</ele><time>2026-05-01T09:49:59.515Z</time></trkpt><trkpt lat="42.2572882" lon="14.2292883"><ele>211.0</ele><time>2026-05-01T09:50:00.517Z</time></trkpt><trkpt lat="42.2571637" lon="14.2293458"><ele>211.0</ele><time>2026-05-01T09:50:01.513Z</time></trkpt><trkpt lat="42.2570285" lon="14.2293566"><ele>211.0</ele><time>2026-05-01T09:50:02.521Z</time></trkpt><trkpt lat="42.256911" lon="14.2292998"><ele>210.8</ele><time>2026-05-01T09:50:03.51Z</time></trkpt><trkpt lat="42.256826" lon="14.2292488"><ele>210.60000000000002</ele><time>2026-05-01T09:50:04.508Z</time></trkpt><trkpt lat="42.2567586" lon="14.2291585"><ele>210.4</ele><time>2026-05-01T09:50:05.51Z</time></trkpt><trkpt lat="42.2567221" lon="14.2290214"><ele>210.2</ele><time>2026-05-01T09:50:06.509Z</time></trkpt><trkpt lat="42.256719" lon="14.2288743"><ele>210.0</ele><time>2026-05-01T09:50:07.513Z</time></trkpt><trkpt lat="42.2567351" lon="14.2287038"><ele>209.75</ele><time>2026-05-01T09:50:08.512Z</time></trkpt><trkpt lat="42.2567706" lon="14.2285432"><ele>209.5</ele><time>2026-05-01T09:50:09.503Z</time></trkpt><trkpt lat="42.2568314" lon="14.2284088"><ele>209.25</ele><time>2026-05-01T09:50:10.516Z</time></trkpt><trkpt lat="42.2569246" lon="14.2282816"><ele>209.0</ele><time>2026-05-01T09:50:11.51Z</time></trkpt><trkpt lat="42.2570328" lon="14.2281462"><ele>209.0</ele><time>2026-05-01T09:50:12.518Z</time></trkpt><trkpt lat="42.2571421" lon="14.2279986"><ele>209.0</ele><time>2026-05-01T09:50:13.516Z</time></trkpt><trkpt lat="42.2572401" lon="14.2278436"><ele>209.0</ele><time>2026-05-01T09:50:14.516Z</time></trkpt><trkpt lat="42.257322" lon="14.2276921"><ele>209.0</ele><time>2026-05-01T09:50:15.511Z</time></trkpt><trkpt lat="42.2573614" lon="14.227524"><ele>207.0</ele><time>2026-05-01T09:50:16.515Z</time></trkpt><trkpt lat="42.2574031" lon="14.2273711"><ele>205.0</ele><time>2026-05-01T09:50:17.52Z</time></trkpt><trkpt lat="42.2574319" lon="14.2272197"><ele>203.0</ele><time>2026-05-01T09:50:18.519Z</time></trkpt><trkpt lat="42.2574453" lon="14.2270658"><ele>201.0</ele><time>2026-05-01T09:50:19.522Z</time></trkpt><trkpt lat="42.2574458" lon="14.2268951"><ele>199.20000000000002</ele><time>2026-05-01T09:50:20.526Z</time></trkpt><trkpt lat="42.257437" lon="14.2267519"><ele>197.4</ele><time>2026-05-01T09:50:21.517Z</time></trkpt><trkpt lat="42.257406" lon="14.2266339"><ele>195.6</ele><time>2026-05-01T09:50:22.524Z</time></trkpt><trkpt lat="42.257344" lon="14.2265287"><ele>193.8</ele><time>2026-05-01T09:50:23.518Z</time></trkpt><trkpt lat="42.2572489" lon="14.2264194"><ele>192.0</ele><time>2026-05-01T09:50:24.521Z</time></trkpt><trkpt lat="42.2571316" lon="14.2263358"><ele>189.75</ele><time>2026-05-01T09:50:25.508Z</time></trkpt><trkpt lat="42.2569962" lon="14.226262"><ele>187.5</ele><time>2026-05-01T09:50:26.515Z</time></trkpt><trkpt lat="42.2568628" lon="14.2262067"><ele>185.25</ele><time>2026-05-01T09:50:27.519Z</time></trkpt><trkpt lat="42.2567387" lon="14.2261463"><ele>183.0</ele><time>2026-05-01T09:50:28.523Z</time></trkpt><trkpt lat="42.2566456" lon="14.2260778"><ele>183.0</ele><time>2026-05-01T09:50:29.505Z</time></trkpt><trkpt lat="42.2565794" lon="14.2259922"><ele>183.0</ele><time>2026-05-01T09:50:30.514Z</time></trkpt><trkpt lat="42.2565461" lon="14.225882"><ele>183.0</ele><time>2026-05-01T09:50:31.513Z</time></trkpt><trkpt lat="42.2565341" lon="14.2257482"><ele>183.0</ele><time>2026-05-01T09:50:32.525Z</time></trkpt><trkpt lat="42.2565742" lon="14.2256047"><ele>183.0</ele><time>2026-05-01T09:50:33.505Z</time></trkpt><trkpt lat="42.2566437" lon="14.2254727"><ele>179.75</ele><time>2026-05-01T09:50:34.517Z</time></trkpt><trkpt lat="42.256727" lon="14.225369"><ele>176.5</ele><time>2026-05-01T09:50:35.514Z</time></trkpt><trkpt lat="42.2568438" lon="14.2253439"><ele>173.25</ele><time>2026-05-01T09:50:36.51Z</time></trkpt><trkpt lat="42.2569724" lon="14.2253633"><ele>170.0</ele><time>2026-05-01T09:50:37.516Z</time></trkpt><trkpt lat="42.2571281" lon="14.2254061"><ele>171.0</ele><time>2026-05-01T09:50:38.519Z</time></trkpt><trkpt lat="42.257292" lon="14.2254463"><ele>172.0</ele><time>2026-05-01T09:50:39.519Z</time></trkpt><trkpt lat="42.2574888" lon="14.2255276"><ele>173.0</ele><time>2026-05-01T09:50:40.521Z</time></trkpt><trkpt lat="42.2576379" lon="14.2255402"><ele>173.0</ele><time>2026-05-01T09:50:41.515Z</time></trkpt><trkpt lat="42.2577655" lon="14.2255527"><ele>173.0</ele><time>2026-05-01T09:50:42.52Z</time></trkpt><trkpt lat="42.2578793" lon="14.2255374"><ele>173.0</ele><time>2026-05-01T09:50:43.51Z</time></trkpt><trkpt lat="42.2579682" lon="14.2254772"><ele>173.0</ele><time>2026-05-01T09:50:44.514Z</time></trkpt><trkpt lat="42.2580076" lon="14.2253704"><ele>173.0</ele><time>2026-05-01T09:50:45.51Z</time></trkpt><trkpt lat="42.2580412" lon="14.2252564"><ele>173.0</ele><time>2026-05-01T09:50:46.511Z</time></trkpt><trkpt lat="42.2580299" lon="14.2251354"><ele>173.0</ele><time>2026-05-01T09:50:47.502Z</time></trkpt><trkpt lat="42.2580065" lon="14.2250319"><ele>173.0</ele><time>2026-05-01T09:50:48.507Z</time></trkpt><trkpt lat="42.2579421" lon="14.224934"><ele>173.0</ele><time>2026-05-01T09:50:49.513Z</time></trkpt><trkpt lat="42.2578431" lon="14.2248601"><ele>173.0</ele><time>2026-05-01T09:50:50.513Z</time></trkpt><trkpt lat="42.2577107" lon="14.2247992"><ele>171.25</ele><time>2026-05-01T09:50:51.515Z</time></trkpt><trkpt lat="42.2575699" lon="14.2247407"><ele>169.5</ele><time>2026-05-01T09:50:52.521Z</time></trkpt><trkpt lat="42.2574313" lon="14.2246783"><ele>167.75</ele><time>2026-05-01T09:50:53.518Z</time></trkpt><trkpt lat="42.2572938" lon="14.2246136"><ele>166.0</ele><time>2026-05-01T09:50:54.516Z</time></trkpt><trkpt lat="42.2571577" lon="14.2245522"><ele>165.4</ele><time>2026-05-01T09:50:55.511Z</time></trkpt><trkpt lat="42.2570412" lon="14.2245013"><ele>164.8</ele><time>2026-05-01T09:50:56.512Z</time></trkpt><trkpt lat="42.2569497" lon="14.224435"><ele>164.20000000000002</ele><time>2026-05-01T09:50:57.533Z</time></trkpt><trkpt lat="42.2568935" lon="14.2243463"><ele>163.60000000000002</ele><time>2026-05-01T09:50:58.513Z</time></trkpt><trkpt lat="42.2568659" lon="14.2242389"><ele>163.0</ele><time>2026-05-01T09:50:59.531Z</time></trkpt><trkpt lat="42.2568903" lon="14.2241171"><ele>163.0</ele><time>2026-05-01T09:51:00.523Z</time></trkpt><trkpt lat="42.2569478" lon="14.2240109"><ele>163.0</ele><time>2026-05-01T09:51:01.523Z</time></trkpt><trkpt lat="42.2570239" lon="14.2239025"><ele>163.0</ele><time>2026-05-01T09:51:02.528Z</time></trkpt><trkpt lat="42.2571227" lon="14.2238213"><ele>163.0</ele><time>2026-05-01T09:51:03.518Z</time></trkpt><trkpt lat="42.2572418" lon="14.223751"><ele>162.0</ele><time>2026-05-01T09:51:04.529Z</time></trkpt><trkpt lat="42.2573654" lon="14.2236953"><ele>161.0</ele><time>2026-05-01T09:51:05.524Z</time></trkpt><trkpt lat="42.257481" lon="14.2236382"><ele>160.0</ele><time>2026-05-01T09:51:06.528Z</time></trkpt><trkpt lat="42.2575863" lon="14.2235818"><ele>159.0</ele><time>2026-05-01T09:51:07.53Z</time></trkpt><trkpt lat="42.2576818" lon="14.223509"><ele>159.0</ele><time>2026-05-01T09:51:08.532Z</time></trkpt><trkpt lat="42.2577624" lon="14.2234064"><ele>159.0</ele><time>2026-05-01T09:51:09.528Z</time></trkpt><trkpt lat="42.25779" lon="14.2232783"><ele>159.0</ele><time>2026-05-01T09:51:10.526Z</time></trkpt><trkpt lat="42.2577621" lon="14.2231432"><ele>159.0</ele><time>2026-05-01T09:51:11.518Z</time></trkpt><trkpt lat="42.2577185" lon="14.2230347"><ele>159.0</ele><time>2026-05-01T09:51:12.524Z</time></trkpt><trkpt lat="42.2576645" lon="14.2229129"><ele>158.5</ele><time>2026-05-01T09:51:13.525Z</time></trkpt><trkpt lat="42.2576" lon="14.2227655"><ele>158.0</ele><time>2026-05-01T09:51:14.526Z</time></trkpt><trkpt lat="42.2575328" lon="14.2226073"><ele>157.5</ele><time>2026-05-01T09:51:15.527Z</time></trkpt><trkpt lat="42.2574653" lon="14.2224481"><ele>157.0</ele><time>2026-05-01T09:51:16.524Z</time></trkpt><trkpt lat="42.2573997" lon="14.2222705"><ele>158.0</ele><time>2026-05-01T09:51:17.532Z</time></trkpt><trkpt lat="42.257336" lon="14.2220799"><ele>159.0</ele><time>2026-05-01T09:51:18.528Z</time></trkpt><trkpt lat="42.2572777" lon="14.2218988"><ele>160.0</ele><time>2026-05-01T09:51:19.532Z</time></trkpt><trkpt lat="42.2572145" lon="14.2217309"><ele>161.0</ele><time>2026-05-01T09:51:20.539Z</time></trkpt><trkpt lat="42.2571735" lon="14.2215811"><ele>162.0</ele><time>2026-05-01T09:51:21.538Z</time></trkpt><trkpt lat="42.2571649" lon="14.2214629"><ele>163.0</ele><time>2026-05-01T09:51:22.607Z</time></trkpt><trkpt lat="42.2571739" lon="14.2213682"><ele>164.0</ele><time>2026-05-01T09:51:23.612Z</time></trkpt><trkpt lat="42.2572055" lon="14.2212255"><ele>165.0</ele><time>2026-05-01T09:51:24.615Z</time></trkpt><trkpt lat="42.2572574" lon="14.2211013"><ele>166.0</ele><time>2026-05-01T09:51:25.602Z</time></trkpt><trkpt lat="42.2573372" lon="14.220993"><ele>166.0</ele><time>2026-05-01T09:51:26.601Z</time></trkpt><trkpt lat="42.2574563" lon="14.2208803"><ele>166.0</ele><time>2026-05-01T09:51:27.594Z</time></trkpt><trkpt lat="42.2575624" lon="14.2208351"><ele>166.0</ele><time>2026-05-01T09:51:28.605Z</time></trkpt><trkpt lat="42.2576838" lon="14.2207707"><ele>166.0</ele><time>2026-05-01T09:51:29.612Z</time></trkpt><trkpt lat="42.2578112" lon="14.2206988"><ele>166.0</ele><time>2026-05-01T09:51:30.613Z</time></trkpt><trkpt lat="42.2579463" lon="14.22065"><ele>166.0</ele><time>2026-05-01T09:51:31.61Z</time></trkpt><trkpt lat="42.2580329" lon="14.2205675"><ele>166.0</ele><time>2026-05-01T09:51:32.619Z</time></trkpt><trkpt lat="42.2580882" lon="14.2204688"><ele>166.0</ele><time>2026-05-01T09:51:33.613Z</time></trkpt><trkpt lat="42.2581045" lon="14.2203814"><ele>166.0</ele><time>2026-05-01T09:51:34.611Z</time></trkpt><trkpt lat="42.2580074" lon="14.2202046"><ele>168.8</ele><time>2026-05-01T09:51:36.511Z</time></trkpt><trkpt lat="42.2579055" lon="14.2201397"><ele>171.60000000000002</ele><time>2026-05-01T09:51:37.512Z</time></trkpt><trkpt lat="42.2577988" lon="14.2201028"><ele>174.4</ele><time>2026-05-01T09:51:38.521Z</time></trkpt><trkpt lat="42.2576939" lon="14.2200874"><ele>177.2</ele><time>2026-05-01T09:51:39.526Z</time></trkpt><trkpt lat="42.2575855" lon="14.2200807"><ele>180.0</ele><time>2026-05-01T09:51:40.53Z</time></trkpt><trkpt lat="42.2574724" lon="14.2200568"><ele>180.0</ele><time>2026-05-01T09:51:41.53Z</time></trkpt><trkpt lat="42.2573519" lon="14.2200239"><ele>180.0</ele><time>2026-05-01T09:51:42.526Z</time></trkpt><trkpt lat="42.2572266" lon="14.219985"><ele>180.0</ele><time>2026-05-01T09:51:43.525Z</time></trkpt><trkpt lat="42.2570935" lon="14.219951"><ele>180.0</ele><time>2026-05-01T09:51:44.529Z</time></trkpt><trkpt lat="42.2569594" lon="14.2199155"><ele>179.6</ele><time>2026-05-01T09:51:45.528Z</time></trkpt><trkpt lat="42.2568424" lon="14.2198619"><ele>179.2</ele><time>2026-05-01T09:51:46.523Z</time></trkpt><trkpt lat="42.2567521" lon="14.2197897"><ele>178.8</ele><time>2026-05-01T09:51:47.52Z</time></trkpt><trkpt lat="42.2566964" lon="14.2197155"><ele>178.4</ele><time>2026-05-01T09:51:48.529Z</time></trkpt><trkpt lat="42.2566775" lon="14.2196219"><ele>178.0</ele><time>2026-05-01T09:51:49.522Z</time></trkpt><trkpt lat="42.2566772" lon="14.219497"><ele>180.0</ele><time>2026-05-01T09:51:51.522Z</time></trkpt><trkpt lat="42.2566131" lon="14.2195648"><ele>182.0</ele><time>2026-05-01T09:52:15.532Z</time></trkpt><trkpt lat="42.2565522" lon="14.2195956"><ele>184.0</ele><time>2026-05-01T09:52:16.519Z</time></trkpt><trkpt lat="42.2564744" lon="14.219606"><ele>186.0</ele><time>2026-05-01T09:52:17.523Z</time></trkpt><trkpt lat="42.2563994" lon="14.2196102"><ele>188.0</ele><time>2026-05-01T09:52:18.523Z</time></trkpt><trkpt lat="42.2563256" lon="14.2196"><ele>190.0</ele><time>2026-05-01T09:52:19.523Z</time></trkpt><trkpt lat="42.2562499" lon="14.2195675"><ele>190.0</ele><time>2026-05-01T09:52:20.523Z</time></trkpt><trkpt lat="42.2561937" lon="14.2195025"><ele>190.0</ele><time>2026-05-01T09:52:21.518Z</time></trkpt><trkpt lat="42.2561483" lon="14.2194267"><ele>190.0</ele><time>2026-05-01T09:52:22.521Z</time></trkpt><trkpt lat="42.2560381" lon="14.2193585"><ele>190.0</ele><time>2026-05-01T09:52:24.516Z</time></trkpt><trkpt lat="42.2559748" lon="14.2193726"><ele>190.0</ele><time>2026-05-01T09:52:25.515Z</time></trkpt><trkpt lat="42.2558883" lon="14.2194596"><ele>190.0</ele><time>2026-05-01T09:52:27.519Z</time></trkpt><trkpt lat="42.2558687" lon="14.2195426"><ele>190.0</ele><time>2026-05-01T09:52:28.516Z</time></trkpt><trkpt lat="42.2558836" lon="14.2196471"><ele>190.0</ele><time>2026-05-01T09:52:29.525Z</time></trkpt><trkpt lat="42.2559074" lon="14.2197652"><ele>190.0</ele><time>2026-05-01T09:52:30.521Z</time></trkpt><trkpt lat="42.2559217" lon="14.2198958"><ele>190.0</ele><time>2026-05-01T09:52:31.528Z</time></trkpt><trkpt lat="42.2559231" lon="14.2200355"><ele>190.0</ele><time>2026-05-01T09:52:32.526Z</time></trkpt><trkpt lat="42.2559072" lon="14.2201792"><ele>187.8</ele><time>2026-05-01T09:52:33.523Z</time></trkpt><trkpt lat="42.2558909" lon="14.2203128"><ele>185.6</ele><time>2026-05-01T09:52:34.522Z</time></trkpt><trkpt lat="42.2558761" lon="14.2204369"><ele>183.39999999999998</ele><time>2026-05-01T09:52:35.527Z</time></trkpt><trkpt lat="42.2558589" lon="14.2205638"><ele>181.2</ele><time>2026-05-01T09:52:36.527Z</time></trkpt><trkpt lat="42.2558331" lon="14.2206749"><ele>179.0</ele><time>2026-05-01T09:52:37.527Z</time></trkpt><trkpt lat="42.2558" lon="14.2207873"><ele>178.6</ele><time>2026-05-01T09:52:38.522Z</time></trkpt><trkpt lat="42.25575" lon="14.2209024"><ele>178.2</ele><time>2026-05-01T09:52:39.521Z</time></trkpt><trkpt lat="42.255682" lon="14.2209897"><ele>177.79999999999998</ele><time>2026-05-01T09:52:40.519Z</time></trkpt><trkpt lat="42.2555896" lon="14.2210501"><ele>177.39999999999998</ele><time>2026-05-01T09:52:41.52Z</time></trkpt><trkpt lat="42.2554818" lon="14.2210977"><ele>177.0</ele><time>2026-05-01T09:52:42.531Z</time></trkpt><trkpt lat="42.255372" lon="14.2211591"><ele>177.0</ele><time>2026-05-01T09:52:43.527Z</time></trkpt><trkpt lat="42.2552598" lon="14.2212272"><ele>177.0</ele><time>2026-05-01T09:52:44.526Z</time></trkpt><trkpt lat="42.2551554" lon="14.2212948"><ele>177.0</ele><time>2026-05-01T09:52:45.526Z</time></trkpt><trkpt lat="42.2550644" lon="14.2213556"><ele>177.0</ele><time>2026-05-01T09:52:46.531Z</time></trkpt><trkpt lat="42.2549727" lon="14.2214196"><ele>177.0</ele><time>2026-05-01T09:52:47.526Z</time></trkpt><trkpt lat="42.2548837" lon="14.2214858"><ele>175.6</ele><time>2026-05-01T09:52:48.536Z</time></trkpt><trkpt lat="42.2547901" lon="14.2215336"><ele>174.2</ele><time>2026-05-01T09:52:49.523Z</time></trkpt><trkpt lat="42.2547001" lon="14.2215622"><ele>172.8</ele><time>2026-05-01T09:52:50.528Z</time></trkpt><trkpt lat="42.2546085" lon="14.2215635"><ele>171.4</ele><time>2026-05-01T09:52:51.532Z</time></trkpt><trkpt lat="42.2545112" lon="14.2215141"><ele>170.0</ele><time>2026-05-01T09:52:52.523Z</time></trkpt><trkpt lat="42.254424" lon="14.2214379"><ele>169.8</ele><time>2026-05-01T09:52:53.534Z</time></trkpt><trkpt lat="42.2543609" lon="14.221333"><ele>169.6</ele><time>2026-05-01T09:52:54.526Z</time></trkpt><trkpt lat="42.2543122" lon="14.2212266"><ele>169.39999999999998</ele><time>2026-05-01T09:52:55.527Z</time></trkpt><trkpt lat="42.254268" lon="14.2211376"><ele>169.2</ele><time>2026-05-01T09:52:56.529Z</time></trkpt><trkpt lat="42.254173" lon="14.2210526"><ele>169.0</ele><time>2026-05-01T09:52:58.532Z</time></trkpt><trkpt lat="42.2540552" lon="14.221091"><ele>169.0</ele><time>2026-05-01T09:53:00.527Z</time></trkpt><trkpt lat="42.2539583" lon="14.221131"><ele>169.0</ele><time>2026-05-01T09:53:02.539Z</time></trkpt><trkpt lat="42.2538473" lon="14.2210635"><ele>169.0</ele><time>2026-05-01T09:53:04.522Z</time></trkpt><trkpt lat="42.2537976" lon="14.2209838"><ele>169.0</ele><time>2026-05-01T09:53:05.528Z</time></trkpt><trkpt lat="42.25376" lon="14.2208771"><ele>169.0</ele><time>2026-05-01T09:53:06.524Z</time></trkpt><trkpt lat="42.2537156" lon="14.2207654"><ele>169.16666666666669</ele><time>2026-05-01T09:53:07.525Z</time></trkpt><trkpt lat="42.2536655" lon="14.220661"><ele>169.33333333333334</ele><time>2026-05-01T09:53:08.519Z</time></trkpt><trkpt lat="42.2536109" lon="14.2206051"><ele>169.5</ele><time>2026-05-01T09:53:09.521Z</time></trkpt><trkpt lat="42.2535381" lon="14.2205864"><ele>169.66666666666666</ele><time>2026-05-01T09:53:10.523Z</time></trkpt><trkpt lat="42.2534519" lon="14.2205772"><ele>169.83333333333331</ele><time>2026-05-01T09:53:11.523Z</time></trkpt><trkpt lat="42.2533633" lon="14.2205762"><ele>170.0</ele><time>2026-05-01T09:53:12.522Z</time></trkpt><trkpt lat="42.253274" lon="14.2205751"><ele>170.2</ele><time>2026-05-01T09:53:13.524Z</time></trkpt><trkpt lat="42.2531805" lon="14.2205769"><ele>170.4</ele><time>2026-05-01T09:53:14.525Z</time></trkpt><trkpt lat="42.2530817" lon="14.2205738"><ele>170.60000000000002</ele><time>2026-05-01T09:53:15.526Z</time></trkpt><trkpt lat="42.2529802" lon="14.2205775"><ele>170.8</ele><time>2026-05-01T09:53:16.532Z</time></trkpt><trkpt lat="42.2528783" lon="14.2205714"><ele>171.0</ele><time>2026-05-01T09:53:17.527Z</time></trkpt><trkpt lat="42.2527667" lon="14.2205672"><ele>172.5</ele><time>2026-05-01T09:53:18.53Z</time></trkpt><trkpt lat="42.2526503" lon="14.2205583"><ele>174.0</ele><time>2026-05-01T09:53:19.525Z</time></trkpt><trkpt lat="42.2525344" lon="14.220539"><ele>175.5</ele><time>2026-05-01T09:53:20.531Z</time></trkpt><trkpt lat="42.2524217" lon="14.2205147"><ele>177.0</ele><time>2026-05-01T09:53:21.53Z</time></trkpt><trkpt lat="42.252298" lon="14.2204785"><ele>179.0</ele><time>2026-05-01T09:53:22.528Z</time></trkpt><trkpt lat="42.2521715" lon="14.2204303"><ele>181.0</ele><time>2026-05-01T09:53:23.531Z</time></trkpt><trkpt lat="42.2520447" lon="14.2203742"><ele>183.0</ele><time>2026-05-01T09:53:24.531Z</time></trkpt><trkpt lat="42.2519183" lon="14.2203044"><ele>185.0</ele><time>2026-05-01T09:53:25.526Z</time></trkpt><trkpt lat="42.2517907" lon="14.2202473"><ele>185.0</ele><time>2026-05-01T09:53:26.539Z</time></trkpt><trkpt lat="42.2516641" lon="14.2202069"><ele>185.0</ele><time>2026-05-01T09:53:27.53Z</time></trkpt><trkpt lat="42.2515433" lon="14.2201705"><ele>185.0</ele><time>2026-05-01T09:53:28.531Z</time></trkpt><trkpt lat="42.2514264" lon="14.2201431"><ele>185.0</ele><time>2026-05-01T09:53:29.531Z</time></trkpt><trkpt lat="42.2513021" lon="14.2201137"><ele>187.0</ele><time>2026-05-01T09:53:30.525Z</time></trkpt><trkpt lat="42.2511877" lon="14.22011"><ele>189.0</ele><time>2026-05-01T09:53:31.53Z</time></trkpt><trkpt lat="42.251068" lon="14.2200972"><ele>191.0</ele><time>2026-05-01T09:53:32.535Z</time></trkpt><trkpt lat="42.2509441" lon="14.2200995"><ele>193.0</ele><time>2026-05-01T09:53:33.528Z</time></trkpt><trkpt lat="42.2508247" lon="14.2201126"><ele>193.0</ele><time>2026-05-01T09:53:34.524Z</time></trkpt><trkpt lat="42.250709" lon="14.2201345"><ele>193.0</ele><time>2026-05-01T09:53:35.526Z</time></trkpt><trkpt lat="42.2506063" lon="14.2201443"><ele>193.0</ele><time>2026-05-01T09:53:36.529Z</time></trkpt><trkpt lat="42.250501" lon="14.2201548"><ele>193.0</ele><time>2026-05-01T09:53:37.541Z</time></trkpt><trkpt lat="42.2503925" lon="14.2201246"><ele>193.0</ele><time>2026-05-01T09:53:38.53Z</time></trkpt><trkpt lat="42.2502771" lon="14.2200619"><ele>194.0</ele><time>2026-05-01T09:53:39.537Z</time></trkpt><trkpt lat="42.2501661" lon="14.2199798"><ele>195.0</ele><time>2026-05-01T09:53:40.542Z</time></trkpt><trkpt lat="42.2500637" lon="14.2199062"><ele>196.0</ele><time>2026-05-01T09:53:41.616Z</time></trkpt><trkpt lat="42.2499771" lon="14.2198713"><ele>197.0</ele><time>2026-05-01T09:53:42.61Z</time></trkpt><trkpt lat="42.2498988" lon="14.2198596"><ele>198.0</ele><time>2026-05-01T09:53:43.614Z</time></trkpt><trkpt lat="42.2498215" lon="14.219834"><ele>201.33333333333334</ele><time>2026-05-01T09:53:44.598Z</time></trkpt><trkpt lat="42.2497696" lon="14.2197828"><ele>204.66666666666669</ele><time>2026-05-01T09:53:45.507Z</time></trkpt><trkpt lat="42.2497192" lon="14.2196221"><ele>208.0</ele><time>2026-05-01T09:53:47.517Z</time></trkpt><trkpt lat="42.2497013" lon="14.2195083"><ele>211.33333333333334</ele><time>2026-05-01T09:53:48.532Z</time></trkpt><trkpt lat="42.2496673" lon="14.2193976"><ele>214.66666666666669</ele><time>2026-05-01T09:53:49.53Z</time></trkpt><trkpt lat="42.2496319" lon="14.2193087"><ele>218.0</ele><time>2026-05-01T09:53:50.527Z</time></trkpt><trkpt lat="42.2495788" lon="14.2192066"><ele>218.00000000000003</ele><time>2026-05-01T09:53:52.523Z</time></trkpt><trkpt lat="42.249506" lon="14.2192046"><ele>218.0</ele><time>2026-05-01T09:53:55.533Z</time></trkpt><trkpt lat="42.249476" lon="14.219285"><ele>218.0</ele><time>2026-05-01T09:54:12.545Z</time></trkpt><trkpt lat="42.2494486" lon="14.2193682"><ele>218.0</ele><time>2026-05-01T09:54:15.542Z</time></trkpt><trkpt lat="42.2494404" lon="14.2194553"><ele>218.00000000000003</ele><time>2026-05-01T09:54:19.538Z</time></trkpt><trkpt lat="42.2493663" lon="14.2195153"><ele>218.0</ele><time>2026-05-01T09:54:32.542Z</time></trkpt><trkpt lat="42.2492756" lon="14.2194739"><ele>218.0</ele><time>2026-05-01T09:54:34.53Z</time></trkpt><trkpt lat="42.2491856" lon="14.2194029"><ele>218.0</ele><time>2026-05-01T09:54:36.526Z</time></trkpt><trkpt lat="42.2491207" lon="14.2193772"><ele>218.0</ele><time>2026-05-01T09:54:37.523Z</time></trkpt><trkpt lat="42.2490563" lon="14.2193684"><ele>218.0</ele><time>2026-05-01T09:54:38.527Z</time></trkpt><trkpt lat="42.2489506" lon="14.2193294"><ele>218.0</ele><time>2026-05-01T09:54:40.522Z</time></trkpt><trkpt lat="42.2488826" lon="14.2192205"><ele>218.16666666666669</ele><time>2026-05-01T09:54:42.522Z</time></trkpt><trkpt lat="42.248856" lon="14.2191377"><ele>218.33333333333334</ele><time>2026-05-01T09:54:43.534Z</time></trkpt><trkpt lat="42.248823" lon="14.2190323"><ele>218.5</ele><time>2026-05-01T09:54:44.533Z</time></trkpt><trkpt lat="42.2488183" lon="14.2188536"><ele>218.66666666666669</ele><time>2026-05-01T09:54:46.537Z</time></trkpt><trkpt lat="42.2488337" lon="14.2187627"><ele>218.83333333333334</ele><time>2026-05-01T09:54:47.533Z</time></trkpt><trkpt lat="42.2488579" lon="14.218674"><ele>219.0</ele><time>2026-05-01T09:54:48.54Z</time></trkpt><trkpt lat="42.2488667" lon="14.2185736"><ele>219.0</ele><time>2026-05-01T09:54:49.526Z</time></trkpt><trkpt lat="42.2488583" lon="14.2184807"><ele>219.0</ele><time>2026-05-01T09:54:50.528Z</time></trkpt><trkpt lat="42.2488318" lon="14.218381"><ele>219.0</ele><time>2026-05-01T09:54:51.534Z</time></trkpt><trkpt lat="42.2488065" lon="14.2182819"><ele>219.0</ele><time>2026-05-01T09:54:52.532Z</time></trkpt><trkpt lat="42.2487796" lon="14.2181911"><ele>219.0</ele><time>2026-05-01T09:54:53.535Z</time></trkpt><trkpt lat="42.2487523" lon="14.2180997"><ele>219.0</ele><time>2026-05-01T09:54:54.532Z</time></trkpt><trkpt lat="42.2487333" lon="14.2179966"><ele>219.0</ele><time>2026-05-01T09:54:55.531Z</time></trkpt><trkpt lat="42.248721" lon="14.2178768"><ele>222.2</ele><time>2026-05-01T09:54:56.528Z</time></trkpt><trkpt lat="42.2487011" lon="14.2177413"><ele>225.39999999999998</ele><time>2026-05-01T09:54:57.523Z</time></trkpt><trkpt lat="42.2486685" lon="14.2176056"><ele>228.6</ele><time>2026-05-01T09:54:58.537Z</time></trkpt><trkpt lat="42.248639" lon="14.2174629"><ele>231.8</ele><time>2026-05-01T09:54:59.525Z</time></trkpt><trkpt lat="42.2486208" lon="14.2173145"><ele>235.0</ele><time>2026-05-01T09:55:00.533Z</time></trkpt><trkpt lat="42.2486091" lon="14.2171706"><ele>238.0</ele><time>2026-05-01T09:55:01.537Z</time></trkpt><trkpt lat="42.2485874" lon="14.2170446"><ele>241.0</ele><time>2026-05-01T09:55:02.528Z</time></trkpt><trkpt lat="42.2485475" lon="14.2169257"><ele>244.0</ele><time>2026-05-01T09:55:03.531Z</time></trkpt><trkpt lat="42.2484897" lon="14.2168111"><ele>247.0</ele><time>2026-05-01T09:55:04.539Z</time></trkpt><trkpt lat="42.2484436" lon="14.2166885"><ele>250.0</ele><time>2026-05-01T09:55:05.535Z</time></trkpt><trkpt lat="42.248401" lon="14.2165489"><ele>252.2</ele><time>2026-05-01T09:55:06.535Z</time></trkpt><trkpt lat="42.2483616" lon="14.2164077"><ele>254.4</ele><time>2026-05-01T09:55:07.533Z</time></trkpt><trkpt lat="42.2483257" lon="14.2162684"><ele>256.6</ele><time>2026-05-01T09:55:08.534Z</time></trkpt><trkpt lat="42.2482772" lon="14.2161347"><ele>258.8</ele><time>2026-05-01T09:55:09.529Z</time></trkpt><trkpt lat="42.2482425" lon="14.2160052"><ele>261.0</ele><time>2026-05-01T09:55:10.533Z</time></trkpt><trkpt lat="42.2482056" lon="14.2158717"><ele>261.0</ele><time>2026-05-01T09:55:11.53Z</time></trkpt><trkpt lat="42.2481702" lon="14.2157488"><ele>261.0</ele><time>2026-05-01T09:55:12.528Z</time></trkpt><trkpt lat="42.2481237" lon="14.2156238"><ele>261.0</ele><time>2026-05-01T09:55:13.532Z</time></trkpt><trkpt lat="42.2480593" lon="14.2155044"><ele>261.0</ele><time>2026-05-01T09:55:14.531Z</time></trkpt><trkpt lat="42.2480098" lon="14.2153963"><ele>261.0</ele><time>2026-05-01T09:55:15.531Z</time></trkpt><trkpt lat="42.2479636" lon="14.2152674"><ele>261.6</ele><time>2026-05-01T09:55:16.534Z</time></trkpt><trkpt lat="42.2479231" lon="14.2151391"><ele>262.20000000000005</ele><time>2026-05-01T09:55:17.537Z</time></trkpt><trkpt lat="42.2478827" lon="14.2150267"><ele>262.79999999999995</ele><time>2026-05-01T09:55:18.539Z</time></trkpt><trkpt lat="42.2478537" lon="14.2149032"><ele>263.4</ele><time>2026-05-01T09:55:19.525Z</time></trkpt><trkpt lat="42.2478533" lon="14.2147914"><ele>264.0</ele><time>2026-05-01T09:55:20.53Z</time></trkpt><trkpt lat="42.2478769" lon="14.2146817"><ele>264.0</ele><time>2026-05-01T09:55:21.53Z</time></trkpt><trkpt lat="42.2479106" lon="14.2145665"><ele>264.0</ele><time>2026-05-01T09:55:22.533Z</time></trkpt><trkpt lat="42.2479181" lon="14.2144549"><ele>264.0</ele><time>2026-05-01T09:55:23.527Z</time></trkpt><trkpt lat="42.2479008" lon="14.2143465"><ele>264.0</ele><time>2026-05-01T09:55:24.529Z</time></trkpt><trkpt lat="42.2478748" lon="14.2142219"><ele>264.0</ele><time>2026-05-01T09:55:25.531Z</time></trkpt><trkpt lat="42.2478422" lon="14.2140926"><ele>266.0</ele><time>2026-05-01T09:55:26.536Z</time></trkpt><trkpt lat="42.2477939" lon="14.2139766"><ele>268.0</ele><time>2026-05-01T09:55:27.539Z</time></trkpt><trkpt lat="42.2477449" lon="14.2138674"><ele>270.0</ele><time>2026-05-01T09:55:28.537Z</time></trkpt><trkpt lat="42.2477018" lon="14.2137707"><ele>272.0</ele><time>2026-05-01T09:55:29.531Z</time></trkpt><trkpt lat="42.2476128" lon="14.2136547"><ele>274.0</ele><time>2026-05-01T09:55:31.531Z</time></trkpt><trkpt lat="42.2475705" lon="14.2135371"><ele>274.0</ele><time>2026-05-01T09:55:33.523Z</time></trkpt><trkpt lat="42.2475723" lon="14.2134505"><ele>274.0</ele><time>2026-05-01T09:55:34.523Z</time></trkpt><trkpt lat="42.2475557" lon="14.2133212"><ele>274.0</ele><time>2026-05-01T09:55:35.534Z</time></trkpt><trkpt lat="42.2475358" lon="14.2131985"><ele>274.0</ele><time>2026-05-01T09:55:36.539Z</time></trkpt><trkpt lat="42.2475191" lon="14.2130844"><ele>274.0</ele><time>2026-05-01T09:55:37.539Z</time></trkpt><trkpt lat="42.2475086" lon="14.2129451"><ele>274.0</ele><time>2026-05-01T09:55:38.539Z</time></trkpt><trkpt lat="42.2474958" lon="14.2128038"><ele>274.4</ele><time>2026-05-01T09:55:39.537Z</time></trkpt><trkpt lat="42.2474848" lon="14.212686"><ele>274.79999999999995</ele><time>2026-05-01T09:55:40.535Z</time></trkpt><trkpt lat="42.2474827" lon="14.2125735"><ele>275.20000000000005</ele><time>2026-05-01T09:55:41.54Z</time></trkpt><trkpt lat="42.2474779" lon="14.2124459"><ele>275.6</ele><time>2026-05-01T09:55:42.532Z</time></trkpt><trkpt lat="42.2474614" lon="14.2123021"><ele>276.0</ele><time>2026-05-01T09:55:43.535Z</time></trkpt><trkpt lat="42.2474445" lon="14.2121534"><ele>277.3333333333333</ele><time>2026-05-01T09:55:44.537Z</time></trkpt><trkpt lat="42.2474146" lon="14.2120196"><ele>278.6666666666667</ele><time>2026-05-01T09:55:45.54Z</time></trkpt><trkpt lat="42.2473831" lon="14.211903"><ele>280.0</ele><time>2026-05-01T09:55:46.535Z</time></trkpt><trkpt lat="42.2473534" lon="14.2117897"><ele>281.33333333333337</ele><time>2026-05-01T09:55:47.536Z</time></trkpt><trkpt lat="42.2473191" lon="14.2116857"><ele>282.6666666666667</ele><time>2026-05-01T09:55:48.538Z</time></trkpt><trkpt lat="42.2472801" lon="14.2116066"><ele>284.0</ele><time>2026-05-01T09:55:49.53Z</time></trkpt><trkpt lat="42.2472112" lon="14.211499"><ele>283.2</ele><time>2026-05-01T09:55:51.528Z</time></trkpt><trkpt lat="42.2472442" lon="14.2113534"><ele>282.4</ele><time>2026-05-01T09:55:53.527Z</time></trkpt><trkpt lat="42.2472919" lon="14.2112552"><ele>281.6</ele><time>2026-05-01T09:55:54.532Z</time></trkpt><trkpt lat="42.2473369" lon="14.2111487"><ele>280.8</ele><time>2026-05-01T09:55:55.536Z</time></trkpt><trkpt lat="42.2473569" lon="14.2110353"><ele>280.0</ele><time>2026-05-01T09:55:56.535Z</time></trkpt><trkpt lat="42.2473665" lon="14.2109069"><ele>282.0</ele><time>2026-05-01T09:55:57.519Z</time></trkpt><trkpt lat="42.2473641" lon="14.2107639"><ele>284.0</ele><time>2026-05-01T09:55:58.532Z</time></trkpt><trkpt lat="42.2473556" lon="14.2106316"><ele>286.0</ele><time>2026-05-01T09:55:59.529Z</time></trkpt><trkpt lat="42.247328" lon="14.2105167"><ele>288.0</ele><time>2026-05-01T09:56:00.537Z</time></trkpt><trkpt lat="42.2473076" lon="14.2104327"><ele>290.0</ele><time>2026-05-01T09:56:01.537Z</time></trkpt><trkpt lat="42.2473045" lon="14.2103261"><ele>292.0</ele><time>2026-05-01T09:56:03.529Z</time></trkpt><trkpt lat="42.2473414" lon="14.2101969"><ele>294.16666666666663</ele><time>2026-05-01T09:56:05.533Z</time></trkpt><trkpt lat="42.2473623" lon="14.210102"><ele>296.3333333333333</ele><time>2026-05-01T09:56:06.535Z</time></trkpt><trkpt lat="42.2473784" lon="14.2099939"><ele>298.5</ele><time>2026-05-01T09:56:07.533Z</time></trkpt><trkpt lat="42.2473863" lon="14.2098725"><ele>300.6666666666667</ele><time>2026-05-01T09:56:08.546Z</time></trkpt><trkpt lat="42.247386" lon="14.2097524"><ele>302.83333333333337</ele><time>2026-05-01T09:56:09.543Z</time></trkpt><trkpt lat="42.2473826" lon="14.2096319"><ele>305.0</ele><time>2026-05-01T09:56:10.54Z</time></trkpt><trkpt lat="42.247366" lon="14.209549"><ele>307.0</ele><time>2026-05-01T09:57:05.551Z</time></trkpt><trkpt lat="42.2473536" lon="14.2094084"><ele>309.0</ele><time>2026-05-01T09:57:08.546Z</time></trkpt><trkpt lat="42.2473021" lon="14.209271"><ele>311.0</ele><time>2026-05-01T09:57:10.553Z</time></trkpt><trkpt lat="42.2472849" lon="14.2091349"><ele>313.0</ele><time>2026-05-01T09:57:12.549Z</time></trkpt><trkpt lat="42.2472436" lon="14.2090081"><ele>315.0</ele><time>2026-05-01T09:57:14.548Z</time></trkpt><trkpt lat="42.2471718" lon="14.2089443"><ele>317.6666666666667</ele><time>2026-05-01T09:57:16.551Z</time></trkpt><trkpt lat="42.2471106" lon="14.2089241"><ele>320.3333333333333</ele><time>2026-05-01T09:57:17.548Z</time></trkpt><trkpt lat="42.2470059" lon="14.2089273"><ele>323.0</ele><time>2026-05-01T09:57:19.553Z</time></trkpt><trkpt lat="42.2469293" lon="14.2089272"><ele>325.66666666666663</ele><time>2026-05-01T09:57:21.554Z</time></trkpt><trkpt lat="42.2468303" lon="14.2088994"><ele>328.3333333333333</ele><time>2026-05-01T09:57:23.547Z</time></trkpt><trkpt lat="42.2467825" lon="14.2088159"><ele>331.0</ele><time>2026-05-01T09:57:25.551Z</time></trkpt><trkpt lat="42.2467281" lon="14.2086695"><ele>331.0</ele><time>2026-05-01T09:57:27.536Z</time></trkpt><trkpt lat="42.2466856" lon="14.2085708"><ele>331.0</ele><time>2026-05-01T09:57:28.534Z</time></trkpt><trkpt lat="42.2466348" lon="14.2084827"><ele>331.0</ele><time>2026-05-01T09:57:29.531Z</time></trkpt><trkpt lat="42.2465765" lon="14.2084023"><ele>331.0</ele><time>2026-05-01T09:57:30.531Z</time></trkpt><trkpt lat="42.2465207" lon="14.2083144"><ele>331.0</ele><time>2026-05-01T09:57:31.531Z</time></trkpt><trkpt lat="42.2464587" lon="14.2082376"><ele>331.0</ele><time>2026-05-01T09:57:32.541Z</time></trkpt><trkpt lat="42.2464045" lon="14.2081674"><ele>330.8333333333333</ele><time>2026-05-01T09:57:33.528Z</time></trkpt><trkpt lat="42.2463415" lon="14.2080236"><ele>330.66666666666663</ele><time>2026-05-01T09:57:35.544Z</time></trkpt><trkpt lat="42.2463163" lon="14.2079369"><ele>330.5</ele><time>2026-05-01T09:57:36.538Z</time></trkpt><trkpt lat="42.2462922" lon="14.2078431"><ele>330.3333333333333</ele><time>2026-05-01T09:57:37.523Z</time></trkpt><trkpt lat="42.2462697" lon="14.2077299"><ele>330.1666666666667</ele><time>2026-05-01T09:57:38.531Z</time></trkpt><trkpt lat="42.2462549" lon="14.2076078"><ele>330.0</ele><time>2026-05-01T09:57:39.533Z</time></trkpt><trkpt lat="42.2462375" lon="14.2074864"><ele>330.0</ele><time>2026-05-01T09:57:40.541Z</time></trkpt><trkpt lat="42.246233" lon="14.2073808"><ele>330.0</ele><time>2026-05-01T09:57:41.545Z</time></trkpt><trkpt lat="42.2462591" lon="14.2072344"><ele>330.0</ele><time>2026-05-01T09:57:43.545Z</time></trkpt><trkpt lat="42.2462727" lon="14.2071206"><ele>330.0</ele><time>2026-05-01T09:57:45.556Z</time></trkpt><trkpt lat="42.2462575" lon="14.2070259"><ele>330.0</ele><time>2026-05-01T09:57:46.541Z</time></trkpt><trkpt lat="42.2462433" lon="14.2069167"><ele>330.0</ele><time>2026-05-01T09:57:47.549Z</time></trkpt><trkpt lat="42.2462344" lon="14.2067959"><ele>332.00000000000006</ele><time>2026-05-01T09:57:48.554Z</time></trkpt><trkpt lat="42.2462289" lon="14.2066907"><ele>334.0</ele><time>2026-05-01T09:57:49.551Z</time></trkpt><trkpt lat="42.2462276" lon="14.2065971"><ele>336.0</ele><time>2026-05-01T09:57:50.552Z</time></trkpt><trkpt lat="42.2462323" lon="14.2065053"><ele>338.0</ele><time>2026-05-01T09:57:51.556Z</time></trkpt><trkpt lat="42.2462601" lon="14.2064148"><ele>340.0</ele><time>2026-05-01T09:57:52.557Z</time></trkpt><trkpt lat="42.2462898" lon="14.2063127"><ele>342.00000000000006</ele><time>2026-05-01T09:57:53.562Z</time></trkpt><trkpt lat="42.2463244" lon="14.206216"><ele>344.0</ele><time>2026-05-01T09:57:54.547Z</time></trkpt><trkpt lat="42.2463634" lon="14.2061094"><ele>345.6666666666667</ele><time>2026-05-01T09:57:55.551Z</time></trkpt><trkpt lat="42.2464109" lon="14.2060227"><ele>347.33333333333337</ele><time>2026-05-01T09:57:56.559Z</time></trkpt><trkpt lat="42.2464582" lon="14.2059242"><ele>349.0</ele><time>2026-05-01T09:57:57.545Z</time></trkpt><trkpt lat="42.2465035" lon="14.2058355"><ele>350.6666666666667</ele><time>2026-05-01T09:57:58.539Z</time></trkpt><trkpt lat="42.2465232" lon="14.2057505"><ele>352.3333333333333</ele><time>2026-05-01T09:57:59.547Z</time></trkpt><trkpt lat="42.2464607" lon="14.2056042"><ele>354.0</ele><time>2026-05-01T09:58:01.57Z</time></trkpt><trkpt lat="42.2463656" lon="14.2054964"><ele>358.6</ele><time>2026-05-01T09:58:03.559Z</time></trkpt><trkpt lat="42.2463054" lon="14.2054348"><ele>363.2</ele><time>2026-05-01T09:58:04.555Z</time></trkpt><trkpt lat="42.2462407" lon="14.2053637"><ele>367.8</ele><time>2026-05-01T09:58:05.551Z</time></trkpt><trkpt lat="42.2461572" lon="14.2052678"><ele>372.40000000000003</ele><time>2026-05-01T09:58:06.551Z</time></trkpt><trkpt lat="42.2460764" lon="14.2051616"><ele>377.0</ele><time>2026-05-01T09:58:07.562Z</time></trkpt><trkpt lat="42.2460147" lon="14.2050777"><ele>376.99999999999994</ele><time>2026-05-01T09:58:08.631Z</time></trkpt><trkpt lat="42.2459661" lon="14.2050091"><ele>377.0</ele><time>2026-05-01T09:58:09.63Z</time></trkpt><trkpt lat="42.2459274" lon="14.2049392"><ele>377.0</ele><time>2026-05-01T09:58:10.62Z</time></trkpt><trkpt lat="42.2458871" lon="14.2048503"><ele>377.0</ele><time>2026-05-01T09:58:11.626Z</time></trkpt><trkpt lat="42.2458469" lon="14.2047438"><ele>377.0</ele><time>2026-05-01T09:58:12.623Z</time></trkpt><trkpt lat="42.2458245" lon="14.2046371"><ele>376.99999999999994</ele><time>2026-05-01T09:58:13.602Z</time></trkpt><trkpt lat="42.2458292" lon="14.2045517"><ele>377.0</ele><time>2026-05-01T09:58:14.526Z</time></trkpt><trkpt lat="42.2458687" lon="14.2044284"><ele>378.0</ele><time>2026-05-01T09:58:15.529Z</time></trkpt><trkpt lat="42.245944" lon="14.2042966"><ele>379.0</ele><time>2026-05-01T09:58:16.516Z</time></trkpt><trkpt lat="42.246014" lon="14.2041575"><ele>380.0</ele><time>2026-05-01T09:58:17.548Z</time></trkpt><trkpt lat="42.2460665" lon="14.2040313"><ele>381.0</ele><time>2026-05-01T09:58:18.545Z</time></trkpt><trkpt lat="42.2460976" lon="14.2038975"><ele>382.75</ele><time>2026-05-01T09:58:19.535Z</time></trkpt><trkpt lat="42.2461012" lon="14.2037508"><ele>384.5</ele><time>2026-05-01T09:58:20.539Z</time></trkpt><trkpt lat="42.2460881" lon="14.2035857"><ele>386.25</ele><time>2026-05-01T09:58:21.544Z</time></trkpt><trkpt lat="42.2460617" lon="14.2034174"><ele>388.0</ele><time>2026-05-01T09:58:22.548Z</time></trkpt><trkpt lat="42.2460313" lon="14.2032684"><ele>389.2</ele><time>2026-05-01T09:58:23.537Z</time></trkpt><trkpt lat="42.2459886" lon="14.2031354"><ele>390.4</ele><time>2026-05-01T09:58:24.543Z</time></trkpt><trkpt lat="42.2459318" lon="14.2030143"><ele>391.59999999999997</ele><time>2026-05-01T09:58:25.539Z</time></trkpt><trkpt lat="42.2458774" lon="14.2028913"><ele>392.79999999999995</ele><time>2026-05-01T09:58:26.542Z</time></trkpt><trkpt lat="42.2458294" lon="14.2028022"><ele>394.0</ele><time>2026-05-01T09:58:27.534Z</time></trkpt><trkpt lat="42.245765" lon="14.2027535"><ele>394.00000000000006</ele><time>2026-05-01T09:58:28.536Z</time></trkpt><trkpt lat="42.2456848" lon="14.2027192"><ele>394.0</ele><time>2026-05-01T09:58:29.535Z</time></trkpt><trkpt lat="42.2456147" lon="14.2026865"><ele>394.0</ele><time>2026-05-01T09:58:30.532Z</time></trkpt><trkpt lat="42.2455542" lon="14.2026417"><ele>394.0</ele><time>2026-05-01T09:58:31.541Z</time></trkpt><trkpt lat="42.245511" lon="14.202547"><ele>394.00000000000006</ele><time>2026-05-01T09:58:32.535Z</time></trkpt><trkpt lat="42.2454799" lon="14.202443"><ele>394.0</ele><time>2026-05-01T09:58:33.525Z</time></trkpt><trkpt lat="42.2454591" lon="14.2023555"><ele>395.33333333333337</ele><time>2026-05-01T09:58:34.526Z</time></trkpt><trkpt lat="42.2454268" lon="14.2022709"><ele>396.6666666666667</ele><time>2026-05-01T09:58:37.544Z</time></trkpt><trkpt lat="42.2453802" lon="14.2023523"><ele>398.0</ele><time>2026-05-01T09:58:39.541Z</time></trkpt><trkpt lat="42.2453555" lon="14.2024482"><ele>399.33333333333337</ele><time>2026-05-01T09:58:40.537Z</time></trkpt><trkpt lat="42.2453349" lon="14.2025417"><ele>400.6666666666667</ele><time>2026-05-01T09:58:41.532Z</time></trkpt><trkpt lat="42.2453076" lon="14.2026267"><ele>402.0</ele><time>2026-05-01T09:58:42.544Z</time></trkpt><trkpt lat="42.2452483" lon="14.2027518"><ele>402.0</ele><time>2026-05-01T09:58:44.547Z</time></trkpt><trkpt lat="42.245157" lon="14.2028217"><ele>402.0</ele><time>2026-05-01T09:58:46.55Z</time></trkpt><trkpt lat="42.2450414" lon="14.2028835"><ele>402.0</ele><time>2026-05-01T09:58:48.553Z</time></trkpt><trkpt lat="42.2449785" lon="14.2029108"><ele>402.0</ele><time>2026-05-01T09:58:49.543Z</time></trkpt><trkpt lat="42.2449033" lon="14.202932"><ele>402.0</ele><time>2026-05-01T09:58:50.554Z</time></trkpt><trkpt lat="42.2448182" lon="14.20296"><ele>401.6</ele><time>2026-05-01T09:58:51.553Z</time></trkpt><trkpt lat="42.2447283" lon="14.2029941"><ele>401.20000000000005</ele><time>2026-05-01T09:58:52.551Z</time></trkpt><trkpt lat="42.2446468" lon="14.2030423"><ele>400.8</ele><time>2026-05-01T09:58:53.542Z</time></trkpt><trkpt lat="42.2445853" lon="14.2031132"><ele>400.4</ele><time>2026-05-01T09:58:54.554Z</time></trkpt><trkpt lat="42.244525" lon="14.2032135"><ele>400.0</ele><time>2026-05-01T09:58:55.545Z</time></trkpt><trkpt lat="42.2444706" lon="14.2033377"><ele>400.0</ele><time>2026-05-01T09:58:56.543Z</time></trkpt><trkpt lat="42.2444317" lon="14.2034866"><ele>400.0</ele><time>2026-05-01T09:58:57.544Z</time></trkpt><trkpt lat="42.2444037" lon="14.2036557"><ele>400.0</ele><time>2026-05-01T09:58:58.543Z</time></trkpt><trkpt lat="42.2443864" lon="14.2038293"><ele>400.0</ele><time>2026-05-01T09:58:59.548Z</time></trkpt><trkpt lat="42.2443724" lon="14.2039972"><ele>398.0</ele><time>2026-05-01T09:59:00.539Z</time></trkpt><trkpt lat="42.244349" lon="14.2041481"><ele>396.0</ele><time>2026-05-01T09:59:01.548Z</time></trkpt><trkpt lat="42.2443098" lon="14.2042867"><ele>394.0</ele><time>2026-05-01T09:59:02.549Z</time></trkpt><trkpt lat="42.2442471" lon="14.2044185"><ele>392.0</ele><time>2026-05-01T09:59:03.536Z</time></trkpt><trkpt lat="42.2441669" lon="14.2045414"><ele>392.0</ele><time>2026-05-01T09:59:04.542Z</time></trkpt><trkpt lat="42.2440617" lon="14.2046594"><ele>392.0</ele><time>2026-05-01T09:59:05.541Z</time></trkpt><trkpt lat="42.2439473" lon="14.2047767"><ele>392.0</ele><time>2026-05-01T09:59:06.546Z</time></trkpt><trkpt lat="42.2438347" lon="14.2049089"><ele>392.0</ele><time>2026-05-01T09:59:07.548Z</time></trkpt><trkpt lat="42.2437319" lon="14.2050442"><ele>392.75</ele><time>2026-05-01T09:59:08.538Z</time></trkpt><trkpt lat="42.2436505" lon="14.2052278"><ele>393.5</ele><time>2026-05-01T09:59:09.543Z</time></trkpt><trkpt lat="42.2435876" lon="14.2054118"><ele>394.25</ele><time>2026-05-01T09:59:10.542Z</time></trkpt><trkpt lat="42.2435381" lon="14.2055896"><ele>395.0</ele><time>2026-05-01T09:59:11.548Z</time></trkpt><trkpt lat="42.2434879" lon="14.2057482"><ele>396.0</ele><time>2026-05-01T09:59:12.543Z</time></trkpt><trkpt lat="42.2434009" lon="14.2058881"><ele>397.0</ele><time>2026-05-01T09:59:13.539Z</time></trkpt><trkpt lat="42.2432891" lon="14.2060017"><ele>398.0</ele><time>2026-05-01T09:59:14.532Z</time></trkpt><trkpt lat="42.2431793" lon="14.2060992"><ele>399.0</ele><time>2026-05-01T09:59:15.53Z</time></trkpt><trkpt lat="42.2430558" lon="14.2062089"><ele>399.0</ele><time>2026-05-01T09:59:16.534Z</time></trkpt><trkpt lat="42.2429195" lon="14.2063393"><ele>399.0</ele><time>2026-05-01T09:59:17.545Z</time></trkpt><trkpt lat="42.2427905" lon="14.2064603"><ele>399.0</ele><time>2026-05-01T09:59:18.54Z</time></trkpt><trkpt lat="42.2426529" lon="14.206574"><ele>393.75</ele><time>2026-05-01T09:59:19.536Z</time></trkpt><trkpt lat="42.242517" lon="14.2066705"><ele>388.5</ele><time>2026-05-01T09:59:20.549Z</time></trkpt><trkpt lat="42.2423911" lon="14.2067702"><ele>383.25</ele><time>2026-05-01T09:59:21.558Z</time></trkpt><trkpt lat="42.2422511" lon="14.2068402"><ele>378.0</ele><time>2026-05-01T09:59:22.546Z</time></trkpt><trkpt lat="42.2421037" lon="14.2068863"><ele>378.0</ele><time>2026-05-01T09:59:23.552Z</time></trkpt><trkpt lat="42.2419451" lon="14.2069124"><ele>378.0</ele><time>2026-05-01T09:59:24.56Z</time></trkpt><trkpt lat="42.2417867" lon="14.2069212"><ele>378.0</ele><time>2026-05-01T09:59:25.563Z</time></trkpt><trkpt lat="42.2416284" lon="14.2069302"><ele>378.0</ele><time>2026-05-01T09:59:26.554Z</time></trkpt><trkpt lat="42.2414687" lon="14.2069441"><ele>378.0</ele><time>2026-05-01T09:59:27.553Z</time></trkpt><trkpt lat="42.2413208" lon="14.2069491"><ele>378.0</ele><time>2026-05-01T09:59:28.547Z</time></trkpt><trkpt lat="42.2411755" lon="14.2069324"><ele>375.75</ele><time>2026-05-01T09:59:29.547Z</time></trkpt><trkpt lat="42.2410366" lon="14.2068979"><ele>373.5</ele><time>2026-05-01T09:59:30.552Z</time></trkpt><trkpt lat="42.2409028" lon="14.2068278"><ele>371.25</ele><time>2026-05-01T09:59:31.552Z</time></trkpt><trkpt lat="42.2407739" lon="14.2067746"><ele>369.0</ele><time>2026-05-01T09:59:32.546Z</time></trkpt><trkpt lat="42.2406608" lon="14.2067611"><ele>366.75</ele><time>2026-05-01T09:59:33.551Z</time></trkpt><trkpt lat="42.240547" lon="14.2068025"><ele>364.5</ele><time>2026-05-01T09:59:34.548Z</time></trkpt><trkpt lat="42.2404236" lon="14.2068814"><ele>362.25</ele><time>2026-05-01T09:59:35.543Z</time></trkpt><trkpt lat="42.2403265" lon="14.2069387"><ele>360.0</ele><time>2026-05-01T09:59:36.544Z</time></trkpt><trkpt lat="42.2402238" lon="14.2069649"><ele>360.0</ele><time>2026-05-01T09:59:37.543Z</time></trkpt><trkpt lat="42.2401563" lon="14.2069151"><ele>360.0</ele><time>2026-05-01T09:59:38.541Z</time></trkpt><trkpt lat="42.2400849" lon="14.2068434"><ele>360.0</ele><time>2026-05-01T09:59:39.545Z</time></trkpt><trkpt lat="42.2400233" lon="14.2068201"><ele>360.0</ele><time>2026-05-01T09:59:40.546Z</time></trkpt><trkpt lat="42.239955" lon="14.2068191"><ele>360.0</ele><time>2026-05-01T09:59:42.545Z</time></trkpt><trkpt lat="42.2398541" lon="14.2068001"><ele>360.0</ele><time>2026-05-01T09:59:45.553Z</time></trkpt><trkpt lat="42.239795" lon="14.2067387"><ele>359.2</ele><time>2026-05-01T09:59:46.537Z</time></trkpt><trkpt lat="42.2397284" lon="14.2066823"><ele>358.4</ele><time>2026-05-01T09:59:47.538Z</time></trkpt><trkpt lat="42.239654" lon="14.2065985"><ele>357.6</ele><time>2026-05-01T09:59:48.547Z</time></trkpt><trkpt lat="42.2395702" lon="14.2065044"><ele>356.8</ele><time>2026-05-01T09:59:49.537Z</time></trkpt><trkpt lat="42.2394808" lon="14.2064073"><ele>356.0</ele><time>2026-05-01T09:59:50.541Z</time></trkpt><trkpt lat="42.2393974" lon="14.206311"><ele>356.0</ele><time>2026-05-01T09:59:51.537Z</time></trkpt><trkpt lat="42.2393143" lon="14.206213"><ele>356.0</ele><time>2026-05-01T09:59:52.545Z</time></trkpt><trkpt lat="42.2392369" lon="14.2061114"><ele>356.0</ele><time>2026-05-01T09:59:53.53Z</time></trkpt><trkpt lat="42.2391765" lon="14.2059987"><ele>356.0</ele><time>2026-05-01T09:59:54.533Z</time></trkpt><trkpt lat="42.2391245" lon="14.2058765"><ele>356.0</ele><time>2026-05-01T09:59:55.53Z</time></trkpt><trkpt lat="42.2390782" lon="14.2057462"><ele>353.8</ele><time>2026-05-01T09:59:56.538Z</time></trkpt><trkpt lat="42.239028" lon="14.2056065"><ele>351.6</ele><time>2026-05-01T09:59:57.537Z</time></trkpt><trkpt lat="42.2389726" lon="14.2054861"><ele>349.4</ele><time>2026-05-01T09:59:58.534Z</time></trkpt><trkpt lat="42.238915" lon="14.2053778"><ele>347.2</ele><time>2026-05-01T09:59:59.539Z</time></trkpt><trkpt lat="42.2388581" lon="14.2052849"><ele>345.0</ele><time>2026-05-01T10:00:00.53Z</time></trkpt><trkpt lat="42.2388047" lon="14.2051907"><ele>345.0</ele><time>2026-05-01T10:00:01.537Z</time></trkpt><trkpt lat="42.2387446" lon="14.20509"><ele>345.0</ele><time>2026-05-01T10:00:02.531Z</time></trkpt><trkpt lat="42.2386816" lon="14.2049922"><ele>345.0</ele><time>2026-05-01T10:00:03.521Z</time></trkpt><trkpt lat="42.2386024" lon="14.2049336"><ele>345.0</ele><time>2026-05-01T10:00:04.537Z</time></trkpt><trkpt lat="42.2385084" lon="14.2048444"><ele>345.0</ele><time>2026-05-01T10:00:06.53Z</time></trkpt><trkpt lat="42.2384649" lon="14.2047775"><ele>346.3333333333333</ele><time>2026-05-01T10:00:07.528Z</time></trkpt><trkpt lat="42.2384287" lon="14.2046957"><ele>347.6666666666667</ele><time>2026-05-01T10:00:08.529Z</time></trkpt><trkpt lat="42.2383903" lon="14.2046244"><ele>349.0</ele><time>2026-05-01T10:00:09.531Z</time></trkpt><trkpt lat="42.2383528" lon="14.204554"><ele>350.33333333333337</ele><time>2026-05-01T10:00:10.524Z</time></trkpt><trkpt lat="42.2382898" lon="14.2044075"><ele>351.6666666666667</ele><time>2026-05-01T10:00:12.525Z</time></trkpt><trkpt lat="42.2382548" lon="14.204303"><ele>353.0</ele><time>2026-05-01T10:00:13.524Z</time></trkpt><trkpt lat="42.2382271" lon="14.2041973"><ele>353.0</ele><time>2026-05-01T10:00:14.521Z</time></trkpt><trkpt lat="42.238188" lon="14.2040824"><ele>353.0</ele><time>2026-05-01T10:00:16.526Z</time></trkpt><trkpt lat="42.2381622" lon="14.2039751"><ele>353.0</ele><time>2026-05-01T10:00:18.542Z</time></trkpt><trkpt lat="42.2381274" lon="14.2038595"><ele>353.0</ele><time>2026-05-01T10:00:20.532Z</time></trkpt><trkpt lat="42.2380889" lon="14.203708"><ele>353.0</ele><time>2026-05-01T10:00:22.523Z</time></trkpt><trkpt lat="42.2380884" lon="14.2035645"><ele>349.4</ele><time>2026-05-01T10:00:24.529Z</time></trkpt><trkpt lat="42.2380994" lon="14.2034237"><ele>345.79999999999995</ele><time>2026-05-01T10:00:26.524Z</time></trkpt><trkpt lat="42.2380704" lon="14.2032852"><ele>342.2</ele><time>2026-05-01T10:00:28.53Z</time></trkpt><trkpt lat="42.2379865" lon="14.2031736"><ele>338.6</ele><time>2026-05-01T10:00:30.518Z</time></trkpt><trkpt lat="42.2378956" lon="14.2030876"><ele>335.0</ele><time>2026-05-01T10:00:32.517Z</time></trkpt><trkpt lat="42.2378267" lon="14.2029934"><ele>335.0</ele><time>2026-05-01T10:00:34.521Z</time></trkpt><trkpt lat="42.2377904" lon="14.2029205"><ele>335.0</ele><time>2026-05-01T10:00:36.531Z</time></trkpt><trkpt lat="42.2377474" lon="14.2028325"><ele>335.0</ele><time>2026-05-01T10:00:38.535Z</time></trkpt><trkpt lat="42.2376837" lon="14.2027443"><ele>335.0</ele><time>2026-05-01T10:00:40.534Z</time></trkpt><trkpt lat="42.237625" lon="14.2026516"><ele>335.0</ele><time>2026-05-01T10:00:42.524Z</time></trkpt><trkpt lat="42.2376004" lon="14.2025582"><ele>335.0</ele><time>2026-05-01T10:00:46.544Z</time></trkpt><trkpt lat="42.2375592" lon="14.2024523"><ele>335.0</ele><time>2026-05-01T10:00:49.543Z</time></trkpt><trkpt lat="42.2375191" lon="14.2023486"><ele>335.0</ele><time>2026-05-01T10:00:52.544Z</time></trkpt><trkpt lat="42.2374937" lon="14.2022224"><ele>335.0</ele><time>2026-05-01T10:00:55.546Z</time></trkpt><trkpt lat="42.237453" lon="14.2020262"><ele>335.0</ele><time>2026-05-01T10:00:57.541Z</time></trkpt><trkpt lat="42.2374344" lon="14.2019023"><ele>335.0</ele><time>2026-05-01T10:00:58.533Z</time></trkpt><trkpt lat="42.2374114" lon="14.2017758"><ele>336.0</ele><time>2026-05-01T10:00:59.531Z</time></trkpt><trkpt lat="42.2373881" lon="14.2016554"><ele>337.0</ele><time>2026-05-01T10:01:00.54Z</time></trkpt><trkpt lat="42.237361" lon="14.2015415"><ele>338.0</ele><time>2026-05-01T10:01:01.538Z</time></trkpt><trkpt lat="42.2373366" lon="14.2014531"><ele>339.0</ele><time>2026-05-01T10:01:02.539Z</time></trkpt><trkpt lat="42.2373114" lon="14.2013524"><ele>340.0</ele><time>2026-05-01T10:01:03.534Z</time></trkpt><trkpt lat="42.2372906" lon="14.2012482"><ele>341.0</ele><time>2026-05-01T10:01:04.532Z</time></trkpt><trkpt lat="42.2372769" lon="14.2011561"><ele>341.6</ele><time>2026-05-01T10:01:05.542Z</time></trkpt><trkpt lat="42.2372782" lon="14.201069"><ele>342.20000000000005</ele><time>2026-05-01T10:01:06.535Z</time></trkpt><trkpt lat="42.2373094" lon="14.2008744"><ele>342.79999999999995</ele><time>2026-05-01T10:01:08.544Z</time></trkpt><trkpt lat="42.2373288" lon="14.2007345"><ele>343.4</ele><time>2026-05-01T10:01:09.535Z</time></trkpt><trkpt lat="42.2373493" lon="14.2005934"><ele>344.0</ele><time>2026-05-01T10:01:10.544Z</time></trkpt><trkpt lat="42.237364" lon="14.200471"><ele>344.79999999999995</ele><time>2026-05-01T10:01:11.612Z</time></trkpt><trkpt lat="42.2373828" lon="14.200345"><ele>345.59999999999997</ele><time>2026-05-01T10:01:12.617Z</time></trkpt><trkpt lat="42.2374086" lon="14.2002018"><ele>346.4</ele><time>2026-05-01T10:01:13.614Z</time></trkpt><trkpt lat="42.237433" lon="14.200078"><ele>347.2</ele><time>2026-05-01T10:01:14.619Z</time></trkpt><trkpt lat="42.2374514" lon="14.1999759"><ele>348.0</ele><time>2026-05-01T10:01:15.597Z</time></trkpt><trkpt lat="42.2374823" lon="14.1998329"><ele>348.0</ele><time>2026-05-01T10:01:17.606Z</time></trkpt><trkpt lat="42.2374655" lon="14.1997491"><ele>348.0</ele><time>2026-05-01T10:01:20.61Z</time></trkpt><trkpt lat="42.2373986" lon="14.1996829"><ele>348.0</ele><time>2026-05-01T10:01:22.624Z</time></trkpt><trkpt lat="42.2372592" lon="14.1996348"><ele>348.0</ele><time>2026-05-01T10:01:24.523Z</time></trkpt><trkpt lat="42.237196" lon="14.1996058"><ele>348.0</ele><time>2026-05-01T10:01:25.525Z</time></trkpt><trkpt lat="42.2370917" lon="14.1995659"><ele>343.79999999999995</ele><time>2026-05-01T10:01:27.534Z</time></trkpt><trkpt lat="42.2370081" lon="14.1995407"><ele>339.6</ele><time>2026-05-01T10:01:29.534Z</time></trkpt><trkpt lat="42.2369018" lon="14.1994993"><ele>335.4</ele><time>2026-05-01T10:01:31.533Z</time></trkpt><trkpt lat="42.2368061" lon="14.1994583"><ele>331.20000000000005</ele><time>2026-05-01T10:01:33.534Z</time></trkpt><trkpt lat="42.2367314" lon="14.1994217"><ele>327.0</ele><time>2026-05-01T10:01:35.54Z</time></trkpt><trkpt lat="42.2366323" lon="14.1993847"><ele>327.0</ele><time>2026-05-01T10:01:37.537Z</time></trkpt><trkpt lat="42.2365608" lon="14.1993507"><ele>327.0</ele><time>2026-05-01T10:01:39.547Z</time></trkpt><trkpt lat="42.2364802" lon="14.1993259"><ele>327.0</ele><time>2026-05-01T10:01:41.546Z</time></trkpt><trkpt lat="42.2363755" lon="14.1992968"><ele>327.0</ele><time>2026-05-01T10:01:43.544Z</time></trkpt><trkpt lat="42.2362754" lon="14.1992535"><ele>327.0</ele><time>2026-05-01T10:01:45.541Z</time></trkpt><trkpt lat="42.2361771" lon="14.1992294"><ele>323.0</ele><time>2026-05-01T10:01:47.544Z</time></trkpt><trkpt lat="42.2361153" lon="14.1992728"><ele>319.0</ele><time>2026-05-01T10:01:49.546Z</time></trkpt><trkpt lat="42.2360766" lon="14.1994177"><ele>315.0</ele><time>2026-05-01T10:01:51.544Z</time></trkpt><trkpt lat="42.2360515" lon="14.1995141"><ele>311.0</ele><time>2026-05-01T10:01:52.534Z</time></trkpt><trkpt lat="42.2360236" lon="14.1995987"><ele>307.0</ele><time>2026-05-01T10:01:53.539Z</time></trkpt><trkpt lat="42.2359901" lon="14.199711"><ele>303.0</ele><time>2026-05-01T10:01:55.537Z</time></trkpt><trkpt lat="42.2359804" lon="14.1997979"><ele>303.1666666666667</ele><time>2026-05-01T10:01:57.548Z</time></trkpt><trkpt lat="42.2359619" lon="14.199906"><ele>303.3333333333333</ele><time>2026-05-01T10:01:59.545Z</time></trkpt><trkpt lat="42.2359408" lon="14.2000098"><ele>303.5</ele><time>2026-05-01T10:02:01.54Z</time></trkpt><trkpt lat="42.2358954" lon="14.2000939"><ele>303.66666666666663</ele><time>2026-05-01T10:02:03.541Z</time></trkpt><trkpt lat="42.2358139" lon="14.2001237"><ele>303.8333333333333</ele><time>2026-05-01T10:02:06.538Z</time></trkpt><trkpt lat="42.235741" lon="14.2000937"><ele>304.0</ele><time>2026-05-01T10:02:09.534Z</time></trkpt><trkpt lat="42.2356648" lon="14.2000691"><ele>300.0</ele><time>2026-05-01T10:02:11.533Z</time></trkpt><trkpt lat="42.2355383" lon="14.2000026"><ele>296.0</ele><time>2026-05-01T10:02:13.528Z</time></trkpt><trkpt lat="42.2354265" lon="14.199943"><ele>292.0</ele><time>2026-05-01T10:02:15.536Z</time></trkpt><trkpt lat="42.2353156" lon="14.199887"><ele>288.0</ele><time>2026-05-01T10:02:17.533Z</time></trkpt><trkpt lat="42.2352105" lon="14.1998144"><ele>287.8333333333333</ele><time>2026-05-01T10:02:19.534Z</time></trkpt><trkpt lat="42.2351301" lon="14.1997602"><ele>287.6666666666667</ele><time>2026-05-01T10:02:21.54Z</time></trkpt><trkpt lat="42.2350274" lon="14.1996614"><ele>287.5</ele><time>2026-05-01T10:02:23.534Z</time></trkpt><trkpt lat="42.2349777" lon="14.1995922"><ele>287.33333333333337</ele><time>2026-05-01T10:02:24.531Z</time></trkpt><trkpt lat="42.2349156" lon="14.1995246"><ele>287.1666666666667</ele><time>2026-05-01T10:02:25.526Z</time></trkpt><trkpt lat="42.2348523" lon="14.1994535"><ele>287.0</ele><time>2026-05-01T10:02:26.533Z</time></trkpt><trkpt lat="42.2347909" lon="14.1994031"><ele>285.6666666666667</ele><time>2026-05-01T10:02:27.526Z</time></trkpt><trkpt lat="42.2347282" lon="14.1993434"><ele>284.33333333333337</ele><time>2026-05-01T10:02:28.537Z</time></trkpt><trkpt lat="42.2346733" lon="14.199282"><ele>283.0</ele><time>2026-05-01T10:02:29.53Z</time></trkpt><trkpt lat="42.2346022" lon="14.1991753"><ele>281.6666666666667</ele><time>2026-05-01T10:02:31.538Z</time></trkpt><trkpt lat="42.2345407" lon="14.1990736"><ele>280.3333333333333</ele><time>2026-05-01T10:02:33.533Z</time></trkpt><trkpt lat="42.2344816" lon="14.1989708"><ele>279.0</ele><time>2026-05-01T10:02:35.529Z</time></trkpt><trkpt lat="42.2343987" lon="14.1988694"><ele>278.3333333333333</ele><time>2026-05-01T10:02:37.524Z</time></trkpt><trkpt lat="42.2343154" lon="14.1988116"><ele>277.6666666666667</ele><time>2026-05-01T10:02:39.539Z</time></trkpt><trkpt lat="42.2342387" lon="14.1987821"><ele>277.0</ele><time>2026-05-01T10:02:41.53Z</time></trkpt><trkpt lat="42.2341619" lon="14.1987226"><ele>276.33333333333337</ele><time>2026-05-01T10:02:43.541Z</time></trkpt><trkpt lat="42.2341055" lon="14.1986573"><ele>275.6666666666667</ele><time>2026-05-01T10:02:45.541Z</time></trkpt><trkpt lat="42.2340482" lon="14.1985811"><ele>275.0</ele><time>2026-05-01T10:02:47.52Z</time></trkpt><trkpt lat="42.2339777" lon="14.198495"><ele>274.1666666666667</ele><time>2026-05-01T10:02:49.528Z</time></trkpt><trkpt lat="42.2339174" lon="14.1984581"><ele>273.33333333333337</ele><time>2026-05-01T10:02:50.534Z</time></trkpt><trkpt lat="42.2338083" lon="14.1984749"><ele>272.5</ele><time>2026-05-01T10:02:52.529Z</time></trkpt><trkpt lat="42.2337475" lon="14.1985446"><ele>271.6666666666667</ele><time>2026-05-01T10:02:54.532Z</time></trkpt><trkpt lat="42.2336684" lon="14.1986171"><ele>270.8333333333333</ele><time>2026-05-01T10:02:56.532Z</time></trkpt><trkpt lat="42.2335757" lon="14.1985838"><ele>270.0</ele><time>2026-05-01T10:02:58.538Z</time></trkpt><trkpt lat="42.2334811" lon="14.1984705"><ele>270.0</ele><time>2026-05-01T10:03:00.524Z</time></trkpt><trkpt lat="42.2334284" lon="14.1984086"><ele>270.0</ele><time>2026-05-01T10:03:01.524Z</time></trkpt><trkpt lat="42.233375" lon="14.1983595"><ele>270.0</ele><time>2026-05-01T10:03:02.527Z</time></trkpt><trkpt lat="42.2332931" lon="14.1982381"><ele>270.0</ele><time>2026-05-01T10:03:04.525Z</time></trkpt><trkpt lat="42.2332549" lon="14.1981701"><ele>270.0</ele><time>2026-05-01T10:03:05.526Z</time></trkpt><trkpt lat="42.2331965" lon="14.1980416"><ele>270.0</ele><time>2026-05-01T10:03:07.52Z</time></trkpt><trkpt lat="42.2331628" lon="14.1979315"><ele>269.5</ele><time>2026-05-01T10:03:09.534Z</time></trkpt><trkpt lat="42.2331204" lon="14.1978518"><ele>269.0</ele><time>2026-05-01T10:03:11.534Z</time></trkpt><trkpt lat="42.2330469" lon="14.1978131"><ele>268.5</ele><time>2026-05-01T10:03:13.542Z</time></trkpt><trkpt lat="42.2329659" lon="14.197808"><ele>268.0</ele><time>2026-05-01T10:03:15.535Z</time></trkpt><trkpt lat="42.2329173" lon="14.1977451"><ele>267.5</ele><time>2026-05-01T10:03:17.538Z</time></trkpt><trkpt lat="42.2329226" lon="14.1976203"><ele>267.0</ele><time>2026-05-01T10:03:19.533Z</time></trkpt><trkpt lat="42.2329389" lon="14.1975322"><ele>267.0</ele><time>2026-05-01T10:03:20.537Z</time></trkpt><trkpt lat="42.2329642" lon="14.1974239"><ele>267.0</ele><time>2026-05-01T10:03:21.53Z</time></trkpt><trkpt lat="42.2329746" lon="14.1973304"><ele>267.0</ele><time>2026-05-01T10:03:22.532Z</time></trkpt><trkpt lat="42.2329661" lon="14.1972399"><ele>267.0</ele><time>2026-05-01T10:03:23.526Z</time></trkpt><trkpt lat="42.2329418" lon="14.1971395"><ele>267.0</ele><time>2026-05-01T10:03:24.535Z</time></trkpt><trkpt lat="42.2329178" lon="14.1970401"><ele>267.0</ele><time>2026-05-01T10:03:25.527Z</time></trkpt><trkpt lat="42.2329015" lon="14.1969427"><ele>267.5</ele><time>2026-05-01T10:03:26.53Z</time></trkpt><trkpt lat="42.2328894" lon="14.1968465"><ele>268.0</ele><time>2026-05-01T10:03:27.524Z</time></trkpt><trkpt lat="42.2328703" lon="14.1967572"><ele>268.5</ele><time>2026-05-01T10:03:28.538Z</time></trkpt><trkpt lat="42.2328494" lon="14.1966764"><ele>269.0</ele><time>2026-05-01T10:03:29.538Z</time></trkpt><trkpt lat="42.2328159" lon="14.1965089"><ele>269.5</ele><time>2026-05-01T10:03:31.539Z</time></trkpt><trkpt lat="42.2328097" lon="14.1964002"><ele>270.0</ele><time>2026-05-01T10:03:32.537Z</time></trkpt><trkpt lat="42.2327986" lon="14.1962791"><ele>270.2</ele><time>2026-05-01T10:03:33.528Z</time></trkpt><trkpt lat="42.2327733" lon="14.19616"><ele>270.4</ele><time>2026-05-01T10:03:34.533Z</time></trkpt><trkpt lat="42.2327163" lon="14.1960603"><ele>270.6</ele><time>2026-05-01T10:03:35.532Z</time></trkpt><trkpt lat="42.2326454" lon="14.1959877"><ele>270.8</ele><time>2026-05-01T10:03:36.524Z</time></trkpt><trkpt lat="42.2325652" lon="14.1959668"><ele>271.0</ele><time>2026-05-01T10:03:37.515Z</time></trkpt><trkpt lat="42.2324714" lon="14.1959742"><ele>271.0</ele><time>2026-05-01T10:03:38.524Z</time></trkpt><trkpt lat="42.2323532" lon="14.1960042"><ele>271.0</ele><time>2026-05-01T10:03:39.523Z</time></trkpt><trkpt lat="42.2322215" lon="14.1960347"><ele>271.0</ele><time>2026-05-01T10:03:40.53Z</time></trkpt><trkpt lat="42.2320988" lon="14.1960652"><ele>271.0</ele><time>2026-05-01T10:03:41.536Z</time></trkpt><trkpt lat="42.2319879" lon="14.1960772"><ele>271.75</ele><time>2026-05-01T10:03:42.535Z</time></trkpt><trkpt lat="42.2318792" lon="14.1960884"><ele>272.5</ele><time>2026-05-01T10:03:43.532Z</time></trkpt><trkpt lat="42.2317605" lon="14.1960987"><ele>273.25</ele><time>2026-05-01T10:03:44.532Z</time></trkpt><trkpt lat="42.2316397" lon="14.1961081"><ele>274.0</ele><time>2026-05-01T10:03:45.54Z</time></trkpt><trkpt lat="42.2315172" lon="14.1961211"><ele>274.4</ele><time>2026-05-01T10:03:46.541Z</time></trkpt><trkpt lat="42.2314097" lon="14.1961307"><ele>274.79999999999995</ele><time>2026-05-01T10:03:47.531Z</time></trkpt><trkpt lat="42.2313154" lon="14.1961235"><ele>275.20000000000005</ele><time>2026-05-01T10:03:48.528Z</time></trkpt><trkpt lat="42.2312306" lon="14.1961279"><ele>275.6</ele><time>2026-05-01T10:03:49.526Z</time></trkpt><trkpt lat="42.2311316" lon="14.196112"><ele>276.0</ele><time>2026-05-01T10:03:50.526Z</time></trkpt><trkpt lat="42.2310278" lon="14.1960981"><ele>276.0</ele><time>2026-05-01T10:03:51.53Z</time></trkpt><trkpt lat="42.2309147" lon="14.1960575"><ele>276.0</ele><time>2026-05-01T10:03:52.529Z</time></trkpt><trkpt lat="42.2307913" lon="14.1960249"><ele>276.0</ele><time>2026-05-01T10:03:53.536Z</time></trkpt><trkpt lat="42.2306739" lon="14.1959944"><ele>276.0</ele><time>2026-05-01T10:03:54.529Z</time></trkpt><trkpt lat="42.2305708" lon="14.1959486"><ele>276.0</ele><time>2026-05-01T10:03:55.528Z</time></trkpt><trkpt lat="42.2304768" lon="14.195889"><ele>276.0</ele><time>2026-05-01T10:03:56.527Z</time></trkpt><trkpt lat="42.2303902" lon="14.1958042"><ele>276.0</ele><time>2026-05-01T10:03:57.534Z</time></trkpt><trkpt lat="42.2303083" lon="14.1956935"><ele>276.0</ele><time>2026-05-01T10:03:58.528Z</time></trkpt><trkpt lat="42.2302093" lon="14.1955819"><ele>277.0</ele><time>2026-05-01T10:03:59.534Z</time></trkpt><trkpt lat="42.2300979" lon="14.1955016"><ele>278.0</ele><time>2026-05-01T10:04:00.536Z</time></trkpt><trkpt lat="42.2299892" lon="14.1954608"><ele>279.0</ele><time>2026-05-01T10:04:01.542Z</time></trkpt><trkpt lat="42.2298894" lon="14.1954513"><ele>280.0</ele><time>2026-05-01T10:04:02.526Z</time></trkpt><trkpt lat="42.2298129" lon="14.1954315"><ele>281.0</ele><time>2026-05-01T10:04:03.529Z</time></trkpt><trkpt lat="42.2297568" lon="14.1953834"><ele>281.0</ele><time>2026-05-01T10:04:04.526Z</time></trkpt><trkpt lat="42.2297065" lon="14.1952982"><ele>281.0</ele><time>2026-05-01T10:04:05.523Z</time></trkpt><trkpt lat="42.2296681" lon="14.1951864"><ele>281.0</ele><time>2026-05-01T10:04:06.518Z</time></trkpt><trkpt lat="42.2296256" lon="14.1950563"><ele>281.0</ele><time>2026-05-01T10:04:07.524Z</time></trkpt><trkpt lat="42.229559" lon="14.1949163"><ele>281.0</ele><time>2026-05-01T10:04:08.53Z</time></trkpt><trkpt lat="42.2294754" lon="14.1947772"><ele>282.5</ele><time>2026-05-01T10:04:09.535Z</time></trkpt><trkpt lat="42.2293835" lon="14.1946434"><ele>284.0</ele><time>2026-05-01T10:04:10.529Z</time></trkpt><trkpt lat="42.2292881" lon="14.1944837"><ele>285.5</ele><time>2026-05-01T10:04:11.529Z</time></trkpt><trkpt lat="42.2291962" lon="14.19432"><ele>287.0</ele><time>2026-05-01T10:04:12.529Z</time></trkpt><trkpt lat="42.2291006" lon="14.1941857"><ele>287.0</ele><time>2026-05-01T10:04:13.539Z</time></trkpt><trkpt lat="42.2290008" lon="14.1940637"><ele>287.0</ele><time>2026-05-01T10:04:14.531Z</time></trkpt><trkpt lat="42.2288995" lon="14.1939378"><ele>287.0</ele><time>2026-05-01T10:04:15.538Z</time></trkpt><trkpt lat="42.2287984" lon="14.1938351"><ele>287.0</ele><time>2026-05-01T10:04:16.537Z</time></trkpt><trkpt lat="42.2287006" lon="14.1937557"><ele>288.5</ele><time>2026-05-01T10:04:17.539Z</time></trkpt><trkpt lat="42.2286254" lon="14.1937243"><ele>290.0</ele><time>2026-05-01T10:04:18.535Z</time></trkpt><trkpt lat="42.2285498" lon="14.1937244"><ele>291.5</ele><time>2026-05-01T10:04:19.526Z</time></trkpt><trkpt lat="42.2284672" lon="14.1937222"><ele>293.0</ele><time>2026-05-01T10:04:20.53Z</time></trkpt><trkpt lat="42.2283762" lon="14.1936967"><ele>294.5</ele><time>2026-05-01T10:04:21.534Z</time></trkpt><trkpt lat="42.2282775" lon="14.1936501"><ele>296.0</ele><time>2026-05-01T10:04:22.531Z</time></trkpt><trkpt lat="42.2281849" lon="14.1935955"><ele>295.0</ele><time>2026-05-01T10:04:23.527Z</time></trkpt><trkpt lat="42.2281036" lon="14.1935188"><ele>294.0</ele><time>2026-05-01T10:04:24.524Z</time></trkpt><trkpt lat="42.2280393" lon="14.1934121"><ele>293.0</ele><time>2026-05-01T10:04:25.526Z</time></trkpt><trkpt lat="42.2279662" lon="14.1933136"><ele>292.0</ele><time>2026-05-01T10:04:26.528Z</time></trkpt><trkpt lat="42.2278878" lon="14.1932283"><ele>291.0</ele><time>2026-05-01T10:04:27.527Z</time></trkpt><trkpt lat="42.227799" lon="14.1931499"><ele>293.5</ele><time>2026-05-01T10:04:28.53Z</time></trkpt><trkpt lat="42.227693" lon="14.1930668"><ele>296.0</ele><time>2026-05-01T10:04:29.53Z</time></trkpt><trkpt lat="42.2275922" lon="14.1929951"><ele>298.5</ele><time>2026-05-01T10:04:30.526Z</time></trkpt><trkpt lat="42.2275026" lon="14.1929188"><ele>301.0</ele><time>2026-05-01T10:04:31.536Z</time></trkpt><trkpt lat="42.2274073" lon="14.1928369"><ele>301.0</ele><time>2026-05-01T10:04:32.53Z</time></trkpt><trkpt lat="42.2273109" lon="14.1927488"><ele>301.0</ele><time>2026-05-01T10:04:33.532Z</time></trkpt><trkpt lat="42.2272071" lon="14.1926655"><ele>301.0</ele><time>2026-05-01T10:04:34.525Z</time></trkpt><trkpt lat="42.2271154" lon="14.1926076"><ele>301.0</ele><time>2026-05-01T10:04:35.535Z</time></trkpt><trkpt lat="42.2270128" lon="14.1925599"><ele>301.0</ele><time>2026-05-01T10:04:36.536Z</time></trkpt><trkpt lat="42.2269076" lon="14.1925243"><ele>300.75</ele><time>2026-05-01T10:04:37.528Z</time></trkpt><trkpt lat="42.2268045" lon="14.1925013"><ele>300.5</ele><time>2026-05-01T10:04:38.541Z</time></trkpt><trkpt lat="42.2266907" lon="14.1924931"><ele>300.25</ele><time>2026-05-01T10:04:39.53Z</time></trkpt><trkpt lat="42.2265701" lon="14.1924883"><ele>300.0</ele><time>2026-05-01T10:04:40.541Z</time></trkpt><trkpt lat="42.2264351" lon="14.1924836"><ele>300.5</ele><time>2026-05-01T10:04:41.544Z</time></trkpt><trkpt lat="42.2263094" lon="14.1924903"><ele>301.0</ele><time>2026-05-01T10:04:42.529Z</time></trkpt><trkpt lat="42.2261815" lon="14.1925108"><ele>301.5</ele><time>2026-05-01T10:04:43.53Z</time></trkpt><trkpt lat="42.2260628" lon="14.1925591"><ele>302.0</ele><time>2026-05-01T10:04:44.529Z</time></trkpt><trkpt lat="42.2259411" lon="14.1926272"><ele>302.0</ele><time>2026-05-01T10:04:45.529Z</time></trkpt><trkpt lat="42.2258098" lon="14.192688"><ele>302.0</ele><time>2026-05-01T10:04:46.53Z</time></trkpt><trkpt lat="42.2256781" lon="14.1927339"><ele>302.0</ele><time>2026-05-01T10:04:47.53Z</time></trkpt><trkpt lat="42.2255447" lon="14.1927798"><ele>302.0</ele><time>2026-05-01T10:04:48.531Z</time></trkpt><trkpt lat="42.2254068" lon="14.1928093"><ele>302.75</ele><time>2026-05-01T10:04:49.528Z</time></trkpt><trkpt lat="42.2252773" lon="14.1928234"><ele>303.5</ele><time>2026-05-01T10:04:50.543Z</time></trkpt><trkpt lat="42.2251553" lon="14.1928082"><ele>304.25</ele><time>2026-05-01T10:04:51.53Z</time></trkpt><trkpt lat="42.2250253" lon="14.1928123"><ele>305.0</ele><time>2026-05-01T10:04:52.526Z</time></trkpt><trkpt lat="42.2248953" lon="14.1928291"><ele>305.5</ele><time>2026-05-01T10:04:53.535Z</time></trkpt><trkpt lat="42.2247711" lon="14.1928441"><ele>306.0</ele><time>2026-05-01T10:04:54.532Z</time></trkpt><trkpt lat="42.2246543" lon="14.1928551"><ele>306.5</ele><time>2026-05-01T10:04:55.526Z</time></trkpt><trkpt lat="42.2245328" lon="14.192871"><ele>307.0</ele><time>2026-05-01T10:04:56.529Z</time></trkpt><trkpt lat="42.2244071" lon="14.1928765"><ele>307.0</ele><time>2026-05-01T10:04:57.535Z</time></trkpt><trkpt lat="42.2242784" lon="14.1928727"><ele>307.0</ele><time>2026-05-01T10:04:58.526Z</time></trkpt><trkpt lat="42.2241641" lon="14.1928509"><ele>307.0</ele><time>2026-05-01T10:04:59.534Z</time></trkpt><trkpt lat="42.2240631" lon="14.1928038"><ele>307.0</ele><time>2026-05-01T10:05:00.527Z</time></trkpt><trkpt lat="42.2239721" lon="14.1927144"><ele>308.0</ele><time>2026-05-01T10:05:01.526Z</time></trkpt><trkpt lat="42.223892" lon="14.192606"><ele>309.0</ele><time>2026-05-01T10:05:02.531Z</time></trkpt><trkpt lat="42.2238246" lon="14.1925151"><ele>310.0</ele><time>2026-05-01T10:05:03.529Z</time></trkpt><trkpt lat="42.223756" lon="14.1924424"><ele>311.0</ele><time>2026-05-01T10:05:04.534Z</time></trkpt><trkpt lat="42.2236722" lon="14.1923974"><ele>312.0</ele><time>2026-05-01T10:05:05.523Z</time></trkpt><trkpt lat="42.2236036" lon="14.1923863"><ele>312.0</ele><time>2026-05-01T10:05:06.522Z</time></trkpt><trkpt lat="42.2234965" lon="14.1924472"><ele>312.0</ele><time>2026-05-01T10:05:08.523Z</time></trkpt><trkpt lat="42.2234294" lon="14.1925105"><ele>312.0</ele><time>2026-05-01T10:05:09.524Z</time></trkpt><trkpt lat="42.2233391" lon="14.1925731"><ele>312.0</ele><time>2026-05-01T10:05:10.521Z</time></trkpt><trkpt lat="42.2232245" lon="14.1926156"><ele>312.0</ele><time>2026-05-01T10:05:11.524Z</time></trkpt><trkpt lat="42.2230923" lon="14.1926457"><ele>312.6666666666667</ele><time>2026-05-01T10:05:12.526Z</time></trkpt><trkpt lat="42.2229463" lon="14.1926774"><ele>313.33333333333337</ele><time>2026-05-01T10:05:13.526Z</time></trkpt><trkpt lat="42.2227895" lon="14.1927102"><ele>314.0</ele><time>2026-05-01T10:05:14.528Z</time></trkpt><trkpt lat="42.2226328" lon="14.1927336"><ele>314.0</ele><time>2026-05-01T10:05:15.522Z</time></trkpt><trkpt lat="42.2224957" lon="14.192749"><ele>314.0</ele><time>2026-05-01T10:05:16.526Z</time></trkpt><trkpt lat="42.2223795" lon="14.1927351"><ele>314.0</ele><time>2026-05-01T10:05:17.524Z</time></trkpt><trkpt lat="42.2222868" lon="14.1927037"><ele>314.0</ele><time>2026-05-01T10:05:18.532Z</time></trkpt><trkpt lat="42.2221807" lon="14.1926547"><ele>315.0</ele><time>2026-05-01T10:05:19.527Z</time></trkpt><trkpt lat="42.2220514" lon="14.1926104"><ele>316.0</ele><time>2026-05-01T10:05:20.525Z</time></trkpt><trkpt lat="42.2219218" lon="14.1925562"><ele>317.0</ele><time>2026-05-01T10:05:21.534Z</time></trkpt><trkpt lat="42.2217947" lon="14.192503"><ele>318.0</ele><time>2026-05-01T10:05:22.531Z</time></trkpt><trkpt lat="42.2216752" lon="14.1924592"><ele>318.0</ele><time>2026-05-01T10:05:23.528Z</time></trkpt><trkpt lat="42.2215625" lon="14.1924069"><ele>318.0</ele><time>2026-05-01T10:05:24.528Z</time></trkpt><trkpt lat="42.2214532" lon="14.1923225"><ele>318.0</ele><time>2026-05-01T10:05:25.52Z</time></trkpt><trkpt lat="42.2213416" lon="14.192229"><ele>318.0</ele><time>2026-05-01T10:05:26.529Z</time></trkpt><trkpt lat="42.2212487" lon="14.1921489"><ele>319.0</ele><time>2026-05-01T10:05:27.53Z</time></trkpt><trkpt lat="42.2211844" lon="14.1921101"><ele>320.0</ele><time>2026-05-01T10:05:29.535Z</time></trkpt><trkpt lat="42.2211095" lon="14.1921025"><ele>321.0</ele><time>2026-05-01T10:05:32.53Z</time></trkpt><trkpt lat="42.2211396" lon="14.1921871"><ele>322.0</ele><time>2026-05-01T10:05:54.54Z</time></trkpt><trkpt lat="42.2212217" lon="14.1922691"><ele>323.0</ele><time>2026-05-01T10:05:56.536Z</time></trkpt><trkpt lat="42.2212993" lon="14.1923443"><ele>324.0</ele><time>2026-05-01T10:05:57.532Z</time></trkpt><trkpt lat="42.2213766" lon="14.1924399"><ele>324.0</ele><time>2026-05-01T10:05:58.532Z</time></trkpt><trkpt lat="42.2214507" lon="14.1925396"><ele>324.0</ele><time>2026-05-01T10:05:59.54Z</time></trkpt><trkpt lat="42.2215331" lon="14.1926312"><ele>324.0</ele><time>2026-05-01T10:06:00.539Z</time></trkpt><trkpt lat="42.221617" lon="14.1927132"><ele>324.0</ele><time>2026-05-01T10:06:01.534Z</time></trkpt><trkpt lat="42.221705" lon="14.1927902"><ele>324.0</ele><time>2026-05-01T10:06:02.543Z</time></trkpt><trkpt lat="42.2217904" lon="14.1928736"><ele>322.8</ele><time>2026-05-01T10:06:03.534Z</time></trkpt><trkpt lat="42.2218748" lon="14.1929774"><ele>321.59999999999997</ele><time>2026-05-01T10:06:04.54Z</time></trkpt><trkpt lat="42.2219643" lon="14.1930831"><ele>320.4</ele><time>2026-05-01T10:06:05.533Z</time></trkpt><trkpt lat="42.2220509" lon="14.1931625"><ele>319.2</ele><time>2026-05-01T10:06:06.538Z</time></trkpt><trkpt lat="42.2221363" lon="14.193231"><ele>318.0</ele><time>2026-05-01T10:06:07.537Z</time></trkpt><trkpt lat="42.222214" lon="14.1932868"><ele>318.0</ele><time>2026-05-01T10:06:08.536Z</time></trkpt><trkpt lat="42.2223082" lon="14.1933511"><ele>318.0</ele><time>2026-05-01T10:06:09.533Z</time></trkpt><trkpt lat="42.2224071" lon="14.1934258"><ele>318.0</ele><time>2026-05-01T10:06:10.535Z</time></trkpt><trkpt lat="42.2225145" lon="14.1935016"><ele>318.0</ele><time>2026-05-01T10:06:11.531Z</time></trkpt><trkpt lat="42.2226139" lon="14.1935616"><ele>318.0</ele><time>2026-05-01T10:06:12.538Z</time></trkpt><trkpt lat="42.2227065" lon="14.1936164"><ele>316.0</ele><time>2026-05-01T10:06:13.532Z</time></trkpt><trkpt lat="42.2228007" lon="14.1936874"><ele>314.0</ele><time>2026-05-01T10:06:14.53Z</time></trkpt><trkpt lat="42.2229051" lon="14.1937697"><ele>312.0</ele><time>2026-05-01T10:06:15.528Z</time></trkpt><trkpt lat="42.2230155" lon="14.1938455"><ele>310.0</ele><time>2026-05-01T10:06:16.535Z</time></trkpt><trkpt lat="42.2231153" lon="14.1939136"><ele>309.2</ele><time>2026-05-01T10:06:17.536Z</time></trkpt><trkpt lat="42.2232081" lon="14.1939702"><ele>308.4</ele><time>2026-05-01T10:06:18.538Z</time></trkpt><trkpt lat="42.2233009" lon="14.1940169"><ele>307.6</ele><time>2026-05-01T10:06:19.526Z</time></trkpt><trkpt lat="42.2233981" lon="14.1940733"><ele>306.8</ele><time>2026-05-01T10:06:20.536Z</time></trkpt><trkpt lat="42.2234942" lon="14.1941221"><ele>306.0</ele><time>2026-05-01T10:06:21.522Z</time></trkpt><trkpt lat="42.2236023" lon="14.1941877"><ele>305.6</ele><time>2026-05-01T10:06:22.53Z</time></trkpt><trkpt lat="42.2237108" lon="14.1942417"><ele>305.20000000000005</ele><time>2026-05-01T10:06:23.524Z</time></trkpt><trkpt lat="42.2238036" lon="14.1943009"><ele>304.79999999999995</ele><time>2026-05-01T10:06:24.532Z</time></trkpt><trkpt lat="42.2238824" lon="14.1943654"><ele>304.4</ele><time>2026-05-01T10:06:25.528Z</time></trkpt><trkpt lat="42.2239577" lon="14.194435"><ele>304.0</ele><time>2026-05-01T10:06:26.532Z</time></trkpt><trkpt lat="42.224034" lon="14.1945005"><ele>303.59999999999997</ele><time>2026-05-01T10:06:27.526Z</time></trkpt><trkpt lat="42.2241098" lon="14.1945826"><ele>303.2</ele><time>2026-05-01T10:06:28.531Z</time></trkpt><trkpt lat="42.2241812" lon="14.1946606"><ele>302.79999999999995</ele><time>2026-05-01T10:06:29.527Z</time></trkpt><trkpt lat="42.224256" lon="14.1947207"><ele>302.4</ele><time>2026-05-01T10:06:30.526Z</time></trkpt><trkpt lat="42.2243477" lon="14.1947801"><ele>302.0</ele><time>2026-05-01T10:06:31.525Z</time></trkpt><trkpt lat="42.224448" lon="14.1948357"><ele>301.6</ele><time>2026-05-01T10:06:32.529Z</time></trkpt><trkpt lat="42.2245348" lon="14.1948808"><ele>301.2</ele><time>2026-05-01T10:06:33.528Z</time></trkpt><trkpt lat="42.2246171" lon="14.1949151"><ele>300.8</ele><time>2026-05-01T10:06:34.527Z</time></trkpt><trkpt lat="42.2247126" lon="14.1949289"><ele>300.4</ele><time>2026-05-01T10:06:35.526Z</time></trkpt><trkpt lat="42.2248107" lon="14.1949433"><ele>300.0</ele><time>2026-05-01T10:06:36.526Z</time></trkpt><trkpt lat="42.2248981" lon="14.1949483"><ele>298.8333333333333</ele><time>2026-05-01T10:06:37.529Z</time></trkpt><trkpt lat="42.2249724" lon="14.19494"><ele>297.6666666666667</ele><time>2026-05-01T10:06:38.518Z</time></trkpt><trkpt lat="42.2250428" lon="14.1949395"><ele>296.5</ele><time>2026-05-01T10:06:39.529Z</time></trkpt><trkpt lat="42.2251186" lon="14.1949547"><ele>295.33333333333337</ele><time>2026-05-01T10:06:40.521Z</time></trkpt><trkpt lat="42.2252053" lon="14.1949896"><ele>294.1666666666667</ele><time>2026-05-01T10:06:42.52Z</time></trkpt><trkpt lat="42.2252954" lon="14.1950634"><ele>293.0</ele><time>2026-05-01T10:06:44.524Z</time></trkpt><trkpt lat="42.2253757" lon="14.1951702"><ele>293.0</ele><time>2026-05-01T10:06:46.528Z</time></trkpt><trkpt lat="42.2254212" lon="14.1953322"><ele>293.0</ele><time>2026-05-01T10:06:48.53Z</time></trkpt><trkpt lat="42.2254296" lon="14.195444"><ele>293.0</ele><time>2026-05-01T10:06:49.524Z</time></trkpt><trkpt lat="42.2254489" lon="14.195536"><ele>293.0</ele><time>2026-05-01T10:06:50.527Z</time></trkpt><trkpt lat="42.2255471" lon="14.195643"><ele>293.0</ele><time>2026-05-01T10:06:52.523Z</time></trkpt><trkpt lat="42.2256064" lon="14.1956756"><ele>294.4</ele><time>2026-05-01T10:06:53.525Z</time></trkpt><trkpt lat="42.225674" lon="14.1957025"><ele>295.8</ele><time>2026-05-01T10:06:54.523Z</time></trkpt><trkpt lat="42.2257737" lon="14.1957215"><ele>297.2</ele><time>2026-05-01T10:06:56.511Z</time></trkpt><trkpt lat="42.2258515" lon="14.1957778"><ele>298.6</ele><time>2026-05-01T10:06:58.529Z</time></trkpt><trkpt lat="42.2258911" lon="14.1958823"><ele>300.0</ele><time>2026-05-01T10:07:00.525Z</time></trkpt><trkpt lat="42.2259145" lon="14.1960359"><ele>300.0</ele><time>2026-05-01T10:07:02.529Z</time></trkpt><trkpt lat="42.2259251" lon="14.1961342"><ele>300.0</ele><time>2026-05-01T10:07:03.52Z</time></trkpt><trkpt lat="42.2259341" lon="14.196225"><ele>300.0</ele><time>2026-05-01T10:07:04.523Z</time></trkpt><trkpt lat="42.2259656" lon="14.1963634"><ele>300.0</ele><time>2026-05-01T10:07:06.519Z</time></trkpt><trkpt lat="42.2259859" lon="14.1964468"><ele>300.0</ele><time>2026-05-01T10:07:07.521Z</time></trkpt><trkpt lat="42.2260054" lon="14.1965369"><ele>300.0</ele><time>2026-05-01T10:07:08.519Z</time></trkpt><trkpt lat="42.2260325" lon="14.196632"><ele>302.1666666666667</ele><time>2026-05-01T10:07:09.526Z</time></trkpt><trkpt lat="42.2260698" lon="14.1967178"><ele>304.3333333333333</ele><time>2026-05-01T10:07:10.524Z</time></trkpt><trkpt lat="42.2261226" lon="14.1968087"><ele>306.5</ele><time>2026-05-01T10:07:11.526Z</time></trkpt><trkpt lat="42.2261822" lon="14.1968859"><ele>308.66666666666663</ele><time>2026-05-01T10:07:12.516Z</time></trkpt><trkpt lat="42.2262476" lon="14.1969459"><ele>310.8333333333333</ele><time>2026-05-01T10:07:13.516Z</time></trkpt><trkpt lat="42.2263138" lon="14.1969935"><ele>313.0</ele><time>2026-05-01T10:07:14.524Z</time></trkpt><trkpt lat="42.2263854" lon="14.1970374"><ele>313.0</ele><time>2026-05-01T10:07:15.526Z</time></trkpt><trkpt lat="42.226449" lon="14.1970835"><ele>313.0</ele><time>2026-05-01T10:07:16.522Z</time></trkpt><trkpt lat="42.2265082" lon="14.1971386"><ele>313.0</ele><time>2026-05-01T10:07:17.523Z</time></trkpt><trkpt lat="42.2265605" lon="14.1972078"><ele>313.0</ele><time>2026-05-01T10:07:18.524Z</time></trkpt><trkpt lat="42.2266173" lon="14.1972901"><ele>313.0</ele><time>2026-05-01T10:07:19.527Z</time></trkpt><trkpt lat="42.226682" lon="14.1973825"><ele>313.0</ele><time>2026-05-01T10:07:20.529Z</time></trkpt><trkpt lat="42.2267524" lon="14.1974663"><ele>313.6</ele><time>2026-05-01T10:07:21.53Z</time></trkpt><trkpt lat="42.2268222" lon="14.1975478"><ele>314.20000000000005</ele><time>2026-05-01T10:07:22.524Z</time></trkpt><trkpt lat="42.2269085" lon="14.1976149"><ele>314.8</ele><time>2026-05-01T10:07:23.522Z</time></trkpt><trkpt lat="42.2270009" lon="14.1976824"><ele>315.40000000000003</ele><time>2026-05-01T10:07:24.528Z</time></trkpt><trkpt lat="42.2270878" lon="14.1977565"><ele>316.0</ele><time>2026-05-01T10:07:25.522Z</time></trkpt><trkpt lat="42.2271739" lon="14.1978329"><ele>316.0</ele><time>2026-05-01T10:07:26.523Z</time></trkpt><trkpt lat="42.2272474" lon="14.1979118"><ele>316.0</ele><time>2026-05-01T10:07:27.519Z</time></trkpt><trkpt lat="42.2273129" lon="14.1979875"><ele>316.0</ele><time>2026-05-01T10:07:28.526Z</time></trkpt><trkpt lat="42.2273544" lon="14.1980747"><ele>316.0</ele><time>2026-05-01T10:07:29.522Z</time></trkpt><trkpt lat="42.2273871" lon="14.1981781"><ele>316.0</ele><time>2026-05-01T10:07:30.528Z</time></trkpt><trkpt lat="42.2274174" lon="14.1982891"><ele>316.0</ele><time>2026-05-01T10:07:31.532Z</time></trkpt><trkpt lat="42.2274447" lon="14.1984083"><ele>315.8571428571429</ele><time>2026-05-01T10:07:32.529Z</time></trkpt><trkpt lat="42.2274592" lon="14.1985244"><ele>315.7142857142857</ele><time>2026-05-01T10:07:33.527Z</time></trkpt><trkpt lat="42.2274725" lon="14.1986344"><ele>315.57142857142856</ele><time>2026-05-01T10:07:34.529Z</time></trkpt><trkpt lat="42.227473" lon="14.1987331"><ele>315.42857142857144</ele><time>2026-05-01T10:07:35.533Z</time></trkpt><trkpt lat="42.2274668" lon="14.1988202"><ele>315.2857142857143</ele><time>2026-05-01T10:07:36.529Z</time></trkpt><trkpt lat="42.2274565" lon="14.1989087"><ele>315.14285714285717</ele><time>2026-05-01T10:07:37.533Z</time></trkpt><trkpt lat="42.2274465" lon="14.1990026"><ele>315.0</ele><time>2026-05-01T10:07:38.533Z</time></trkpt><trkpt lat="42.2274368" lon="14.1990963"><ele>314.3333333333333</ele><time>2026-05-01T10:07:39.533Z</time></trkpt><trkpt lat="42.2274337" lon="14.1991869"><ele>313.6666666666667</ele><time>2026-05-01T10:07:40.528Z</time></trkpt><trkpt lat="42.2274511" lon="14.1992693"><ele>313.0</ele><time>2026-05-01T10:07:41.531Z</time></trkpt><trkpt lat="42.2275166" lon="14.1994215"><ele>312.33333333333337</ele><time>2026-05-01T10:07:43.533Z</time></trkpt><trkpt lat="42.2275577" lon="14.1995087"><ele>311.6666666666667</ele><time>2026-05-01T10:07:44.528Z</time></trkpt><trkpt lat="42.2276101" lon="14.1996259"><ele>311.0</ele><time>2026-05-01T10:07:46.525Z</time></trkpt><trkpt lat="42.2276646" lon="14.199704"><ele>310.6</ele><time>2026-05-01T10:07:48.537Z</time></trkpt><trkpt lat="42.2276842" lon="14.1998426"><ele>310.20000000000005</ele><time>2026-05-01T10:07:50.527Z</time></trkpt><trkpt lat="42.2276691" lon="14.1999692"><ele>309.79999999999995</ele><time>2026-05-01T10:07:52.531Z</time></trkpt><trkpt lat="42.2276367" lon="14.2000879"><ele>309.4</ele><time>2026-05-01T10:07:54.536Z</time></trkpt><trkpt lat="42.2275817" lon="14.2002406"><ele>309.0</ele><time>2026-05-01T10:07:56.526Z</time></trkpt><trkpt lat="42.2275499" lon="14.2003414"><ele>309.0</ele><time>2026-05-01T10:07:57.519Z</time></trkpt><trkpt lat="42.2275127" lon="14.200445"><ele>309.0</ele><time>2026-05-01T10:07:58.526Z</time></trkpt><trkpt lat="42.2274626" lon="14.2005373"><ele>309.0</ele><time>2026-05-01T10:07:59.518Z</time></trkpt><trkpt lat="42.2274052" lon="14.200638"><ele>309.0</ele><time>2026-05-01T10:08:00.529Z</time></trkpt><trkpt lat="42.2273397" lon="14.200734"><ele>309.0</ele><time>2026-05-01T10:08:01.522Z</time></trkpt><trkpt lat="42.2272895" lon="14.2008104"><ele>309.0</ele><time>2026-05-01T10:08:02.53Z</time></trkpt><trkpt lat="42.2272398" lon="14.2009036"><ele>308.2</ele><time>2026-05-01T10:08:04.522Z</time></trkpt><trkpt lat="42.2272783" lon="14.2009916"><ele>307.4</ele><time>2026-05-01T10:08:09.53Z</time></trkpt><trkpt lat="42.2273548" lon="14.2010423"><ele>306.6</ele><time>2026-05-01T10:08:11.516Z</time></trkpt><trkpt lat="42.227445" lon="14.2010956"><ele>305.8</ele><time>2026-05-01T10:08:13.494Z</time></trkpt><trkpt lat="42.2275501" lon="14.2011362"><ele>305.0</ele><time>2026-05-01T10:08:15.495Z</time></trkpt><trkpt lat="42.2276176" lon="14.2012045"><ele>305.0</ele><time>2026-05-01T10:08:22.52Z</time></trkpt><trkpt lat="42.2276" lon="14.201298"><ele>305.0</ele><time>2026-05-01T10:08:24.516Z</time></trkpt><trkpt lat="42.2275194" lon="14.2014198"><ele>305.0</ele><time>2026-05-01T10:08:26.512Z</time></trkpt><trkpt lat="42.2274398" lon="14.201514"><ele>305.0</ele><time>2026-05-01T10:08:27.519Z</time></trkpt><trkpt lat="42.2273515" lon="14.2016215"><ele>305.0</ele><time>2026-05-01T10:08:28.524Z</time></trkpt><trkpt lat="42.2272699" lon="14.2017454"><ele>306.6666666666667</ele><time>2026-05-01T10:08:29.51Z</time></trkpt><trkpt lat="42.2272081" lon="14.2018569"><ele>308.33333333333337</ele><time>2026-05-01T10:08:30.517Z</time></trkpt><trkpt lat="42.2271731" lon="14.201936"><ele>310.0</ele><time>2026-05-01T10:08:31.516Z</time></trkpt><trkpt lat="42.227132" lon="14.2020099"><ele>311.6666666666667</ele><time>2026-05-01T10:08:32.52Z</time></trkpt><trkpt lat="42.2270713" lon="14.2020834"><ele>313.3333333333333</ele><time>2026-05-01T10:08:33.512Z</time></trkpt><trkpt lat="42.2270089" lon="14.2021496"><ele>315.0</ele><time>2026-05-01T10:08:34.515Z</time></trkpt><trkpt lat="42.2269571" lon="14.2022339"><ele>315.0</ele><time>2026-05-01T10:08:35.518Z</time></trkpt><trkpt lat="42.2269106" lon="14.2023182"><ele>315.0</ele><time>2026-05-01T10:08:36.516Z</time></trkpt><trkpt lat="42.2268657" lon="14.2024065"><ele>315.0</ele><time>2026-05-01T10:08:37.519Z</time></trkpt><trkpt lat="42.2268171" lon="14.202481"><ele>315.0</ele><time>2026-05-01T10:08:38.514Z</time></trkpt><trkpt lat="42.2267592" lon="14.20254"><ele>315.0</ele><time>2026-05-01T10:08:39.516Z</time></trkpt><trkpt lat="42.2266967" lon="14.2026109"><ele>315.0</ele><time>2026-05-01T10:08:40.518Z</time></trkpt><trkpt lat="42.2266517" lon="14.2026735"><ele>315.0</ele><time>2026-05-01T10:08:41.52Z</time></trkpt><trkpt lat="42.2265941" lon="14.2027958"><ele>315.0</ele><time>2026-05-01T10:08:43.517Z</time></trkpt><trkpt lat="42.2265378" lon="14.2028932"><ele>315.0</ele><time>2026-05-01T10:08:45.522Z</time></trkpt><trkpt lat="42.2264372" lon="14.2029667"><ele>315.0</ele><time>2026-05-01T10:08:47.52Z</time></trkpt><trkpt lat="42.2263799" lon="14.2030201"><ele>315.0</ele><time>2026-05-01T10:08:48.521Z</time></trkpt><trkpt lat="42.2263116" lon="14.2030868"><ele>315.0</ele><time>2026-05-01T10:08:50.514Z</time></trkpt><trkpt lat="42.2262425" lon="14.2031665"><ele>314.0</ele><time>2026-05-01T10:08:52.544Z</time></trkpt><trkpt lat="42.2262002" lon="14.2032956"><ele>313.0</ele><time>2026-05-01T10:08:54.539Z</time></trkpt><trkpt lat="42.2261545" lon="14.2034246"><ele>312.0</ele><time>2026-05-01T10:08:56.54Z</time></trkpt><trkpt lat="42.2260867" lon="14.2035459"><ele>311.0</ele><time>2026-05-01T10:08:58.533Z</time></trkpt><trkpt lat="42.2260103" lon="14.2036667"><ele>310.0</ele><time>2026-05-01T10:09:00.524Z</time></trkpt><trkpt lat="42.2259647" lon="14.2037288"><ele>310.0</ele><time>2026-05-01T10:09:01.526Z</time></trkpt><trkpt lat="42.2258641" lon="14.2038057"><ele>310.0</ele><time>2026-05-01T10:09:03.528Z</time></trkpt><trkpt lat="42.2258069" lon="14.20385"><ele>310.0</ele><time>2026-05-01T10:09:04.525Z</time></trkpt><trkpt lat="42.2257477" lon="14.2038816"><ele>310.0</ele><time>2026-05-01T10:09:05.526Z</time></trkpt><trkpt lat="42.2256237" lon="14.2039288"><ele>310.0</ele><time>2026-05-01T10:09:07.522Z</time></trkpt><trkpt lat="42.2255199" lon="14.2040355"><ele>309.66666666666663</ele><time>2026-05-01T10:09:09.523Z</time></trkpt><trkpt lat="42.2254715" lon="14.204099"><ele>309.3333333333333</ele><time>2026-05-01T10:09:10.522Z</time></trkpt><trkpt lat="42.2254165" lon="14.2041608"><ele>309.0</ele><time>2026-05-01T10:09:11.525Z</time></trkpt><trkpt lat="42.2253079" lon="14.2042418"><ele>308.6666666666667</ele><time>2026-05-01T10:09:13.519Z</time></trkpt><trkpt lat="42.2252422" lon="14.2042707"><ele>308.33333333333337</ele><time>2026-05-01T10:09:14.528Z</time></trkpt><trkpt lat="42.2251552" lon="14.2043583"><ele>308.0</ele><time>2026-05-01T10:09:16.528Z</time></trkpt><trkpt lat="42.2250761" lon="14.2043821"><ele>308.0</ele><time>2026-05-01T10:09:43.536Z</time></trkpt><trkpt lat="42.2249673" lon="14.2044148"><ele>308.0</ele><time>2026-05-01T10:09:45.512Z</time></trkpt><trkpt lat="42.2248991" lon="14.2044457"><ele>308.0</ele><time>2026-05-01T10:09:46.519Z</time></trkpt><trkpt lat="42.2248418" lon="14.2044923"><ele>308.0</ele><time>2026-05-01T10:09:47.509Z</time></trkpt><trkpt lat="42.2247877" lon="14.2045566"><ele>308.0</ele><time>2026-05-01T10:09:48.521Z</time></trkpt><trkpt lat="42.2247332" lon="14.2046166"><ele>308.0</ele><time>2026-05-01T10:09:49.52Z</time></trkpt><trkpt lat="42.2246335" lon="14.2047009"><ele>308.8</ele><time>2026-05-01T10:09:51.534Z</time></trkpt><trkpt lat="42.2245283" lon="14.2047803"><ele>309.6</ele><time>2026-05-01T10:09:53.527Z</time></trkpt><trkpt lat="42.2244622" lon="14.2048061"><ele>310.4</ele><time>2026-05-01T10:09:54.529Z</time></trkpt><trkpt lat="42.2243851" lon="14.204831"><ele>311.2</ele><time>2026-05-01T10:09:55.525Z</time></trkpt><trkpt lat="42.2243181" lon="14.2048716"><ele>312.0</ele><time>2026-05-01T10:09:56.531Z</time></trkpt><trkpt lat="42.2242389" lon="14.2049712"><ele>312.0</ele><time>2026-05-01T10:09:58.53Z</time></trkpt><trkpt lat="42.2241334" lon="14.2050711"><ele>312.0</ele><time>2026-05-01T10:10:00.526Z</time></trkpt><trkpt lat="42.2240611" lon="14.2051185"><ele>312.0</ele><time>2026-05-01T10:10:01.524Z</time></trkpt><trkpt lat="42.2239642" lon="14.2051636"><ele>312.0</ele><time>2026-05-01T10:10:02.529Z</time></trkpt><trkpt lat="42.2238747" lon="14.2052045"><ele>312.0</ele><time>2026-05-01T10:10:03.607Z</time></trkpt><trkpt lat="42.2238036" lon="14.2052561"><ele>313.4</ele><time>2026-05-01T10:10:04.605Z</time></trkpt><trkpt lat="42.2237338" lon="14.205321"><ele>314.79999999999995</ele><time>2026-05-01T10:10:05.601Z</time></trkpt><trkpt lat="42.2236493" lon="14.2054071"><ele>316.2</ele><time>2026-05-01T10:10:06.521Z</time></trkpt><trkpt lat="42.2235637" lon="14.2054654"><ele>317.59999999999997</ele><time>2026-05-01T10:10:07.521Z</time></trkpt><trkpt lat="42.2234709" lon="14.2055092"><ele>319.0</ele><time>2026-05-01T10:10:08.523Z</time></trkpt><trkpt lat="42.2233713" lon="14.2055713"><ele>319.0</ele><time>2026-05-01T10:10:09.524Z</time></trkpt><trkpt lat="42.2232833" lon="14.2056481"><ele>319.0</ele><time>2026-05-01T10:10:10.526Z</time></trkpt><trkpt lat="42.2232035" lon="14.2057129"><ele>319.0</ele><time>2026-05-01T10:10:11.519Z</time></trkpt><trkpt lat="42.2231272" lon="14.205774"><ele>319.0</ele><time>2026-05-01T10:10:12.519Z</time></trkpt><trkpt lat="42.2230507" lon="14.2058442"><ele>319.0</ele><time>2026-05-01T10:10:13.519Z</time></trkpt><trkpt lat="42.2229697" lon="14.205936"><ele>319.8333333333333</ele><time>2026-05-01T10:10:14.522Z</time></trkpt><trkpt lat="42.2228893" lon="14.2060335"><ele>320.66666666666663</ele><time>2026-05-01T10:10:15.52Z</time></trkpt><trkpt lat="42.2228201" lon="14.2061212"><ele>321.5</ele><time>2026-05-01T10:10:16.519Z</time></trkpt><trkpt lat="42.2227565" lon="14.2061889"><ele>322.3333333333333</ele><time>2026-05-01T10:10:17.513Z</time></trkpt><trkpt lat="42.2226947" lon="14.206248"><ele>323.1666666666667</ele><time>2026-05-01T10:10:18.521Z</time></trkpt><trkpt lat="42.2226295" lon="14.2063067"><ele>324.0</ele><time>2026-05-01T10:10:19.515Z</time></trkpt><trkpt lat="42.2225611" lon="14.2063673"><ele>324.0</ele><time>2026-05-01T10:10:20.517Z</time></trkpt><trkpt lat="42.2224919" lon="14.2064103"><ele>324.0</ele><time>2026-05-01T10:10:21.514Z</time></trkpt><trkpt lat="42.2224108" lon="14.2064573"><ele>324.0</ele><time>2026-05-01T10:10:22.521Z</time></trkpt><trkpt lat="42.2223321" lon="14.206517"><ele>324.0</ele><time>2026-05-01T10:10:23.512Z</time></trkpt><trkpt lat="42.2222673" lon="14.2065621"><ele>324.0</ele><time>2026-05-01T10:10:24.522Z</time></trkpt><trkpt lat="42.222187" lon="14.206639"><ele>324.0</ele><time>2026-05-01T10:10:26.509Z</time></trkpt><trkpt lat="42.2220817" lon="14.2067134"><ele>323.79999999999995</ele><time>2026-05-01T10:10:28.521Z</time></trkpt><trkpt lat="42.2220036" lon="14.2067632"><ele>323.59999999999997</ele><time>2026-05-01T10:10:29.523Z</time></trkpt><trkpt lat="42.2219141" lon="14.2068108"><ele>323.4</ele><time>2026-05-01T10:10:30.525Z</time></trkpt><trkpt lat="42.2218489" lon="14.2068498"><ele>323.2</ele><time>2026-05-01T10:10:31.518Z</time></trkpt><trkpt lat="42.2217603" lon="14.2069102"><ele>323.0</ele><time>2026-05-01T10:10:33.522Z</time></trkpt><trkpt lat="42.2216837" lon="14.2069922"><ele>323.0</ele><time>2026-05-01T10:10:36.531Z</time></trkpt><trkpt lat="42.2216122" lon="14.207097"><ele>323.0</ele><time>2026-05-01T10:10:38.521Z</time></trkpt><trkpt lat="42.2215195" lon="14.2071955"><ele>323.0</ele><time>2026-05-01T10:10:40.523Z</time></trkpt><trkpt lat="42.2214681" lon="14.2072518"><ele>323.0</ele><time>2026-05-01T10:10:41.523Z</time></trkpt><trkpt lat="42.2214069" lon="14.2073176"><ele>323.0</ele><time>2026-05-01T10:10:42.524Z</time></trkpt><trkpt lat="42.2213405" lon="14.2073719"><ele>323.0</ele><time>2026-05-01T10:10:43.523Z</time></trkpt><trkpt lat="42.2212716" lon="14.2074326"><ele>324.4</ele><time>2026-05-01T10:10:44.525Z</time></trkpt><trkpt lat="42.2212011" lon="14.207493"><ele>325.79999999999995</ele><time>2026-05-01T10:10:45.524Z</time></trkpt><trkpt lat="42.2211192" lon="14.2075634"><ele>327.2</ele><time>2026-05-01T10:10:46.515Z</time></trkpt><trkpt lat="42.2210236" lon="14.2076415"><ele>328.6</ele><time>2026-05-01T10:10:47.518Z</time></trkpt><trkpt lat="42.2209287" lon="14.2077207"><ele>330.0</ele><time>2026-05-01T10:10:48.524Z</time></trkpt><trkpt lat="42.2208537" lon="14.2077865"><ele>330.0</ele><time>2026-05-01T10:10:49.518Z</time></trkpt><trkpt lat="42.2207685" lon="14.2078552"><ele>330.0</ele><time>2026-05-01T10:10:50.526Z</time></trkpt><trkpt lat="42.2206766" lon="14.2079088"><ele>330.0</ele><time>2026-05-01T10:10:51.527Z</time></trkpt><trkpt lat="42.2205955" lon="14.2079531"><ele>330.0</ele><time>2026-05-01T10:10:52.523Z</time></trkpt><trkpt lat="42.2205112" lon="14.2080107"><ele>330.0</ele><time>2026-05-01T10:10:53.527Z</time></trkpt><trkpt lat="42.2204276" lon="14.2080757"><ele>330.6</ele><time>2026-05-01T10:10:54.529Z</time></trkpt><trkpt lat="42.2203352" lon="14.2081477"><ele>331.2</ele><time>2026-05-01T10:10:55.52Z</time></trkpt><trkpt lat="42.2202382" lon="14.2082282"><ele>331.79999999999995</ele><time>2026-05-01T10:10:56.523Z</time></trkpt><trkpt lat="42.2201482" lon="14.2083092"><ele>332.4</ele><time>2026-05-01T10:10:57.522Z</time></trkpt><trkpt lat="42.2200708" lon="14.2083858"><ele>333.0</ele><time>2026-05-01T10:10:58.523Z</time></trkpt><trkpt lat="42.2199892" lon="14.2084521"><ele>333.0</ele><time>2026-05-01T10:10:59.524Z</time></trkpt><trkpt lat="42.2199122" lon="14.2085198"><ele>333.0</ele><time>2026-05-01T10:11:00.52Z</time></trkpt><trkpt lat="42.2198124" lon="14.2085862"><ele>333.0</ele><time>2026-05-01T10:11:01.526Z</time></trkpt><trkpt lat="42.2197183" lon="14.2086534"><ele>333.0</ele><time>2026-05-01T10:11:02.526Z</time></trkpt><trkpt lat="42.2196163" lon="14.2087224"><ele>333.0</ele><time>2026-05-01T10:11:03.522Z</time></trkpt><trkpt lat="42.2194994" lon="14.2087973"><ele>335.0</ele><time>2026-05-01T10:11:04.523Z</time></trkpt><trkpt lat="42.2193813" lon="14.2088546"><ele>337.0</ele><time>2026-05-01T10:11:05.522Z</time></trkpt><trkpt lat="42.2192691" lon="14.2088908"><ele>339.0</ele><time>2026-05-01T10:11:06.527Z</time></trkpt><trkpt lat="42.2191619" lon="14.2089081"><ele>341.0</ele><time>2026-05-01T10:11:07.518Z</time></trkpt><trkpt lat="42.2190574" lon="14.208906"><ele>339.8</ele><time>2026-05-01T10:11:08.53Z</time></trkpt><trkpt lat="42.2189487" lon="14.2088945"><ele>338.6</ele><time>2026-05-01T10:11:09.518Z</time></trkpt><trkpt lat="42.2188504" lon="14.2088626"><ele>337.4</ele><time>2026-05-01T10:11:10.521Z</time></trkpt><trkpt lat="42.2187688" lon="14.2088124"><ele>336.2</ele><time>2026-05-01T10:11:11.514Z</time></trkpt><trkpt lat="42.2186771" lon="14.208742"><ele>335.0</ele><time>2026-05-01T10:11:12.52Z</time></trkpt><trkpt lat="42.2185753" lon="14.2086544"><ele>335.0</ele><time>2026-05-01T10:11:13.523Z</time></trkpt><trkpt lat="42.2184685" lon="14.2085627"><ele>335.0</ele><time>2026-05-01T10:11:14.52Z</time></trkpt><trkpt lat="42.2183534" lon="14.2085058"><ele>335.0</ele><time>2026-05-01T10:11:15.525Z</time></trkpt><trkpt lat="42.2182317" lon="14.2084438"><ele>335.0</ele><time>2026-05-01T10:11:16.522Z</time></trkpt><trkpt lat="42.2181109" lon="14.2083797"><ele>335.4</ele><time>2026-05-01T10:11:17.518Z</time></trkpt><trkpt lat="42.2179996" lon="14.2083274"><ele>335.8</ele><time>2026-05-01T10:11:18.521Z</time></trkpt><trkpt lat="42.2178932" lon="14.2082795"><ele>336.20000000000005</ele><time>2026-05-01T10:11:19.519Z</time></trkpt><trkpt lat="42.2177983" lon="14.2082385"><ele>336.6</ele><time>2026-05-01T10:11:20.52Z</time></trkpt><trkpt lat="42.2177009" lon="14.2082006"><ele>337.0</ele><time>2026-05-01T10:11:21.518Z</time></trkpt><trkpt lat="42.2175902" lon="14.2081674"><ele>338.8</ele><time>2026-05-01T10:11:22.517Z</time></trkpt><trkpt lat="42.217481" lon="14.2081353"><ele>340.6</ele><time>2026-05-01T10:11:23.514Z</time></trkpt><trkpt lat="42.2173877" lon="14.2080942"><ele>342.40000000000003</ele><time>2026-05-01T10:11:24.515Z</time></trkpt><trkpt lat="42.2173072" lon="14.2080409"><ele>344.20000000000005</ele><time>2026-05-01T10:11:25.512Z</time></trkpt><trkpt lat="42.2172331" lon="14.2079705"><ele>346.0</ele><time>2026-05-01T10:11:26.517Z</time></trkpt><trkpt lat="42.2171812" lon="14.2079018"><ele>346.0</ele><time>2026-05-01T10:11:27.511Z</time></trkpt><trkpt lat="42.2171134" lon="14.2078087"><ele>346.0</ele><time>2026-05-01T10:11:29.524Z</time></trkpt><trkpt lat="42.2170386" lon="14.2077479"><ele>346.0</ele><time>2026-05-01T10:19:45.531Z</time></trkpt><trkpt lat="42.2169579" lon="14.2076492"><ele>346.0</ele><time>2026-05-01T10:19:47.523Z</time></trkpt><trkpt lat="42.2168983" lon="14.2075744"><ele>346.0</ele><time>2026-05-01T10:19:49.534Z</time></trkpt><trkpt lat="42.2168475" lon="14.2074934"><ele>346.0</ele><time>2026-05-01T10:19:53.545Z</time></trkpt><trkpt lat="42.2167679" lon="14.2074428"><ele>346.0</ele><time>2026-05-01T10:19:56.531Z</time></trkpt><trkpt lat="42.2167097" lon="14.2073861"><ele>346.0</ele><time>2026-05-01T10:20:00.53Z</time></trkpt><trkpt lat="42.2166319" lon="14.2073382"><ele>346.0</ele><time>2026-05-01T10:20:03.531Z</time></trkpt><trkpt lat="42.2165636" lon="14.207291"><ele>346.0</ele><time>2026-05-01T10:20:05.524Z</time></trkpt><trkpt lat="42.2164905" lon="14.207239"><ele>346.0</ele><time>2026-05-01T10:20:06.52Z</time></trkpt><trkpt lat="42.2164145" lon="14.2071822"><ele>347.25</ele><time>2026-05-01T10:20:07.52Z</time></trkpt><trkpt lat="42.2163191" lon="14.2071301"><ele>348.5</ele><time>2026-05-01T10:20:08.52Z</time></trkpt><trkpt lat="42.2162152" lon="14.2070764"><ele>349.75</ele><time>2026-05-01T10:20:09.519Z</time></trkpt><trkpt lat="42.2160956" lon="14.2070256"><ele>351.0</ele><time>2026-05-01T10:20:10.534Z</time></trkpt><trkpt lat="42.2159788" lon="14.2069781"><ele>351.0</ele><time>2026-05-01T10:20:11.536Z</time></trkpt><trkpt lat="42.2158604" lon="14.2069396"><ele>351.0</ele><time>2026-05-01T10:20:12.531Z</time></trkpt><trkpt lat="42.21575" lon="14.2069034"><ele>351.0</ele><time>2026-05-01T10:20:13.526Z</time></trkpt><trkpt lat="42.2156574" lon="14.206874"><ele>351.0</ele><time>2026-05-01T10:20:14.53Z</time></trkpt><trkpt lat="42.2155801" lon="14.2068527"><ele>351.0</ele><time>2026-05-01T10:20:15.531Z</time></trkpt><trkpt lat="42.2154985" lon="14.2068196"><ele>351.8</ele><time>2026-05-01T10:20:16.534Z</time></trkpt><trkpt lat="42.2154136" lon="14.2067889"><ele>352.6</ele><time>2026-05-01T10:20:17.531Z</time></trkpt><trkpt lat="42.2153167" lon="14.206781"><ele>353.4</ele><time>2026-05-01T10:20:18.532Z</time></trkpt><trkpt lat="42.2152202" lon="14.2067601"><ele>354.2</ele><time>2026-05-01T10:20:19.53Z</time></trkpt><trkpt lat="42.2151224" lon="14.2067265"><ele>355.0</ele><time>2026-05-01T10:20:20.529Z</time></trkpt><trkpt lat="42.2150335" lon="14.2066906"><ele>355.0</ele><time>2026-05-01T10:20:21.539Z</time></trkpt><trkpt lat="42.2149486" lon="14.2066427"><ele>355.0</ele><time>2026-05-01T10:20:22.53Z</time></trkpt><trkpt lat="42.2148547" lon="14.2066007"><ele>355.0</ele><time>2026-05-01T10:20:23.533Z</time></trkpt><trkpt lat="42.2147517" lon="14.2065827"><ele>355.0</ele><time>2026-05-01T10:20:24.535Z</time></trkpt><trkpt lat="42.2146491" lon="14.2065817"><ele>355.0</ele><time>2026-05-01T10:20:25.536Z</time></trkpt><trkpt lat="42.2145588" lon="14.2065607"><ele>355.8333333333333</ele><time>2026-05-01T10:20:26.604Z</time></trkpt><trkpt lat="42.2144851" lon="14.2065455"><ele>356.66666666666663</ele><time>2026-05-01T10:20:27.603Z</time></trkpt><trkpt lat="42.2144112" lon="14.2065247"><ele>357.5</ele><time>2026-05-01T10:20:28.619Z</time></trkpt><trkpt lat="42.214332" lon="14.2064981"><ele>358.3333333333333</ele><time>2026-05-01T10:20:29.608Z</time></trkpt><trkpt lat="42.2142494" lon="14.2064729"><ele>359.1666666666667</ele><time>2026-05-01T10:20:30.611Z</time></trkpt><trkpt lat="42.2141699" lon="14.2064484"><ele>360.0</ele><time>2026-05-01T10:20:31.606Z</time></trkpt><trkpt lat="42.2140844" lon="14.2064234"><ele>361.0</ele><time>2026-05-01T10:20:32.595Z</time></trkpt><trkpt lat="42.2139932" lon="14.2063978"><ele>362.0</ele><time>2026-05-01T10:20:33.599Z</time></trkpt><trkpt lat="42.2139061" lon="14.206375"><ele>363.0</ele><time>2026-05-01T10:20:34.601Z</time></trkpt><trkpt lat="42.2138112" lon="14.2063441"><ele>364.0</ele><time>2026-05-01T10:20:35.614Z</time></trkpt><trkpt lat="42.2137234" lon="14.2063207"><ele>365.0</ele><time>2026-05-01T10:20:36.609Z</time></trkpt><trkpt lat="42.2136286" lon="14.2062628"><ele>365.75</ele><time>2026-05-01T10:20:37.618Z</time></trkpt><trkpt lat="42.2135294" lon="14.206233"><ele>366.5</ele><time>2026-05-01T10:20:38.613Z</time></trkpt><trkpt lat="42.2134169" lon="14.2062019"><ele>367.25</ele><time>2026-05-01T10:20:39.613Z</time></trkpt><trkpt lat="42.2132964" lon="14.2061654"><ele>368.0</ele><time>2026-05-01T10:20:40.614Z</time></trkpt><trkpt lat="42.2131803" lon="14.2061387"><ele>368.79999999999995</ele><time>2026-05-01T10:20:41.625Z</time></trkpt><trkpt lat="42.2130794" lon="14.2061109"><ele>369.6</ele><time>2026-05-01T10:20:42.616Z</time></trkpt><trkpt lat="42.2129825" lon="14.2060793"><ele>370.4</ele><time>2026-05-01T10:20:43.618Z</time></trkpt><trkpt lat="42.2128846" lon="14.2060533"><ele>371.20000000000005</ele><time>2026-05-01T10:20:44.612Z</time></trkpt><trkpt lat="42.2127878" lon="14.2060262"><ele>372.0</ele><time>2026-05-01T10:20:45.617Z</time></trkpt><trkpt lat="42.212706" lon="14.2060043"><ele>372.0</ele><time>2026-05-01T10:20:46.608Z</time></trkpt><trkpt lat="42.2126416" lon="14.2059882"><ele>372.0</ele><time>2026-05-01T10:20:47.602Z</time></trkpt><trkpt lat="42.2125588" lon="14.2059578"><ele>372.0</ele><time>2026-05-01T10:20:49.607Z</time></trkpt><trkpt lat="42.2124753" lon="14.2059512"><ele>372.0</ele><time>2026-05-01T10:20:52.62Z</time></trkpt><trkpt lat="42.2123373" lon="14.2059248"><ele>372.0</ele><time>2026-05-01T10:20:54.618Z</time></trkpt><trkpt lat="42.2122565" lon="14.2059013"><ele>372.8</ele><time>2026-05-01T10:20:55.592Z</time></trkpt><trkpt lat="42.2121632" lon="14.2058812"><ele>373.6</ele><time>2026-05-01T10:20:56.594Z</time></trkpt><trkpt lat="42.2120512" lon="14.2058642"><ele>374.40000000000003</ele><time>2026-05-01T10:20:57.603Z</time></trkpt><trkpt lat="42.2119417" lon="14.205846"><ele>375.20000000000005</ele><time>2026-05-01T10:20:58.603Z</time></trkpt><trkpt lat="42.2118261" lon="14.2058133"><ele>376.0</ele><time>2026-05-01T10:20:59.615Z</time></trkpt><trkpt lat="42.2117035" lon="14.2057719"><ele>376.0</ele><time>2026-05-01T10:21:00.623Z</time></trkpt><trkpt lat="42.2115663" lon="14.2057253"><ele>376.0</ele><time>2026-05-01T10:21:01.614Z</time></trkpt><trkpt lat="42.2114431" lon="14.2056865"><ele>376.0</ele><time>2026-05-01T10:21:02.604Z</time></trkpt><trkpt lat="42.211342" lon="14.2056511"><ele>376.0</ele><time>2026-05-01T10:21:03.6Z</time></trkpt><trkpt lat="42.2112543" lon="14.2056247"><ele>377.8333333333333</ele><time>2026-05-01T10:21:04.597Z</time></trkpt><trkpt lat="42.2111714" lon="14.2055995"><ele>379.66666666666663</ele><time>2026-05-01T10:21:05.617Z</time></trkpt><trkpt lat="42.2110809" lon="14.2055669"><ele>381.5</ele><time>2026-05-01T10:21:06.615Z</time></trkpt><trkpt lat="42.2109945" lon="14.2055458"><ele>383.3333333333333</ele><time>2026-05-01T10:21:07.613Z</time></trkpt><trkpt lat="42.2109205" lon="14.2055366"><ele>385.1666666666667</ele><time>2026-05-01T10:21:08.607Z</time></trkpt><trkpt lat="42.210852" lon="14.2055366"><ele>387.0</ele><time>2026-05-01T10:21:09.601Z</time></trkpt><trkpt lat="42.2107836" lon="14.205517"><ele>387.0</ele><time>2026-05-01T10:21:10.604Z</time></trkpt><trkpt lat="42.2107057" lon="14.2054947"><ele>387.0</ele><time>2026-05-01T10:21:11.609Z</time></trkpt><trkpt lat="42.2106351" lon="14.2054716"><ele>387.0</ele><time>2026-05-01T10:21:12.603Z</time></trkpt><trkpt lat="42.2105585" lon="14.2054491"><ele>387.0</ele><time>2026-05-01T10:21:13.613Z</time></trkpt><trkpt lat="42.2104883" lon="14.2054272"><ele>387.0</ele><time>2026-05-01T10:21:14.617Z</time></trkpt><trkpt lat="42.2103795" lon="14.20539"><ele>387.0</ele><time>2026-05-01T10:21:16.614Z</time></trkpt><trkpt lat="42.2102499" lon="14.2053538"><ele>387.1666666666667</ele><time>2026-05-01T10:21:18.616Z</time></trkpt><trkpt lat="42.2101777" lon="14.2053337"><ele>387.33333333333337</ele><time>2026-05-01T10:21:19.612Z</time></trkpt><trkpt lat="42.2101093" lon="14.2053195"><ele>387.5</ele><time>2026-05-01T10:21:20.618Z</time></trkpt><trkpt lat="42.2100394" lon="14.2052964"><ele>387.6666666666667</ele><time>2026-05-01T10:21:21.626Z</time></trkpt><trkpt lat="42.2099636" lon="14.2052738"><ele>387.83333333333337</ele><time>2026-05-01T10:21:22.613Z</time></trkpt><trkpt lat="42.2098926" lon="14.2052576"><ele>388.0</ele><time>2026-05-01T10:21:23.615Z</time></trkpt><trkpt lat="42.2097783" lon="14.2052337"><ele>388.50000000000006</ele><time>2026-05-01T10:21:25.606Z</time></trkpt><trkpt lat="42.2096845" lon="14.2052057"><ele>389.0</ele><time>2026-05-01T10:21:27.613Z</time></trkpt><trkpt lat="42.2095745" lon="14.2051681"><ele>389.5</ele><time>2026-05-01T10:21:29.611Z</time></trkpt><trkpt lat="42.2095083" lon="14.2051463"><ele>390.0</ele><time>2026-05-01T10:21:30.615Z</time></trkpt><trkpt lat="42.2094377" lon="14.20512"><ele>390.50000000000006</ele><time>2026-05-01T10:21:31.62Z</time></trkpt><trkpt lat="42.2093636" lon="14.2050945"><ele>391.0</ele><time>2026-05-01T10:21:32.613Z</time></trkpt><trkpt lat="42.2093021" lon="14.205071"><ele>391.00000000000006</ele><time>2026-05-01T10:21:33.621Z</time></trkpt><trkpt lat="42.2092307" lon="14.2050416"><ele>391.0</ele><time>2026-05-01T10:21:34.61Z</time></trkpt><trkpt lat="42.209166" lon="14.2050116"><ele>391.0</ele><time>2026-05-01T10:21:35.612Z</time></trkpt><trkpt lat="42.2091026" lon="14.2049788"><ele>391.0</ele><time>2026-05-01T10:21:36.615Z</time></trkpt><trkpt lat="42.2090158" lon="14.2049339"><ele>391.00000000000006</ele><time>2026-05-01T10:21:38.604Z</time></trkpt><trkpt lat="42.2089242" lon="14.2048844"><ele>391.0</ele><time>2026-05-01T10:21:40.6Z</time></trkpt><trkpt lat="42.2088421" lon="14.2048408"><ele>393.6</ele><time>2026-05-01T10:21:42.617Z</time></trkpt><trkpt lat="42.2087544" lon="14.2047915"><ele>396.20000000000005</ele><time>2026-05-01T10:21:44.611Z</time></trkpt><trkpt lat="42.2086471" lon="14.2047381"><ele>398.79999999999995</ele><time>2026-05-01T10:21:46.611Z</time></trkpt><trkpt lat="42.2085352" lon="14.2046744"><ele>401.4</ele><time>2026-05-01T10:21:48.601Z</time></trkpt><trkpt lat="42.2084695" lon="14.2046463"><ele>404.0</ele><time>2026-05-01T10:21:49.597Z</time></trkpt><trkpt lat="42.2084079" lon="14.2046118"><ele>403.99999999999994</ele><time>2026-05-01T10:21:50.601Z</time></trkpt><trkpt lat="42.2083475" lon="14.2045822"><ele>404.0</ele><time>2026-05-01T10:21:51.629Z</time></trkpt><trkpt lat="42.2082851" lon="14.2045551"><ele>404.0</ele><time>2026-05-01T10:21:52.618Z</time></trkpt><trkpt lat="42.2081837" lon="14.2044836"><ele>404.0</ele><time>2026-05-01T10:21:54.619Z</time></trkpt><trkpt lat="42.2080894" lon="14.204411"><ele>403.99999999999994</ele><time>2026-05-01T10:21:56.61Z</time></trkpt><trkpt lat="42.2080059" lon="14.2043557"><ele>404.0</ele><time>2026-05-01T10:21:58.615Z</time></trkpt><trkpt lat="42.2079341" lon="14.20431"><ele>403.79999999999995</ele><time>2026-05-01T10:22:00.628Z</time></trkpt><trkpt lat="42.2078307" lon="14.2042275"><ele>403.59999999999997</ele><time>2026-05-01T10:22:02.61Z</time></trkpt><trkpt lat="42.207768" lon="14.2041646"><ele>403.4</ele><time>2026-05-01T10:22:03.604Z</time></trkpt><trkpt lat="42.2077005" lon="14.2041088"><ele>403.2</ele><time>2026-05-01T10:22:04.615Z</time></trkpt><trkpt lat="42.2075921" lon="14.2040957"><ele>403.0</ele><time>2026-05-01T10:22:05.516Z</time></trkpt><trkpt lat="42.2075069" lon="14.2040192"><ele>404.1666666666667</ele><time>2026-05-01T10:22:06.507Z</time></trkpt><trkpt lat="42.2074223" lon="14.2039562"><ele>405.33333333333337</ele><time>2026-05-01T10:22:07.516Z</time></trkpt><trkpt lat="42.2073572" lon="14.2038841"><ele>406.5</ele><time>2026-05-01T10:22:08.505Z</time></trkpt><trkpt lat="42.2072845" lon="14.2038358"><ele>407.66666666666663</ele><time>2026-05-01T10:22:09.518Z</time></trkpt><trkpt lat="42.2072285" lon="14.203782"><ele>408.8333333333333</ele><time>2026-05-01T10:22:10.517Z</time></trkpt><trkpt lat="42.2071686" lon="14.2037449"><ele>410.0</ele><time>2026-05-01T10:22:11.515Z</time></trkpt><trkpt lat="42.2070908" lon="14.2037079"><ele>409.99999999999994</ele><time>2026-05-01T10:22:12.511Z</time></trkpt><trkpt lat="42.2070139" lon="14.2036626"><ele>410.0</ele><time>2026-05-01T10:22:13.509Z</time></trkpt><trkpt lat="42.2069486" lon="14.2036125"><ele>410.0</ele><time>2026-05-01T10:22:14.513Z</time></trkpt><trkpt lat="42.2068981" lon="14.2035593"><ele>410.0</ele><time>2026-05-01T10:22:15.518Z</time></trkpt><trkpt lat="42.2068266" lon="14.2035099"><ele>409.99999999999994</ele><time>2026-05-01T10:22:16.512Z</time></trkpt><trkpt lat="42.2067533" lon="14.2034618"><ele>410.0</ele><time>2026-05-01T10:22:17.518Z</time></trkpt><trkpt lat="42.2066778" lon="14.2034122"><ele>409.99999999999994</ele><time>2026-05-01T10:22:18.522Z</time></trkpt><trkpt lat="42.206599" lon="14.2033615"><ele>410.0</ele><time>2026-05-01T10:22:19.518Z</time></trkpt><trkpt lat="42.2065279" lon="14.2033196"><ele>410.0</ele><time>2026-05-01T10:22:20.523Z</time></trkpt><trkpt lat="42.2064546" lon="14.2032817"><ele>410.0</ele><time>2026-05-01T10:22:21.522Z</time></trkpt><trkpt lat="42.2063969" lon="14.2032411"><ele>409.99999999999994</ele><time>2026-05-01T10:22:22.523Z</time></trkpt><trkpt lat="42.2062965" lon="14.2031478"><ele>410.0</ele><time>2026-05-01T10:22:24.526Z</time></trkpt><trkpt lat="42.2062223" lon="14.2030875"><ele>411.49999999999994</ele><time>2026-05-01T10:22:25.529Z</time></trkpt><trkpt lat="42.2061341" lon="14.203032"><ele>413.0</ele><time>2026-05-01T10:22:26.531Z</time></trkpt><trkpt lat="42.2060468" lon="14.2029628"><ele>414.5</ele><time>2026-05-01T10:22:27.527Z</time></trkpt><trkpt lat="42.2059802" lon="14.2029133"><ele>416.0</ele><time>2026-05-01T10:22:28.53Z</time></trkpt><trkpt lat="42.2059058" lon="14.2028898"><ele>417.49999999999994</ele><time>2026-05-01T10:22:29.525Z</time></trkpt><trkpt lat="42.2058199" lon="14.2028588"><ele>419.0</ele><time>2026-05-01T10:22:30.525Z</time></trkpt><trkpt lat="42.2057171" lon="14.2028135"><ele>418.5</ele><time>2026-05-01T10:22:31.526Z</time></trkpt><trkpt lat="42.2056029" lon="14.2027517"><ele>418.0</ele><time>2026-05-01T10:22:32.528Z</time></trkpt><trkpt lat="42.2054745" lon="14.2026731"><ele>417.5</ele><time>2026-05-01T10:22:33.526Z</time></trkpt><trkpt lat="42.2053609" lon="14.202593"><ele>417.0</ele><time>2026-05-01T10:22:34.528Z</time></trkpt><trkpt lat="42.205259" lon="14.2025243"><ele>417.0</ele><time>2026-05-01T10:22:35.529Z</time></trkpt><trkpt lat="42.2051664" lon="14.2024646"><ele>417.0</ele><time>2026-05-01T10:22:36.522Z</time></trkpt><trkpt lat="42.2050755" lon="14.2023962"><ele>417.0</ele><time>2026-05-01T10:22:37.523Z</time></trkpt><trkpt lat="42.2049823" lon="14.2023331"><ele>417.0</ele><time>2026-05-01T10:22:38.526Z</time></trkpt><trkpt lat="42.2048922" lon="14.2022761"><ele>417.0</ele><time>2026-05-01T10:22:39.528Z</time></trkpt><trkpt lat="42.2047989" lon="14.202222"><ele>419.0</ele><time>2026-05-01T10:22:40.53Z</time></trkpt><trkpt lat="42.2047167" lon="14.2021697"><ele>421.0</ele><time>2026-05-01T10:22:41.522Z</time></trkpt><trkpt lat="42.204636" lon="14.2021268"><ele>423.0</ele><time>2026-05-01T10:22:42.529Z</time></trkpt><trkpt lat="42.2045693" lon="14.2020849"><ele>425.0</ele><time>2026-05-01T10:22:43.53Z</time></trkpt><trkpt lat="42.2044989" lon="14.2020391"><ele>427.0</ele><time>2026-05-01T10:22:44.528Z</time></trkpt><trkpt lat="42.2044302" lon="14.20198"><ele>429.0</ele><time>2026-05-01T10:22:45.526Z</time></trkpt><trkpt lat="42.2043558" lon="14.2019194"><ele>429.0</ele><time>2026-05-01T10:22:46.522Z</time></trkpt><trkpt lat="42.2042736" lon="14.2018561"><ele>429.0</ele><time>2026-05-01T10:22:47.524Z</time></trkpt><trkpt lat="42.2041911" lon="14.2018026"><ele>429.0</ele><time>2026-05-01T10:22:48.522Z</time></trkpt><trkpt lat="42.2041252" lon="14.2017657"><ele>429.0</ele><time>2026-05-01T10:22:49.516Z</time></trkpt><trkpt lat="42.2040159" lon="14.2017286"><ele>429.0</ele><time>2026-05-01T10:22:51.518Z</time></trkpt><trkpt lat="42.2039151" lon="14.2016924"><ele>428.14285714285717</ele><time>2026-05-01T10:22:53.518Z</time></trkpt><trkpt lat="42.2038546" lon="14.2016682"><ele>427.28571428571433</ele><time>2026-05-01T10:22:54.518Z</time></trkpt><trkpt lat="42.2037867" lon="14.2016343"><ele>426.42857142857144</ele><time>2026-05-01T10:22:55.519Z</time></trkpt><trkpt lat="42.2037102" lon="14.2016001"><ele>425.57142857142856</ele><time>2026-05-01T10:22:56.516Z</time></trkpt><trkpt lat="42.2036418" lon="14.2015719"><ele>424.7142857142857</ele><time>2026-05-01T10:22:57.522Z</time></trkpt><trkpt lat="42.2035713" lon="14.2015482"><ele>423.85714285714283</ele><time>2026-05-01T10:22:58.519Z</time></trkpt><trkpt lat="42.203494" lon="14.2015375"><ele>423.0</ele><time>2026-05-01T10:22:59.518Z</time></trkpt><trkpt lat="42.2034157" lon="14.2015369"><ele>423.0</ele><time>2026-05-01T10:23:00.517Z</time></trkpt><trkpt lat="42.2033448" lon="14.2015324"><ele>423.0</ele><time>2026-05-01T10:23:01.518Z</time></trkpt><trkpt lat="42.2032734" lon="14.2015264"><ele>423.0</ele><time>2026-05-01T10:23:02.522Z</time></trkpt><trkpt lat="42.2032028" lon="14.2015149"><ele>423.0</ele><time>2026-05-01T10:23:03.51Z</time></trkpt><trkpt lat="42.2031412" lon="14.2014886"><ele>423.0</ele><time>2026-05-01T10:23:04.52Z</time></trkpt><trkpt lat="42.2030402" lon="14.2014251"><ele>423.0</ele><time>2026-05-01T10:23:06.509Z</time></trkpt><trkpt lat="42.2029568" lon="14.201387"><ele>423.59999999999997</ele><time>2026-05-01T10:23:08.518Z</time></trkpt><trkpt lat="42.202884" lon="14.201329"><ele>424.2</ele><time>2026-05-01T10:23:10.532Z</time></trkpt><trkpt lat="42.2028032" lon="14.2012667"><ele>424.8</ele><time>2026-05-01T10:23:12.51Z</time></trkpt><trkpt lat="42.202687" lon="14.2012031"><ele>425.4</ele><time>2026-05-01T10:23:14.517Z</time></trkpt><trkpt lat="42.2026216" lon="14.2011926"><ele>426.0</ele><time>2026-05-01T10:23:15.524Z</time></trkpt><trkpt lat="42.202532" lon="14.201191"><ele>426.0</ele><time>2026-05-01T10:23:17.53Z</time></trkpt><trkpt lat="42.2024602" lon="14.201188"><ele>426.0</ele><time>2026-05-01T10:23:23.544Z</time></trkpt><trkpt lat="42.2023947" lon="14.2011711"><ele>426.0</ele><time>2026-05-01T10:23:29.54Z</time></trkpt><trkpt lat="42.2023076" lon="14.201153"><ele>426.0</ele><time>2026-05-01T10:23:33.537Z</time></trkpt><trkpt lat="42.2022262" lon="14.2011635"><ele>426.0</ele><time>2026-05-01T10:23:36.531Z</time></trkpt><trkpt lat="42.2021579" lon="14.2011406"><ele>426.0</ele><time>2026-05-01T10:23:40.543Z</time></trkpt><trkpt lat="42.2021055" lon="14.2010613"><ele>426.8333333333333</ele><time>2026-05-01T10:23:43.532Z</time></trkpt><trkpt lat="42.2020203" lon="14.200985"><ele>427.66666666666663</ele><time>2026-05-01T10:23:46.534Z</time></trkpt><trkpt lat="42.2019532" lon="14.2009673"><ele>428.5</ele><time>2026-05-01T10:26:51.535Z</time></trkpt><trkpt lat="42.2018741" lon="14.2009246"><ele>429.3333333333333</ele><time>2026-05-01T10:26:54.535Z</time></trkpt><trkpt lat="42.2017916" lon="14.2008583"><ele>430.16666666666663</ele><time>2026-05-01T10:26:56.53Z</time></trkpt><trkpt lat="42.2017112" lon="14.2008385"><ele>431.0</ele><time>2026-05-01T10:26:58.532Z</time></trkpt><trkpt lat="42.2016268" lon="14.2008279"><ele>431.0</ele><time>2026-05-01T10:27:00.53Z</time></trkpt><trkpt lat="42.2015106" lon="14.2008373"><ele>431.0</ele><time>2026-05-01T10:27:02.523Z</time></trkpt><trkpt lat="42.2014251" lon="14.2008337"><ele>431.0</ele><time>2026-05-01T10:27:04.538Z</time></trkpt><trkpt lat="42.2013248" lon="14.200766"><ele>431.0</ele><time>2026-05-01T10:27:06.525Z</time></trkpt><trkpt lat="42.2012605" lon="14.2007499"><ele>431.0</ele><time>2026-05-01T10:27:07.529Z</time></trkpt><trkpt lat="42.201178" lon="14.2006956"><ele>433.16666666666663</ele><time>2026-05-01T10:27:09.526Z</time></trkpt><trkpt lat="42.2011035" lon="14.2006612"><ele>435.3333333333333</ele><time>2026-05-01T10:27:11.532Z</time></trkpt><trkpt lat="42.2010296" lon="14.2006567"><ele>437.5</ele><time>2026-05-01T10:27:13.537Z</time></trkpt><trkpt lat="42.2009645" lon="14.2006094"><ele>439.66666666666663</ele><time>2026-05-01T10:27:15.533Z</time></trkpt><trkpt lat="42.2008912" lon="14.2005751"><ele>441.8333333333333</ele><time>2026-05-01T10:41:54.521Z</time></trkpt><trkpt lat="42.2008073" lon="14.2005639"><ele>444.0</ele><time>2026-05-01T10:41:56.527Z</time></trkpt><trkpt lat="42.2007084" lon="14.2004896"><ele>445.3333333333333</ele><time>2026-05-01T10:41:58.514Z</time></trkpt><trkpt lat="42.2006079" lon="14.2004025"><ele>446.66666666666663</ele><time>2026-05-01T10:42:00.507Z</time></trkpt><trkpt lat="42.2005434" lon="14.2003888"><ele>448.0</ele><time>2026-05-01T10:42:01.518Z</time></trkpt><trkpt lat="42.2004639" lon="14.2004017"><ele>449.3333333333333</ele><time>2026-05-01T10:42:07.524Z</time></trkpt><trkpt lat="42.200367" lon="14.2004352"><ele>450.66666666666663</ele><time>2026-05-01T10:42:10.526Z</time></trkpt><trkpt lat="42.2003006" lon="14.2004396"><ele>452.0</ele><time>2026-05-01T10:42:11.53Z</time></trkpt><trkpt lat="42.2002326" lon="14.2004343"><ele>451.99999999999994</ele><time>2026-05-01T10:42:12.512Z</time></trkpt><trkpt lat="42.2001584" lon="14.2004141"><ele>452.0</ele><time>2026-05-01T10:42:13.516Z</time></trkpt><trkpt lat="42.2000925" lon="14.2003837"><ele>452.0</ele><time>2026-05-01T10:42:14.515Z</time></trkpt><trkpt lat="42.2000322" lon="14.2003353"><ele>452.0</ele><time>2026-05-01T10:42:15.519Z</time></trkpt><trkpt lat="42.199965" lon="14.200271"><ele>451.99999999999994</ele><time>2026-05-01T10:42:16.521Z</time></trkpt><trkpt lat="42.1999007" lon="14.2002034"><ele>452.0</ele><time>2026-05-01T10:42:17.519Z</time></trkpt><trkpt lat="42.1998278" lon="14.2001519"><ele>453.3333333333333</ele><time>2026-05-01T10:42:18.525Z</time></trkpt><trkpt lat="42.1997414" lon="14.2001166"><ele>454.66666666666663</ele><time>2026-05-01T10:42:19.514Z</time></trkpt><trkpt lat="42.1996624" lon="14.2000871"><ele>456.0</ele><time>2026-05-01T10:42:20.519Z</time></trkpt><trkpt lat="42.199592" lon="14.2000597"><ele>457.33333333333337</ele><time>2026-05-01T10:42:21.512Z</time></trkpt><trkpt lat="42.1995344" lon="14.2000085"><ele>458.6666666666667</ele><time>2026-05-01T10:42:22.508Z</time></trkpt><trkpt lat="42.1994705" lon="14.1999667"><ele>460.0</ele><time>2026-05-01T10:42:23.519Z</time></trkpt><trkpt lat="42.1993904" lon="14.1999565"><ele>460.0</ele><time>2026-05-01T10:42:24.509Z</time></trkpt><trkpt lat="42.1993085" lon="14.1999691"><ele>460.0</ele><time>2026-05-01T10:42:25.512Z</time></trkpt><trkpt lat="42.1992145" lon="14.1999735"><ele>460.0</ele><time>2026-05-01T10:42:26.507Z</time></trkpt><trkpt lat="42.1991075" lon="14.1999717"><ele>460.0</ele><time>2026-05-01T10:42:27.507Z</time></trkpt><trkpt lat="42.1989988" lon="14.1999658"><ele>460.0</ele><time>2026-05-01T10:42:28.511Z</time></trkpt><trkpt lat="42.1988937" lon="14.1999744"><ele>461.6</ele><time>2026-05-01T10:42:29.511Z</time></trkpt><trkpt lat="42.1987839" lon="14.1999913"><ele>463.2</ele><time>2026-05-01T10:42:30.51Z</time></trkpt><trkpt lat="42.1986877" lon="14.1999927"><ele>464.79999999999995</ele><time>2026-05-01T10:42:31.512Z</time></trkpt><trkpt lat="42.1985949" lon="14.1999911"><ele>466.4</ele><time>2026-05-01T10:42:32.509Z</time></trkpt><trkpt lat="42.1984999" lon="14.1999927"><ele>468.0</ele><time>2026-05-01T10:42:33.513Z</time></trkpt><trkpt lat="42.1983965" lon="14.20001"><ele>468.0</ele><time>2026-05-01T10:42:34.511Z</time></trkpt><trkpt lat="42.1982924" lon="14.2000397"><ele>467.99999999999994</ele><time>2026-05-01T10:42:35.514Z</time></trkpt><trkpt lat="42.1981861" lon="14.2000783"><ele>467.99999999999994</ele><time>2026-05-01T10:42:36.517Z</time></trkpt><trkpt lat="42.1980965" lon="14.2000902"><ele>468.0</ele><time>2026-05-01T10:42:37.512Z</time></trkpt><trkpt lat="42.198014" lon="14.2000825"><ele>468.0</ele><time>2026-05-01T10:42:38.518Z</time></trkpt><trkpt lat="42.1979322" lon="14.2000526"><ele>468.8333333333333</ele><time>2026-05-01T10:42:39.517Z</time></trkpt><trkpt lat="42.1978484" lon="14.2000158"><ele>469.66666666666663</ele><time>2026-05-01T10:42:40.535Z</time></trkpt><trkpt lat="42.1977513" lon="14.200008"><ele>470.5</ele><time>2026-05-01T10:42:41.524Z</time></trkpt><trkpt lat="42.1976587" lon="14.2000074"><ele>471.3333333333333</ele><time>2026-05-01T10:42:42.527Z</time></trkpt><trkpt lat="42.1975809" lon="14.2000096"><ele>472.16666666666663</ele><time>2026-05-01T10:42:43.517Z</time></trkpt><trkpt lat="42.197488" lon="14.2000071"><ele>473.0</ele><time>2026-05-01T10:42:45.517Z</time></trkpt><trkpt lat="42.1974304" lon="14.199918"><ele>474.2</ele><time>2026-05-01T10:42:48.528Z</time></trkpt><trkpt lat="42.1974127" lon="14.1997674"><ele>475.4</ele><time>2026-05-01T10:42:50.525Z</time></trkpt><trkpt lat="42.1973994" lon="14.1996201"><ele>476.59999999999997</ele><time>2026-05-01T10:42:52.52Z</time></trkpt><trkpt lat="42.1974435" lon="14.1994513"><ele>477.79999999999995</ele><time>2026-05-01T10:42:54.516Z</time></trkpt><trkpt lat="42.1974713" lon="14.1993568"><ele>479.0</ele><time>2026-05-01T10:42:55.517Z</time></trkpt><trkpt lat="42.1974926" lon="14.1992689"><ele>478.99999999999994</ele><time>2026-05-01T10:42:56.517Z</time></trkpt><trkpt lat="42.1975125" lon="14.1991607"><ele>479.0</ele><time>2026-05-01T10:42:58.516Z</time></trkpt><trkpt lat="42.1974967" lon="14.1990784"><ele>479.0</ele><time>2026-05-01T10:43:00.521Z</time></trkpt><trkpt lat="42.197425" lon="14.1989663"><ele>479.0</ele><time>2026-05-01T10:43:02.526Z</time></trkpt><trkpt lat="42.1973398" lon="14.1988485"><ele>478.99999999999994</ele><time>2026-05-01T10:43:04.521Z</time></trkpt><trkpt lat="42.1972944" lon="14.1987836"><ele>479.0</ele><time>2026-05-01T10:43:05.509Z</time></trkpt><trkpt lat="42.1972444" lon="14.1987085"><ele>479.4</ele><time>2026-05-01T10:43:06.515Z</time></trkpt><trkpt lat="42.1971621" lon="14.1986167"><ele>479.79999999999995</ele><time>2026-05-01T10:43:08.507Z</time></trkpt><trkpt lat="42.1971371" lon="14.1984978"><ele>480.20000000000005</ele><time>2026-05-01T10:43:10.521Z</time></trkpt><trkpt lat="42.1972112" lon="14.1984588"><ele>480.6</ele><time>2026-05-01T10:43:14.512Z</time></trkpt><trkpt lat="42.1973126" lon="14.1984433"><ele>481.0</ele><time>2026-05-01T10:43:16.513Z</time></trkpt><trkpt lat="42.1973816" lon="14.1984215"><ele>481.0</ele><time>2026-05-01T10:43:17.513Z</time></trkpt><trkpt lat="42.1974354" lon="14.1983612"><ele>481.0</ele><time>2026-05-01T10:43:18.522Z</time></trkpt><trkpt lat="42.197508" lon="14.198244"><ele>481.0</ele><time>2026-05-01T10:43:20.523Z</time></trkpt><trkpt lat="42.1975794" lon="14.1981331"><ele>481.0</ele><time>2026-05-01T10:43:22.517Z</time></trkpt><trkpt lat="42.1976555" lon="14.1980043"><ele>481.0</ele><time>2026-05-01T10:43:24.523Z</time></trkpt><trkpt lat="42.1977105" lon="14.1978888"><ele>481.33333333333337</ele><time>2026-05-01T10:43:26.515Z</time></trkpt><trkpt lat="42.1977492" lon="14.1978016"><ele>481.6666666666667</ele><time>2026-05-01T10:43:30.527Z</time></trkpt><trkpt lat="42.1976893" lon="14.1977287"><ele>482.0</ele><time>2026-05-01T10:43:34.522Z</time></trkpt><trkpt lat="42.1976215" lon="14.1976574"><ele>482.33333333333337</ele><time>2026-05-01T10:43:36.508Z</time></trkpt><trkpt lat="42.1975755" lon="14.1975841"><ele>482.6666666666667</ele><time>2026-05-01T10:43:37.529Z</time></trkpt><trkpt lat="42.1975185" lon="14.1974963"><ele>483.0</ele><time>2026-05-01T10:43:38.513Z</time></trkpt><trkpt lat="42.1974539" lon="14.1974205"><ele>483.0</ele><time>2026-05-01T10:43:39.505Z</time></trkpt><trkpt lat="42.197386" lon="14.1973609"><ele>483.0</ele><time>2026-05-01T10:43:40.514Z</time></trkpt><trkpt lat="42.1973247" lon="14.1973056"><ele>483.0</ele><time>2026-05-01T10:43:41.507Z</time></trkpt><trkpt lat="42.197262" lon="14.1972424"><ele>483.0</ele><time>2026-05-01T10:43:42.512Z</time></trkpt><trkpt lat="42.1972071" lon="14.197163"><ele>483.0</ele><time>2026-05-01T10:43:43.509Z</time></trkpt><trkpt lat="42.1971465" lon="14.1970853"><ele>483.0</ele><time>2026-05-01T10:43:44.513Z</time></trkpt><trkpt lat="42.1970767" lon="14.1970326"><ele>484.6666666666667</ele><time>2026-05-01T10:43:45.514Z</time></trkpt><trkpt lat="42.1970156" lon="14.1970004"><ele>486.33333333333337</ele><time>2026-05-01T10:43:46.51Z</time></trkpt><trkpt lat="42.1969498" lon="14.1969114"><ele>488.0</ele><time>2026-05-01T10:43:48.511Z</time></trkpt><trkpt lat="42.1969433" lon="14.1968194"><ele>489.6666666666667</ele><time>2026-05-01T10:43:49.509Z</time></trkpt><trkpt lat="42.1969559" lon="14.1966986"><ele>491.33333333333337</ele><time>2026-05-01T10:43:50.509Z</time></trkpt><trkpt lat="42.1969332" lon="14.1966168"><ele>493.0</ele><time>2026-05-01T10:43:51.516Z</time></trkpt><trkpt lat="42.1968885" lon="14.1965481"><ele>493.4</ele><time>2026-05-01T10:43:52.509Z</time></trkpt><trkpt lat="42.1968272" lon="14.1964629"><ele>493.79999999999995</ele><time>2026-05-01T10:43:53.512Z</time></trkpt><trkpt lat="42.1967636" lon="14.1963694"><ele>494.2</ele><time>2026-05-01T10:43:54.51Z</time></trkpt><trkpt lat="42.1967161" lon="14.1962873"><ele>494.6</ele><time>2026-05-01T10:43:55.503Z</time></trkpt><trkpt lat="42.1966772" lon="14.1961364"><ele>495.0</ele><time>2026-05-01T10:43:57.499Z</time></trkpt><trkpt lat="42.196637" lon="14.1959933"><ele>495.0</ele><time>2026-05-01T10:43:59.508Z</time></trkpt><trkpt lat="42.1965853" lon="14.1959302"><ele>495.0</ele><time>2026-05-01T10:44:00.501Z</time></trkpt><trkpt lat="42.1965069" lon="14.1958782"><ele>495.0</ele><time>2026-05-01T10:44:01.508Z</time></trkpt><trkpt lat="42.1964358" lon="14.1958041"><ele>495.0</ele><time>2026-05-01T10:44:02.513Z</time></trkpt><trkpt lat="42.1963736" lon="14.1957276"><ele>495.0</ele><time>2026-05-01T10:44:03.51Z</time></trkpt><trkpt lat="42.1963143" lon="14.1956471"><ele>495.0</ele><time>2026-05-01T10:44:04.503Z</time></trkpt><trkpt lat="42.1962609" lon="14.1955571"><ele>496.0</ele><time>2026-05-01T10:44:05.506Z</time></trkpt><trkpt lat="42.1962058" lon="14.195473"><ele>497.0</ele><time>2026-05-01T10:44:06.51Z</time></trkpt><trkpt lat="42.1961601" lon="14.1954102"><ele>498.0</ele><time>2026-05-01T10:44:07.512Z</time></trkpt><trkpt lat="42.1961147" lon="14.1953476"><ele>499.0</ele><time>2026-05-01T10:44:08.511Z</time></trkpt><trkpt lat="42.1959967" lon="14.1952483"><ele>500.0</ele><time>2026-05-01T10:44:10.512Z</time></trkpt><trkpt lat="42.1959217" lon="14.1951996"><ele>501.0</ele><time>2026-05-01T10:44:11.514Z</time></trkpt><trkpt lat="42.1958573" lon="14.1951484"><ele>501.0</ele><time>2026-05-01T10:44:12.512Z</time></trkpt><trkpt lat="42.1957992" lon="14.1951026"><ele>501.0</ele><time>2026-05-01T10:44:13.512Z</time></trkpt><trkpt lat="42.1957098" lon="14.1950184"><ele>501.0</ele><time>2026-05-01T10:44:15.513Z</time></trkpt><trkpt lat="42.195604" lon="14.1949718"><ele>501.0</ele><time>2026-05-01T10:44:17.511Z</time></trkpt><trkpt lat="42.1955165" lon="14.1948427"><ele>501.0</ele><time>2026-05-01T10:44:19.512Z</time></trkpt><trkpt lat="42.1954625" lon="14.1947555"><ele>503.20000000000005</ele><time>2026-05-01T10:44:20.515Z</time></trkpt><trkpt lat="42.1954046" lon="14.1946898"><ele>505.40000000000003</ele><time>2026-05-01T10:44:21.511Z</time></trkpt><trkpt lat="42.1953344" lon="14.1945773"><ele>507.6</ele><time>2026-05-01T10:44:23.513Z</time></trkpt><trkpt lat="42.1953246" lon="14.1944607"><ele>509.8</ele><time>2026-05-01T10:44:25.51Z</time></trkpt><trkpt lat="42.1952664" lon="14.1943272"><ele>512.0</ele><time>2026-05-01T10:44:27.507Z</time></trkpt><trkpt lat="42.1952028" lon="14.1942608"><ele>512.0</ele><time>2026-05-01T10:44:28.506Z</time></trkpt><trkpt lat="42.1951489" lon="14.194201"><ele>512.0</ele><time>2026-05-01T10:44:29.516Z</time></trkpt><trkpt lat="42.1950295" lon="14.194173"><ele>512.0</ele><time>2026-05-01T10:44:31.503Z</time></trkpt><trkpt lat="42.1949657" lon="14.1941939"><ele>512.0</ele><time>2026-05-01T10:44:32.513Z</time></trkpt><trkpt lat="42.1948481" lon="14.1941763"><ele>512.0</ele><time>2026-05-01T10:44:34.515Z</time></trkpt><trkpt lat="42.1947632" lon="14.1940714"><ele>511.8333333333333</ele><time>2026-05-01T10:44:36.508Z</time></trkpt><trkpt lat="42.1946925" lon="14.193978"><ele>511.66666666666663</ele><time>2026-05-01T10:44:38.51Z</time></trkpt><trkpt lat="42.1947016" lon="14.1938105"><ele>511.5</ele><time>2026-05-01T10:44:40.517Z</time></trkpt><trkpt lat="42.1947366" lon="14.1937314"><ele>511.33333333333337</ele><time>2026-05-01T10:44:41.512Z</time></trkpt><trkpt lat="42.19478" lon="14.193655"><ele>511.1666666666667</ele><time>2026-05-01T10:44:42.517Z</time></trkpt><trkpt lat="42.1948228" lon="14.1935787"><ele>511.0</ele><time>2026-05-01T10:44:43.515Z</time></trkpt><trkpt lat="42.1948692" lon="14.1934325"><ele>511.00000000000006</ele><time>2026-05-01T10:44:45.511Z</time></trkpt><trkpt lat="42.1948447" lon="14.1932862"><ele>511.0</ele><time>2026-05-01T10:44:47.508Z</time></trkpt><trkpt lat="42.1948241" lon="14.1931959"><ele>511.0</ele><time>2026-05-01T10:44:48.517Z</time></trkpt><trkpt lat="42.1947899" lon="14.1930968"><ele>511.0</ele><time>2026-05-01T10:44:49.513Z</time></trkpt><trkpt lat="42.1947495" lon="14.193"><ele>511.00000000000006</ele><time>2026-05-01T10:44:50.515Z</time></trkpt><trkpt lat="42.1947215" lon="14.1928982"><ele>511.0</ele><time>2026-05-01T10:44:51.52Z</time></trkpt><trkpt lat="42.1947013" lon="14.1927922"><ele>512.2857142857143</ele><time>2026-05-01T10:44:52.508Z</time></trkpt><trkpt lat="42.1946929" lon="14.1926969"><ele>513.5714285714286</ele><time>2026-05-01T10:44:53.507Z</time></trkpt><trkpt lat="42.1946947" lon="14.1925835"><ele>514.8571428571429</ele><time>2026-05-01T10:44:54.518Z</time></trkpt><trkpt lat="42.1946744" lon="14.1924912"><ele>516.1428571428571</ele><time>2026-05-01T10:44:55.51Z</time></trkpt><trkpt lat="42.1946296" lon="14.1924312"><ele>517.4285714285714</ele><time>2026-05-01T10:44:56.514Z</time></trkpt><trkpt lat="42.1945816" lon="14.1923739"><ele>518.7142857142858</ele><time>2026-05-01T10:44:57.512Z</time></trkpt><trkpt lat="42.1945191" lon="14.1923031"><ele>520.0</ele><time>2026-05-01T10:44:58.519Z</time></trkpt><trkpt lat="42.1944441" lon="14.1922338"><ele>520.0</ele><time>2026-05-01T10:44:59.512Z</time></trkpt><trkpt lat="42.1943637" lon="14.1921769"><ele>520.0</ele><time>2026-05-01T10:45:00.513Z</time></trkpt><trkpt lat="42.1942892" lon="14.1921407"><ele>520.0</ele><time>2026-05-01T10:45:01.509Z</time></trkpt><trkpt lat="42.194189" lon="14.1921292"><ele>520.0</ele><time>2026-05-01T10:45:03.516Z</time></trkpt><trkpt lat="42.1940847" lon="14.1921161"><ele>520.0</ele><time>2026-05-01T10:45:06.519Z</time></trkpt><trkpt lat="42.1940226" lon="14.1920132"><ele>522.0</ele><time>2026-05-01T10:45:08.522Z</time></trkpt><trkpt lat="42.1939434" lon="14.1919599"><ele>524.0</ele><time>2026-05-01T10:45:10.507Z</time></trkpt><trkpt lat="42.1938378" lon="14.191977"><ele>526.0</ele><time>2026-05-01T10:45:12.505Z</time></trkpt><trkpt lat="42.1937242" lon="14.1920164"><ele>528.0</ele><time>2026-05-01T10:45:14.519Z</time></trkpt><trkpt lat="42.1936161" lon="14.1919868"><ele>530.0</ele><time>2026-05-01T10:45:16.519Z</time></trkpt><trkpt lat="42.1935667" lon="14.1919131"><ele>530.0</ele><time>2026-05-01T10:45:18.535Z</time></trkpt><trkpt lat="42.1934896" lon="14.1917434"><ele>530.0</ele><time>2026-05-01T10:45:20.521Z</time></trkpt><trkpt lat="42.1934363" lon="14.1916392"><ele>530.0</ele><time>2026-05-01T10:45:21.517Z</time></trkpt><trkpt lat="42.1933812" lon="14.1915423"><ele>530.0</ele><time>2026-05-01T10:45:22.523Z</time></trkpt><trkpt lat="42.1933294" lon="14.191439"><ele>530.0</ele><time>2026-05-01T10:45:23.515Z</time></trkpt><trkpt lat="42.1932729" lon="14.1913402"><ele>529.3333333333333</ele><time>2026-05-01T10:45:24.519Z</time></trkpt><trkpt lat="42.1932155" lon="14.1912588"><ele>528.6666666666666</ele><time>2026-05-01T10:45:25.516Z</time></trkpt><trkpt lat="42.1931441" lon="14.1912074"><ele>528.0</ele><time>2026-05-01T10:45:26.518Z</time></trkpt><trkpt lat="42.1930536" lon="14.1911628"><ele>527.3333333333334</ele><time>2026-05-01T10:45:27.531Z</time></trkpt><trkpt lat="42.1929639" lon="14.1911339"><ele>526.6666666666667</ele><time>2026-05-01T10:45:28.521Z</time></trkpt><trkpt lat="42.1928893" lon="14.1911011"><ele>526.0</ele><time>2026-05-01T10:45:29.525Z</time></trkpt><trkpt lat="42.1928061" lon="14.1910794"><ele>528.0</ele><time>2026-05-01T10:45:30.524Z</time></trkpt><trkpt lat="42.1927111" lon="14.1910507"><ele>530.0</ele><time>2026-05-01T10:45:31.522Z</time></trkpt><trkpt lat="42.1926122" lon="14.1910244"><ele>532.0</ele><time>2026-05-01T10:45:32.523Z</time></trkpt><trkpt lat="42.192498" lon="14.1909712"><ele>534.0</ele><time>2026-05-01T10:45:33.515Z</time></trkpt><trkpt lat="42.192389" lon="14.1909179"><ele>536.0</ele><time>2026-05-01T10:45:34.518Z</time></trkpt><trkpt lat="42.1923089" lon="14.1908917"><ele>537.8</ele><time>2026-05-01T10:45:35.588Z</time></trkpt><trkpt lat="42.1922314" lon="14.1908744"><ele>539.6</ele><time>2026-05-01T10:45:36.589Z</time></trkpt><trkpt lat="42.1921414" lon="14.1908558"><ele>541.4</ele><time>2026-05-01T10:45:37.599Z</time></trkpt><trkpt lat="42.1920457" lon="14.1908307"><ele>543.2</ele><time>2026-05-01T10:45:38.587Z</time></trkpt><trkpt lat="42.1919696" lon="14.1908199"><ele>545.0</ele><time>2026-05-01T10:45:39.585Z</time></trkpt><trkpt lat="42.1918609" lon="14.190792"><ele>545.0</ele><time>2026-05-01T10:45:40.504Z</time></trkpt><trkpt lat="42.191749" lon="14.1907637"><ele>545.0</ele><time>2026-05-01T10:45:42.515Z</time></trkpt><trkpt lat="42.1916719" lon="14.1907078"><ele>545.0</ele><time>2026-05-01T10:45:43.514Z</time></trkpt><trkpt lat="42.1915879" lon="14.1906416"><ele>545.0</ele><time>2026-05-01T10:45:44.519Z</time></trkpt><trkpt lat="42.1915038" lon="14.1905663"><ele>545.0</ele><time>2026-05-01T10:45:45.52Z</time></trkpt><trkpt lat="42.1914291" lon="14.1904787"><ele>546.3333333333333</ele><time>2026-05-01T10:45:46.52Z</time></trkpt><trkpt lat="42.1913529" lon="14.1903885"><ele>547.6666666666666</ele><time>2026-05-01T10:45:47.512Z</time></trkpt><trkpt lat="42.1912796" lon="14.1902996"><ele>549.0</ele><time>2026-05-01T10:45:48.514Z</time></trkpt><trkpt lat="42.191226" lon="14.1902105"><ele>550.3333333333334</ele><time>2026-05-01T10:45:49.507Z</time></trkpt><trkpt lat="42.191183" lon="14.1901342"><ele>551.6666666666667</ele><time>2026-05-01T10:45:50.514Z</time></trkpt><trkpt lat="42.1911299" lon="14.1900568"><ele>553.0</ele><time>2026-05-01T10:45:51.518Z</time></trkpt><trkpt lat="42.1910762" lon="14.1899965"><ele>553.0</ele><time>2026-05-01T10:45:52.507Z</time></trkpt><trkpt lat="42.1910113" lon="14.1899525"><ele>553.0</ele><time>2026-05-01T10:45:53.506Z</time></trkpt><trkpt lat="42.1909586" lon="14.1899041"><ele>553.0</ele><time>2026-05-01T10:45:54.508Z</time></trkpt><trkpt lat="42.1909157" lon="14.1898234"><ele>553.0</ele><time>2026-05-01T10:45:55.501Z</time></trkpt><trkpt lat="42.1908538" lon="14.1897418"><ele>553.0</ele><time>2026-05-01T10:45:56.513Z</time></trkpt><trkpt lat="42.1907767" lon="14.1896712"><ele>553.0</ele><time>2026-05-01T10:45:57.505Z</time></trkpt><trkpt lat="42.1907084" lon="14.1895962"><ele>554.1428571428571</ele><time>2026-05-01T10:45:58.505Z</time></trkpt><trkpt lat="42.1906569" lon="14.1895164"><ele>555.2857142857142</ele><time>2026-05-01T10:45:59.51Z</time></trkpt><trkpt lat="42.190605" lon="14.1894398"><ele>556.4285714285714</ele><time>2026-05-01T10:46:00.515Z</time></trkpt><trkpt lat="42.1905395" lon="14.1894057"><ele>557.5714285714286</ele><time>2026-05-01T10:46:01.511Z</time></trkpt><trkpt lat="42.1904591" lon="14.1893864"><ele>558.7142857142857</ele><time>2026-05-01T10:46:02.516Z</time></trkpt><trkpt lat="42.1903889" lon="14.1893628"><ele>559.8571428571429</ele><time>2026-05-01T10:46:03.505Z</time></trkpt><trkpt lat="42.1903414" lon="14.1893056"><ele>561.0</ele><time>2026-05-01T10:46:04.505Z</time></trkpt><trkpt lat="42.1903059" lon="14.1892279"><ele>561.0</ele><time>2026-05-01T10:46:05.5Z</time></trkpt><trkpt lat="42.1902755" lon="14.1891344"><ele>561.0</ele><time>2026-05-01T10:46:06.514Z</time></trkpt><trkpt lat="42.1902374" lon="14.1890266"><ele>561.0</ele><time>2026-05-01T10:46:07.509Z</time></trkpt><trkpt lat="42.1902028" lon="14.188909"><ele>561.0</ele><time>2026-05-01T10:46:08.51Z</time></trkpt><trkpt lat="42.1901592" lon="14.1888053"><ele>561.0</ele><time>2026-05-01T10:46:09.51Z</time></trkpt><trkpt lat="42.1901096" lon="14.1887069"><ele>561.0</ele><time>2026-05-01T10:46:10.516Z</time></trkpt><trkpt lat="42.1900592" lon="14.1886056"><ele>561.4</ele><time>2026-05-01T10:46:11.511Z</time></trkpt><trkpt lat="42.1900071" lon="14.1885183"><ele>561.8</ele><time>2026-05-01T10:46:12.519Z</time></trkpt><trkpt lat="42.1899617" lon="14.1884442"><ele>562.1999999999999</ele><time>2026-05-01T10:46:13.502Z</time></trkpt><trkpt lat="42.1899292" lon="14.1882849"><ele>562.6</ele><time>2026-05-01T10:46:15.511Z</time></trkpt><trkpt lat="42.1899352" lon="14.188167"><ele>563.0</ele><time>2026-05-01T10:46:16.513Z</time></trkpt><trkpt lat="42.1899095" lon="14.1880544"><ele>563.6666666666666</ele><time>2026-05-01T10:46:17.507Z</time></trkpt><trkpt lat="42.1898701" lon="14.187941"><ele>564.3333333333333</ele><time>2026-05-01T10:46:18.509Z</time></trkpt><trkpt lat="42.1898298" lon="14.1878387"><ele>565.0</ele><time>2026-05-01T10:46:19.513Z</time></trkpt><trkpt lat="42.1897982" lon="14.1877553"><ele>565.6666666666666</ele><time>2026-05-01T10:46:20.513Z</time></trkpt><trkpt lat="42.1897247" lon="14.1876234"><ele>566.3333333333334</ele><time>2026-05-01T10:46:22.511Z</time></trkpt><trkpt lat="42.189684" lon="14.187553"><ele>567.0</ele><time>2026-05-01T10:46:23.511Z</time></trkpt><trkpt lat="42.189645" lon="14.1874628"><ele>568.8333333333334</ele><time>2026-05-01T10:46:24.515Z</time></trkpt><trkpt lat="42.1896115" lon="14.1873695"><ele>570.6666666666666</ele><time>2026-05-01T10:46:25.511Z</time></trkpt><trkpt lat="42.189573" lon="14.1872552"><ele>572.5</ele><time>2026-05-01T10:46:26.509Z</time></trkpt><trkpt lat="42.1895307" lon="14.1871365"><ele>574.3333333333333</ele><time>2026-05-01T10:46:27.506Z</time></trkpt><trkpt lat="42.1894872" lon="14.1870187"><ele>576.1666666666666</ele><time>2026-05-01T10:46:28.511Z</time></trkpt><trkpt lat="42.1894544" lon="14.1869173"><ele>578.0</ele><time>2026-05-01T10:46:29.507Z</time></trkpt><trkpt lat="42.1894196" lon="14.1868459"><ele>578.0</ele><time>2026-05-01T10:46:30.508Z</time></trkpt><trkpt lat="42.1893222" lon="14.186785"><ele>578.0</ele><time>2026-05-01T10:46:32.512Z</time></trkpt><trkpt lat="42.1892229" lon="14.1868212"><ele>578.0</ele><time>2026-05-01T10:46:34.513Z</time></trkpt><trkpt lat="42.1891505" lon="14.1868518"><ele>578.0</ele><time>2026-05-01T10:46:35.513Z</time></trkpt><trkpt lat="42.1890561" lon="14.1868804"><ele>578.0</ele><time>2026-05-01T10:46:36.515Z</time></trkpt><trkpt lat="42.1889747" lon="14.1869151"><ele>579.6</ele><time>2026-05-01T10:46:37.506Z</time></trkpt><trkpt lat="42.1888601" lon="14.1868947"><ele>581.1999999999999</ele><time>2026-05-01T10:46:39.509Z</time></trkpt><trkpt lat="42.1887301" lon="14.1868728"><ele>582.8</ele><time>2026-05-01T10:46:41.514Z</time></trkpt><trkpt lat="42.1886561" lon="14.1868596"><ele>584.4</ele><time>2026-05-01T10:46:42.511Z</time></trkpt><trkpt lat="42.1885767" lon="14.1868552"><ele>586.0</ele><time>2026-05-01T10:46:43.517Z</time></trkpt><trkpt lat="42.1884802" lon="14.1868842"><ele>586.0</ele><time>2026-05-01T10:46:44.51Z</time></trkpt><trkpt lat="42.1883721" lon="14.1869265"><ele>586.0</ele><time>2026-05-01T10:46:45.513Z</time></trkpt><trkpt lat="42.188276" lon="14.1869867"><ele>586.0</ele><time>2026-05-01T10:46:46.512Z</time></trkpt><trkpt lat="42.1882017" lon="14.1870528"><ele>586.0</ele><time>2026-05-01T10:46:47.515Z</time></trkpt><trkpt lat="42.1881437" lon="14.1871011"><ele>586.0</ele><time>2026-05-01T10:46:48.52Z</time></trkpt><trkpt lat="42.1880627" lon="14.1871666"><ele>587.3333333333334</ele><time>2026-05-01T10:46:50.521Z</time></trkpt><trkpt lat="42.1880239" lon="14.1870954"><ele>588.6666666666667</ele><time>2026-05-01T10:46:53.525Z</time></trkpt><trkpt lat="42.1879762" lon="14.1869589"><ele>590.0</ele><time>2026-05-01T10:46:55.51Z</time></trkpt><trkpt lat="42.1879318" lon="14.1868888"><ele>591.3333333333334</ele><time>2026-05-01T10:46:56.506Z</time></trkpt><trkpt lat="42.1878643" lon="14.1868111"><ele>592.6666666666666</ele><time>2026-05-01T10:46:57.521Z</time></trkpt><trkpt lat="42.1877979" lon="14.1867197"><ele>594.0</ele><time>2026-05-01T10:46:58.519Z</time></trkpt><trkpt lat="42.1877265" lon="14.1866134"><ele>594.4</ele><time>2026-05-01T10:46:59.521Z</time></trkpt><trkpt lat="42.1876634" lon="14.1865082"><ele>594.8</ele><time>2026-05-01T10:47:00.519Z</time></trkpt><trkpt lat="42.1876104" lon="14.1863958"><ele>595.2</ele><time>2026-05-01T10:47:01.514Z</time></trkpt><trkpt lat="42.1875698" lon="14.1862928"><ele>595.6</ele><time>2026-05-01T10:47:02.523Z</time></trkpt><trkpt lat="42.1875213" lon="14.186201"><ele>596.0</ele><time>2026-05-01T10:47:03.509Z</time></trkpt><trkpt lat="42.1874579" lon="14.1861175"><ele>596.0</ele><time>2026-05-01T10:47:04.523Z</time></trkpt><trkpt lat="42.1873853" lon="14.1860427"><ele>596.0</ele><time>2026-05-01T10:47:05.514Z</time></trkpt><trkpt lat="42.1873148" lon="14.1859593"><ele>596.0</ele><time>2026-05-01T10:47:06.525Z</time></trkpt><trkpt lat="42.1872445" lon="14.1858732"><ele>596.0</ele><time>2026-05-01T10:47:07.517Z</time></trkpt><trkpt lat="42.1871819" lon="14.1858055"><ele>596.0</ele><time>2026-05-01T10:47:08.519Z</time></trkpt><trkpt lat="42.1871216" lon="14.1857528"><ele>596.0</ele><time>2026-05-01T10:47:09.518Z</time></trkpt><trkpt lat="42.1870682" lon="14.1856792"><ele>597.8</ele><time>2026-05-01T10:47:10.511Z</time></trkpt><trkpt lat="42.1869983" lon="14.1855949"><ele>599.6</ele><time>2026-05-01T10:47:11.523Z</time></trkpt><trkpt lat="42.1869268" lon="14.1855032"><ele>601.4</ele><time>2026-05-01T10:47:12.517Z</time></trkpt><trkpt lat="42.1868563" lon="14.1854114"><ele>603.2</ele><time>2026-05-01T10:47:13.516Z</time></trkpt><trkpt lat="42.1867983" lon="14.1853209"><ele>605.0</ele><time>2026-05-01T10:47:14.52Z</time></trkpt><trkpt lat="42.1867345" lon="14.1852156"><ele>605.0</ele><time>2026-05-01T10:47:15.515Z</time></trkpt><trkpt lat="42.1866713" lon="14.1851002"><ele>605.0</ele><time>2026-05-01T10:47:16.518Z</time></trkpt><trkpt lat="42.1866104" lon="14.1849896"><ele>605.0</ele><time>2026-05-01T10:47:17.527Z</time></trkpt><trkpt lat="42.1865451" lon="14.1848828"><ele>605.0</ele><time>2026-05-01T10:47:18.522Z</time></trkpt><trkpt lat="42.1864776" lon="14.1847854"><ele>605.0</ele><time>2026-05-01T10:47:19.519Z</time></trkpt><trkpt lat="42.1864258" lon="14.1847063"><ele>607.3333333333333</ele><time>2026-05-01T10:47:20.522Z</time></trkpt><trkpt lat="42.1863603" lon="14.1845987"><ele>609.6666666666666</ele><time>2026-05-01T10:47:22.522Z</time></trkpt><trkpt lat="42.1862994" lon="14.1845117"><ele>612.0</ele><time>2026-05-01T10:47:24.52Z</time></trkpt><trkpt lat="42.1862399" lon="14.1844068"><ele>614.3333333333334</ele><time>2026-05-01T10:47:26.525Z</time></trkpt><trkpt lat="42.1861853" lon="14.1843252"><ele>616.6666666666667</ele><time>2026-05-01T10:47:28.524Z</time></trkpt><trkpt lat="42.1861548" lon="14.1842484"><ele>619.0</ele><time>2026-05-01T10:47:29.524Z</time></trkpt><trkpt lat="42.1860647" lon="14.1841195"><ele>619.0</ele><time>2026-05-01T10:47:31.516Z</time></trkpt><trkpt lat="42.1860054" lon="14.1840453"><ele>619.0</ele><time>2026-05-01T10:47:32.521Z</time></trkpt><trkpt lat="42.1859602" lon="14.1839818"><ele>619.0</ele><time>2026-05-01T10:47:33.516Z</time></trkpt><trkpt lat="42.1858725" lon="14.1839069"><ele>619.0</ele><time>2026-05-01T10:47:35.513Z</time></trkpt><trkpt lat="42.18578" lon="14.1839128"><ele>619.0</ele><time>2026-05-01T10:47:37.516Z</time></trkpt><trkpt lat="42.1856833" lon="14.1840192"><ele>620.4</ele><time>2026-05-01T10:47:39.512Z</time></trkpt><trkpt lat="42.1856111" lon="14.1840644"><ele>621.8</ele><time>2026-05-01T10:47:40.508Z</time></trkpt><trkpt lat="42.185547" lon="14.1840825"><ele>623.2</ele><time>2026-05-01T10:47:41.512Z</time></trkpt><trkpt lat="42.1854535" lon="14.1839819"><ele>624.6</ele><time>2026-05-01T10:47:43.516Z</time></trkpt><trkpt lat="42.1853795" lon="14.1838617"><ele>626.0</ele><time>2026-05-01T10:47:45.513Z</time></trkpt><trkpt lat="42.1853163" lon="14.183814"><ele>626.3333333333333</ele><time>2026-05-01T10:47:46.52Z</time></trkpt><trkpt lat="42.1852271" lon="14.1837461"><ele>626.6666666666666</ele><time>2026-05-01T10:47:48.526Z</time></trkpt><trkpt lat="42.1851933" lon="14.1835867"><ele>627.0</ele><time>2026-05-01T10:47:50.519Z</time></trkpt><trkpt lat="42.185174" lon="14.1834992"><ele>627.3333333333334</ele><time>2026-05-01T10:47:51.524Z</time></trkpt><trkpt lat="42.185173" lon="14.1834105"><ele>627.6666666666667</ele><time>2026-05-01T10:47:52.51Z</time></trkpt><trkpt lat="42.1851997" lon="14.183306"><ele>628.0</ele><time>2026-05-01T10:47:53.508Z</time></trkpt><trkpt lat="42.1852429" lon="14.183203"><ele>628.1999999999999</ele><time>2026-05-01T10:47:54.518Z</time></trkpt><trkpt lat="42.1852757" lon="14.1830758"><ele>628.4</ele><time>2026-05-01T10:47:55.528Z</time></trkpt><trkpt lat="42.185314" lon="14.1829424"><ele>628.5999999999999</ele><time>2026-05-01T10:47:56.524Z</time></trkpt><trkpt lat="42.185342" lon="14.1827923"><ele>628.8</ele><time>2026-05-01T10:47:57.526Z</time></trkpt><trkpt lat="42.185368" lon="14.1826445"><ele>629.0</ele><time>2026-05-01T10:47:58.524Z</time></trkpt><trkpt lat="42.1853833" lon="14.1825115"><ele>629.0</ele><time>2026-05-01T10:47:59.524Z</time></trkpt><trkpt lat="42.1853972" lon="14.1823952"><ele>629.0</ele><time>2026-05-01T10:48:00.524Z</time></trkpt><trkpt lat="42.1854074" lon="14.1822811"><ele>629.0</ele><time>2026-05-01T10:48:01.521Z</time></trkpt><trkpt lat="42.1854171" lon="14.1821684"><ele>629.0</ele><time>2026-05-01T10:48:02.528Z</time></trkpt><trkpt lat="42.1854133" lon="14.1820699"><ele>629.0</ele><time>2026-05-01T10:48:03.522Z</time></trkpt><trkpt lat="42.1853948" lon="14.1819775"><ele>629.0</ele><time>2026-05-01T10:48:04.521Z</time></trkpt><trkpt lat="42.1853382" lon="14.1818499"><ele>629.4</ele><time>2026-05-01T10:48:06.515Z</time></trkpt><trkpt lat="42.1852765" lon="14.1818214"><ele>629.8</ele><time>2026-05-01T10:48:08.526Z</time></trkpt><trkpt lat="42.1851516" lon="14.1818222"><ele>630.2</ele><time>2026-05-01T10:48:10.518Z</time></trkpt><trkpt lat="42.1850845" lon="14.1818075"><ele>630.6</ele><time>2026-05-01T10:48:11.519Z</time></trkpt><trkpt lat="42.1849816" lon="14.1817891"><ele>631.0</ele><time>2026-05-01T10:48:13.513Z</time></trkpt><trkpt lat="42.1849679" lon="14.1816545"><ele>631.0</ele><time>2026-05-01T10:48:16.532Z</time></trkpt><trkpt lat="42.1849922" lon="14.181574"><ele>631.0</ele><time>2026-05-01T10:48:17.517Z</time></trkpt><trkpt lat="42.1850136" lon="14.181468"><ele>631.0</ele><time>2026-05-01T10:48:18.524Z</time></trkpt><trkpt lat="42.1850215" lon="14.1813318"><ele>631.0</ele><time>2026-05-01T10:48:19.515Z</time></trkpt><trkpt lat="42.1850095" lon="14.1811974"><ele>631.0</ele><time>2026-05-01T10:48:20.523Z</time></trkpt><trkpt lat="42.1849791" lon="14.1810956"><ele>631.0</ele><time>2026-05-01T10:48:21.518Z</time></trkpt><trkpt lat="42.1849303" lon="14.1810045"><ele>632.0</ele><time>2026-05-01T10:48:22.523Z</time></trkpt><trkpt lat="42.184874" lon="14.1809192"><ele>633.0</ele><time>2026-05-01T10:48:23.515Z</time></trkpt><trkpt lat="42.1848256" lon="14.1808469"><ele>634.0</ele><time>2026-05-01T10:48:24.516Z</time></trkpt><trkpt lat="42.184774" lon="14.1807964"><ele>635.0</ele><time>2026-05-01T10:48:25.532Z</time></trkpt><trkpt lat="42.1846676" lon="14.1807195"><ele>636.0</ele><time>2026-05-01T10:48:27.517Z</time></trkpt><trkpt lat="42.1845896" lon="14.1806604"><ele>637.0</ele><time>2026-05-01T10:48:29.543Z</time></trkpt><trkpt lat="42.1844725" lon="14.1806335"><ele>637.8</ele><time>2026-05-01T10:48:31.533Z</time></trkpt><trkpt lat="42.1843816" lon="14.1806697"><ele>638.6</ele><time>2026-05-01T10:48:32.535Z</time></trkpt><trkpt lat="42.1842818" lon="14.1807453"><ele>639.4</ele><time>2026-05-01T10:48:33.604Z</time></trkpt><trkpt lat="42.1841939" lon="14.1808278"><ele>640.1999999999999</ele><time>2026-05-01T10:48:34.6Z</time></trkpt><trkpt lat="42.1841188" lon="14.1808905"><ele>641.0</ele><time>2026-05-01T10:48:35.613Z</time></trkpt><trkpt lat="42.1839732" lon="14.1809347"><ele>645.0</ele><time>2026-05-01T10:48:37.505Z</time></trkpt><trkpt lat="42.183918" lon="14.1807928"><ele>645.0</ele><time>2026-05-01T10:48:39.5Z</time></trkpt><trkpt lat="42.1839413" lon="14.1806983"><ele>645.0</ele><time>2026-05-01T10:48:41.512Z</time></trkpt><trkpt lat="42.183878" lon="14.1806647"><ele>654.0</ele><time>2026-05-01T10:48:44.524Z</time></trkpt><trkpt lat="42.1838056" lon="14.1807019"><ele>645.0</ele><time>2026-05-01T10:48:47.525Z</time></trkpt><trkpt lat="42.1837291" lon="14.1807201"><ele>645.0</ele><time>2026-05-01T10:48:51.531Z</time></trkpt></trkseg><trkseg><trkpt lat="42.1838036" lon="14.1806981"><ele>645.0</ele><time>2026-05-01T11:50:28.568Z</time></trkpt><trkpt lat="42.1838837" lon="14.1807098"><ele>645.0</ele><time>2026-05-01T11:50:31.554Z</time></trkpt><trkpt lat="42.1839233" lon="14.1807845"><ele>645.0</ele><time>2026-05-01T11:50:33.55Z</time></trkpt><trkpt lat="42.1839189" lon="14.1808941"><ele>645.0</ele><time>2026-05-01T11:50:35.555Z</time></trkpt><trkpt lat="42.1839174" lon="14.1810085"><ele>645.0</ele><time>2026-05-01T11:50:37.55Z</time></trkpt><trkpt lat="42.1839247" lon="14.1811045"><ele>645.0</ele><time>2026-05-01T11:50:54.549Z</time></trkpt><trkpt lat="42.1839135" lon="14.1812732"><ele>645.0</ele><time>2026-05-01T11:50:57.544Z</time></trkpt><trkpt lat="42.1838914" lon="14.1813742"><ele>645.0</ele><time>2026-05-01T11:50:58.537Z</time></trkpt><trkpt lat="42.1838552" lon="14.1814722"><ele>645.0</ele><time>2026-05-01T11:50:59.533Z</time></trkpt><trkpt lat="42.1838056" lon="14.1815665"><ele>645.0</ele><time>2026-05-01T11:51:00.543Z</time></trkpt><trkpt lat="42.1837525" lon="14.181665"><ele>645.0</ele><time>2026-05-01T11:51:01.542Z</time></trkpt><trkpt lat="42.1837021" lon="14.1817617"><ele>645.0</ele><time>2026-05-01T11:51:02.537Z</time></trkpt><trkpt lat="42.1836505" lon="14.1818617"><ele>644.6666666666666</ele><time>2026-05-01T11:51:03.539Z</time></trkpt><trkpt lat="42.1836047" lon="14.1819491"><ele>644.3333333333334</ele><time>2026-05-01T11:51:04.539Z</time></trkpt><trkpt lat="42.1835629" lon="14.1820226"><ele>644.0</ele><time>2026-05-01T11:51:05.534Z</time></trkpt><trkpt lat="42.1834643" lon="14.1821129"><ele>643.6666666666667</ele><time>2026-05-01T11:51:07.527Z</time></trkpt><trkpt lat="42.1833791" lon="14.1821148"><ele>643.3333333333334</ele><time>2026-05-01T11:51:09.534Z</time></trkpt><trkpt lat="42.1833791" lon="14.1822166"><ele>643.0</ele><time>2026-05-01T11:51:13.544Z</time></trkpt><trkpt lat="42.1834418" lon="14.1823527"><ele>640.8</ele><time>2026-05-01T11:51:15.539Z</time></trkpt><trkpt lat="42.1834945" lon="14.1824081"><ele>638.5999999999999</ele><time>2026-05-01T11:51:16.533Z</time></trkpt><trkpt lat="42.1835743" lon="14.1825302"><ele>636.4000000000001</ele><time>2026-05-01T11:51:18.533Z</time></trkpt><trkpt lat="42.1836438" lon="14.1826639"><ele>634.2</ele><time>2026-05-01T11:51:20.529Z</time></trkpt><trkpt lat="42.1836836" lon="14.182746"><ele>632.0</ele><time>2026-05-01T11:51:21.539Z</time></trkpt><trkpt lat="42.1837232" lon="14.1828416"><ele>632.0</ele><time>2026-05-01T11:51:22.537Z</time></trkpt><trkpt lat="42.1837602" lon="14.1829483"><ele>632.0</ele><time>2026-05-01T11:51:23.535Z</time></trkpt><trkpt lat="42.1837858" lon="14.1830622"><ele>632.0</ele><time>2026-05-01T11:51:24.537Z</time></trkpt><trkpt lat="42.1838187" lon="14.1831936"><ele>632.0</ele><time>2026-05-01T11:51:25.54Z</time></trkpt><trkpt lat="42.1838558" lon="14.1833271"><ele>632.0</ele><time>2026-05-01T11:51:26.547Z</time></trkpt><trkpt lat="42.1839028" lon="14.1834569"><ele>631.8000000000001</ele><time>2026-05-01T11:51:27.546Z</time></trkpt><trkpt lat="42.1839564" lon="14.1835753"><ele>631.6</ele><time>2026-05-01T11:51:28.538Z</time></trkpt><trkpt lat="42.1840185" lon="14.1836963"><ele>631.4000000000001</ele><time>2026-05-01T11:51:29.55Z</time></trkpt><trkpt lat="42.1840802" lon="14.1838231"><ele>631.2</ele><time>2026-05-01T11:51:30.54Z</time></trkpt><trkpt lat="42.1841373" lon="14.1839335"><ele>631.0</ele><time>2026-05-01T11:51:31.534Z</time></trkpt><trkpt lat="42.1841842" lon="14.1840449"><ele>629.2</ele><time>2026-05-01T11:51:32.541Z</time></trkpt><trkpt lat="42.1842365" lon="14.184167"><ele>627.4000000000001</ele><time>2026-05-01T11:51:33.539Z</time></trkpt><trkpt lat="42.184284" lon="14.1842932"><ele>625.6</ele><time>2026-05-01T11:51:34.546Z</time></trkpt><trkpt lat="42.1843214" lon="14.1844212"><ele>623.8000000000001</ele><time>2026-05-01T11:51:35.546Z</time></trkpt><trkpt lat="42.1843725" lon="14.1845578"><ele>622.0</ele><time>2026-05-01T11:51:36.546Z</time></trkpt><trkpt lat="42.1844172" lon="14.1846963"><ele>622.0</ele><time>2026-05-01T11:51:37.555Z</time></trkpt><trkpt lat="42.1844637" lon="14.1848399"><ele>622.0</ele><time>2026-05-01T11:51:38.548Z</time></trkpt><trkpt lat="42.1845092" lon="14.1849773"><ele>622.0</ele><time>2026-05-01T11:51:39.55Z</time></trkpt><trkpt lat="42.1845596" lon="14.1851135"><ele>622.0</ele><time>2026-05-01T11:51:40.544Z</time></trkpt><trkpt lat="42.1846124" lon="14.1852485"><ele>619.6</ele><time>2026-05-01T11:51:41.548Z</time></trkpt><trkpt lat="42.1846612" lon="14.1853779"><ele>617.2</ele><time>2026-05-01T11:51:42.556Z</time></trkpt><trkpt lat="42.1847195" lon="14.1854996"><ele>614.8</ele><time>2026-05-01T11:51:43.56Z</time></trkpt><trkpt lat="42.1847909" lon="14.1856163"><ele>612.4</ele><time>2026-05-01T11:51:44.552Z</time></trkpt><trkpt lat="42.184871" lon="14.1857406"><ele>610.0</ele><time>2026-05-01T11:51:45.555Z</time></trkpt><trkpt lat="42.1849616" lon="14.1858599"><ele>610.0</ele><time>2026-05-01T11:51:46.558Z</time></trkpt><trkpt lat="42.1850459" lon="14.1859789"><ele>610.0</ele><time>2026-05-01T11:51:47.559Z</time></trkpt><trkpt lat="42.1851308" lon="14.1860981"><ele>610.0</ele><time>2026-05-01T11:51:48.561Z</time></trkpt><trkpt lat="42.1852189" lon="14.1862175"><ele>610.0</ele><time>2026-05-01T11:51:49.556Z</time></trkpt><trkpt lat="42.1853039" lon="14.1863388"><ele>610.0</ele><time>2026-05-01T11:51:50.556Z</time></trkpt><trkpt lat="42.1853794" lon="14.1864546"><ele>610.0</ele><time>2026-05-01T11:51:51.558Z</time></trkpt><trkpt lat="42.1854467" lon="14.1865679"><ele>610.0</ele><time>2026-05-01T11:51:52.555Z</time></trkpt><trkpt lat="42.1854982" lon="14.1866865"><ele>610.0</ele><time>2026-05-01T11:51:53.553Z</time></trkpt><trkpt lat="42.1855409" lon="14.1868017"><ele>610.0</ele><time>2026-05-01T11:51:54.555Z</time></trkpt><trkpt lat="42.1855818" lon="14.1869063"><ele>608.5</ele><time>2026-05-01T11:51:55.558Z</time></trkpt><trkpt lat="42.1856122" lon="14.1870076"><ele>607.0</ele><time>2026-05-01T11:51:56.559Z</time></trkpt><trkpt lat="42.1856492" lon="14.1871012"><ele>605.5</ele><time>2026-05-01T11:51:57.559Z</time></trkpt><trkpt lat="42.1856825" lon="14.1871998"><ele>604.0</ele><time>2026-05-01T11:51:58.566Z</time></trkpt><trkpt lat="42.1857178" lon="14.1873051"><ele>602.5</ele><time>2026-05-01T11:51:59.554Z</time></trkpt><trkpt lat="42.1857533" lon="14.1874072"><ele>601.0</ele><time>2026-05-01T11:52:00.564Z</time></trkpt><trkpt lat="42.1857834" lon="14.1874998"><ele>599.3333333333334</ele><time>2026-05-01T11:52:01.558Z</time></trkpt><trkpt lat="42.1858084" lon="14.1875836"><ele>597.6666666666667</ele><time>2026-05-01T11:52:02.558Z</time></trkpt><trkpt lat="42.1858445" lon="14.1877355"><ele>596.0</ele><time>2026-05-01T11:52:04.556Z</time></trkpt><trkpt lat="42.1858873" lon="14.1878639"><ele>594.3333333333334</ele><time>2026-05-01T11:52:06.549Z</time></trkpt><trkpt lat="42.185935" lon="14.187947"><ele>592.6666666666666</ele><time>2026-05-01T11:52:11.565Z</time></trkpt><trkpt lat="42.1859601" lon="14.1880285"><ele>591.0</ele><time>2026-05-01T11:52:14.567Z</time></trkpt><trkpt lat="42.1858858" lon="14.1880056"><ele>591.0</ele><time>2026-05-01T11:52:23.556Z</time></trkpt><trkpt lat="42.1858424" lon="14.1878947"><ele>591.0</ele><time>2026-05-01T11:52:25.563Z</time></trkpt><trkpt lat="42.1858057" lon="14.1878074"><ele>591.0</ele><time>2026-05-01T11:52:26.553Z</time></trkpt><trkpt lat="42.1857659" lon="14.1877163"><ele>591.0</ele><time>2026-05-01T11:52:27.559Z</time></trkpt><trkpt lat="42.1857189" lon="14.1876102"><ele>591.0</ele><time>2026-05-01T11:52:28.55Z</time></trkpt><trkpt lat="42.1856736" lon="14.1875093"><ele>591.0</ele><time>2026-05-01T11:52:29.561Z</time></trkpt><trkpt lat="42.1856232" lon="14.1874101"><ele>591.1666666666666</ele><time>2026-05-01T11:52:30.553Z</time></trkpt><trkpt lat="42.1855672" lon="14.1873015"><ele>591.3333333333334</ele><time>2026-05-01T11:52:31.561Z</time></trkpt><trkpt lat="42.1855052" lon="14.1871997"><ele>591.5</ele><time>2026-05-01T11:52:32.551Z</time></trkpt><trkpt lat="42.1854477" lon="14.1871083"><ele>591.6666666666667</ele><time>2026-05-01T11:52:33.548Z</time></trkpt><trkpt lat="42.1853933" lon="14.1870174"><ele>591.8333333333334</ele><time>2026-05-01T11:52:34.545Z</time></trkpt><trkpt lat="42.1853447" lon="14.1869362"><ele>592.0</ele><time>2026-05-01T11:52:35.539Z</time></trkpt><trkpt lat="42.1852947" lon="14.1868557"><ele>592.0</ele><time>2026-05-01T11:52:36.537Z</time></trkpt><trkpt lat="42.1852511" lon="14.1867942"><ele>592.0</ele><time>2026-05-01T11:52:37.54Z</time></trkpt><trkpt lat="42.1851549" lon="14.1866922"><ele>592.0</ele><time>2026-05-01T11:52:39.538Z</time></trkpt><trkpt lat="42.1850921" lon="14.186637"><ele>592.0</ele><time>2026-05-01T11:52:40.538Z</time></trkpt><trkpt lat="42.1850233" lon="14.186588"><ele>592.0</ele><time>2026-05-01T11:52:41.537Z</time></trkpt><trkpt lat="42.1849591" lon="14.1865348"><ele>592.0</ele><time>2026-05-01T11:52:42.534Z</time></trkpt><trkpt lat="42.1848919" lon="14.1864898"><ele>592.0</ele><time>2026-05-01T11:52:43.533Z</time></trkpt><trkpt lat="42.1848325" lon="14.1864551"><ele>592.0</ele><time>2026-05-01T11:52:44.529Z</time></trkpt><trkpt lat="42.1847019" lon="14.1864279"><ele>592.0</ele><time>2026-05-01T11:52:46.533Z</time></trkpt><trkpt lat="42.1846133" lon="14.1864311"><ele>592.0</ele><time>2026-05-01T11:52:47.538Z</time></trkpt><trkpt lat="42.1845191" lon="14.1864455"><ele>592.0</ele><time>2026-05-01T11:52:48.538Z</time></trkpt><trkpt lat="42.1844329" lon="14.1864652"><ele>592.0</ele><time>2026-05-01T11:52:49.542Z</time></trkpt><trkpt lat="42.1843534" lon="14.1864938"><ele>592.0</ele><time>2026-05-01T11:52:50.556Z</time></trkpt><trkpt lat="42.1842737" lon="14.1865069"><ele>592.0</ele><time>2026-05-01T11:52:51.555Z</time></trkpt><trkpt lat="42.1841943" lon="14.1864943"><ele>592.0</ele><time>2026-05-01T11:52:52.555Z</time></trkpt><trkpt lat="42.1841032" lon="14.1864645"><ele>592.0</ele><time>2026-05-01T11:52:53.555Z</time></trkpt><trkpt lat="42.1840052" lon="14.1864468"><ele>592.0</ele><time>2026-05-01T11:52:54.555Z</time></trkpt><trkpt lat="42.1839004" lon="14.1864495"><ele>591.2</ele><time>2026-05-01T11:52:55.551Z</time></trkpt><trkpt lat="42.183799" lon="14.1864659"><ele>590.4000000000001</ele><time>2026-05-01T11:52:56.566Z</time></trkpt><trkpt lat="42.183705" lon="14.1864938"><ele>589.5999999999999</ele><time>2026-05-01T11:52:57.552Z</time></trkpt><trkpt lat="42.1836117" lon="14.1865173"><ele>588.8</ele><time>2026-05-01T11:52:58.555Z</time></trkpt><trkpt lat="42.1835195" lon="14.186561"><ele>588.0</ele><time>2026-05-01T11:52:59.545Z</time></trkpt><trkpt lat="42.1834244" lon="14.1866337"><ele>586.5</ele><time>2026-05-01T11:53:00.57Z</time></trkpt><trkpt lat="42.1833196" lon="14.1867041"><ele>585.0</ele><time>2026-05-01T11:53:01.554Z</time></trkpt><trkpt lat="42.1832044" lon="14.1867852"><ele>583.5</ele><time>2026-05-01T11:53:02.567Z</time></trkpt><trkpt lat="42.1830881" lon="14.1868657"><ele>582.0</ele><time>2026-05-01T11:53:03.557Z</time></trkpt><trkpt lat="42.1829767" lon="14.1869378"><ele>582.0</ele><time>2026-05-01T11:53:04.558Z</time></trkpt><trkpt lat="42.1828666" lon="14.1869825"><ele>582.0</ele><time>2026-05-01T11:53:05.558Z</time></trkpt><trkpt lat="42.1827727" lon="14.1869977"><ele>582.0</ele><time>2026-05-01T11:53:06.563Z</time></trkpt><trkpt lat="42.1827072" lon="14.1870043"><ele>582.0</ele><time>2026-05-01T11:53:07.561Z</time></trkpt><trkpt lat="42.1826235" lon="14.1870159"><ele>582.0</ele><time>2026-05-01T11:53:09.557Z</time></trkpt><trkpt lat="42.182552" lon="14.1870806"><ele>582.0</ele><time>2026-05-01T11:53:13.56Z</time></trkpt><trkpt lat="42.1825587" lon="14.1871791"><ele>582.0</ele><time>2026-05-01T11:53:15.57Z</time></trkpt><trkpt lat="42.1826215" lon="14.1872567"><ele>582.0</ele><time>2026-05-01T11:53:16.561Z</time></trkpt><trkpt lat="42.1826997" lon="14.1873411"><ele>582.0</ele><time>2026-05-01T11:53:17.551Z</time></trkpt><trkpt lat="42.1827673" lon="14.1874355"><ele>582.0</ele><time>2026-05-01T11:53:18.559Z</time></trkpt><trkpt lat="42.1828291" lon="14.1875341"><ele>582.0</ele><time>2026-05-01T11:53:19.558Z</time></trkpt><trkpt lat="42.1828938" lon="14.1876174"><ele>581.4</ele><time>2026-05-01T11:53:20.552Z</time></trkpt><trkpt lat="42.1829629" lon="14.1876874"><ele>580.8000000000001</ele><time>2026-05-01T11:53:21.554Z</time></trkpt><trkpt lat="42.1830381" lon="14.1877517"><ele>580.2</ele><time>2026-05-01T11:53:22.562Z</time></trkpt><trkpt lat="42.183108" lon="14.1878367"><ele>579.6</ele><time>2026-05-01T11:53:23.56Z</time></trkpt><trkpt lat="42.1831729" lon="14.1879181"><ele>579.0</ele><time>2026-05-01T11:53:24.563Z</time></trkpt><trkpt lat="42.1832403" lon="14.1880056"><ele>579.0</ele><time>2026-05-01T11:53:25.565Z</time></trkpt><trkpt lat="42.183309" lon="14.1881034"><ele>579.0</ele><time>2026-05-01T11:53:26.567Z</time></trkpt><trkpt lat="42.1833816" lon="14.1882093"><ele>579.0</ele><time>2026-05-01T11:53:27.553Z</time></trkpt><trkpt lat="42.1834424" lon="14.188333"><ele>579.0</ele><time>2026-05-01T11:53:28.557Z</time></trkpt><trkpt lat="42.1835" lon="14.1884501"><ele>579.0</ele><time>2026-05-01T11:53:29.562Z</time></trkpt><trkpt lat="42.1835535" lon="14.1885694"><ele>578.2</ele><time>2026-05-01T11:53:30.571Z</time></trkpt><trkpt lat="42.183603" lon="14.1886878"><ele>577.4</ele><time>2026-05-01T11:53:31.561Z</time></trkpt><trkpt lat="42.1836497" lon="14.1887998"><ele>576.6</ele><time>2026-05-01T11:53:32.56Z</time></trkpt><trkpt lat="42.1836978" lon="14.1889159"><ele>575.8</ele><time>2026-05-01T11:53:33.579Z</time></trkpt><trkpt lat="42.1837478" lon="14.1890288"><ele>575.0</ele><time>2026-05-01T11:53:34.558Z</time></trkpt><trkpt lat="42.1837933" lon="14.1891393"><ele>573.8</ele><time>2026-05-01T11:53:35.56Z</time></trkpt><trkpt lat="42.1838416" lon="14.1892458"><ele>572.6</ele><time>2026-05-01T11:53:36.56Z</time></trkpt><trkpt lat="42.1838902" lon="14.1893546"><ele>571.4</ele><time>2026-05-01T11:53:37.548Z</time></trkpt><trkpt lat="42.1839251" lon="14.1894831"><ele>570.2</ele><time>2026-05-01T11:53:38.555Z</time></trkpt><trkpt lat="42.1839447" lon="14.1896225"><ele>569.0</ele><time>2026-05-01T11:53:39.559Z</time></trkpt><trkpt lat="42.18396" lon="14.189755"><ele>568.3333333333333</ele><time>2026-05-01T11:53:40.557Z</time></trkpt><trkpt lat="42.1839725" lon="14.1898808"><ele>567.6666666666666</ele><time>2026-05-01T11:53:41.555Z</time></trkpt><trkpt lat="42.1839762" lon="14.189992"><ele>567.0</ele><time>2026-05-01T11:53:42.551Z</time></trkpt><trkpt lat="42.1839734" lon="14.1900779"><ele>566.3333333333334</ele><time>2026-05-01T11:53:43.554Z</time></trkpt><trkpt lat="42.1839753" lon="14.1902082"><ele>565.6666666666667</ele><time>2026-05-01T11:53:45.553Z</time></trkpt><trkpt lat="42.1839942" lon="14.1903392"><ele>565.0</ele><time>2026-05-01T11:53:47.554Z</time></trkpt><trkpt lat="42.1840062" lon="14.1904685"><ele>565.0</ele><time>2026-05-01T11:53:49.558Z</time></trkpt><trkpt lat="42.1839929" lon="14.1906206"><ele>565.0</ele><time>2026-05-01T11:53:51.548Z</time></trkpt><trkpt lat="42.1839886" lon="14.1907141"><ele>565.0</ele><time>2026-05-01T11:53:52.555Z</time></trkpt><trkpt lat="42.1839784" lon="14.1908174"><ele>565.0</ele><time>2026-05-01T11:53:53.553Z</time></trkpt><trkpt lat="42.1839799" lon="14.1909166"><ele>565.0</ele><time>2026-05-01T11:53:54.56Z</time></trkpt><trkpt lat="42.1839965" lon="14.1910202"><ele>565.0</ele><time>2026-05-01T11:53:55.561Z</time></trkpt><trkpt lat="42.1840105" lon="14.1911189"><ele>564.0</ele><time>2026-05-01T11:53:56.566Z</time></trkpt><trkpt lat="42.1840098" lon="14.191214"><ele>563.0</ele><time>2026-05-01T11:53:57.558Z</time></trkpt><trkpt lat="42.1840002" lon="14.1913078"><ele>562.0</ele><time>2026-05-01T11:53:58.557Z</time></trkpt><trkpt lat="42.1839814" lon="14.191397"><ele>561.0</ele><time>2026-05-01T11:53:59.549Z</time></trkpt><trkpt lat="42.1839598" lon="14.1915415"><ele>560.0</ele><time>2026-05-01T11:54:01.559Z</time></trkpt><trkpt lat="42.1839682" lon="14.1916333"><ele>559.0</ele><time>2026-05-01T11:54:02.547Z</time></trkpt><trkpt lat="42.1839837" lon="14.191748"><ele>558.3333333333334</ele><time>2026-05-01T11:54:03.573Z</time></trkpt><trkpt lat="42.184002" lon="14.1918672"><ele>557.6666666666667</ele><time>2026-05-01T11:54:04.563Z</time></trkpt><trkpt lat="42.1840191" lon="14.1919598"><ele>557.0</ele><time>2026-05-01T11:54:05.565Z</time></trkpt><trkpt lat="42.1840463" lon="14.1920507"><ele>556.3333333333334</ele><time>2026-05-01T11:54:06.552Z</time></trkpt><trkpt lat="42.1841159" lon="14.1922006"><ele>555.6666666666666</ele><time>2026-05-01T11:54:08.545Z</time></trkpt><trkpt lat="42.1841528" lon="14.1922741"><ele>555.0</ele><time>2026-05-01T11:54:09.552Z</time></trkpt><trkpt lat="42.1841961" lon="14.1923371"><ele>553.5</ele><time>2026-05-01T11:54:10.55Z</time></trkpt><trkpt lat="42.1842397" lon="14.1924033"><ele>552.0</ele><time>2026-05-01T11:54:11.54Z</time></trkpt><trkpt lat="42.1842754" lon="14.1924893"><ele>550.5</ele><time>2026-05-01T11:54:12.55Z</time></trkpt><trkpt lat="42.1843097" lon="14.1925878"><ele>549.0</ele><time>2026-05-01T11:54:13.55Z</time></trkpt><trkpt lat="42.1843346" lon="14.1926926"><ele>547.5</ele><time>2026-05-01T11:54:14.552Z</time></trkpt><trkpt lat="42.1843525" lon="14.1927965"><ele>546.0</ele><time>2026-05-01T11:54:15.557Z</time></trkpt><trkpt lat="42.1843615" lon="14.1928924"><ele>546.0</ele><time>2026-05-01T11:54:16.557Z</time></trkpt><trkpt lat="42.1843699" lon="14.1929768"><ele>546.0</ele><time>2026-05-01T11:54:17.553Z</time></trkpt><trkpt lat="42.1843784" lon="14.1931097"><ele>546.0</ele><time>2026-05-01T11:54:19.554Z</time></trkpt><trkpt lat="42.1843478" lon="14.1932087"><ele>546.0</ele><time>2026-05-01T11:54:21.565Z</time></trkpt><trkpt lat="42.1842995" lon="14.1933044"><ele>546.0</ele><time>2026-05-01T11:54:23.545Z</time></trkpt><trkpt lat="42.1842724" lon="14.1933923"><ele>546.0</ele><time>2026-05-01T11:54:26.57Z</time></trkpt><trkpt lat="42.1842363" lon="14.1934674"><ele>545.2857142857143</ele><time>2026-05-01T11:54:29.561Z</time></trkpt><trkpt lat="42.1842174" lon="14.1935574"><ele>544.5714285714286</ele><time>2026-05-01T11:54:34.582Z</time></trkpt><trkpt lat="42.1841712" lon="14.1936527"><ele>543.8571428571429</ele><time>2026-05-01T11:54:39.565Z</time></trkpt><trkpt lat="42.1841377" lon="14.1937438"><ele>543.1428571428571</ele><time>2026-05-01T11:54:42.568Z</time></trkpt><trkpt lat="42.1841215" lon="14.1938299"><ele>542.4285714285714</ele><time>2026-05-01T11:54:45.568Z</time></trkpt><trkpt lat="42.1840967" lon="14.1939257"><ele>541.7142857142858</ele><time>2026-05-01T11:54:48.568Z</time></trkpt><trkpt lat="42.1840887" lon="14.1940306"><ele>541.0</ele><time>2026-05-01T11:54:51.56Z</time></trkpt><trkpt lat="42.1840853" lon="14.1941551"><ele>540.3333333333334</ele><time>2026-05-01T11:54:54.57Z</time></trkpt><trkpt lat="42.1840814" lon="14.1942686"><ele>539.6666666666667</ele><time>2026-05-01T11:54:57.571Z</time></trkpt><trkpt lat="42.184091" lon="14.1943597"><ele>539.0</ele><time>2026-05-01T11:55:00.568Z</time></trkpt><trkpt lat="42.1841191" lon="14.1944391"><ele>538.3333333333334</ele><time>2026-05-01T11:55:02.564Z</time></trkpt><trkpt lat="42.1841439" lon="14.1945259"><ele>537.6666666666666</ele><time>2026-05-01T11:55:04.568Z</time></trkpt><trkpt lat="42.184222" lon="14.1946625"><ele>537.0</ele><time>2026-05-01T11:55:07.557Z</time></trkpt><trkpt lat="42.1842908" lon="14.194713"><ele>537.0</ele><time>2026-05-01T11:55:10.561Z</time></trkpt><trkpt lat="42.1843481" lon="14.1947803"><ele>537.0</ele><time>2026-05-01T11:55:15.562Z</time></trkpt><trkpt lat="42.1842729" lon="14.1947731"><ele>537.0</ele><time>2026-05-01T11:55:20.545Z</time></trkpt><trkpt lat="42.1841894" lon="14.1947615"><ele>537.0</ele><time>2026-05-01T11:55:24.554Z</time></trkpt><trkpt lat="42.1841854" lon="14.1948578"><ele>537.0</ele><time>2026-05-01T11:55:27.553Z</time></trkpt><trkpt lat="42.184248" lon="14.1949356"><ele>537.0</ele><time>2026-05-01T11:55:29.55Z</time></trkpt><trkpt lat="42.1842985" lon="14.1950332"><ele>535.3333333333334</ele><time>2026-05-01T11:55:31.55Z</time></trkpt><trkpt lat="42.1842936" lon="14.1951253"><ele>533.6666666666666</ele><time>2026-05-01T11:55:33.557Z</time></trkpt><trkpt lat="42.1843311" lon="14.195219"><ele>532.0</ele><time>2026-05-01T11:55:40.552Z</time></trkpt><trkpt lat="42.1844384" lon="14.1952742"><ele>530.3333333333333</ele><time>2026-05-01T11:55:42.546Z</time></trkpt><trkpt lat="42.1844993" lon="14.1952999"><ele>528.6666666666666</ele><time>2026-05-01T11:55:43.548Z</time></trkpt><trkpt lat="42.1845881" lon="14.1953441"><ele>527.0</ele><time>2026-05-01T11:55:44.554Z</time></trkpt><trkpt lat="42.1846673" lon="14.1954017"><ele>527.0</ele><time>2026-05-01T11:55:45.547Z</time></trkpt><trkpt lat="42.1847429" lon="14.1954788"><ele>527.0</ele><time>2026-05-01T11:55:46.541Z</time></trkpt><trkpt lat="42.184808" lon="14.1955596"><ele>527.0</ele><time>2026-05-01T11:55:47.544Z</time></trkpt><trkpt lat="42.184873" lon="14.1956453"><ele>527.0</ele><time>2026-05-01T11:55:48.553Z</time></trkpt><trkpt lat="42.1849303" lon="14.1957323"><ele>527.0</ele><time>2026-05-01T11:55:49.552Z</time></trkpt><trkpt lat="42.184994" lon="14.1958121"><ele>527.0</ele><time>2026-05-01T11:55:50.556Z</time></trkpt><trkpt lat="42.1850528" lon="14.1958762"><ele>526.2857142857143</ele><time>2026-05-01T11:55:51.549Z</time></trkpt><trkpt lat="42.1850975" lon="14.1959451"><ele>525.5714285714286</ele><time>2026-05-01T11:55:52.558Z</time></trkpt><trkpt lat="42.1851313" lon="14.1960231"><ele>524.8571428571429</ele><time>2026-05-01T11:55:53.559Z</time></trkpt><trkpt lat="42.1851515" lon="14.1961159"><ele>524.1428571428571</ele><time>2026-05-01T11:55:54.565Z</time></trkpt><trkpt lat="42.1851616" lon="14.1962093"><ele>523.4285714285714</ele><time>2026-05-01T11:55:55.563Z</time></trkpt><trkpt lat="42.1851728" lon="14.1962982"><ele>522.7142857142858</ele><time>2026-05-01T11:55:56.565Z</time></trkpt><trkpt lat="42.1851908" lon="14.1964252"><ele>522.0</ele><time>2026-05-01T11:55:58.556Z</time></trkpt><trkpt lat="42.1852041" lon="14.1965159"><ele>524.0</ele><time>2026-05-01T11:56:32.565Z</time></trkpt><trkpt lat="42.1852313" lon="14.1966575"><ele>526.0</ele><time>2026-05-01T11:56:34.558Z</time></trkpt><trkpt lat="42.185257" lon="14.1967735"><ele>528.0</ele><time>2026-05-01T11:56:35.556Z</time></trkpt><trkpt lat="42.1852775" lon="14.196883"><ele>530.0</ele><time>2026-05-01T11:56:36.566Z</time></trkpt><trkpt lat="42.1852812" lon="14.1969808"><ele>532.0</ele><time>2026-05-01T11:56:37.556Z</time></trkpt><trkpt lat="42.1852931" lon="14.1971134"><ele>532.0</ele><time>2026-05-01T11:56:39.561Z</time></trkpt><trkpt lat="42.185284" lon="14.19702"><ele>532.0</ele><time>2026-05-01T11:56:53.552Z</time></trkpt><trkpt lat="42.1852908" lon="14.1969276"><ele>532.0</ele><time>2026-05-01T11:56:55.557Z</time></trkpt><trkpt lat="42.1852827" lon="14.1967773"><ele>532.0</ele><time>2026-05-01T11:56:57.553Z</time></trkpt><trkpt lat="42.1852667" lon="14.1966951"><ele>532.0</ele><time>2026-05-01T11:56:58.541Z</time></trkpt><trkpt lat="42.1852276" lon="14.1965489"><ele>532.0</ele><time>2026-05-01T11:57:00.548Z</time></trkpt><trkpt lat="42.1852025" lon="14.1964152"><ele>530.5714285714286</ele><time>2026-05-01T11:57:02.542Z</time></trkpt><trkpt lat="42.1851852" lon="14.1963262"><ele>529.1428571428571</ele><time>2026-05-01T11:57:04.547Z</time></trkpt><trkpt lat="42.18524" lon="14.1962827"><ele>527.7142857142858</ele><time>2026-05-01T11:57:09.564Z</time></trkpt><trkpt lat="42.1853176" lon="14.1962996"><ele>526.2857142857142</ele><time>2026-05-01T11:57:11.555Z</time></trkpt><trkpt lat="42.1853856" lon="14.1963482"><ele>524.8571428571429</ele><time>2026-05-01T11:57:13.553Z</time></trkpt><trkpt lat="42.1854533" lon="14.196414"><ele>523.4285714285714</ele><time>2026-05-01T11:57:16.565Z</time></trkpt><trkpt lat="42.1855265" lon="14.1964008"><ele>522.0</ele><time>2026-05-01T11:57:19.553Z</time></trkpt><trkpt lat="42.1855707" lon="14.1964632"><ele>521.6666666666666</ele><time>2026-05-01T11:57:22.552Z</time></trkpt><trkpt lat="42.1856213" lon="14.1965295"><ele>521.3333333333334</ele><time>2026-05-01T11:57:24.55Z</time></trkpt><trkpt lat="42.185684" lon="14.196599"><ele>521.0</ele><time>2026-05-01T11:57:26.561Z</time></trkpt><trkpt lat="42.185753" lon="14.196658"><ele>520.6666666666667</ele><time>2026-05-01T11:57:28.557Z</time></trkpt><trkpt lat="42.1858221" lon="14.1967333"><ele>520.3333333333334</ele><time>2026-05-01T11:57:31.562Z</time></trkpt><trkpt lat="42.1858807" lon="14.1967933"><ele>520.0</ele><time>2026-05-01T11:57:33.562Z</time></trkpt><trkpt lat="42.1859763" lon="14.1968323"><ele>520.0</ele><time>2026-05-01T11:57:35.568Z</time></trkpt><trkpt lat="42.1860777" lon="14.196863"><ele>520.0</ele><time>2026-05-01T11:57:37.546Z</time></trkpt><trkpt lat="42.1861839" lon="14.1968785"><ele>520.0</ele><time>2026-05-01T11:57:39.545Z</time></trkpt><trkpt lat="42.1862633" lon="14.1968646"><ele>520.0</ele><time>2026-05-01T11:57:41.546Z</time></trkpt><trkpt lat="42.1863432" lon="14.1968201"><ele>520.0</ele><time>2026-05-01T11:57:43.536Z</time></trkpt><trkpt lat="42.1864413" lon="14.1968009"><ele>518.0</ele><time>2026-05-01T11:57:45.536Z</time></trkpt><trkpt lat="42.1865121" lon="14.1967868"><ele>516.0</ele><time>2026-05-01T11:57:47.546Z</time></trkpt><trkpt lat="42.1866158" lon="14.1967731"><ele>514.0</ele><time>2026-05-01T11:57:50.541Z</time></trkpt><trkpt lat="42.1867106" lon="14.1967407"><ele>512.0</ele><time>2026-05-01T11:57:52.534Z</time></trkpt><trkpt lat="42.1868084" lon="14.1967791"><ele>510.0</ele><time>2026-05-01T11:57:54.524Z</time></trkpt><trkpt lat="42.1868921" lon="14.1969045"><ele>510.0</ele><time>2026-05-01T11:57:56.526Z</time></trkpt><trkpt lat="42.18695" lon="14.1969826"><ele>510.0</ele><time>2026-05-01T11:57:57.51Z</time></trkpt><trkpt lat="42.1869995" lon="14.1970462"><ele>510.0</ele><time>2026-05-01T11:57:58.517Z</time></trkpt><trkpt lat="42.1870656" lon="14.1971607"><ele>510.0</ele><time>2026-05-01T11:58:00.518Z</time></trkpt><trkpt lat="42.1871303" lon="14.1972966"><ele>510.0</ele><time>2026-05-01T11:58:02.51Z</time></trkpt><trkpt lat="42.1872299" lon="14.1974238"><ele>508.6666666666667</ele><time>2026-05-01T11:58:04.521Z</time></trkpt><trkpt lat="42.1872871" lon="14.1974992"><ele>507.33333333333337</ele><time>2026-05-01T11:58:05.523Z</time></trkpt><trkpt lat="42.1873328" lon="14.197578"><ele>506.0</ele><time>2026-05-01T11:58:06.533Z</time></trkpt><trkpt lat="42.1873807" lon="14.1977109"><ele>504.6666666666667</ele><time>2026-05-01T11:58:08.555Z</time></trkpt><trkpt lat="42.1873774" lon="14.1978076"><ele>503.33333333333337</ele><time>2026-05-01T11:58:09.545Z</time></trkpt><trkpt lat="42.1873715" lon="14.1979224"><ele>502.0</ele><time>2026-05-01T11:58:10.55Z</time></trkpt><trkpt lat="42.1873694" lon="14.1980511"><ele>503.40000000000003</ele><time>2026-05-01T11:58:11.573Z</time></trkpt><trkpt lat="42.1873782" lon="14.1981985"><ele>504.80000000000007</ele><time>2026-05-01T11:58:12.556Z</time></trkpt><trkpt lat="42.1873946" lon="14.1983509"><ele>506.2</ele><time>2026-05-01T11:58:13.547Z</time></trkpt><trkpt lat="42.1874024" lon="14.1984793"><ele>507.6</ele><time>2026-05-01T11:58:14.537Z</time></trkpt><trkpt lat="42.1874029" lon="14.1985771"><ele>509.0</ele><time>2026-05-01T11:58:15.555Z</time></trkpt><trkpt lat="42.1873934" lon="14.1986798"><ele>508.99999999999994</ele><time>2026-05-01T11:58:17.533Z</time></trkpt><trkpt lat="42.1874386" lon="14.1988214"><ele>509.0</ele><time>2026-05-01T11:58:24.554Z</time></trkpt><trkpt lat="42.1874574" lon="14.1989174"><ele>509.0</ele><time>2026-05-01T11:58:25.547Z</time></trkpt><trkpt lat="42.1874893" lon="14.1990124"><ele>509.0</ele><time>2026-05-01T11:58:26.556Z</time></trkpt><trkpt lat="42.1875192" lon="14.1991251"><ele>508.99999999999994</ele><time>2026-05-01T11:58:27.541Z</time></trkpt><trkpt lat="42.1875476" lon="14.1992386"><ele>509.0</ele><time>2026-05-01T11:58:28.552Z</time></trkpt><trkpt lat="42.1875856" lon="14.1993448"><ele>510.2</ele><time>2026-05-01T11:58:29.561Z</time></trkpt><trkpt lat="42.1876203" lon="14.1994454"><ele>511.4</ele><time>2026-05-01T11:58:30.558Z</time></trkpt><trkpt lat="42.1876498" lon="14.1995637"><ele>512.6</ele><time>2026-05-01T11:58:31.558Z</time></trkpt><trkpt lat="42.1876642" lon="14.1997052"><ele>513.8</ele><time>2026-05-01T11:58:32.55Z</time></trkpt><trkpt lat="42.1876643" lon="14.1998702"><ele>515.0</ele><time>2026-05-01T11:58:33.547Z</time></trkpt><trkpt lat="42.1876583" lon="14.2000305"><ele>515.75</ele><time>2026-05-01T11:58:34.561Z</time></trkpt><trkpt lat="42.1876631" lon="14.2001931"><ele>516.5</ele><time>2026-05-01T11:58:35.561Z</time></trkpt><trkpt lat="42.1876855" lon="14.2003628"><ele>517.25</ele><time>2026-05-01T11:58:36.56Z</time></trkpt><trkpt lat="42.1877325" lon="14.2005284"><ele>518.0</ele><time>2026-05-01T11:58:37.553Z</time></trkpt><trkpt lat="42.1877988" lon="14.2006965"><ele>520.0</ele><time>2026-05-01T11:58:38.559Z</time></trkpt><trkpt lat="42.1878747" lon="14.2008782"><ele>522.0</ele><time>2026-05-01T11:58:39.572Z</time></trkpt><trkpt lat="42.1879482" lon="14.2010653"><ele>524.0</ele><time>2026-05-01T11:58:40.562Z</time></trkpt><trkpt lat="42.1880189" lon="14.201255"><ele>524.0</ele><time>2026-05-01T11:58:41.573Z</time></trkpt><trkpt lat="42.188088" lon="14.2014341"><ele>524.0</ele><time>2026-05-01T11:58:42.565Z</time></trkpt><trkpt lat="42.188155" lon="14.2016112"><ele>524.0</ele><time>2026-05-01T11:58:43.563Z</time></trkpt><trkpt lat="42.1882268" lon="14.2017777"><ele>524.0</ele><time>2026-05-01T11:58:44.563Z</time></trkpt><trkpt lat="42.1883062" lon="14.2019329"><ele>523.25</ele><time>2026-05-01T11:58:45.553Z</time></trkpt><trkpt lat="42.1883995" lon="14.2020832"><ele>522.5</ele><time>2026-05-01T11:58:46.559Z</time></trkpt><trkpt lat="42.1885014" lon="14.2022274"><ele>521.75</ele><time>2026-05-01T11:58:47.559Z</time></trkpt><trkpt lat="42.188606" lon="14.2023794"><ele>521.0</ele><time>2026-05-01T11:58:48.549Z</time></trkpt><trkpt lat="42.1886956" lon="14.2025247"><ele>526.25</ele><time>2026-05-01T11:58:49.55Z</time></trkpt><trkpt lat="42.1887809" lon="14.2026689"><ele>531.5</ele><time>2026-05-01T11:58:50.544Z</time></trkpt><trkpt lat="42.1888343" lon="14.2028346"><ele>536.75</ele><time>2026-05-01T11:58:51.538Z</time></trkpt><trkpt lat="42.1888904" lon="14.2030088"><ele>542.0</ele><time>2026-05-01T11:58:52.548Z</time></trkpt><trkpt lat="42.1889511" lon="14.2031865"><ele>538.6666666666666</ele><time>2026-05-01T11:58:53.544Z</time></trkpt><trkpt lat="42.1889745" lon="14.203396"><ele>535.3333333333334</ele><time>2026-05-01T11:58:54.546Z</time></trkpt><trkpt lat="42.1890239" lon="14.2035998"><ele>532.0</ele><time>2026-05-01T11:58:55.553Z</time></trkpt><trkpt lat="42.1890765" lon="14.2038176"><ele>535.6666666666667</ele><time>2026-05-01T11:58:56.554Z</time></trkpt><trkpt lat="42.1891312" lon="14.2040395"><ele>539.3333333333334</ele><time>2026-05-01T11:58:57.544Z</time></trkpt><trkpt lat="42.1891834" lon="14.2042475"><ele>543.0</ele><time>2026-05-01T11:58:58.548Z</time></trkpt><trkpt lat="42.1892135" lon="14.2044421"><ele>543.0</ele><time>2026-05-01T11:58:59.548Z</time></trkpt><trkpt lat="42.1892361" lon="14.2046187"><ele>543.0</ele><time>2026-05-01T11:59:00.551Z</time></trkpt><trkpt lat="42.1892556" lon="14.2047704"><ele>543.0</ele><time>2026-05-01T11:59:01.556Z</time></trkpt><trkpt lat="42.1892837" lon="14.20492"><ele>543.0</ele><time>2026-05-01T11:59:02.561Z</time></trkpt><trkpt lat="42.1892893" lon="14.2050762"><ele>544.0</ele><time>2026-05-01T11:59:03.559Z</time></trkpt><trkpt lat="42.1893098" lon="14.2052241"><ele>545.0</ele><time>2026-05-01T11:59:04.557Z</time></trkpt><trkpt lat="42.1893481" lon="14.2053285"><ele>546.0</ele><time>2026-05-01T11:59:05.562Z</time></trkpt><trkpt lat="42.1893972" lon="14.2054278"><ele>547.0</ele><time>2026-05-01T11:59:06.558Z</time></trkpt><trkpt lat="42.1894445" lon="14.2055163"><ele>548.0</ele><time>2026-05-01T11:59:07.564Z</time></trkpt><trkpt lat="42.1894991" lon="14.2055853"><ele>549.0</ele><time>2026-05-01T11:59:08.553Z</time></trkpt><trkpt lat="42.1895631" lon="14.2056295"><ele>549.0</ele><time>2026-05-01T11:59:09.554Z</time></trkpt><trkpt lat="42.1896483" lon="14.2056573"><ele>549.0</ele><time>2026-05-01T11:59:10.566Z</time></trkpt><trkpt lat="42.1897526" lon="14.2056676"><ele>549.0</ele><time>2026-05-01T11:59:11.564Z</time></trkpt><trkpt lat="42.1898691" lon="14.2056908"><ele>549.0</ele><time>2026-05-01T11:59:12.572Z</time></trkpt><trkpt lat="42.1899952" lon="14.2057426"><ele>549.0</ele><time>2026-05-01T11:59:13.569Z</time></trkpt><trkpt lat="42.1901245" lon="14.2058233"><ele>547.5</ele><time>2026-05-01T11:59:14.563Z</time></trkpt><trkpt lat="42.1902302" lon="14.2059289"><ele>546.0</ele><time>2026-05-01T11:59:15.564Z</time></trkpt><trkpt lat="42.1903095" lon="14.2060707"><ele>544.5</ele><time>2026-05-01T11:59:16.576Z</time></trkpt><trkpt lat="42.1903757" lon="14.2062435"><ele>543.0</ele><time>2026-05-01T11:59:17.556Z</time></trkpt><trkpt lat="42.1904289" lon="14.2064259"><ele>547.0</ele><time>2026-05-01T11:59:18.563Z</time></trkpt><trkpt lat="42.1904614" lon="14.2066313"><ele>551.0</ele><time>2026-05-01T11:59:19.57Z</time></trkpt><trkpt lat="42.1904954" lon="14.2068331"><ele>555.0</ele><time>2026-05-01T11:59:20.569Z</time></trkpt><trkpt lat="42.1905215" lon="14.2070376"><ele>555.0</ele><time>2026-05-01T11:59:21.574Z</time></trkpt><trkpt lat="42.190534" lon="14.2072205"><ele>555.0</ele><time>2026-05-01T11:59:22.571Z</time></trkpt><trkpt lat="42.1905456" lon="14.2074129"><ele>555.0</ele><time>2026-05-01T11:59:23.578Z</time></trkpt><trkpt lat="42.190553" lon="14.2075893"><ele>555.0</ele><time>2026-05-01T11:59:24.555Z</time></trkpt><trkpt lat="42.1905515" lon="14.2077366"><ele>556.0</ele><time>2026-05-01T11:59:25.571Z</time></trkpt><trkpt lat="42.1905692" lon="14.2078358"><ele>557.0</ele><time>2026-05-01T11:59:26.575Z</time></trkpt><trkpt lat="42.1905738" lon="14.2079481"><ele>558.0</ele><time>2026-05-01T11:59:27.561Z</time></trkpt><trkpt lat="42.1906151" lon="14.2080809"><ele>559.0</ele><time>2026-05-01T11:59:29.56Z</time></trkpt><trkpt lat="42.1907246" lon="14.2081325"><ele>560.0</ele><time>2026-05-01T11:59:31.555Z</time></trkpt><trkpt lat="42.1907983" lon="14.2081231"><ele>554.8</ele><time>2026-05-01T11:59:32.565Z</time></trkpt><trkpt lat="42.1908823" lon="14.2081118"><ele>549.6</ele><time>2026-05-01T11:59:33.558Z</time></trkpt><trkpt lat="42.1909715" lon="14.2081192"><ele>544.4</ele><time>2026-05-01T11:59:34.564Z</time></trkpt><trkpt lat="42.1910522" lon="14.2081378"><ele>539.2</ele><time>2026-05-01T11:59:35.552Z</time></trkpt><trkpt lat="42.191142" lon="14.2081637"><ele>534.0</ele><time>2026-05-01T11:59:36.561Z</time></trkpt><trkpt lat="42.191252" lon="14.2081821"><ele>534.0</ele><time>2026-05-01T11:59:37.559Z</time></trkpt><trkpt lat="42.1913589" lon="14.2081976"><ele>534.0</ele><time>2026-05-01T11:59:38.564Z</time></trkpt><trkpt lat="42.1914614" lon="14.2082056"><ele>534.0</ele><time>2026-05-01T11:59:39.56Z</time></trkpt><trkpt lat="42.1915561" lon="14.2081953"><ele>534.0</ele><time>2026-05-01T11:59:40.574Z</time></trkpt><trkpt lat="42.1916424" lon="14.2081901"><ele>534.0</ele><time>2026-05-01T11:59:41.578Z</time></trkpt><trkpt lat="42.1917283" lon="14.2081848"><ele>532.2</ele><time>2026-05-01T11:59:42.577Z</time></trkpt><trkpt lat="42.1918002" lon="14.2081891"><ele>530.4</ele><time>2026-05-01T11:59:43.571Z</time></trkpt><trkpt lat="42.1918734" lon="14.2081841"><ele>528.6</ele><time>2026-05-01T11:59:44.564Z</time></trkpt><trkpt lat="42.1919807" lon="14.2081951"><ele>526.8</ele><time>2026-05-01T11:59:46.57Z</time></trkpt><trkpt lat="42.1920819" lon="14.2081953"><ele>525.0</ele><time>2026-05-01T11:59:48.584Z</time></trkpt><trkpt lat="42.1921943" lon="14.2081921"><ele>525.0</ele><time>2026-05-01T11:59:50.576Z</time></trkpt><trkpt lat="42.192267" lon="14.2081903"><ele>525.0</ele><time>2026-05-01T11:59:51.573Z</time></trkpt><trkpt lat="42.1923393" lon="14.2081787"><ele>525.0</ele><time>2026-05-01T11:59:52.581Z</time></trkpt><trkpt lat="42.1924126" lon="14.2081592"><ele>525.0</ele><time>2026-05-01T11:59:53.565Z</time></trkpt><trkpt lat="42.1924861" lon="14.2081439"><ele>525.0</ele><time>2026-05-01T11:59:54.579Z</time></trkpt><trkpt lat="42.1925595" lon="14.2081244"><ele>525.0</ele><time>2026-05-01T11:59:55.579Z</time></trkpt><trkpt lat="42.192628" lon="14.2081001"><ele>525.0</ele><time>2026-05-01T11:59:56.594Z</time></trkpt><trkpt lat="42.1927017" lon="14.2080845"><ele>522.8333333333334</ele><time>2026-05-01T11:59:57.543Z</time></trkpt><trkpt lat="42.1927793" lon="14.208067"><ele>520.6666666666666</ele><time>2026-05-01T11:59:58.553Z</time></trkpt><trkpt lat="42.1928531" lon="14.2080559"><ele>518.5</ele><time>2026-05-01T11:59:59.566Z</time></trkpt><trkpt lat="42.1929191" lon="14.2080546"><ele>516.3333333333333</ele><time>2026-05-01T12:00:00.559Z</time></trkpt><trkpt lat="42.1930131" lon="14.2080385"><ele>514.1666666666666</ele><time>2026-05-01T12:00:02.56Z</time></trkpt><trkpt lat="42.193113" lon="14.2080183"><ele>512.0</ele><time>2026-05-01T12:00:04.562Z</time></trkpt><trkpt lat="42.1932352" lon="14.2080056"><ele>510.66666666666663</ele><time>2026-05-01T12:00:06.571Z</time></trkpt><trkpt lat="42.193306" lon="14.2080055"><ele>509.3333333333333</ele><time>2026-05-01T12:00:07.554Z</time></trkpt><trkpt lat="42.1933915" lon="14.2080095"><ele>508.0</ele><time>2026-05-01T12:00:08.559Z</time></trkpt><trkpt lat="42.1934729" lon="14.2080196"><ele>506.66666666666663</ele><time>2026-05-01T12:00:09.556Z</time></trkpt><trkpt lat="42.1935432" lon="14.2080362"><ele>505.3333333333333</ele><time>2026-05-01T12:00:10.561Z</time></trkpt><trkpt lat="42.1936057" lon="14.2080476"><ele>504.0</ele><time>2026-05-01T12:00:11.559Z</time></trkpt><trkpt lat="42.1937291" lon="14.2080714"><ele>504.0</ele><time>2026-05-01T12:00:13.56Z</time></trkpt><trkpt lat="42.1937977" lon="14.2080754"><ele>504.0</ele><time>2026-05-01T12:00:14.567Z</time></trkpt><trkpt lat="42.1938774" lon="14.2080884"><ele>504.0</ele><time>2026-05-01T12:00:15.558Z</time></trkpt><trkpt lat="42.1939706" lon="14.2081165"><ele>504.0</ele><time>2026-05-01T12:00:16.564Z</time></trkpt><trkpt lat="42.1940729" lon="14.2081477"><ele>504.0</ele><time>2026-05-01T12:00:17.617Z</time></trkpt><trkpt lat="42.1941805" lon="14.2081828"><ele>501.75</ele><time>2026-05-01T12:00:18.633Z</time></trkpt><trkpt lat="42.1942882" lon="14.2082289"><ele>499.5</ele><time>2026-05-01T12:00:19.617Z</time></trkpt><trkpt lat="42.1943899" lon="14.2082886"><ele>497.25</ele><time>2026-05-01T12:00:20.632Z</time></trkpt><trkpt lat="42.1945126" lon="14.2083746"><ele>495.0</ele><time>2026-05-01T12:00:21.627Z</time></trkpt><trkpt lat="42.1945945" lon="14.2084592"><ele>495.0</ele><time>2026-05-01T12:00:22.627Z</time></trkpt><trkpt lat="42.1946708" lon="14.2085356"><ele>495.0</ele><time>2026-05-01T12:00:23.621Z</time></trkpt><trkpt lat="42.1947453" lon="14.2086133"><ele>495.0</ele><time>2026-05-01T12:00:24.617Z</time></trkpt><trkpt lat="42.1948167" lon="14.2086872"><ele>495.0</ele><time>2026-05-01T12:00:25.617Z</time></trkpt><trkpt lat="42.1948841" lon="14.2087645"><ele>495.0</ele><time>2026-05-01T12:00:26.631Z</time></trkpt><trkpt lat="42.1949468" lon="14.2088443"><ele>492.0</ele><time>2026-05-01T12:00:27.634Z</time></trkpt><trkpt lat="42.19499" lon="14.2089291"><ele>489.0</ele><time>2026-05-01T12:00:28.63Z</time></trkpt><trkpt lat="42.1951" lon="14.2089633"><ele>486.0</ele><time>2026-05-01T12:00:30.636Z</time></trkpt><trkpt lat="42.1951648" lon="14.2089303"><ele>483.0</ele><time>2026-05-01T12:00:31.617Z</time></trkpt><trkpt lat="42.195248" lon="14.2088827"><ele>480.0</ele><time>2026-05-01T12:00:32.616Z</time></trkpt><trkpt lat="42.1953536" lon="14.2088216"><ele>480.0</ele><time>2026-05-01T12:00:33.616Z</time></trkpt><trkpt lat="42.1954598" lon="14.2087555"><ele>480.0</ele><time>2026-05-01T12:00:34.62Z</time></trkpt><trkpt lat="42.1955614" lon="14.2086782"><ele>480.0</ele><time>2026-05-01T12:00:35.642Z</time></trkpt><trkpt lat="42.1956458" lon="14.2086002"><ele>480.0</ele><time>2026-05-01T12:00:36.644Z</time></trkpt><trkpt lat="42.1957191" lon="14.2085214"><ele>480.0</ele><time>2026-05-01T12:00:37.617Z</time></trkpt><trkpt lat="42.1957918" lon="14.2084444"><ele>479.0</ele><time>2026-05-01T12:00:38.615Z</time></trkpt><trkpt lat="42.195864" lon="14.2083741"><ele>478.0</ele><time>2026-05-01T12:00:39.62Z</time></trkpt><trkpt lat="42.1959393" lon="14.2083346"><ele>477.0</ele><time>2026-05-01T12:00:40.611Z</time></trkpt><trkpt lat="42.1960143" lon="14.2083012"><ele>476.0</ele><time>2026-05-01T12:00:41.541Z</time></trkpt><trkpt lat="42.1960931" lon="14.2083166"><ele>475.0</ele><time>2026-05-01T12:00:42.55Z</time></trkpt><trkpt lat="42.1961666" lon="14.208335"><ele>474.0</ele><time>2026-05-01T12:00:43.555Z</time></trkpt><trkpt lat="42.1962388" lon="14.2083442"><ele>474.0</ele><time>2026-05-01T12:00:44.549Z</time></trkpt><trkpt lat="42.1963159" lon="14.2083427"><ele>474.0</ele><time>2026-05-01T12:00:45.545Z</time></trkpt><trkpt lat="42.1964038" lon="14.2083179"><ele>474.0</ele><time>2026-05-01T12:00:46.539Z</time></trkpt><trkpt lat="42.1964979" lon="14.2082893"><ele>474.0</ele><time>2026-05-01T12:00:47.551Z</time></trkpt><trkpt lat="42.1965889" lon="14.2082506"><ele>474.0</ele><time>2026-05-01T12:00:48.538Z</time></trkpt><trkpt lat="42.1966763" lon="14.2082237"><ele>474.0</ele><time>2026-05-01T12:00:49.544Z</time></trkpt><trkpt lat="42.1967832" lon="14.2081958"><ele>471.4</ele><time>2026-05-01T12:00:50.538Z</time></trkpt><trkpt lat="42.1969047" lon="14.2081611"><ele>468.79999999999995</ele><time>2026-05-01T12:00:51.526Z</time></trkpt><trkpt lat="42.1970169" lon="14.2081062"><ele>466.20000000000005</ele><time>2026-05-01T12:00:52.531Z</time></trkpt><trkpt lat="42.1971177" lon="14.208057"><ele>463.6</ele><time>2026-05-01T12:00:53.529Z</time></trkpt><trkpt lat="42.1972003" lon="14.2080324"><ele>461.0</ele><time>2026-05-01T12:00:54.548Z</time></trkpt><trkpt lat="42.1972787" lon="14.2080218"><ele>458.99999999999994</ele><time>2026-05-01T12:00:55.549Z</time></trkpt><trkpt lat="42.1973571" lon="14.2080304"><ele>457.0</ele><time>2026-05-01T12:00:56.551Z</time></trkpt><trkpt lat="42.1974425" lon="14.2080637"><ele>455.0</ele><time>2026-05-01T12:00:57.537Z</time></trkpt><trkpt lat="42.1975221" lon="14.2081159"><ele>453.0</ele><time>2026-05-01T12:00:58.538Z</time></trkpt><trkpt lat="42.1975925" lon="14.2081731"><ele>450.99999999999994</ele><time>2026-05-01T12:00:59.538Z</time></trkpt><trkpt lat="42.1976659" lon="14.2082217"><ele>449.0</ele><time>2026-05-01T12:01:00.544Z</time></trkpt><trkpt lat="42.1977515" lon="14.2082594"><ele>449.0</ele><time>2026-05-01T12:01:01.546Z</time></trkpt><trkpt lat="42.1978437" lon="14.2082915"><ele>449.0</ele><time>2026-05-01T12:01:02.546Z</time></trkpt><trkpt lat="42.1979468" lon="14.2083105"><ele>449.0</ele><time>2026-05-01T12:01:03.542Z</time></trkpt><trkpt lat="42.1980546" lon="14.2083372"><ele>449.0</ele><time>2026-05-01T12:01:04.548Z</time></trkpt><trkpt lat="42.1981513" lon="14.2083716"><ele>449.0</ele><time>2026-05-01T12:01:05.548Z</time></trkpt><trkpt lat="42.198237" lon="14.2083983"><ele>446.0</ele><time>2026-05-01T12:01:06.538Z</time></trkpt><trkpt lat="42.1983241" lon="14.2084274"><ele>443.0</ele><time>2026-05-01T12:01:07.549Z</time></trkpt><trkpt lat="42.1984126" lon="14.2084398"><ele>440.0</ele><time>2026-05-01T12:01:08.539Z</time></trkpt><trkpt lat="42.1985076" lon="14.208447"><ele>437.0</ele><time>2026-05-01T12:01:09.542Z</time></trkpt><trkpt lat="42.1986047" lon="14.2084566"><ele>434.0</ele><time>2026-05-01T12:01:10.546Z</time></trkpt><trkpt lat="42.1986987" lon="14.2084558"><ele>434.0</ele><time>2026-05-01T12:01:11.544Z</time></trkpt><trkpt lat="42.1987752" lon="14.2084407"><ele>434.0</ele><time>2026-05-01T12:01:12.545Z</time></trkpt><trkpt lat="42.1988536" lon="14.2084373"><ele>434.0</ele><time>2026-05-01T12:01:13.54Z</time></trkpt><trkpt lat="42.1989636" lon="14.2084836"><ele>434.0</ele><time>2026-05-01T12:01:15.537Z</time></trkpt><trkpt lat="42.1990612" lon="14.2084712"><ele>434.0</ele><time>2026-05-01T12:01:17.533Z</time></trkpt><trkpt lat="42.1991055" lon="14.2083222"><ele>431.99999999999994</ele><time>2026-05-01T12:01:19.53Z</time></trkpt><trkpt lat="42.1990937" lon="14.2082092"><ele>430.0</ele><time>2026-05-01T12:01:20.527Z</time></trkpt><trkpt lat="42.1990621" lon="14.208104"><ele>428.0</ele><time>2026-05-01T12:01:21.529Z</time></trkpt><trkpt lat="42.1990322" lon="14.2080103"><ele>426.0</ele><time>2026-05-01T12:01:22.541Z</time></trkpt><trkpt lat="42.1990078" lon="14.2079141"><ele>423.99999999999994</ele><time>2026-05-01T12:01:23.533Z</time></trkpt><trkpt lat="42.1989931" lon="14.2078044"><ele>422.0</ele><time>2026-05-01T12:01:24.535Z</time></trkpt><trkpt lat="42.1989914" lon="14.20769"><ele>421.99999999999994</ele><time>2026-05-01T12:01:25.535Z</time></trkpt><trkpt lat="42.1989981" lon="14.2075783"><ele>422.0</ele><time>2026-05-01T12:01:26.534Z</time></trkpt><trkpt lat="42.1990304" lon="14.207471"><ele>422.0</ele><time>2026-05-01T12:01:27.541Z</time></trkpt><trkpt lat="42.1990775" lon="14.2073696"><ele>422.0</ele><time>2026-05-01T12:01:28.537Z</time></trkpt><trkpt lat="42.1991301" lon="14.2072706"><ele>421.99999999999994</ele><time>2026-05-01T12:01:29.534Z</time></trkpt><trkpt lat="42.1991828" lon="14.2071799"><ele>422.0</ele><time>2026-05-01T12:01:30.538Z</time></trkpt><trkpt lat="42.1992283" lon="14.2070906"><ele>421.66666666666663</ele><time>2026-05-01T12:01:31.542Z</time></trkpt><trkpt lat="42.1992766" lon="14.2070067"><ele>421.3333333333333</ele><time>2026-05-01T12:01:32.534Z</time></trkpt><trkpt lat="42.1993233" lon="14.2069491"><ele>421.0</ele><time>2026-05-01T12:01:33.53Z</time></trkpt><trkpt lat="42.1994349" lon="14.2069344"><ele>420.66666666666663</ele><time>2026-05-01T12:01:35.531Z</time></trkpt><trkpt lat="42.1995232" lon="14.2069603"><ele>420.3333333333333</ele><time>2026-05-01T12:01:37.526Z</time></trkpt><trkpt lat="42.1995858" lon="14.2069762"><ele>420.0</ele><time>2026-05-01T12:01:38.529Z</time></trkpt><trkpt lat="42.1996562" lon="14.2069976"><ele>420.0</ele><time>2026-05-01T12:01:39.526Z</time></trkpt><trkpt lat="42.1997229" lon="14.2070266"><ele>420.0</ele><time>2026-05-01T12:01:40.528Z</time></trkpt><trkpt lat="42.1997944" lon="14.2070631"><ele>420.0</ele><time>2026-05-01T12:01:41.525Z</time></trkpt><trkpt lat="42.1998614" lon="14.2071038"><ele>420.0</ele><time>2026-05-01T12:01:42.529Z</time></trkpt><trkpt lat="42.1999285" lon="14.2071706"><ele>420.0</ele><time>2026-05-01T12:01:43.524Z</time></trkpt><trkpt lat="42.1999964" lon="14.2072367"><ele>420.0</ele><time>2026-05-01T12:01:44.532Z</time></trkpt><trkpt lat="42.2000568" lon="14.2072753"><ele>419.8333333333333</ele><time>2026-05-01T12:01:45.538Z</time></trkpt><trkpt lat="42.2001743" lon="14.2072889"><ele>419.66666666666663</ele><time>2026-05-01T12:01:47.537Z</time></trkpt><trkpt lat="42.2002531" lon="14.2072859"><ele>419.5</ele><time>2026-05-01T12:01:49.55Z</time></trkpt><trkpt lat="42.2003121" lon="14.2073163"><ele>419.3333333333333</ele><time>2026-05-01T12:01:50.543Z</time></trkpt><trkpt lat="42.200377" lon="14.2073606"><ele>419.16666666666663</ele><time>2026-05-01T12:01:51.534Z</time></trkpt><trkpt lat="42.2004379" lon="14.2073859"><ele>419.0</ele><time>2026-05-01T12:01:52.528Z</time></trkpt><trkpt lat="42.2005112" lon="14.2073879"><ele>418.99999999999994</ele><time>2026-05-01T12:01:53.53Z</time></trkpt><trkpt lat="42.2005772" lon="14.2073739"><ele>419.0</ele><time>2026-05-01T12:01:54.541Z</time></trkpt><trkpt lat="42.2006722" lon="14.2073711"><ele>419.0</ele><time>2026-05-01T12:01:56.529Z</time></trkpt><trkpt lat="42.2006903" lon="14.207467"><ele>419.0</ele><time>2026-05-01T12:01:59.54Z</time></trkpt><trkpt lat="42.2006806" lon="14.2075602"><ele>418.99999999999994</ele><time>2026-05-01T12:02:02.532Z</time></trkpt><trkpt lat="42.2006864" lon="14.2076534"><ele>419.0</ele><time>2026-05-01T12:02:05.533Z</time></trkpt><trkpt lat="42.200712" lon="14.2077519"><ele>418.99999999999994</ele><time>2026-05-01T12:02:08.535Z</time></trkpt><trkpt lat="42.2006688" lon="14.2078361"><ele>419.0</ele><time>2026-05-01T12:02:12.544Z</time></trkpt><trkpt lat="42.2005869" lon="14.2078545"><ele>419.0</ele><time>2026-05-01T12:02:15.54Z</time></trkpt><trkpt lat="42.2005258" lon="14.2079233"><ele>419.0</ele><time>2026-05-01T12:02:18.551Z</time></trkpt><trkpt lat="42.2005281" lon="14.2080472"><ele>418.99999999999994</ele><time>2026-05-01T12:02:20.531Z</time></trkpt><trkpt lat="42.2005535" lon="14.2081374"><ele>419.0</ele><time>2026-05-01T12:02:21.528Z</time></trkpt><trkpt lat="42.2006064" lon="14.2082784"><ele>417.2</ele><time>2026-05-01T12:02:23.531Z</time></trkpt><trkpt lat="42.2006387" lon="14.2084154"><ele>415.4</ele><time>2026-05-01T12:02:25.53Z</time></trkpt><trkpt lat="42.2006012" lon="14.2085394"><ele>413.6</ele><time>2026-05-01T12:02:27.534Z</time></trkpt><trkpt lat="42.2006025" lon="14.2086596"><ele>411.8</ele><time>2026-05-01T12:02:29.539Z</time></trkpt><trkpt lat="42.2006193" lon="14.2087988"><ele>410.0</ele><time>2026-05-01T12:02:31.549Z</time></trkpt><trkpt lat="42.2006342" lon="14.2088997"><ele>409.49999999999994</ele><time>2026-05-01T12:02:33.548Z</time></trkpt><trkpt lat="42.2006332" lon="14.2090037"><ele>409.0</ele><time>2026-05-01T12:02:35.547Z</time></trkpt><trkpt lat="42.2006633" lon="14.2091092"><ele>408.5</ele><time>2026-05-01T12:02:37.544Z</time></trkpt><trkpt lat="42.2007129" lon="14.2092047"><ele>408.0</ele><time>2026-05-01T12:02:39.54Z</time></trkpt><trkpt lat="42.2007176" lon="14.2093043"><ele>407.49999999999994</ele><time>2026-05-01T12:02:42.543Z</time></trkpt><trkpt lat="42.2007162" lon="14.2094107"><ele>407.0</ele><time>2026-05-01T12:02:45.546Z</time></trkpt><trkpt lat="42.200759" lon="14.2095121"><ele>408.49999999999994</ele><time>2026-05-01T12:02:48.543Z</time></trkpt><trkpt lat="42.2008458" lon="14.2095395"><ele>410.0</ele><time>2026-05-01T12:02:51.549Z</time></trkpt><trkpt lat="42.200929" lon="14.2095069"><ele>411.5</ele><time>2026-05-01T12:02:53.539Z</time></trkpt><trkpt lat="42.2010046" lon="14.2094819"><ele>413.0</ele><time>2026-05-01T12:02:55.553Z</time></trkpt><trkpt lat="42.2010794" lon="14.2094669"><ele>414.49999999999994</ele><time>2026-05-01T12:02:57.542Z</time></trkpt><trkpt lat="42.2011514" lon="14.2094545"><ele>416.0</ele><time>2026-05-01T12:02:59.546Z</time></trkpt><trkpt lat="42.2012477" lon="14.2094414"><ele>415.99999999999994</ele><time>2026-05-01T12:03:01.542Z</time></trkpt><trkpt lat="42.2013741" lon="14.2094601"><ele>416.0</ele><time>2026-05-01T12:03:03.532Z</time></trkpt><trkpt lat="42.2014546" lon="14.2094836"><ele>416.0</ele><time>2026-05-01T12:03:04.536Z</time></trkpt><trkpt lat="42.2015402" lon="14.2094921"><ele>416.0</ele><time>2026-05-01T12:03:05.541Z</time></trkpt><trkpt lat="42.201617" lon="14.2094823"><ele>415.99999999999994</ele><time>2026-05-01T12:03:06.53Z</time></trkpt><trkpt lat="42.2016844" lon="14.2094655"><ele>416.0</ele><time>2026-05-01T12:03:07.534Z</time></trkpt><trkpt lat="42.2017964" lon="14.2094346"><ele>415.66666666666663</ele><time>2026-05-01T12:03:09.536Z</time></trkpt><trkpt lat="42.2018631" lon="14.2094197"><ele>415.3333333333333</ele><time>2026-05-01T12:03:10.539Z</time></trkpt><trkpt lat="42.2019254" lon="14.2094041"><ele>415.0</ele><time>2026-05-01T12:03:11.534Z</time></trkpt><trkpt lat="42.2020411" lon="14.209398"><ele>414.66666666666663</ele><time>2026-05-01T12:03:13.54Z</time></trkpt><trkpt lat="42.2021429" lon="14.2094065"><ele>414.3333333333333</ele><time>2026-05-01T12:03:15.542Z</time></trkpt><trkpt lat="42.2022298" lon="14.2094434"><ele>414.0</ele><time>2026-05-01T12:03:17.547Z</time></trkpt><trkpt lat="42.202333" lon="14.2094938"><ele>413.4</ele><time>2026-05-01T12:03:19.529Z</time></trkpt><trkpt lat="42.2024285" lon="14.2095412"><ele>412.79999999999995</ele><time>2026-05-01T12:03:21.532Z</time></trkpt><trkpt lat="42.2025197" lon="14.2095729"><ele>412.20000000000005</ele><time>2026-05-01T12:03:23.541Z</time></trkpt><trkpt lat="42.2025996" lon="14.2095954"><ele>411.6</ele><time>2026-05-01T12:03:25.549Z</time></trkpt><trkpt lat="42.2027005" lon="14.2096059"><ele>411.0</ele><time>2026-05-01T12:03:27.546Z</time></trkpt><trkpt lat="42.2027939" lon="14.2096128"><ele>411.0</ele><time>2026-05-01T12:03:29.545Z</time></trkpt><trkpt lat="42.2029127" lon="14.2096549"><ele>411.0</ele><time>2026-05-01T12:03:31.539Z</time></trkpt><trkpt lat="42.2030179" lon="14.2097186"><ele>411.0</ele><time>2026-05-01T12:03:33.546Z</time></trkpt><trkpt lat="42.2031101" lon="14.2097633"><ele>411.0</ele><time>2026-05-01T12:03:35.553Z</time></trkpt><trkpt lat="42.2031938" lon="14.2097956"><ele>411.0</ele><time>2026-05-01T12:03:37.542Z</time></trkpt><trkpt lat="42.2032995" lon="14.2098106"><ele>410.6</ele><time>2026-05-01T12:03:39.536Z</time></trkpt><trkpt lat="42.2034075" lon="14.2098212"><ele>410.20000000000005</ele><time>2026-05-01T12:03:41.531Z</time></trkpt><trkpt lat="42.2035129" lon="14.2098371"><ele>409.79999999999995</ele><time>2026-05-01T12:03:43.539Z</time></trkpt><trkpt lat="42.203616" lon="14.2098502"><ele>409.4</ele><time>2026-05-01T12:03:45.535Z</time></trkpt><trkpt lat="42.2037023" lon="14.209855"><ele>409.0</ele><time>2026-05-01T12:03:47.533Z</time></trkpt><trkpt lat="42.2037782" lon="14.2098172"><ele>409.0</ele><time>2026-05-01T12:03:49.549Z</time></trkpt><trkpt lat="42.2038809" lon="14.2097672"><ele>409.0</ele><time>2026-05-01T12:03:51.537Z</time></trkpt><trkpt lat="42.2039658" lon="14.2096813"><ele>409.0</ele><time>2026-05-01T12:03:53.549Z</time></trkpt><trkpt lat="42.2040514" lon="14.2095756"><ele>409.0</ele><time>2026-05-01T12:03:55.55Z</time></trkpt><trkpt lat="42.2041094" lon="14.2095417"><ele>409.0</ele><time>2026-05-01T12:03:56.537Z</time></trkpt><trkpt lat="42.2042121" lon="14.2095411"><ele>408.2</ele><time>2026-05-01T12:03:58.539Z</time></trkpt><trkpt lat="42.2043095" lon="14.2095754"><ele>407.4</ele><time>2026-05-01T12:04:00.543Z</time></trkpt><trkpt lat="42.204401" lon="14.2096428"><ele>406.6</ele><time>2026-05-01T12:04:02.539Z</time></trkpt><trkpt lat="42.2044988" lon="14.2097161"><ele>405.8</ele><time>2026-05-01T12:04:04.54Z</time></trkpt><trkpt lat="42.2045664" lon="14.2097965"><ele>405.0</ele><time>2026-05-01T12:04:06.539Z</time></trkpt><trkpt lat="42.2046148" lon="14.209876"><ele>403.6</ele><time>2026-05-01T12:04:08.547Z</time></trkpt><trkpt lat="42.2046779" lon="14.209947"><ele>402.2</ele><time>2026-05-01T12:04:10.543Z</time></trkpt><trkpt lat="42.2047445" lon="14.2100374"><ele>400.79999999999995</ele><time>2026-05-01T12:04:12.554Z</time></trkpt><trkpt lat="42.204808" lon="14.2101224"><ele>399.4</ele><time>2026-05-01T12:04:14.536Z</time></trkpt><trkpt lat="42.2048838" lon="14.2102128"><ele>398.0</ele><time>2026-05-01T12:04:16.539Z</time></trkpt><trkpt lat="42.2049596" lon="14.2102954"><ele>398.0</ele><time>2026-05-01T12:04:18.547Z</time></trkpt><trkpt lat="42.2050609" lon="14.2103815"><ele>398.0</ele><time>2026-05-01T12:04:20.534Z</time></trkpt><trkpt lat="42.205126" lon="14.2104133"><ele>398.0</ele><time>2026-05-01T12:04:21.533Z</time></trkpt><trkpt lat="42.2052512" lon="14.2104118"><ele>398.0</ele><time>2026-05-01T12:04:23.534Z</time></trkpt><trkpt lat="42.2053398" lon="14.2103975"><ele>398.0</ele><time>2026-05-01T12:04:24.54Z</time></trkpt><trkpt lat="42.2054199" lon="14.2103965"><ele>398.0</ele><time>2026-05-01T12:04:25.538Z</time></trkpt><trkpt lat="42.2054813" lon="14.2104211"><ele>398.0</ele><time>2026-05-01T12:04:26.54Z</time></trkpt><trkpt lat="42.2055418" lon="14.210451"><ele>398.0</ele><time>2026-05-01T12:04:27.535Z</time></trkpt><trkpt lat="42.2056412" lon="14.2105593"><ele>398.0</ele><time>2026-05-01T12:04:29.529Z</time></trkpt><trkpt lat="42.2057383" lon="14.2106115"><ele>398.0</ele><time>2026-05-01T12:04:31.539Z</time></trkpt><trkpt lat="42.2058495" lon="14.2107047"><ele>395.3333333333333</ele><time>2026-05-01T12:04:33.548Z</time></trkpt><trkpt lat="42.205907" lon="14.2107807"><ele>392.66666666666663</ele><time>2026-05-01T12:04:34.546Z</time></trkpt><trkpt lat="42.205963" lon="14.2108426"><ele>390.0</ele><time>2026-05-01T12:04:35.553Z</time></trkpt><trkpt lat="42.2060196" lon="14.2108802"><ele>387.3333333333333</ele><time>2026-05-01T12:04:36.543Z</time></trkpt><trkpt lat="42.2061254" lon="14.2108927"><ele>384.66666666666663</ele><time>2026-05-01T12:04:38.552Z</time></trkpt><trkpt lat="42.2062166" lon="14.2108791"><ele>382.0</ele><time>2026-05-01T12:04:40.558Z</time></trkpt><trkpt lat="42.2063015" lon="14.2107892"><ele>382.0</ele><time>2026-05-01T12:04:42.554Z</time></trkpt><trkpt lat="42.2063721" lon="14.2106772"><ele>382.0</ele><time>2026-05-01T12:04:44.535Z</time></trkpt><trkpt lat="42.2064435" lon="14.2105788"><ele>382.0</ele><time>2026-05-01T12:04:46.544Z</time></trkpt><trkpt lat="42.2065562" lon="14.2105269"><ele>382.0</ele><time>2026-05-01T12:04:48.537Z</time></trkpt><trkpt lat="42.2066253" lon="14.2105187"><ele>382.0</ele><time>2026-05-01T12:04:49.538Z</time></trkpt><trkpt lat="42.2066903" lon="14.2105213"><ele>381.8333333333333</ele><time>2026-05-01T12:04:50.545Z</time></trkpt><trkpt lat="42.2067566" lon="14.2105649"><ele>381.66666666666663</ele><time>2026-05-01T12:04:51.532Z</time></trkpt><trkpt lat="42.2068193" lon="14.210624"><ele>381.5</ele><time>2026-05-01T12:04:52.534Z</time></trkpt><trkpt lat="42.2068792" lon="14.2106938"><ele>381.3333333333333</ele><time>2026-05-01T12:04:53.547Z</time></trkpt><trkpt lat="42.2069421" lon="14.2107611"><ele>381.1666666666667</ele><time>2026-05-01T12:04:54.543Z</time></trkpt><trkpt lat="42.2070216" lon="14.2108355"><ele>381.0</ele><time>2026-05-01T12:04:55.546Z</time></trkpt><trkpt lat="42.2070974" lon="14.2109145"><ele>381.0</ele><time>2026-05-01T12:04:56.544Z</time></trkpt><trkpt lat="42.20716" lon="14.2110011"><ele>381.0</ele><time>2026-05-01T12:04:57.546Z</time></trkpt><trkpt lat="42.207195" lon="14.2110825"><ele>381.0</ele><time>2026-05-01T12:04:58.542Z</time></trkpt><trkpt lat="42.2072733" lon="14.2111525"><ele>381.0</ele><time>2026-05-01T12:05:00.553Z</time></trkpt><trkpt lat="42.207384" lon="14.2111192"><ele>381.0</ele><time>2026-05-01T12:05:02.545Z</time></trkpt><trkpt lat="42.2074449" lon="14.211142"><ele>381.0</ele><time>2026-05-01T12:05:03.541Z</time></trkpt><trkpt lat="42.2075245" lon="14.211209"><ele>381.0</ele><time>2026-05-01T12:05:05.542Z</time></trkpt><trkpt lat="42.207616" lon="14.2112347"><ele>381.0</ele><time>2026-05-01T12:05:08.557Z</time></trkpt><trkpt lat="42.2076841" lon="14.2112195"><ele>381.0</ele><time>2026-05-01T12:05:10.551Z</time></trkpt><trkpt lat="42.207748" lon="14.2112259"><ele>381.0</ele><time>2026-05-01T12:05:12.553Z</time></trkpt><trkpt lat="42.2078145" lon="14.2112762"><ele>381.0</ele><time>2026-05-01T12:05:14.56Z</time></trkpt><trkpt lat="42.2078824" lon="14.211334"><ele>381.0</ele><time>2026-05-01T12:05:16.552Z</time></trkpt><trkpt lat="42.2079634" lon="14.2113738"><ele>381.0</ele><time>2026-05-01T12:05:18.56Z</time></trkpt><trkpt lat="42.208022" lon="14.2114059"><ele>381.0</ele><time>2026-05-01T12:05:20.555Z</time></trkpt><trkpt lat="42.2081307" lon="14.211466"><ele>381.0</ele><time>2026-05-01T12:05:22.551Z</time></trkpt><trkpt lat="42.2081973" lon="14.2115076"><ele>381.0</ele><time>2026-05-01T12:05:23.538Z</time></trkpt><trkpt lat="42.2082691" lon="14.2115412"><ele>381.0</ele><time>2026-05-01T12:05:24.549Z</time></trkpt><trkpt lat="42.2083349" lon="14.2115734"><ele>381.0</ele><time>2026-05-01T12:05:25.545Z</time></trkpt><trkpt lat="42.2084445" lon="14.2116106"><ele>379.0</ele><time>2026-05-01T12:05:27.54Z</time></trkpt><trkpt lat="42.2085472" lon="14.2115856"><ele>377.0</ele><time>2026-05-01T12:05:29.532Z</time></trkpt><trkpt lat="42.2086805" lon="14.2115651"><ele>375.0</ele><time>2026-05-01T12:05:31.547Z</time></trkpt><trkpt lat="42.2087474" lon="14.2115881"><ele>373.0</ele><time>2026-05-01T12:05:32.543Z</time></trkpt><trkpt lat="42.2088091" lon="14.2116348"><ele>371.0</ele><time>2026-05-01T12:05:33.542Z</time></trkpt><trkpt lat="42.2088706" lon="14.2116889"><ele>371.0</ele><time>2026-05-01T12:05:34.544Z</time></trkpt><trkpt lat="42.2089314" lon="14.2118405"><ele>371.0</ele><time>2026-05-01T12:05:36.544Z</time></trkpt><trkpt lat="42.2090113" lon="14.2119654"><ele>371.0</ele><time>2026-05-01T12:05:38.533Z</time></trkpt><trkpt lat="42.2090689" lon="14.2120044"><ele>371.0</ele><time>2026-05-01T12:05:39.535Z</time></trkpt><trkpt lat="42.2091397" lon="14.2120474"><ele>371.0</ele><time>2026-05-01T12:05:40.538Z</time></trkpt><trkpt lat="42.2092279" lon="14.2120837"><ele>370.83333333333337</ele><time>2026-05-01T12:05:41.549Z</time></trkpt><trkpt lat="42.2093177" lon="14.2121182"><ele>370.6666666666667</ele><time>2026-05-01T12:05:42.622Z</time></trkpt><trkpt lat="42.2094023" lon="14.2121574"><ele>370.5</ele><time>2026-05-01T12:05:43.622Z</time></trkpt><trkpt lat="42.2094799" lon="14.2121902"><ele>370.3333333333333</ele><time>2026-05-01T12:05:44.615Z</time></trkpt><trkpt lat="42.2095532" lon="14.2122185"><ele>370.16666666666663</ele><time>2026-05-01T12:05:45.621Z</time></trkpt><trkpt lat="42.2096324" lon="14.2122424"><ele>370.0</ele><time>2026-05-01T12:05:46.617Z</time></trkpt><trkpt lat="42.2096925" lon="14.212274"><ele>370.0</ele><time>2026-05-01T12:05:47.617Z</time></trkpt><trkpt lat="42.2097929" lon="14.2122912"><ele>370.0</ele><time>2026-05-01T12:05:49.601Z</time></trkpt><trkpt lat="42.2098582" lon="14.2122619"><ele>370.0</ele><time>2026-05-01T12:05:51.603Z</time></trkpt><trkpt lat="42.2099233" lon="14.2122641"><ele>370.0</ele><time>2026-05-01T12:05:55.648Z</time></trkpt><trkpt lat="42.2099712" lon="14.2123772"><ele>370.0</ele><time>2026-05-01T12:05:59.552Z</time></trkpt><trkpt lat="42.2099607" lon="14.2125176"><ele>370.0</ele><time>2026-05-01T12:06:01.54Z</time></trkpt><trkpt lat="42.2099331" lon="14.2125979"><ele>369.3333333333333</ele><time>2026-05-01T12:06:02.529Z</time></trkpt><trkpt lat="42.2098903" lon="14.2126741"><ele>368.66666666666663</ele><time>2026-05-01T12:06:03.521Z</time></trkpt><trkpt lat="42.2098394" lon="14.2127367"><ele>368.0</ele><time>2026-05-01T12:06:04.529Z</time></trkpt><trkpt lat="42.2097697" lon="14.2127815"><ele>367.3333333333333</ele><time>2026-05-01T12:06:05.534Z</time></trkpt><trkpt lat="42.2097121" lon="14.212816"><ele>366.6666666666667</ele><time>2026-05-01T12:06:06.534Z</time></trkpt><trkpt lat="42.209631" lon="14.2128747"><ele>366.0</ele><time>2026-05-01T12:06:08.533Z</time></trkpt><trkpt lat="42.209594" lon="14.2130371"><ele>365.3333333333333</ele><time>2026-05-01T12:06:10.537Z</time></trkpt><trkpt lat="42.2096179" lon="14.2131637"><ele>364.6666666666667</ele><time>2026-05-01T12:06:11.523Z</time></trkpt><trkpt lat="42.209643" lon="14.2132762"><ele>364.0</ele><time>2026-05-01T12:06:12.528Z</time></trkpt><trkpt lat="42.2096948" lon="14.2133809"><ele>363.33333333333337</ele><time>2026-05-01T12:06:13.529Z</time></trkpt><trkpt lat="42.2097433" lon="14.2134787"><ele>362.6666666666667</ele><time>2026-05-01T12:06:14.521Z</time></trkpt><trkpt lat="42.2097749" lon="14.2135832"><ele>362.0</ele><time>2026-05-01T12:06:15.527Z</time></trkpt><trkpt lat="42.2098096" lon="14.2137"><ele>361.33333333333337</ele><time>2026-05-01T12:06:16.526Z</time></trkpt><trkpt lat="42.2098294" lon="14.2138106"><ele>360.6666666666667</ele><time>2026-05-01T12:06:17.528Z</time></trkpt><trkpt lat="42.2098449" lon="14.2139114"><ele>360.0</ele><time>2026-05-01T12:06:18.537Z</time></trkpt><trkpt lat="42.209863" lon="14.2140236"><ele>359.3333333333333</ele><time>2026-05-01T12:06:19.528Z</time></trkpt><trkpt lat="42.2098827" lon="14.2141337"><ele>358.66666666666663</ele><time>2026-05-01T12:06:20.529Z</time></trkpt><trkpt lat="42.2099259" lon="14.2142355"><ele>358.0</ele><time>2026-05-01T12:06:21.53Z</time></trkpt><trkpt lat="42.2099901" lon="14.2143141"><ele>358.0</ele><time>2026-05-01T12:06:22.527Z</time></trkpt><trkpt lat="42.2100676" lon="14.2143608"><ele>358.0</ele><time>2026-05-01T12:06:23.535Z</time></trkpt><trkpt lat="42.2101485" lon="14.2144141"><ele>358.0</ele><time>2026-05-01T12:06:24.535Z</time></trkpt><trkpt lat="42.2102092" lon="14.2144818"><ele>358.0</ele><time>2026-05-01T12:06:25.534Z</time></trkpt><trkpt lat="42.2102493" lon="14.2145555"><ele>358.0</ele><time>2026-05-01T12:06:26.543Z</time></trkpt><trkpt lat="42.2102683" lon="14.2146881"><ele>358.0</ele><time>2026-05-01T12:06:28.534Z</time></trkpt><trkpt lat="42.2102492" lon="14.2148015"><ele>359.79999999999995</ele><time>2026-05-01T12:06:31.541Z</time></trkpt><trkpt lat="42.2102631" lon="14.2148923"><ele>361.6</ele><time>2026-05-01T12:06:33.534Z</time></trkpt><trkpt lat="42.2102021" lon="14.2149764"><ele>363.4</ele><time>2026-05-01T12:06:53.537Z</time></trkpt><trkpt lat="42.2100809" lon="14.2149811"><ele>365.20000000000005</ele><time>2026-05-01T12:06:55.522Z</time></trkpt><trkpt lat="42.2099952" lon="14.2149781"><ele>367.0</ele><time>2026-05-01T12:07:02.549Z</time></trkpt><trkpt lat="42.2099033" lon="14.2149735"><ele>368.8333333333333</ele><time>2026-05-01T12:07:04.546Z</time></trkpt><trkpt lat="42.2098216" lon="14.2149603"><ele>370.66666666666663</ele><time>2026-05-01T12:07:05.539Z</time></trkpt><trkpt lat="42.2097449" lon="14.2149457"><ele>372.5</ele><time>2026-05-01T12:07:06.538Z</time></trkpt><trkpt lat="42.2096816" lon="14.2149291"><ele>374.3333333333333</ele><time>2026-05-01T12:07:07.536Z</time></trkpt><trkpt lat="42.2096167" lon="14.2149256"><ele>376.1666666666667</ele><time>2026-05-01T12:07:08.54Z</time></trkpt><trkpt lat="42.2095518" lon="14.214914"><ele>378.0</ele><time>2026-05-01T12:07:09.537Z</time></trkpt><trkpt lat="42.2094545" lon="14.2149124"><ele>378.0</ele><time>2026-05-01T12:07:11.538Z</time></trkpt><trkpt lat="42.2093379" lon="14.2149103"><ele>378.0</ele><time>2026-05-01T12:07:13.538Z</time></trkpt><trkpt lat="42.2092741" lon="14.2149107"><ele>378.0</ele><time>2026-05-01T12:07:14.535Z</time></trkpt><trkpt lat="42.2091624" lon="14.2148919"><ele>378.0</ele><time>2026-05-01T12:07:16.539Z</time></trkpt><trkpt lat="42.2090959" lon="14.2148791"><ele>378.0</ele><time>2026-05-01T12:07:17.535Z</time></trkpt><trkpt lat="42.2090352" lon="14.2148493"><ele>378.0</ele><time>2026-05-01T12:07:18.53Z</time></trkpt><trkpt lat="42.2089507" lon="14.2147948"><ele>379.0</ele><time>2026-05-01T12:07:20.53Z</time></trkpt><trkpt lat="42.208884" lon="14.2146937"><ele>380.0</ele><time>2026-05-01T12:07:22.532Z</time></trkpt><trkpt lat="42.2088559" lon="14.214566"><ele>381.0</ele><time>2026-05-01T12:07:24.538Z</time></trkpt><trkpt lat="42.2088413" lon="14.2144418"><ele>382.0</ele><time>2026-05-01T12:07:26.539Z</time></trkpt><trkpt lat="42.2088331" lon="14.214343"><ele>383.0</ele><time>2026-05-01T12:07:28.547Z</time></trkpt><trkpt lat="42.2088315" lon="14.2142362"><ele>384.0</ele><time>2026-05-01T12:07:30.541Z</time></trkpt><trkpt lat="42.2088315" lon="14.2141084"><ele>384.0</ele><time>2026-05-01T12:07:32.534Z</time></trkpt><trkpt lat="42.2088189" lon="14.2139989"><ele>384.0</ele><time>2026-05-01T12:07:34.538Z</time></trkpt><trkpt lat="42.2087547" lon="14.2138993"><ele>384.0</ele><time>2026-05-01T12:07:36.538Z</time></trkpt><trkpt lat="42.2086624" lon="14.2138023"><ele>384.0</ele><time>2026-05-01T12:07:38.534Z</time></trkpt><trkpt lat="42.2086056" lon="14.2137644"><ele>384.0</ele><time>2026-05-01T12:07:39.531Z</time></trkpt><trkpt lat="42.2085519" lon="14.2137099"><ele>384.0</ele><time>2026-05-01T12:07:40.531Z</time></trkpt><trkpt lat="42.2084958" lon="14.2136546"><ele>382.79999999999995</ele><time>2026-05-01T12:07:41.536Z</time></trkpt><trkpt lat="42.2084373" lon="14.2135992"><ele>381.59999999999997</ele><time>2026-05-01T12:07:42.534Z</time></trkpt><trkpt lat="42.208389" lon="14.2135302"><ele>380.4</ele><time>2026-05-01T12:07:43.528Z</time></trkpt><trkpt lat="42.2083222" lon="14.2134292"><ele>379.2</ele><time>2026-05-01T12:07:45.534Z</time></trkpt><trkpt lat="42.2082298" lon="14.2133406"><ele>378.0</ele><time>2026-05-01T12:07:47.525Z</time></trkpt><trkpt lat="42.2081335" lon="14.2132999"><ele>379.85714285714283</ele><time>2026-05-01T12:07:49.535Z</time></trkpt><trkpt lat="42.2080603" lon="14.2132911"><ele>381.7142857142857</ele><time>2026-05-01T12:07:51.542Z</time></trkpt><trkpt lat="42.2079588" lon="14.2132876"><ele>383.57142857142856</ele><time>2026-05-01T12:07:53.533Z</time></trkpt><trkpt lat="42.2078919" lon="14.2132918"><ele>385.42857142857144</ele><time>2026-05-01T12:07:54.538Z</time></trkpt><trkpt lat="42.2078262" lon="14.2132977"><ele>387.2857142857143</ele><time>2026-05-01T12:07:55.531Z</time></trkpt><trkpt lat="42.2077585" lon="14.2133101"><ele>389.1428571428571</ele><time>2026-05-01T12:07:56.524Z</time></trkpt><trkpt lat="42.2076946" lon="14.2132978"><ele>391.0</ele><time>2026-05-01T12:07:57.523Z</time></trkpt><trkpt lat="42.2076328" lon="14.2132644"><ele>391.00000000000006</ele><time>2026-05-01T12:07:58.522Z</time></trkpt><trkpt lat="42.2075671" lon="14.2132214"><ele>391.0</ele><time>2026-05-01T12:07:59.538Z</time></trkpt><trkpt lat="42.2075054" lon="14.2131877"><ele>391.0</ele><time>2026-05-01T12:08:00.525Z</time></trkpt><trkpt lat="42.2074403" lon="14.2131831"><ele>391.0</ele><time>2026-05-01T12:08:01.514Z</time></trkpt><trkpt lat="42.2073677" lon="14.2131883"><ele>391.00000000000006</ele><time>2026-05-01T12:08:02.527Z</time></trkpt><trkpt lat="42.2072756" lon="14.2132068"><ele>391.0</ele><time>2026-05-01T12:08:04.523Z</time></trkpt><trkpt lat="42.2071932" lon="14.2132407"><ele>393.20000000000005</ele><time>2026-05-01T12:08:06.533Z</time></trkpt><trkpt lat="42.2071112" lon="14.2133268"><ele>395.40000000000003</ele><time>2026-05-01T12:08:08.532Z</time></trkpt><trkpt lat="42.2070069" lon="14.2133506"><ele>397.6</ele><time>2026-05-01T12:08:10.525Z</time></trkpt><trkpt lat="42.206881" lon="14.2133424"><ele>399.8</ele><time>2026-05-01T12:08:12.525Z</time></trkpt><trkpt lat="42.2068151" lon="14.2133367"><ele>402.0</ele><time>2026-05-01T12:08:13.526Z</time></trkpt><trkpt lat="42.2067491" lon="14.2133573"><ele>402.0</ele><time>2026-05-01T12:08:14.523Z</time></trkpt><trkpt lat="42.2066778" lon="14.213396"><ele>402.0</ele><time>2026-05-01T12:08:15.53Z</time></trkpt><trkpt lat="42.206611" lon="14.2134297"><ele>402.0</ele><time>2026-05-01T12:08:16.525Z</time></trkpt><trkpt lat="42.2064868" lon="14.2134762"><ele>402.0</ele><time>2026-05-01T12:08:18.523Z</time></trkpt><trkpt lat="42.20637" lon="14.2134774"><ele>402.0</ele><time>2026-05-01T12:08:20.524Z</time></trkpt><trkpt lat="42.2062599" lon="14.2134366"><ele>403.3333333333333</ele><time>2026-05-01T12:08:22.536Z</time></trkpt><trkpt lat="42.2061681" lon="14.2134036"><ele>404.66666666666663</ele><time>2026-05-01T12:08:24.534Z</time></trkpt><trkpt lat="42.206101" lon="14.2134093"><ele>406.0</ele><time>2026-05-01T12:08:25.53Z</time></trkpt><trkpt lat="42.2060242" lon="14.213432"><ele>407.3333333333333</ele><time>2026-05-01T12:08:26.539Z</time></trkpt><trkpt lat="42.2059405" lon="14.213456"><ele>408.66666666666663</ele><time>2026-05-01T12:08:27.537Z</time></trkpt><trkpt lat="42.2058644" lon="14.2134701"><ele>410.0</ele><time>2026-05-01T12:08:28.537Z</time></trkpt><trkpt lat="42.2057834" lon="14.2134753"><ele>410.0</ele><time>2026-05-01T12:08:29.533Z</time></trkpt><trkpt lat="42.2056825" lon="14.2134616"><ele>410.0</ele><time>2026-05-01T12:08:31.533Z</time></trkpt><trkpt lat="42.2055794" lon="14.213444"><ele>410.0</ele><time>2026-05-01T12:08:33.529Z</time></trkpt><trkpt lat="42.2055043" lon="14.2134296"><ele>410.0</ele><time>2026-05-01T12:08:35.541Z</time></trkpt><trkpt lat="42.2053872" lon="14.213421"><ele>410.0</ele><time>2026-05-01T12:08:37.523Z</time></trkpt><trkpt lat="42.2053173" lon="14.2134288"><ele>411.0</ele><time>2026-05-01T12:08:38.535Z</time></trkpt><trkpt lat="42.2052543" lon="14.213436"><ele>412.0</ele><time>2026-05-01T12:08:39.531Z</time></trkpt><trkpt lat="42.2051383" lon="14.2134384"><ele>413.0</ele><time>2026-05-01T12:08:41.528Z</time></trkpt><trkpt lat="42.2050263" lon="14.2134344"><ele>414.0</ele><time>2026-05-01T12:08:43.53Z</time></trkpt><trkpt lat="42.2049292" lon="14.2134184"><ele>415.0</ele><time>2026-05-01T12:08:45.533Z</time></trkpt><trkpt lat="42.2048397" lon="14.2134028"><ele>416.4</ele><time>2026-05-01T12:08:47.537Z</time></trkpt><trkpt lat="42.2047376" lon="14.2134342"><ele>417.8</ele><time>2026-05-01T12:08:49.536Z</time></trkpt><trkpt lat="42.2046114" lon="14.2134851"><ele>419.20000000000005</ele><time>2026-05-01T12:08:51.533Z</time></trkpt><trkpt lat="42.204551" lon="14.2135118"><ele>420.6</ele><time>2026-05-01T12:08:52.534Z</time></trkpt><trkpt lat="42.2044499" lon="14.2135491"><ele>422.0</ele><time>2026-05-01T12:08:54.531Z</time></trkpt><trkpt lat="42.2043863" lon="14.2135553"><ele>421.99999999999994</ele><time>2026-05-01T12:08:55.531Z</time></trkpt><trkpt lat="42.2042887" lon="14.2135599"><ele>422.0</ele><time>2026-05-01T12:08:57.534Z</time></trkpt><trkpt lat="42.2042077" lon="14.2135387"><ele>422.0</ele><time>2026-05-01T12:08:59.536Z</time></trkpt><trkpt lat="42.2040927" lon="14.2135504"><ele>422.0</ele><time>2026-05-01T12:09:01.52Z</time></trkpt><trkpt lat="42.204026" lon="14.2135377"><ele>421.99999999999994</ele><time>2026-05-01T12:09:02.521Z</time></trkpt><trkpt lat="42.203954" lon="14.2135259"><ele>422.0</ele><time>2026-05-01T12:09:03.514Z</time></trkpt><trkpt lat="42.2038764" lon="14.2135229"><ele>423.49999999999994</ele><time>2026-05-01T12:09:04.521Z</time></trkpt><trkpt lat="42.2037984" lon="14.2135416"><ele>425.0</ele><time>2026-05-01T12:09:05.522Z</time></trkpt><trkpt lat="42.203717" lon="14.2135538"><ele>426.5</ele><time>2026-05-01T12:09:06.52Z</time></trkpt><trkpt lat="42.2036324" lon="14.2135663"><ele>428.0</ele><time>2026-05-01T12:09:07.513Z</time></trkpt><trkpt lat="42.2035519" lon="14.2135719"><ele>429.49999999999994</ele><time>2026-05-01T12:09:08.517Z</time></trkpt><trkpt lat="42.2034735" lon="14.2135632"><ele>431.0</ele><time>2026-05-01T12:09:09.511Z</time></trkpt><trkpt lat="42.2033905" lon="14.2135367"><ele>431.0</ele><time>2026-05-01T12:09:10.509Z</time></trkpt><trkpt lat="42.2033002" lon="14.2135157"><ele>431.0</ele><time>2026-05-01T12:09:11.512Z</time></trkpt><trkpt lat="42.2032097" lon="14.213497"><ele>431.0</ele><time>2026-05-01T12:09:12.513Z</time></trkpt><trkpt lat="42.2031215" lon="14.2135087"><ele>431.0</ele><time>2026-05-01T12:09:13.518Z</time></trkpt><trkpt lat="42.2030226" lon="14.2135218"><ele>431.0</ele><time>2026-05-01T12:09:14.519Z</time></trkpt><trkpt lat="42.2029333" lon="14.2135339"><ele>432.49999999999994</ele><time>2026-05-01T12:09:15.523Z</time></trkpt><trkpt lat="42.2028425" lon="14.2135431"><ele>434.0</ele><time>2026-05-01T12:09:16.518Z</time></trkpt><trkpt lat="42.2027605" lon="14.2135402"><ele>435.5</ele><time>2026-05-01T12:09:17.52Z</time></trkpt><trkpt lat="42.20269" lon="14.2135175"><ele>437.0</ele><time>2026-05-01T12:09:18.522Z</time></trkpt><trkpt lat="42.2026157" lon="14.2135044"><ele>438.49999999999994</ele><time>2026-05-01T12:09:19.521Z</time></trkpt><trkpt lat="42.2025372" lon="14.2134929"><ele>440.0</ele><time>2026-05-01T12:09:20.515Z</time></trkpt><trkpt lat="42.2024579" lon="14.213474"><ele>439.99999999999994</ele><time>2026-05-01T12:09:21.52Z</time></trkpt><trkpt lat="42.2023766" lon="14.2134612"><ele>440.0</ele><time>2026-05-01T12:09:22.517Z</time></trkpt><trkpt lat="42.2023026" lon="14.2134549"><ele>440.0</ele><time>2026-05-01T12:09:23.519Z</time></trkpt><trkpt lat="42.2022307" lon="14.2134467"><ele>440.0</ele><time>2026-05-01T12:09:24.521Z</time></trkpt><trkpt lat="42.2021667" lon="14.2134441"><ele>440.0</ele><time>2026-05-01T12:09:25.523Z</time></trkpt><trkpt lat="42.2020983" lon="14.2134586"><ele>439.99999999999994</ele><time>2026-05-01T12:09:26.52Z</time></trkpt><trkpt lat="42.2020249" lon="14.2134745"><ele>440.0</ele><time>2026-05-01T12:09:27.511Z</time></trkpt><trkpt lat="42.2019547" lon="14.2134986"><ele>442.3333333333333</ele><time>2026-05-01T12:09:28.518Z</time></trkpt><trkpt lat="42.2018373" lon="14.2135359"><ele>444.66666666666663</ele><time>2026-05-01T12:09:30.513Z</time></trkpt><trkpt lat="42.2017685" lon="14.2135528"><ele>447.0</ele><time>2026-05-01T12:09:31.517Z</time></trkpt><trkpt lat="42.201696" lon="14.2135729"><ele>449.33333333333337</ele><time>2026-05-01T12:09:32.504Z</time></trkpt><trkpt lat="42.2016138" lon="14.2135891"><ele>451.6666666666667</ele><time>2026-05-01T12:09:33.506Z</time></trkpt><trkpt lat="42.2015364" lon="14.213592"><ele>454.0</ele><time>2026-05-01T12:09:34.507Z</time></trkpt><trkpt lat="42.2014593" lon="14.2135965"><ele>455.6666666666667</ele><time>2026-05-01T12:09:35.505Z</time></trkpt><trkpt lat="42.2013879" lon="14.2136122"><ele>457.33333333333337</ele><time>2026-05-01T12:09:36.505Z</time></trkpt><trkpt lat="42.2013039" lon="14.2136047"><ele>459.0</ele><time>2026-05-01T12:09:37.509Z</time></trkpt><trkpt lat="42.2012125" lon="14.2135988"><ele>460.66666666666663</ele><time>2026-05-01T12:09:38.505Z</time></trkpt><trkpt lat="42.2011278" lon="14.2135791"><ele>462.3333333333333</ele><time>2026-05-01T12:09:39.506Z</time></trkpt><trkpt lat="42.2010389" lon="14.2135484"><ele>464.0</ele><time>2026-05-01T12:09:40.507Z</time></trkpt><trkpt lat="42.2009488" lon="14.2135308"><ele>464.0</ele><time>2026-05-01T12:09:41.509Z</time></trkpt><trkpt lat="42.2008673" lon="14.2135014"><ele>464.0</ele><time>2026-05-01T12:09:42.502Z</time></trkpt><trkpt lat="42.2007874" lon="14.2134761"><ele>464.0</ele><time>2026-05-01T12:09:43.508Z</time></trkpt><trkpt lat="42.2007213" lon="14.2134594"><ele>464.0</ele><time>2026-05-01T12:09:44.509Z</time></trkpt><trkpt lat="42.2006114" lon="14.2134413"><ele>464.0</ele><time>2026-05-01T12:09:46.519Z</time></trkpt><trkpt lat="42.2004882" lon="14.2134586"><ele>463.79999999999995</ele><time>2026-05-01T12:09:48.525Z</time></trkpt><trkpt lat="42.2004253" lon="14.2134744"><ele>463.59999999999997</ele><time>2026-05-01T12:09:49.516Z</time></trkpt><trkpt lat="42.2003072" lon="14.2134484"><ele>463.4</ele><time>2026-05-01T12:09:51.515Z</time></trkpt><trkpt lat="42.2002464" lon="14.2134253"><ele>463.2</ele><time>2026-05-01T12:09:52.511Z</time></trkpt><trkpt lat="42.20013" lon="14.2134202"><ele>463.0</ele><time>2026-05-01T12:09:54.529Z</time></trkpt><trkpt lat="42.200018" lon="14.2134368"><ele>463.0</ele><time>2026-05-01T12:09:56.53Z</time></trkpt><trkpt lat="42.1998903" lon="14.2134988"><ele>462.99999999999994</ele><time>2026-05-01T12:09:58.518Z</time></trkpt><trkpt lat="42.1998237" lon="14.2135458"><ele>462.99999999999994</ele><time>2026-05-01T12:09:59.52Z</time></trkpt><trkpt lat="42.1997525" lon="14.2136106"><ele>463.0</ele><time>2026-05-01T12:10:00.519Z</time></trkpt><trkpt lat="42.1996832" lon="14.213684"><ele>463.0</ele><time>2026-05-01T12:10:01.522Z</time></trkpt><trkpt lat="42.1996172" lon="14.2137478"><ele>464.33333333333337</ele><time>2026-05-01T12:10:02.533Z</time></trkpt><trkpt lat="42.1995523" lon="14.2138163"><ele>465.6666666666667</ele><time>2026-05-01T12:10:03.514Z</time></trkpt><trkpt lat="42.1994999" lon="14.2138786"><ele>467.0</ele><time>2026-05-01T12:10:04.515Z</time></trkpt><trkpt lat="42.1993917" lon="14.2139607"><ele>468.33333333333337</ele><time>2026-05-01T12:10:06.518Z</time></trkpt><trkpt lat="42.1993209" lon="14.2140042"><ele>469.6666666666667</ele><time>2026-05-01T12:10:07.519Z</time></trkpt><trkpt lat="42.1992417" lon="14.2140462"><ele>471.0</ele><time>2026-05-01T12:10:08.521Z</time></trkpt><trkpt lat="42.1991666" lon="14.2141012"><ele>471.0</ele><time>2026-05-01T12:10:09.52Z</time></trkpt><trkpt lat="42.1990967" lon="14.2141813"><ele>471.0</ele><time>2026-05-01T12:10:10.524Z</time></trkpt><trkpt lat="42.1990311" lon="14.2142633"><ele>471.0</ele><time>2026-05-01T12:10:11.521Z</time></trkpt><trkpt lat="42.1989598" lon="14.2143393"><ele>471.0</ele><time>2026-05-01T12:10:12.52Z</time></trkpt><trkpt lat="42.1988998" lon="14.2144028"><ele>471.0</ele><time>2026-05-01T12:10:13.513Z</time></trkpt><trkpt lat="42.1988219" lon="14.214497"><ele>470.8333333333333</ele><time>2026-05-01T12:10:15.524Z</time></trkpt><trkpt lat="42.1987776" lon="14.2145863"><ele>470.66666666666663</ele><time>2026-05-01T12:11:06.561Z</time></trkpt><trkpt lat="42.1987336" lon="14.2146836"><ele>470.5</ele><time>2026-05-01T12:11:18.563Z</time></trkpt><trkpt lat="42.1986962" lon="14.2147683"><ele>470.3333333333333</ele><time>2026-05-01T12:11:22.556Z</time></trkpt><trkpt lat="42.1986233" lon="14.2148394"><ele>470.16666666666663</ele><time>2026-05-01T12:11:25.563Z</time></trkpt><trkpt lat="42.1985566" lon="14.2149037"><ele>470.0</ele><time>2026-05-01T12:13:12.549Z</time></trkpt><trkpt lat="42.198508" lon="14.2149964"><ele>470.0</ele><time>2026-05-01T12:13:15.547Z</time></trkpt><trkpt lat="42.1984603" lon="14.2150554"><ele>469.99999999999994</ele><time>2026-05-01T12:13:19.551Z</time></trkpt><trkpt lat="42.1984142" lon="14.2151244"><ele>470.0</ele><time>2026-05-01T12:13:39.557Z</time></trkpt><trkpt lat="42.1983322" lon="14.2151564"><ele>470.0</ele><time>2026-05-01T12:20:22.544Z</time></trkpt><trkpt lat="42.1982689" lon="14.2151774"><ele>469.99999999999994</ele><time>2026-05-01T12:20:24.544Z</time></trkpt><trkpt lat="42.1981993" lon="14.2151921"><ele>470.0</ele><time>2026-05-01T12:20:30.548Z</time></trkpt><trkpt lat="42.1981358" lon="14.2152241"><ele>470.0</ele><time>2026-05-01T12:23:17.542Z</time></trkpt><trkpt lat="42.19808" lon="14.2153367"><ele>470.85714285714283</ele><time>2026-05-01T12:25:15.538Z</time></trkpt><trkpt lat="42.1980379" lon="14.2154471"><ele>471.71428571428567</ele><time>2026-05-01T12:25:17.536Z</time></trkpt><trkpt lat="42.1980504" lon="14.2155392"><ele>472.57142857142856</ele><time>2026-05-01T12:25:20.536Z</time></trkpt><trkpt lat="42.1980575" lon="14.215633"><ele>473.42857142857144</ele><time>2026-05-01T12:25:25.536Z</time></trkpt><trkpt lat="42.1980695" lon="14.2157226"><ele>474.2857142857143</ele><time>2026-05-01T12:26:42.536Z</time></trkpt><trkpt lat="42.198068" lon="14.2158256"><ele>475.1428571428571</ele><time>2026-05-01T12:26:45.533Z</time></trkpt><trkpt lat="42.1980357" lon="14.2158995"><ele>476.0</ele><time>2026-05-01T12:26:47.529Z</time></trkpt><trkpt lat="42.1979874" lon="14.2159749"><ele>476.0</ele><time>2026-05-01T12:26:49.537Z</time></trkpt><trkpt lat="42.1979023" lon="14.2160602"><ele>476.0</ele><time>2026-05-01T12:26:51.524Z</time></trkpt><trkpt lat="42.1978565" lon="14.2161205"><ele>476.0</ele><time>2026-05-01T12:26:52.514Z</time></trkpt><trkpt lat="42.1977675" lon="14.2162014"><ele>476.0</ele><time>2026-05-01T12:26:54.512Z</time></trkpt><trkpt lat="42.1976726" lon="14.2163202"><ele>476.0</ele><time>2026-05-01T12:26:56.515Z</time></trkpt><trkpt lat="42.1976122" lon="14.2163866"><ele>476.0</ele><time>2026-05-01T12:26:57.513Z</time></trkpt><trkpt lat="42.1975654" lon="14.2164643"><ele>476.0</ele><time>2026-05-01T12:26:58.518Z</time></trkpt><trkpt lat="42.1975298" lon="14.2165495"><ele>476.0</ele><time>2026-05-01T12:27:00.534Z</time></trkpt><trkpt lat="42.1975556" lon="14.2166607"><ele>476.0</ele><time>2026-05-01T12:29:41.546Z</time></trkpt><trkpt lat="42.1975237" lon="14.2167423"><ele>476.0</ele><time>2026-05-01T12:31:24.544Z</time></trkpt><trkpt lat="42.197499" lon="14.2168336"><ele>476.0</ele><time>2026-05-01T12:31:26.547Z</time></trkpt><trkpt lat="42.1974656" lon="14.2169163"><ele>476.0</ele><time>2026-05-01T12:31:28.541Z</time></trkpt><trkpt lat="42.1974148" lon="14.216995"><ele>479.6</ele><time>2026-05-01T12:31:30.544Z</time></trkpt><trkpt lat="42.1972992" lon="14.217056"><ele>483.20000000000005</ele><time>2026-05-01T12:31:32.524Z</time></trkpt><trkpt lat="42.1972191" lon="14.2170722"><ele>486.79999999999995</ele><time>2026-05-01T12:31:33.527Z</time></trkpt><trkpt lat="42.1971327" lon="14.2170755"><ele>490.4</ele><time>2026-05-01T12:31:34.529Z</time></trkpt><trkpt lat="42.197043" lon="14.2170863"><ele>494.0</ele><time>2026-05-01T12:31:35.532Z</time></trkpt><trkpt lat="42.1969416" lon="14.217119"><ele>494.0</ele><time>2026-05-01T12:31:36.523Z</time></trkpt><trkpt lat="42.1968341" lon="14.2171557"><ele>494.0</ele><time>2026-05-01T12:31:37.527Z</time></trkpt><trkpt lat="42.1967325" lon="14.2171959"><ele>494.0</ele><time>2026-05-01T12:31:38.544Z</time></trkpt><trkpt lat="42.1966342" lon="14.2172335"><ele>494.0</ele><time>2026-05-01T12:31:39.609Z</time></trkpt><trkpt lat="42.196533" lon="14.2172709"><ele>494.0</ele><time>2026-05-01T12:31:40.626Z</time></trkpt><trkpt lat="42.196439" lon="14.2173075"><ele>496.66666666666663</ele><time>2026-05-01T12:31:41.606Z</time></trkpt><trkpt lat="42.1963613" lon="14.2173409"><ele>499.3333333333333</ele><time>2026-05-01T12:31:42.61Z</time></trkpt><trkpt lat="42.1962842" lon="14.2173762"><ele>502.0</ele><time>2026-05-01T12:31:43.608Z</time></trkpt><trkpt lat="42.1962047" lon="14.2174188"><ele>504.66666666666663</ele><time>2026-05-01T12:31:44.613Z</time></trkpt><trkpt lat="42.1961203" lon="14.217458"><ele>507.3333333333333</ele><time>2026-05-01T12:31:45.61Z</time></trkpt><trkpt lat="42.1960269" lon="14.2174933"><ele>510.0</ele><time>2026-05-01T12:31:46.608Z</time></trkpt><trkpt lat="42.1959258" lon="14.2175237"><ele>510.0</ele><time>2026-05-01T12:31:47.61Z</time></trkpt><trkpt lat="42.1958283" lon="14.2175531"><ele>510.0</ele><time>2026-05-01T12:31:48.608Z</time></trkpt><trkpt lat="42.195725" lon="14.2175872"><ele>510.0</ele><time>2026-05-01T12:31:49.606Z</time></trkpt><trkpt lat="42.1956134" lon="14.2176105"><ele>510.0</ele><time>2026-05-01T12:31:50.615Z</time></trkpt><trkpt lat="42.1955125" lon="14.217651"><ele>510.0</ele><time>2026-05-01T12:31:51.602Z</time></trkpt><trkpt lat="42.1954215" lon="14.2176988"><ele>510.6666666666667</ele><time>2026-05-01T12:31:52.601Z</time></trkpt><trkpt lat="42.19534" lon="14.2177575"><ele>511.33333333333337</ele><time>2026-05-01T12:31:53.599Z</time></trkpt><trkpt lat="42.1952711" lon="14.2178222"><ele>512.0</ele><time>2026-05-01T12:31:54.587Z</time></trkpt><trkpt lat="42.1952121" lon="14.2178866"><ele>512.6666666666667</ele><time>2026-05-01T12:31:55.597Z</time></trkpt><trkpt lat="42.1951531" lon="14.2179568"><ele>513.3333333333334</ele><time>2026-05-01T12:31:56.596Z</time></trkpt><trkpt lat="42.19509" lon="14.2180242"><ele>514.0</ele><time>2026-05-01T12:31:57.593Z</time></trkpt><trkpt lat="42.1950263" lon="14.2180858"><ele>515.0</ele><time>2026-05-01T12:31:58.612Z</time></trkpt><trkpt lat="42.1949292" lon="14.2181687"><ele>516.0</ele><time>2026-05-01T12:32:00.627Z</time></trkpt><trkpt lat="42.1948732" lon="14.2182435"><ele>517.0</ele><time>2026-05-01T12:32:02.615Z</time></trkpt><trkpt lat="42.1948679" lon="14.2183835"><ele>518.0</ele><time>2026-05-01T12:32:05.631Z</time></trkpt><trkpt lat="42.1948815" lon="14.2185208"><ele>519.0</ele><time>2026-05-01T12:32:07.519Z</time></trkpt><trkpt lat="42.1948173" lon="14.2186946"><ele>519.4</ele><time>2026-05-01T12:32:09.522Z</time></trkpt><trkpt lat="42.1947878" lon="14.2188195"><ele>519.8</ele><time>2026-05-01T12:32:10.513Z</time></trkpt><trkpt lat="42.1947859" lon="14.2189501"><ele>520.2</ele><time>2026-05-01T12:32:11.508Z</time></trkpt><trkpt lat="42.1948018" lon="14.2190763"><ele>520.6</ele><time>2026-05-01T12:32:12.511Z</time></trkpt><trkpt lat="42.1948398" lon="14.2192366"><ele>521.0</ele><time>2026-05-01T12:32:13.514Z</time></trkpt><trkpt lat="42.1948743" lon="14.2194096"><ele>521.0</ele><time>2026-05-01T12:32:14.514Z</time></trkpt><trkpt lat="42.1949004" lon="14.2195798"><ele>521.0</ele><time>2026-05-01T12:32:15.517Z</time></trkpt><trkpt lat="42.1949185" lon="14.219752"><ele>521.0</ele><time>2026-05-01T12:32:16.516Z</time></trkpt><trkpt lat="42.1949304" lon="14.2199169"><ele>521.0</ele><time>2026-05-01T12:32:17.516Z</time></trkpt><trkpt lat="42.1949503" lon="14.2200707"><ele>521.6</ele><time>2026-05-01T12:32:18.514Z</time></trkpt><trkpt lat="42.1949489" lon="14.2202191"><ele>522.2</ele><time>2026-05-01T12:32:19.513Z</time></trkpt><trkpt lat="42.1949247" lon="14.2203629"><ele>522.8</ele><time>2026-05-01T12:32:20.508Z</time></trkpt><trkpt lat="42.1948852" lon="14.220485"><ele>523.4</ele><time>2026-05-01T12:32:21.512Z</time></trkpt><trkpt lat="42.1948216" lon="14.2205739"><ele>524.0</ele><time>2026-05-01T12:32:22.521Z</time></trkpt><trkpt lat="42.1947375" lon="14.2206054"><ele>526.0</ele><time>2026-05-01T12:32:23.51Z</time></trkpt><trkpt lat="42.1946622" lon="14.2205944"><ele>528.0</ele><time>2026-05-01T12:32:24.512Z</time></trkpt><trkpt lat="42.1946017" lon="14.2205663"><ele>530.0</ele><time>2026-05-01T12:32:25.518Z</time></trkpt><trkpt lat="42.1945653" lon="14.2204721"><ele>532.0</ele><time>2026-05-01T12:32:26.51Z</time></trkpt><trkpt lat="42.1945383" lon="14.2203388"><ele>534.0</ele><time>2026-05-01T12:32:27.506Z</time></trkpt><trkpt lat="42.1945083" lon="14.2201806"><ele>536.0</ele><time>2026-05-01T12:32:28.506Z</time></trkpt><trkpt lat="42.1944648" lon="14.2200259"><ele>536.0</ele><time>2026-05-01T12:32:29.504Z</time></trkpt><trkpt lat="42.1943939" lon="14.2198854"><ele>536.0</ele><time>2026-05-01T12:32:30.512Z</time></trkpt><trkpt lat="42.1942985" lon="14.2197552"><ele>536.0</ele><time>2026-05-01T12:32:31.509Z</time></trkpt><trkpt lat="42.1941924" lon="14.219659"><ele>536.0</ele><time>2026-05-01T12:32:32.505Z</time></trkpt><trkpt lat="42.1940881" lon="14.2195925"><ele>537.25</ele><time>2026-05-01T12:32:33.505Z</time></trkpt><trkpt lat="42.1939802" lon="14.2195275"><ele>538.5</ele><time>2026-05-01T12:32:34.505Z</time></trkpt><trkpt lat="42.1938735" lon="14.2194658"><ele>539.75</ele><time>2026-05-01T12:32:35.506Z</time></trkpt><trkpt lat="42.1937714" lon="14.2193857"><ele>541.0</ele><time>2026-05-01T12:32:36.513Z</time></trkpt><trkpt lat="42.1936614" lon="14.219323"><ele>541.0</ele><time>2026-05-01T12:32:37.507Z</time></trkpt><trkpt lat="42.1935556" lon="14.2192683"><ele>541.0</ele><time>2026-05-01T12:32:38.506Z</time></trkpt><trkpt lat="42.1934424" lon="14.2192272"><ele>541.0</ele><time>2026-05-01T12:32:39.502Z</time></trkpt><trkpt lat="42.1933307" lon="14.2191935"><ele>541.0</ele><time>2026-05-01T12:32:40.503Z</time></trkpt><trkpt lat="42.1932195" lon="14.2192238"><ele>540.25</ele><time>2026-05-01T12:32:41.506Z</time></trkpt><trkpt lat="42.1931036" lon="14.2192737"><ele>539.5</ele><time>2026-05-01T12:32:42.502Z</time></trkpt><trkpt lat="42.193004" lon="14.2193676"><ele>538.75</ele><time>2026-05-01T12:32:43.494Z</time></trkpt><trkpt lat="42.1929121" lon="14.2194696"><ele>538.0</ele><time>2026-05-01T12:32:44.497Z</time></trkpt><trkpt lat="42.1928433" lon="14.2195732"><ele>538.0</ele><time>2026-05-01T12:32:45.501Z</time></trkpt><trkpt lat="42.1928179" lon="14.2196854"><ele>538.0</ele><time>2026-05-01T12:32:46.505Z</time></trkpt><trkpt lat="42.1928438" lon="14.2197985"><ele>538.0</ele><time>2026-05-01T12:32:47.505Z</time></trkpt><trkpt lat="42.1929053" lon="14.2199046"><ele>538.0</ele><time>2026-05-01T12:32:48.506Z</time></trkpt><trkpt lat="42.1929834" lon="14.220002"><ele>538.0</ele><time>2026-05-01T12:32:49.503Z</time></trkpt><trkpt lat="42.1930853" lon="14.2200746"><ele>541.0</ele><time>2026-05-01T12:32:50.507Z</time></trkpt><trkpt lat="42.193187" lon="14.2201281"><ele>544.0</ele><time>2026-05-01T12:32:51.505Z</time></trkpt><trkpt lat="42.1933133" lon="14.220182"><ele>547.0</ele><time>2026-05-01T12:32:52.514Z</time></trkpt><trkpt lat="42.1934416" lon="14.2202433"><ele>550.0</ele><time>2026-05-01T12:32:53.513Z</time></trkpt><trkpt lat="42.1935558" lon="14.2202981"><ele>550.0</ele><time>2026-05-01T12:32:54.517Z</time></trkpt><trkpt lat="42.1936624" lon="14.2203415"><ele>550.0</ele><time>2026-05-01T12:32:55.518Z</time></trkpt><trkpt lat="42.1937528" lon="14.2204077"><ele>550.0</ele><time>2026-05-01T12:32:56.523Z</time></trkpt><trkpt lat="42.193824" lon="14.2204801"><ele>550.0</ele><time>2026-05-01T12:32:57.524Z</time></trkpt><trkpt lat="42.1938392" lon="14.2206186"><ele>550.0</ele><time>2026-05-01T12:32:59.529Z</time></trkpt><trkpt lat="42.1937137" lon="14.2206557"><ele>550.0</ele><time>2026-05-01T12:33:01.53Z</time></trkpt><trkpt lat="42.1936372" lon="14.2206292"><ele>550.0</ele><time>2026-05-01T12:33:02.522Z</time></trkpt><trkpt lat="42.1935579" lon="14.2205858"><ele>550.0</ele><time>2026-05-01T12:33:03.519Z</time></trkpt><trkpt lat="42.1934606" lon="14.2205326"><ele>550.0</ele><time>2026-05-01T12:33:04.521Z</time></trkpt><trkpt lat="42.1933732" lon="14.2204805"><ele>550.0</ele><time>2026-05-01T12:33:05.518Z</time></trkpt><trkpt lat="42.193297" lon="14.2204465"><ele>550.0</ele><time>2026-05-01T12:33:06.515Z</time></trkpt><trkpt lat="42.1932049" lon="14.2203767"><ele>550.0</ele><time>2026-05-01T12:33:08.512Z</time></trkpt><trkpt lat="42.1931614" lon="14.2203126"><ele>550.0</ele><time>2026-05-01T12:40:31.539Z</time></trkpt><trkpt lat="42.1930995" lon="14.220339"><ele>550.0</ele><time>2026-05-01T12:41:47.525Z</time></trkpt><trkpt lat="42.1931074" lon="14.2204283"><ele>550.0</ele><time>2026-05-01T12:41:50.512Z</time></trkpt><trkpt lat="42.1932008" lon="14.2204746"><ele>550.0</ele><time>2026-05-01T12:41:52.525Z</time></trkpt><trkpt lat="42.1932783" lon="14.2205049"><ele>550.0</ele><time>2026-05-01T12:41:54.518Z</time></trkpt><trkpt lat="42.193341" lon="14.2205544"><ele>550.0</ele><time>2026-05-01T12:42:04.524Z</time></trkpt><trkpt lat="42.1933531" lon="14.2206496"><ele>551.0</ele><time>2026-05-01T12:42:08.512Z</time></trkpt><trkpt lat="42.1933174" lon="14.2207646"><ele>552.0</ele><time>2026-05-01T12:42:10.526Z</time></trkpt><trkpt lat="42.1932886" lon="14.2208935"><ele>553.0</ele><time>2026-05-01T12:42:12.51Z</time></trkpt><trkpt lat="42.1932576" lon="14.2209878"><ele>554.0</ele><time>2026-05-01T12:42:18.512Z</time></trkpt><trkpt lat="42.193191" lon="14.2210029"><ele>555.0</ele><time>2026-05-01T12:42:23.512Z</time></trkpt><trkpt lat="42.1930978" lon="14.2209963"><ele>556.0</ele><time>2026-05-01T12:42:25.515Z</time></trkpt><trkpt lat="42.1929893" lon="14.2209622"><ele>558.3333333333334</ele><time>2026-05-01T12:42:27.492Z</time></trkpt><trkpt lat="42.1929237" lon="14.2209411"><ele>560.6666666666667</ele><time>2026-05-01T12:42:28.496Z</time></trkpt><trkpt lat="42.1928417" lon="14.220908"><ele>563.0</ele><time>2026-05-01T12:42:29.496Z</time></trkpt><trkpt lat="42.1927686" lon="14.2208833"><ele>565.3333333333334</ele><time>2026-05-01T12:42:30.495Z</time></trkpt><trkpt lat="42.1926974" lon="14.22086"><ele>567.6666666666666</ele><time>2026-05-01T12:42:31.501Z</time></trkpt><trkpt lat="42.1926315" lon="14.2208694"><ele>570.0</ele><time>2026-05-01T12:42:32.491Z</time></trkpt><trkpt lat="42.1925351" lon="14.2208777"><ele>570.0</ele><time>2026-05-01T12:42:34.492Z</time></trkpt><trkpt lat="42.1924361" lon="14.2208672"><ele>570.0</ele><time>2026-05-01T12:42:37.504Z</time></trkpt><trkpt lat="42.1923458" lon="14.220851"><ele>570.0</ele><time>2026-05-01T12:42:39.501Z</time></trkpt><trkpt lat="42.1922535" lon="14.2208202"><ele>570.0</ele><time>2026-05-01T12:42:41.508Z</time></trkpt><trkpt lat="42.1921691" lon="14.2207521"><ele>570.0</ele><time>2026-05-01T12:42:43.496Z</time></trkpt><trkpt lat="42.1921031" lon="14.2207324"><ele>570.6666666666666</ele><time>2026-05-01T12:42:44.497Z</time></trkpt><trkpt lat="42.1919787" lon="14.2206826"><ele>571.3333333333334</ele><time>2026-05-01T12:42:46.492Z</time></trkpt><trkpt lat="42.1919099" lon="14.2206799"><ele>572.0</ele><time>2026-05-01T12:42:47.491Z</time></trkpt><trkpt lat="42.1918275" lon="14.2206801"><ele>572.6666666666667</ele><time>2026-05-01T12:42:48.485Z</time></trkpt><trkpt lat="42.1917505" lon="14.2206742"><ele>573.3333333333334</ele><time>2026-05-01T12:42:49.492Z</time></trkpt><trkpt lat="42.1916764" lon="14.2206656"><ele>574.0</ele><time>2026-05-01T12:42:50.486Z</time></trkpt><trkpt lat="42.191563" lon="14.2206435"><ele>573.1428571428571</ele><time>2026-05-01T12:42:52.495Z</time></trkpt><trkpt lat="42.1914917" lon="14.2206309"><ele>572.2857142857142</ele><time>2026-05-01T12:42:53.493Z</time></trkpt><trkpt lat="42.191423" lon="14.2206093"><ele>571.4285714285714</ele><time>2026-05-01T12:42:54.493Z</time></trkpt><trkpt lat="42.1913605" lon="14.2205795"><ele>570.5714285714286</ele><time>2026-05-01T12:42:55.492Z</time></trkpt><trkpt lat="42.1912921" lon="14.2205369"><ele>569.7142857142857</ele><time>2026-05-01T12:42:57.501Z</time></trkpt><trkpt lat="42.1912337" lon="14.2205033"><ele>568.8571428571429</ele><time>2026-05-01T12:43:02.52Z</time></trkpt><trkpt lat="42.1911686" lon="14.2205015"><ele>568.0</ele><time>2026-05-01T12:43:06.52Z</time></trkpt><trkpt lat="42.1911109" lon="14.2205369"><ele>568.0</ele><time>2026-05-01T12:43:10.522Z</time></trkpt></trkseg></trk></gpx>